GFSSE_sfc_wetblb_000.txt.gz
Wetbulb
65.61 68.61 71.86 71.82 72.49 71.30 70.11 68.96 67.90 67.37 66.83 65.54 65.06 66.52 66.86 67.28 66.17 66.03 66.12 66.19 67.05 66.04 65.96 66.05 65.80 66.47 67.46 66.60 67.13 67.56 67.08 66.58 65.68 65.45 66.11 66.08 65.73 66.56 66.71 67.61 68.13 67.26 67.21
67.60 68.94 72.28 72.60 72.33 70.80 69.38 68.64 67.43 66.81 66.67 66.39 65.84 67.18 67.18 67.35 67.03 66.29 66.38 66.49 66.86 65.98 65.44 65.36 65.61 66.25 66.75 67.01 67.90 67.32 66.42 65.76 64.66 64.14 66.26 66.75 66.79 66.13 67.34 66.55 65.86 65.25 68.53
67.34 69.03 71.30 72.72 71.86 70.53 69.13 68.03 67.76 66.91 66.93 66.63 65.81 67.10 67.83 66.68 66.00 65.79 65.43 64.84 65.67 66.15 65.26 64.49 64.89 65.14 64.74 65.77 67.23 66.84 65.60 64.92 64.06 64.63 66.65 62.99 63.82 66.37 65.83 65.65 66.29 67.23 67.58
67.86 68.64 70.46 72.76 71.84 70.30 69.06 68.06 67.39 66.43 66.65 66.13 66.63 67.15 67.93 67.07 65.76 65.93 65.75 64.69 63.49 64.28 63.93 63.65 64.07 64.44 64.09 64.47 65.23 65.42 64.91 63.66 63.57 64.71 62.26 64.80 64.08 65.89 66.35 65.42 65.36 65.60 66.19
67.07 67.92 70.43 72.82 71.40 70.23 68.81 67.94 67.23 66.33 66.73 66.26 67.88 67.68 67.53 66.78 65.41 65.25 64.30 63.40 63.59 63.47 62.82 62.83 63.18 63.50 63.36 64.84 64.50 65.09 63.27 62.59 63.47 63.48 61.57 63.93 61.28 64.29 64.38 64.59 63.84 63.90 64.36
65.10 68.30 71.66 72.77 71.49 70.65 69.82 68.14 67.44 66.71 66.76 66.30 66.28 67.49 67.05 66.83 65.91 64.63 63.23 62.70 63.02 62.75 62.71 62.03 62.23 62.72 62.93 63.30 63.44 63.49 62.25 62.30 63.26 58.93 61.32 63.09 60.62 64.31 64.49 63.79 63.53 63.22 63.13
64.33 68.33 70.26 72.97 71.06 70.16 68.57 68.34 67.30 66.72 67.04 66.32 66.22 66.08 65.46 66.30 65.16 64.43 63.98 63.49 63.77 63.60 62.87 62.26 62.18 62.27 63.00 62.58 63.47 63.18 61.82 62.04 59.75 57.67 59.58 59.89 60.39 63.77 63.24 62.61 62.63 62.47 61.85
64.29 67.92 69.53 70.79 70.44 70.19 69.08 68.30 68.01 67.77 67.51 67.22 66.42 65.52 64.68 63.90 64.71 64.40 64.13 65.19 64.54 64.10 63.03 62.12 61.98 62.47 62.85 62.61 62.41 62.38 61.08 61.97 58.73 57.28 59.56 59.13 63.37 62.94 62.36 61.71 61.75 61.83 61.50
64.71 65.57 67.55 67.55 68.53 69.37 69.50 68.81 68.71 67.82 68.08 68.18 66.39 65.35 65.72 65.90 65.36 65.12 65.37 65.60 65.42 63.53 62.33 61.34 60.61 61.52 62.86 63.04 62.47 62.45 60.92 61.70 57.70 57.08 59.77 59.19 64.27 62.05 61.77 60.41 60.38 60.90 60.61
62.93 63.77 64.23 65.87 66.18 64.27 63.40 68.53 68.04 68.24 67.78 67.92 67.33 66.69 65.67 65.62 66.07 66.01 65.74 65.79 64.92 63.27 61.92 60.04 59.70 60.69 62.50 63.33 62.86 61.84 62.28 61.61 54.86 55.89 58.04 59.93 63.17 61.92 61.08 59.86 58.93 59.02 59.04
62.66 62.26 62.07 63.48 64.12 63.65 63.02 65.49 67.53 67.92 67.08 67.08 66.03 65.12 64.27 61.64 62.81 63.51 64.14 65.10 64.42 63.35 61.86 59.97 60.12 60.97 61.26 61.72 61.71 62.44 62.59 56.75 52.48 55.74 58.28 64.08 62.87 62.28 61.26 60.37 58.88 58.59 58.90
60.77 61.55 62.08 62.14 62.60 62.30 63.07 63.91 61.80 63.98 63.45 62.94 62.47 62.14 61.32 60.17 60.77 63.04 63.36 64.52 63.87 63.60 62.65 60.90 60.26 60.62 60.64 53.98 54.29 61.30 57.78 54.29 52.28 54.69 58.76 64.29 63.27 63.32 62.70 61.51 60.35 59.57 59.50
61.38 61.97 62.77 62.44 62.71 61.66 59.31 62.54 62.36 61.59 61.99 61.98 61.22 60.59 60.96 60.95 60.21 60.11 60.42 60.99 60.32 62.45 60.06 59.54 58.00 56.98 54.32 52.96 53.41 55.81 55.00 52.63 50.53 51.34 59.05 64.46 63.39 63.58 64.08 63.51 62.60 61.32 60.93
60.55 61.65 62.71 62.97 62.56 61.86 60.36 58.34 59.89 60.47 61.33 60.39 61.05 60.54 59.78 58.67 58.12 58.42 58.18 59.32 58.24 58.60 58.32 56.91 55.20 55.06 53.20 52.79 51.94 50.75 51.79 51.39 50.71 49.55 54.83 63.74 63.55 63.02 63.66 64.15 63.96 63.26 61.95
59.34 60.75 61.75 62.51 62.48 62.78 60.74 58.72 58.47 59.56 60.08 60.22 60.33 60.33 59.79 58.85 57.50 57.17 57.24 57.56 56.76 56.66 56.36 55.62 54.91 54.11 53.72 52.45 51.86 51.29 50.25 49.57 50.01 50.09 48.59 61.80 63.77 63.22 62.82 63.27 63.47 63.78 63.54
58.78 59.75 61.58 63.33 63.10 63.50 63.03 61.18 59.24 59.26 59.62 59.53 59.65 60.24 60.18 59.32 58.57 57.40 56.67 57.12 56.74 56.61 56.63 56.17 54.77 54.11 54.22 54.94 53.88 51.80 50.54 50.27 50.19 49.99 50.36 52.09 62.33 62.80 61.20 61.51 62.29 62.64 63.06
59.42 60.34 60.35 61.66 64.53 63.53 63.00 63.15 61.84 60.65 60.97 59.43 59.35 60.02 60.30 59.84 59.05 58.49 56.70 56.29 57.25 57.66 57.72 57.06 56.44 55.63 54.46 55.37 54.65 54.06 51.68 50.26 50.28 50.24 50.37 50.35 54.52 60.50 61.11 60.72 60.93 61.32 61.90
60.62 59.97 60.34 62.23 62.76 64.11 63.50 63.09 63.23 62.69 61.18 60.67 59.89 59.63 60.22 60.63 59.75 59.02 57.99 56.81 57.57 57.71 57.43 56.94 56.65 55.69 55.14 54.53 54.01 54.23 53.06 51.94 51.02 50.38 50.52 51.04 50.93 53.32 58.42 61.47 62.04 61.44 61.56
59.98 60.69 60.69 60.64 60.43 62.16 63.67 63.76 63.34 63.38 62.45 61.71 61.20 60.44 60.33 60.97 60.94 60.33 59.82 58.84 57.81 57.42 57.61 57.49 56.66 55.76 54.89 54.89 54.75 53.99 54.04 53.66 52.70 54.04 51.28 50.57 50.11 51.64 51.11 57.21 60.14 60.64 61.60
57.24 58.67 60.03 61.33 60.94 60.77 61.83 63.21 63.11 62.95 62.80 62.64 62.79 62.61 61.48 61.60 61.24 60.66 60.55 60.34 59.20 57.88 57.91 57.60 56.43 56.08 55.63 55.38 57.55 56.90 54.39 54.67 54.55 54.06 53.90 54.71 52.91 51.91 50.99 50.60 52.55 56.92 59.99
53.19 54.64 57.37 58.49 60.41 60.92 60.82 60.89 61.50 61.71 61.52 62.22 63.14 63.30 63.14 62.68 61.94 61.17 60.91 60.62 60.68 59.30 58.23 58.46 57.96 56.64 56.65 55.85 54.30 53.91 54.23 54.80 53.74 54.19 53.74 54.40 54.42 53.71 51.82 52.86 52.73 52.63 53.90
53.32 53.64 54.26 56.33 58.62 59.91 60.72 61.38 61.74 62.02 62.54 63.24 63.65 63.81 63.96 63.50 63.09 62.14 61.44 60.97 60.85 60.71 59.99 58.56 58.27 57.41 57.44 56.75 55.01 52.18 51.29 52.11 54.98 56.39 56.90 56.63 56.22 56.41 55.12 53.40 51.45 52.08 52.23
52.94 52.97 54.58 55.01 55.90 59.08 59.95 60.59 60.59 61.04 60.88 60.44 61.59 61.99 62.68 63.10 63.28 63.03 62.54 61.93 61.41 61.40 60.97 60.50 59.10 57.89 56.75 56.73 58.06 55.62 49.60 48.92 48.87 52.18 54.44 56.06 56.24 53.35 53.02 52.68 52.42 52.32 51.98
52.96 54.00 54.51 54.52 54.85 56.57 58.27 58.96 58.83 58.40 58.34 59.89 60.47 61.26 61.92 62.76 63.06 63.32 63.20 62.70 62.31 62.53 61.92 61.78 61.67 60.04 59.63 57.84 57.92 58.51 57.08 53.39 48.87 48.79 50.86 50.43 51.12 51.86 52.18 52.13 52.95 52.81 54.31
53.08 52.64 52.96 54.19 54.71 55.25 54.92 54.95 55.84 58.11 59.10 59.98 60.47 60.05 60.08 60.98 63.13 63.17 63.10 62.67 62.66 63.29 63.57 62.77 62.76 62.08 61.28 59.48 58.22 57.72 57.28 56.33 55.68 52.78 50.92 52.72 52.49 52.83 53.06 54.06 54.53 54.02 55.08
52.21 52.20 51.97 52.10 52.30 52.93 54.48 56.02 55.62 54.39 54.77 55.88 56.74 57.23 57.96 58.93 59.87 61.64 62.74 62.63 62.74 62.88 63.03 63.16 63.22 62.59 61.53 60.59 59.96 59.04 58.14 55.84 54.90 54.10 52.70 52.80 52.65 54.54 54.68 55.85 55.20 55.46 55.47

GFSSE_sfc_wetblb_003.txt.gz
Wetbulb
65.34 68.04 72.56 72.42 72.97 72.18 71.05 69.99 69.00 67.78 67.16 65.71 67.23 66.81 66.96 67.41 66.47 66.30 66.71 67.00 66.67 66.36 65.83 65.97 66.17 68.04 67.28 67.08 68.20 67.73 67.04 66.19 65.49 65.84 65.37 65.63 66.23 66.53 67.55 66.84 66.83 66.96 67.72
66.75 69.24 72.79 72.48 72.84 71.82 70.43 69.33 68.45 67.80 66.98 66.37 66.27 66.67 67.85 67.78 67.03 66.84 67.39 67.52 67.03 65.92 65.87 64.90 65.88 67.04 66.05 66.77 67.89 66.98 66.16 64.87 64.00 64.50 66.13 66.99 67.27 67.09 66.52 65.89 66.22 67.49 68.53
67.44 69.68 71.05 73.44 72.36 70.82 70.01 69.00 68.04 67.02 67.13 66.71 66.37 68.09 68.41 67.80 66.77 66.05 65.94 65.69 66.79 66.04 65.20 64.69 65.16 65.86 64.91 67.09 67.73 66.79 65.03 63.90 63.87 64.58 66.01 62.83 63.09 65.86 65.97 66.00 66.85 67.39 67.95
67.98 69.69 70.91 73.43 72.46 70.65 69.39 68.93 68.00 67.74 67.23 67.00 67.33 68.77 68.70 68.08 67.17 66.58 66.01 64.86 64.11 64.91 64.28 64.34 64.00 64.11 63.92 63.98 66.01 65.19 63.98 63.43 64.31 65.27 61.92 64.07 63.17 66.04 64.99 64.73 65.24 66.14 66.33
67.40 69.23 71.08 73.22 72.57 70.72 69.57 68.69 67.85 67.10 67.48 67.00 68.43 68.18 68.48 67.74 66.57 65.63 64.72 63.86 64.07 63.80 63.50 63.40 63.42 64.03 63.49 63.26 65.15 64.31 62.44 62.62 63.72 62.76 61.95 61.04 61.32 63.11 64.23 63.78 63.66 63.79 63.88
64.38 66.74 72.05 73.16 72.17 71.43 70.54 68.75 68.01 67.15 66.97 67.19 68.53 68.38 67.33 67.95 66.58 64.90 63.98 63.24 63.68 63.33 62.97 62.48 62.79 62.96 62.87 63.10 63.72 63.60 62.07 62.21 62.86 57.07 60.48 62.04 59.74 64.50 64.19 63.47 63.10 63.02 62.54
65.86 69.04 71.27 73.13 72.30 71.23 69.51 68.94 68.19 67.57 67.49 67.12 67.91 67.34 66.54 66.82 65.30 65.42 64.58 64.11 64.24 63.89 63.26 62.66 62.53 62.82 63.22 62.94 63.93 63.70 62.55 61.96 58.74 55.17 59.36 59.34 60.26 64.02 63.50 62.96 62.53 61.75 61.85
66.30 68.90 70.73 71.83 71.53 70.97 70.27 69.57 68.65 67.81 68.08 67.40 66.96 66.74 65.90 65.67 65.76 65.94 64.64 65.27 65.06 65.10 64.34 63.09 62.58 62.91 63.66 63.14 63.15 63.57 62.24 62.22 58.90 55.01 58.44 59.02 63.45 63.93 63.05 62.24 61.84 61.87 61.26
67.44 68.37 68.98 68.68 68.94 70.27 70.09 69.66 69.33 69.43 68.05 68.54 67.06 66.50 66.27 66.16 65.88 65.67 65.53 66.10 65.59 65.58 63.93 62.99 62.03 62.39 63.73 63.82 63.27 63.44 62.21 62.28 57.80 54.97 59.01 58.43 64.92 63.73 62.79 61.40 61.31 61.32 61.27
65.09 66.97 66.62 67.16 67.12 66.19 66.24 69.06 69.23 68.67 68.13 68.31 68.11 67.07 65.96 65.39 66.45 66.97 66.98 66.85 66.15 65.08 63.89 62.78 61.31 61.05 62.07 63.53 63.85 63.04 63.34 62.58 56.21 53.09 56.92 58.08 63.83 63.61 62.83 61.26 60.59 60.55 60.68
61.21 62.44 65.75 65.82 65.54 64.15 62.83 66.17 67.98 67.86 67.20 67.31 66.75 65.87 64.46 61.81 63.16 64.62 64.92 66.05 66.14 64.76 63.79 62.31 60.68 61.20 63.28 63.81 63.76 63.53 63.08 57.83 54.02 51.98 55.69 63.40 64.26 63.62 62.99 62.14 60.77 60.17 60.23
59.40 60.11 61.83 64.53 64.49 63.47 64.10 63.72 63.41 64.49 63.84 63.83 63.39 62.61 61.33 60.56 60.12 63.25 63.38 65.57 65.38 64.79 64.27 62.70 61.20 61.77 62.10 55.11 55.49 61.91 57.70 56.27 52.96 52.10 55.63 64.74 64.67 63.77 63.42 62.32 61.45 60.62 60.39
59.59 59.94 61.08 60.80 62.94 62.44 61.36 62.89 60.98 61.73 61.61 61.88 61.17 61.11 60.60 60.90 59.48 61.02 60.85 61.92 60.93 62.24 60.50 60.65 58.09 56.41 54.98 53.44 51.24 52.10 56.03 54.06 51.27 50.38 56.57 65.92 65.20 64.80 64.21 63.98 63.37 62.56 61.91
59.34 60.65 61.59 61.48 60.76 60.60 59.41 61.72 60.80 60.45 60.94 60.69 61.01 60.13 59.79 58.70 57.85 58.07 59.90 59.35 58.93 59.60 59.42 58.13 56.43 55.48 54.62 52.51 51.13 52.33 54.24 52.75 50.50 49.48 50.44 65.18 65.69 65.27 64.81 64.87 65.00 64.67 64.03
58.85 60.23 61.29 61.56 61.04 60.29 58.77 58.82 59.30 60.05 60.95 60.60 60.05 60.14 59.64 58.66 56.63 56.94 57.50 57.37 58.46 57.80 58.77 56.67 56.53 54.75 53.87 51.93 51.02 50.28 49.83 49.93 50.10 49.20 46.99 61.79 64.89 65.60 64.58 64.59 64.82 65.18 65.21
57.36 59.83 61.15 62.07 61.34 61.59 59.89 57.43 57.35 57.37 58.83 59.22 58.90 59.27 59.01 58.99 57.74 56.49 56.14 56.90 56.70 56.96 56.70 56.23 55.26 54.92 52.67 52.25 51.26 50.66 49.93 49.06 48.23 48.08 48.10 48.36 63.27 64.59 64.63 63.84 64.30 64.50 64.66
57.36 58.28 59.97 62.15 62.88 61.75 61.53 60.05 58.28 57.97 58.73 58.44 58.38 58.88 59.06 58.97 58.21 57.92 56.71 56.22 56.81 56.21 55.37 55.03 54.81 53.69 52.42 52.78 52.50 53.47 51.85 49.89 49.40 48.87 48.22 48.20 50.88 61.71 63.47 62.40 62.94 63.02 63.75
57.70 57.51 59.18 63.09 63.32 62.58 61.88 61.89 61.19 59.91 58.90 58.71 58.66 58.62 59.29 59.73 58.82 58.06 58.04 57.19 56.49 56.51 56.54 55.71 55.71 54.92 53.95 53.38 52.53 53.10 53.44 50.95 49.39 49.08 49.53 49.74 49.53 51.55 58.39 62.62 62.76 63.92 64.47
56.94 58.12 57.82 59.49 62.07 62.98 63.18 63.23 61.91 61.95 60.43 59.64 58.83 58.77 59.09 59.42 59.79 59.25 59.10 58.83 55.69 56.06 56.83 56.89 56.03 55.90 55.14 55.07 54.78 54.31 54.04 53.82 53.44 53.90 50.78 50.05 50.10 51.06 50.69 55.87 60.50 60.90 62.09
51.81 53.54 56.99 58.59 59.62 62.86 63.29 62.90 61.65 61.34 61.88 60.00 60.35 60.08 58.88 59.51 59.47 59.10 59.47 58.97 56.78 56.26 56.51 55.76 56.42 55.30 56.41 56.26 56.51 56.58 54.65 55.09 54.78 54.23 54.48 53.32 52.31 50.89 50.52 50.59 51.62 56.10 59.89
52.19 52.52 52.40 54.51 58.01 59.43 58.83 60.34 60.28 61.59 60.43 60.55 60.54 60.91 60.43 59.94 59.45 58.55 59.45 58.43 58.13 58.02 57.35 56.73 57.07 55.93 56.35 54.26 53.43 54.76 54.40 54.53 54.16 54.90 55.27 54.72 54.69 53.53 52.11 51.54 50.77 51.05 53.11
51.93 51.96 52.64 53.34 54.01 57.57 58.93 60.11 60.92 60.62 60.68 61.34 61.93 62.06 61.75 61.41 60.85 59.74 59.64 59.58 59.29 59.29 58.69 57.09 56.76 56.70 56.97 55.64 54.79 50.83 52.02 52.96 54.79 56.60 56.18 54.16 53.95 54.68 54.29 53.33 52.96 52.21 51.65
51.06 51.45 53.23 52.78 53.47 54.88 58.28 59.61 59.59 59.88 59.44 59.40 59.69 60.45 61.85 62.19 62.42 61.86 61.84 60.65 60.22 59.82 59.64 59.45 58.06 57.02 56.28 55.88 56.44 55.18 51.14 49.27 47.72 50.66 53.97 56.10 55.97 55.72 55.35 55.38 54.55 52.87 52.25
50.51 50.36 51.29 52.35 53.32 55.11 54.20 55.06 56.54 56.70 56.68 58.05 58.83 59.57 60.37 61.50 62.31 62.69 62.65 62.16 61.01 60.92 60.46 60.59 60.97 59.35 58.24 57.11 56.51 57.36 57.19 51.70 48.55 48.12 49.94 50.24 52.51 54.20 54.71 54.71 54.65 53.15 52.23
50.60 49.67 49.89 50.99 51.59 51.73 52.26 53.81 53.24 52.92 54.94 56.64 57.33 57.58 58.09 58.88 60.42 61.90 62.32 62.22 61.70 61.86 61.70 62.23 62.41 62.03 61.08 59.12 58.48 57.90 56.16 56.56 55.75 53.30 51.82 53.41 50.57 51.01 52.08 52.69 53.63 52.76 52.58
49.57 49.70 49.93 50.69 50.67 50.91 50.92 50.41 50.11 50.08 52.00 53.52 54.81 55.35 56.24 57.24 58.31 59.09 61.21 61.86 62.12 62.17 61.97 62.47 62.87 62.77 62.50 61.95 60.97 59.82 58.12 55.16 55.15 54.07 53.29 53.52 53.79 55.10 53.46 52.64 53.05 53.26 53.22

GFSSE_sfc_wetblb_006.txt.gz
Wetbulb
63.89 66.92 72.71 73.12 72.98 72.39 71.37 70.19 69.23 67.93 67.23 66.41 66.93 66.62 66.44 66.96 66.02 66.54 66.37 66.54 65.96 65.43 65.55 65.58 66.34 68.31 67.46 68.14 68.10 67.24 66.27 65.23 65.87 65.13 64.78 65.34 65.52 66.91 66.68 66.08 67.41 66.24 66.95
65.86 68.50 72.85 72.65 73.01 72.19 71.09 70.06 68.90 67.92 66.56 65.78 66.24 66.24 67.29 67.47 66.78 66.66 66.94 66.95 66.33 65.46 64.90 65.09 65.45 66.68 66.32 66.61 67.83 66.22 65.45 64.29 64.43 64.50 65.15 66.79 67.20 65.92 65.36 65.75 67.63 66.99 68.41
66.59 69.06 70.93 73.14 72.82 71.76 70.47 69.31 68.66 67.55 66.77 66.02 66.91 67.23 68.64 67.69 66.64 66.16 65.70 65.86 66.89 66.02 64.12 64.07 64.93 65.90 65.75 68.19 67.53 66.07 64.28 63.53 63.29 64.05 64.92 62.51 62.34 65.67 65.61 66.37 66.79 67.74 67.83
67.92 69.21 69.62 73.52 72.22 71.02 70.28 69.02 68.02 67.33 67.13 66.51 66.88 68.29 68.55 67.89 67.05 66.54 65.57 64.56 64.35 64.29 64.02 64.37 64.33 64.11 63.74 65.62 66.53 65.40 63.72 63.01 63.55 64.52 61.43 62.90 62.38 65.46 64.70 64.82 65.63 66.20 66.13
67.62 69.34 70.63 73.42 72.38 70.79 69.67 69.22 67.88 67.62 66.98 66.96 67.39 68.42 68.94 67.85 67.28 66.05 64.85 64.10 63.75 63.83 63.37 64.11 63.31 63.90 63.19 63.17 64.92 64.24 62.64 62.66 63.83 59.75 59.99 61.08 60.87 63.11 64.04 63.60 64.09 64.16 63.76
66.19 68.25 71.91 73.12 72.30 71.37 69.73 68.91 67.84 67.12 67.43 67.25 68.60 68.91 68.34 67.91 67.21 64.98 64.19 64.12 63.74 63.34 63.01 62.85 63.28 63.01 63.59 63.25 63.80 63.74 62.08 62.16 61.89 55.61 59.09 61.69 58.48 63.91 63.60 63.40 63.11 62.81 62.01
64.39 68.15 71.23 73.15 72.41 70.90 69.83 69.08 68.24 67.38 67.58 66.93 67.16 67.35 66.92 68.23 66.51 65.21 64.41 63.95 64.05 63.67 63.43 62.82 62.96 63.64 63.21 63.19 64.24 64.11 63.25 61.90 57.29 53.96 58.12 58.62 59.27 64.59 63.97 63.33 62.62 61.99 61.39
65.51 68.22 70.46 71.94 72.08 71.35 70.13 69.51 68.61 67.69 67.92 67.38 67.57 66.87 66.35 66.29 65.73 65.47 65.41 64.75 64.77 65.12 64.72 63.72 63.05 63.33 64.04 63.96 63.78 64.61 63.77 62.89 58.30 54.14 58.03 57.95 62.63 64.31 63.86 62.91 62.68 62.17 61.44
67.27 68.73 69.51 70.10 70.33 70.41 70.10 70.06 69.38 68.52 68.74 68.58 67.70 66.99 67.03 66.62 65.77 66.46 65.46 65.85 65.79 65.73 65.28 64.38 63.35 63.14 63.54 64.24 63.79 63.98 63.96 63.16 57.34 54.57 57.41 57.78 64.50 64.52 64.22 63.14 62.78 62.81 62.26
65.78 67.61 67.86 66.91 67.21 66.89 67.11 69.60 69.01 68.80 68.56 68.31 68.04 67.32 66.21 65.51 65.95 66.59 66.76 66.52 66.36 66.29 65.31 64.41 63.60 62.55 62.63 63.83 64.12 63.82 64.41 63.60 56.94 53.71 53.49 56.52 64.30 64.43 64.52 62.80 62.36 62.74 62.43
64.65 65.39 66.18 65.70 65.11 65.35 65.34 66.80 68.23 68.41 67.58 67.16 66.93 65.89 64.51 61.60 62.06 63.82 64.85 65.53 66.60 65.97 65.31 64.55 63.55 62.05 62.41 63.16 64.30 64.73 63.95 58.57 55.04 52.48 51.55 60.52 64.41 64.59 64.57 63.66 62.35 61.89 62.08
60.05 62.82 65.01 64.97 64.66 63.49 65.11 63.49 64.13 64.01 63.18 63.01 63.48 62.42 61.33 60.17 59.82 62.71 63.36 65.09 65.53 65.97 65.44 64.81 63.93 62.67 62.45 57.26 57.11 62.21 58.90 56.36 54.47 52.90 51.57 59.43 64.98 65.80 65.29 64.08 63.13 62.10 61.69
58.54 58.78 63.91 63.86 64.25 63.14 62.80 61.41 61.75 61.70 61.44 61.56 61.57 61.16 60.56 60.45 58.79 59.34 59.94 61.35 62.34 62.92 60.99 61.87 59.57 57.65 55.19 54.31 52.67 51.32 53.53 54.21 53.46 52.12 53.29 59.43 63.02 66.23 66.00 64.49 63.79 62.99 62.16
58.30 59.27 59.35 62.84 62.61 62.10 61.45 61.49 60.91 60.94 60.66 60.23 60.70 60.51 59.47 58.98 57.70 57.71 59.14 60.33 60.11 59.67 58.70 57.87 56.84 55.81 54.36 53.52 52.05 50.11 49.92 52.37 53.43 51.99 50.28 57.73 62.78 66.15 66.12 65.54 64.79 64.33 63.78
58.15 59.36 59.98 59.49 61.38 60.99 58.38 60.66 59.81 60.06 60.65 60.50 60.14 60.54 60.20 59.30 58.01 56.97 58.46 59.34 59.36 58.36 57.96 56.99 56.62 56.39 54.71 53.20 51.67 50.67 51.15 51.93 52.97 51.74 49.23 55.15 60.62 65.89 65.73 66.06 65.87 65.61 65.64
57.59 59.64 60.69 60.91 60.51 60.40 59.55 59.03 60.07 59.83 59.62 59.77 60.03 60.36 59.65 60.01 59.30 57.10 57.38 58.18 58.20 58.05 57.63 57.79 56.90 56.37 55.23 53.65 52.85 51.10 50.04 50.04 50.29 51.18 50.42 49.58 57.15 63.97 65.94 64.71 65.49 65.81 65.77
57.96 57.61 59.46 61.27 61.38 60.56 60.12 58.25 58.45 59.23 59.70 59.12 59.73 59.34 59.47 59.27 58.86 58.91 57.38 56.69 56.95 55.43 55.85 55.60 55.15 53.89 52.95 52.35 51.79 51.76 51.30 49.99 49.63 48.97 48.66 48.39 49.67 58.21 63.93 64.53 64.48 65.75 66.25
57.20 56.18 58.10 61.97 61.96 61.23 61.49 60.54 58.74 57.95 57.22 58.38 58.55 58.38 58.87 58.84 58.11 57.43 57.21 56.60 55.58 54.88 54.56 53.97 54.11 53.70 52.95 52.45 53.36 51.75 53.02 52.82 52.34 50.90 50.47 49.73 49.15 49.94 54.55 62.48 63.71 64.32 64.93
50.64 55.07 55.84 58.44 60.77 61.60 61.87 61.99 60.56 58.49 57.56 57.85 56.94 57.03 57.57 58.09 58.34 57.33 57.18 57.25 56.15 54.64 54.88 55.19 55.22 54.15 54.87 54.32 54.16 54.36 53.40 53.30 53.57 54.07 51.86 50.82 49.90 50.52 50.12 53.94 58.42 61.09 62.04
50.99 51.43 53.32 56.19 58.28 60.37 60.85 60.77 60.04 59.92 59.93 58.34 58.14 58.07 57.41 57.41 57.70 57.78 58.35 57.82 56.84 55.55 55.54 54.66 55.22 55.00 55.44 55.80 55.80 55.99 55.95 55.38 55.54 55.26 54.89 54.90 52.95 51.17 50.52 50.77 51.06 53.13 59.05
51.30 51.40 51.42 52.74 53.57 58.13 59.28 58.85 58.65 60.25 59.80 59.30 59.41 59.33 58.78 58.37 57.88 57.50 58.30 58.34 57.43 57.19 57.68 57.08 55.68 55.14 55.20 53.92 52.49 54.91 55.12 55.15 55.03 55.78 56.09 55.28 55.19 54.56 52.71 51.57 51.19 51.18 52.02
49.07 50.34 50.96 51.52 52.36 54.76 57.88 59.13 59.81 59.57 59.82 60.48 60.94 60.80 60.57 59.96 59.62 58.88 58.35 58.74 58.40 57.82 57.68 57.67 56.17 55.67 55.82 54.71 53.78 54.09 52.30 54.87 55.59 55.82 56.29 55.81 55.39 55.70 54.71 53.36 52.62 52.05 51.63
47.89 47.72 49.94 50.89 52.51 53.14 56.82 58.51 58.54 59.24 58.95 58.86 59.25 59.92 60.92 61.35 61.51 60.76 60.75 59.69 59.52 58.29 58.34 58.31 57.59 55.76 56.25 58.16 56.09 55.19 51.70 50.68 48.96 50.59 52.32 54.91 55.56 55.23 54.48 54.28 54.01 53.60 53.83
47.89 48.18 49.31 50.06 50.46 51.56 52.73 53.00 53.36 54.24 54.08 56.04 57.06 58.16 58.42 59.39 60.33 61.26 61.44 61.26 60.87 60.15 58.91 59.22 59.54 58.78 58.44 56.42 58.42 57.03 57.47 56.91 52.76 52.62 53.27 50.19 51.79 53.50 54.44 54.89 54.83 54.87 54.18
48.32 48.07 48.74 49.72 50.42 49.70 49.23 49.62 49.59 49.18 51.78 53.23 53.31 52.57 53.41 55.22 56.58 57.71 59.39 60.25 60.53 61.06 61.06 60.91 60.65 60.18 60.49 59.21 58.45 58.12 56.86 56.40 56.55 54.29 52.50 54.54 55.91 53.09 53.90 53.73 54.56 54.86 54.96
48.02 48.49 48.74 49.36 49.20 49.38 49.31 48.68 48.04 47.53 47.72 48.46 48.41 49.47 50.21 51.97 54.03 53.24 53.43 55.54 58.99 60.30 61.00 61.85 62.06 61.72 61.72 61.15 60.88 60.05 58.39 56.17 55.56 55.02 54.01 54.60 54.64 56.63 57.46 53.59 52.48 52.99 53.36

GFSSE_sfc_wetblb_009.txt.gz
Wetbulb
63.53 65.36 72.47 73.40 72.90 72.75 71.64 71.03 69.69 68.45 67.59 66.00 66.40 65.91 65.60 65.61 65.16 66.40 65.38 65.92 65.75 64.83 65.31 65.76 67.27 68.81 68.48 68.50 67.98 66.85 65.47 64.46 65.05 64.52 63.90 64.70 65.21 66.30 66.27 66.49 66.35 65.08 66.16
64.46 66.19 72.83 72.96 72.96 72.33 71.46 70.48 69.29 68.08 66.35 66.21 66.38 65.30 66.74 66.93 66.07 65.75 66.41 66.66 65.86 65.14 63.85 64.24 65.75 67.10 66.91 65.76 66.97 66.00 64.96 63.71 64.18 64.23 64.52 65.82 66.23 65.73 64.80 65.12 67.55 66.65 67.63
65.34 68.16 70.67 73.31 72.84 72.14 71.29 70.15 68.91 67.88 66.51 65.68 66.47 66.22 68.47 67.62 66.82 66.10 65.70 66.01 66.65 65.63 63.17 64.04 65.06 66.55 65.23 67.35 67.23 65.76 64.39 63.35 63.11 63.85 64.43 62.23 62.28 64.86 65.68 65.81 67.01 67.67 67.52
66.97 68.53 69.33 73.12 72.86 72.29 71.05 69.60 68.83 67.51 66.84 66.15 66.35 67.60 68.79 67.41 66.24 65.99 65.02 64.31 64.40 63.66 63.55 64.33 64.30 65.13 64.33 66.93 67.44 65.59 63.26 62.70 63.24 63.77 60.58 62.43 62.01 65.16 64.58 65.00 66.06 66.17 66.07
66.97 68.46 69.24 73.05 72.87 71.43 70.66 69.45 68.50 67.63 67.38 66.76 67.03 68.32 68.91 68.24 66.90 66.08 64.67 64.35 63.61 63.37 63.28 64.33 63.95 63.61 63.64 64.42 64.12 64.44 62.80 62.08 63.00 58.87 59.90 60.62 60.25 63.23 64.21 64.30 64.26 64.25 63.86
65.93 67.18 70.15 73.30 72.21 71.19 70.24 69.60 68.36 67.80 67.26 67.17 67.71 67.64 69.44 68.09 66.77 65.89 64.43 64.03 63.90 63.59 63.28 63.43 64.16 63.64 63.50 63.71 63.91 63.89 63.55 61.94 60.40 54.54 59.07 61.06 59.33 63.27 63.93 63.03 63.03 62.75 62.79
64.90 67.34 70.36 73.04 72.26 71.10 70.09 69.40 68.39 67.31 67.30 67.24 68.58 68.31 67.80 68.11 67.24 65.16 64.44 63.90 64.19 63.89 63.93 63.15 63.35 64.25 63.96 63.48 63.83 64.55 64.14 62.91 56.44 53.60 57.22 58.21 57.61 64.99 64.17 63.33 63.20 62.68 61.72
64.90 67.68 70.15 71.93 72.22 71.72 70.45 69.41 68.62 67.62 67.56 66.94 66.92 67.07 65.97 66.58 66.39 65.47 65.55 64.82 64.55 64.75 64.46 63.97 63.38 63.36 64.13 64.19 64.03 64.28 64.82 64.25 58.72 53.56 55.53 57.58 60.67 65.10 65.04 64.42 63.69 62.97 62.43
64.98 67.15 68.57 70.09 70.62 70.97 70.48 70.15 69.78 68.41 68.08 68.10 67.90 67.41 67.23 67.15 66.14 65.92 65.84 65.34 65.64 65.60 65.85 65.41 64.58 63.70 63.46 63.93 64.33 63.77 65.03 64.81 57.79 54.46 55.20 57.21 61.40 65.08 64.72 64.08 63.53 63.72 63.03
65.01 67.15 67.33 68.04 68.54 67.66 67.07 69.77 69.47 68.87 68.60 68.95 68.09 67.45 66.58 65.70 65.76 66.42 66.96 66.14 66.06 66.32 66.18 65.81 65.08 64.42 63.42 63.31 64.01 64.57 64.43 64.56 58.61 54.86 53.29 55.01 63.06 65.68 65.01 64.71 63.89 63.62 63.68
64.16 65.04 66.58 66.27 65.74 65.70 65.46 66.88 68.85 68.56 68.13 67.45 66.50 66.09 64.86 61.78 61.12 62.51 64.56 65.41 65.68 66.36 66.62 66.05 65.36 64.65 64.04 63.41 63.93 64.53 64.46 59.33 56.84 54.30 52.05 57.28 62.75 65.63 65.34 65.05 64.28 63.59 63.75
61.78 63.26 64.91 64.70 64.18 64.04 66.19 64.41 64.13 64.47 64.19 63.08 62.54 62.19 61.82 60.28 59.64 61.68 62.54 65.18 65.41 65.73 65.97 65.77 65.46 64.96 63.80 56.65 56.72 61.51 59.74 57.66 55.59 54.66 52.67 58.33 61.68 65.28 65.82 65.16 64.89 63.81 63.27
58.73 61.70 64.34 63.32 63.54 62.79 63.65 61.91 62.18 62.05 61.46 60.83 60.94 60.71 60.36 60.21 58.58 58.79 58.83 59.58 60.95 62.14 61.44 62.59 60.85 59.52 56.18 54.76 54.53 53.33 53.57 53.88 54.66 54.49 55.25 59.17 61.25 64.24 66.04 66.11 65.68 64.86 63.87
57.41 58.30 62.31 63.71 62.73 62.29 62.62 60.44 61.04 61.50 60.54 59.47 59.91 60.22 59.20 58.31 57.48 56.92 57.42 57.84 58.18 59.27 58.77 57.92 57.25 56.78 55.45 53.99 52.53 51.92 50.56 50.01 52.02 53.60 53.03 58.00 59.88 62.64 64.45 66.04 66.61 66.25 64.75
57.20 58.30 58.33 61.58 62.96 62.46 60.58 59.92 59.76 60.37 60.51 60.07 59.55 59.84 59.54 58.35 57.87 56.73 56.65 56.85 57.51 57.89 57.47 56.90 56.40 56.39 55.21 54.30 53.55 52.11 52.05 50.42 50.07 51.81 51.84 55.13 58.21 59.96 62.40 64.90 66.63 66.71 65.99
57.07 57.79 59.26 58.97 61.58 62.03 61.20 59.32 59.99 59.26 59.48 59.17 59.10 59.76 59.63 59.64 58.25 57.14 56.50 56.55 57.24 57.27 57.26 57.27 57.15 56.51 56.13 54.91 54.88 53.30 52.00 50.95 50.19 51.39 52.51 52.21 57.01 58.98 60.40 62.62 65.05 66.12 66.60
57.68 58.11 58.23 59.72 59.56 59.69 60.21 58.66 59.91 59.63 59.25 58.79 59.38 58.77 58.94 58.81 58.38 58.52 56.93 55.80 56.50 56.48 56.54 56.46 55.79 55.24 54.41 54.18 53.71 53.81 52.38 51.14 50.80 50.08 50.10 49.88 51.06 56.44 59.18 61.69 62.66 65.00 66.60
52.22 56.11 56.71 60.29 60.42 59.41 59.60 58.50 58.51 58.36 58.73 58.71 58.59 58.44 58.27 58.81 58.19 57.12 57.72 57.13 56.29 54.93 55.11 54.68 54.73 53.99 53.65 53.75 53.70 53.48 53.15 53.21 52.55 51.25 51.09 50.83 50.26 49.76 53.33 57.56 61.38 63.82 65.37
50.05 49.89 52.69 56.16 58.86 59.76 59.66 59.41 58.21 56.90 56.87 57.54 56.79 57.14 57.68 57.90 57.60 57.44 57.26 57.72 56.22 55.58 54.61 54.92 54.83 53.45 54.28 53.85 53.08 54.04 53.77 53.03 53.73 54.16 53.57 53.02 51.81 51.69 50.91 53.74 56.66 59.11 61.77
50.15 50.23 50.85 54.02 56.95 58.95 59.33 59.53 59.02 58.54 56.92 56.32 56.07 56.57 56.70 56.92 57.12 57.20 57.69 57.44 56.49 56.25 55.81 54.38 54.70 54.83 54.40 55.30 55.09 55.18 55.41 55.50 55.05 55.12 55.10 55.22 54.18 52.64 52.03 51.89 52.21 52.87 56.89
49.50 50.18 49.93 51.23 51.79 56.58 58.22 57.69 57.51 58.20 58.79 58.49 58.29 58.20 57.76 57.27 56.89 56.20 57.16 57.27 57.04 56.55 57.15 57.12 55.32 54.50 54.61 54.29 53.91 55.07 55.94 55.89 55.49 56.00 56.35 56.26 55.82 55.42 54.59 52.09 51.81 51.95 52.53
46.90 47.64 48.93 50.44 51.63 53.94 57.52 58.27 58.77 58.45 58.77 59.43 60.05 60.11 59.86 59.36 58.81 57.76 57.11 57.72 57.72 56.98 56.69 56.70 56.14 55.45 55.27 55.29 54.38 54.30 52.61 54.49 54.44 55.32 55.90 55.72 55.72 56.20 55.46 54.93 53.62 52.32 52.16
46.36 46.52 48.50 48.76 49.52 51.22 53.88 57.24 57.45 57.51 57.28 56.40 56.73 57.70 58.21 58.84 59.91 59.88 59.49 59.08 58.75 57.51 57.33 57.86 56.94 55.99 55.57 57.34 56.32 54.86 52.17 50.94 51.64 52.32 52.26 54.79 55.16 55.11 55.14 55.14 54.76 53.66 52.84
46.53 47.12 48.25 48.95 49.41 49.92 49.50 50.15 50.42 50.89 50.86 52.21 53.56 53.11 52.86 53.83 54.90 55.45 56.52 57.74 58.76 59.66 58.38 58.48 59.49 58.97 57.84 56.27 57.88 57.47 56.92 56.77 53.74 53.39 55.28 52.96 53.82 54.21 54.90 54.96 54.67 54.32 54.09
47.24 46.93 47.47 48.58 48.93 48.29 48.12 47.56 47.28 46.81 47.47 48.68 48.42 48.42 49.24 50.18 51.61 51.13 50.58 51.23 52.08 54.37 56.61 58.37 59.34 60.10 60.28 58.87 58.37 58.50 58.13 56.51 56.24 54.11 52.22 54.64 57.09 55.19 55.28 54.89 55.56 55.36 55.62
46.44 47.01 47.41 48.18 47.76 47.92 48.61 48.18 47.14 46.47 46.86 47.52 47.08 47.76 48.07 48.59 49.46 49.85 49.70 48.91 48.52 48.93 49.68 50.90 52.42 54.14 56.82 58.15 58.42 58.00 57.01 55.51 55.41 54.95 54.10 54.76 54.87 56.52 58.30 57.48 54.83 55.40 55.87

GFSSE_sfc_wetblb_012.txt.gz
Wetbulb
63.15 64.26 72.76 73.91 72.65 72.58 72.56 71.43 70.31 69.46 67.63 66.59 66.58 65.79 65.73 65.32 65.06 64.95 64.99 65.76 65.30 64.61 65.68 66.23 67.10 69.46 69.31 68.58 67.88 66.90 65.38 64.66 64.75 64.31 63.77 64.72 65.50 66.48 66.08 66.58 65.88 64.41 66.01
63.46 65.24 72.90 73.75 73.06 72.65 71.59 70.91 69.58 68.55 67.45 66.67 66.07 65.31 65.58 66.48 65.99 65.15 65.63 66.38 65.03 64.25 63.95 64.70 66.60 67.28 66.63 65.93 66.13 65.84 65.04 64.09 64.09 64.09 64.35 65.01 65.49 66.30 64.70 65.43 66.96 66.01 67.11
64.34 65.79 70.72 73.64 73.02 72.66 71.61 70.85 69.31 68.32 66.53 66.00 66.41 65.93 66.84 67.40 67.10 66.19 65.97 66.06 66.25 64.71 63.19 64.31 65.08 65.85 65.07 66.90 67.01 66.28 64.63 63.73 63.22 63.75 64.49 62.03 62.43 65.01 65.21 65.72 67.19 68.13 68.03
65.34 67.07 69.06 73.22 72.90 72.37 71.78 70.56 69.23 68.29 67.09 66.14 66.29 66.58 68.97 68.03 65.99 65.28 64.84 64.18 64.65 64.02 63.46 64.11 64.41 65.01 64.93 65.78 67.59 65.64 63.58 62.86 63.08 64.14 60.10 61.74 62.10 65.00 65.38 65.44 66.24 66.58 66.41
66.02 67.83 68.80 72.95 72.89 72.51 71.40 70.18 69.31 67.91 67.21 66.56 66.34 66.76 69.24 67.90 67.29 66.69 64.74 64.48 64.09 64.02 63.00 64.00 64.61 64.78 63.76 64.74 65.46 64.79 63.25 62.02 62.81 59.21 58.37 60.30 60.26 63.58 64.88 64.70 65.34 65.45 64.59
65.34 66.66 69.48 72.69 72.92 72.02 71.00 69.86 69.03 67.91 67.52 66.77 67.00 67.73 69.25 68.89 67.29 66.53 64.63 64.00 63.92 63.78 63.77 63.52 64.89 64.25 64.39 64.29 64.13 64.66 63.96 62.23 61.38 54.55 56.82 60.30 60.96 63.92 64.82 63.98 64.32 64.46 63.76
64.80 66.34 68.28 72.04 72.75 71.69 71.02 70.09 69.01 68.05 67.49 67.04 67.76 68.51 68.89 69.11 67.82 66.35 64.99 64.16 64.15 64.11 64.02 63.90 63.65 64.50 64.49 64.24 64.10 64.23 64.53 64.41 57.04 53.74 54.50 58.49 58.99 64.58 65.00 64.35 63.80 63.51 62.82
64.77 66.63 68.41 71.68 72.44 72.06 70.89 70.07 69.19 67.81 67.51 67.13 67.16 67.25 66.78 66.71 67.93 65.68 65.43 65.09 64.59 64.62 64.67 64.65 64.23 63.66 63.75 64.65 64.48 64.13 64.43 65.15 59.49 54.16 53.53 56.84 60.33 64.48 65.80 65.16 64.29 63.96 63.48
64.64 66.17 67.77 69.40 70.65 71.26 70.94 70.45 69.76 68.64 68.22 67.96 67.76 67.69 67.16 67.14 65.71 66.02 65.94 65.87 65.48 65.37 65.68 65.94 65.60 65.09 64.24 63.92 64.01 64.33 64.79 64.74 58.97 55.62 54.51 55.13 61.38 64.99 66.30 65.46 65.06 64.65 64.03
63.11 65.44 66.22 67.53 68.47 67.95 67.61 70.03 69.82 69.52 68.90 68.83 68.68 67.85 66.78 66.08 65.76 66.54 66.83 66.83 65.82 65.78 66.49 66.35 66.28 65.76 65.27 64.38 63.77 64.18 64.81 64.51 59.85 57.13 54.71 53.20 61.83 65.30 66.14 65.65 65.37 64.82 64.46
62.83 63.95 65.59 66.42 66.73 66.60 66.00 66.50 69.17 69.04 68.35 68.02 67.12 66.19 64.89 62.02 61.20 61.67 63.18 65.40 66.01 65.74 65.93 66.63 66.72 65.97 65.72 64.91 63.73 63.78 64.11 59.51 57.61 56.73 54.84 58.01 61.20 64.97 65.97 66.28 65.70 65.46 64.64
59.94 62.66 65.79 65.15 65.23 65.01 66.84 64.72 64.98 64.77 64.24 63.57 62.69 61.37 62.01 60.50 59.68 60.90 61.44 63.89 65.17 65.73 65.67 65.61 65.69 66.05 64.80 58.43 55.97 58.86 57.03 57.19 56.76 55.90 55.21 60.77 62.19 63.30 65.15 65.76 65.94 65.86 65.31
56.35 61.36 64.08 63.83 64.08 63.59 64.21 62.95 62.46 62.42 61.62 61.23 60.67 60.30 60.20 60.24 58.42 58.06 57.76 57.83 58.20 60.85 60.09 61.35 60.65 59.52 58.02 56.40 54.88 53.71 53.66 52.71 53.76 55.28 56.95 60.99 62.60 63.11 63.93 64.78 65.57 66.65 65.92
56.37 58.93 62.78 63.68 63.01 62.45 62.60 61.63 61.36 61.17 60.58 59.74 59.54 59.79 58.71 58.20 57.52 56.68 56.34 56.57 56.54 57.49 57.72 58.02 57.75 57.54 56.64 55.94 54.34 52.94 52.11 51.22 51.36 51.94 53.24 58.30 60.70 62.47 62.76 63.66 64.91 66.39 67.22
56.12 57.56 58.45 62.42 63.27 62.39 61.07 60.58 59.70 59.83 60.80 60.14 59.26 59.23 59.00 57.91 57.29 56.74 56.35 55.97 56.19 56.84 56.92 56.97 56.87 57.30 56.69 55.99 55.44 53.88 53.96 52.66 51.31 51.29 51.16 55.00 57.66 59.72 61.72 62.57 63.38 64.96 65.71
56.52 56.89 58.10 58.37 62.19 62.10 62.07 60.41 60.38 59.12 59.40 59.04 58.86 59.12 58.89 58.61 57.70 57.20 56.45 56.20 55.90 56.71 57.35 57.37 57.39 57.28 56.88 55.71 55.79 54.55 54.58 54.02 53.04 51.70 51.36 51.19 56.40 58.49 60.61 62.39 63.32 63.04 64.43
52.53 55.76 57.04 58.22 58.57 61.12 61.13 60.35 60.38 59.77 59.52 58.46 58.95 58.46 58.51 58.45 57.82 58.07 56.74 56.24 56.87 56.48 56.75 56.63 56.42 56.23 55.94 55.77 55.04 55.50 54.95 53.75 53.24 52.42 51.51 51.80 52.59 57.08 58.83 61.60 62.50 62.98 63.05
49.66 49.94 50.73 58.37 58.92 58.25 59.55 59.14 59.50 59.15 59.04 58.82 58.11 58.17 58.14 58.45 57.94 57.08 57.38 57.59 57.59 55.48 55.50 55.07 55.29 54.61 54.14 54.33 54.45 54.69 54.39 54.18 53.74 52.91 52.77 52.49 52.21 51.76 54.12 57.86 60.33 62.06 63.39
49.04 49.21 50.45 52.99 56.36 58.13 57.76 57.86 57.43 57.19 57.52 57.71 57.22 57.12 57.44 57.79 57.83 57.28 57.34 57.74 56.65 55.37 54.41 54.66 54.92 53.41 54.77 54.82 53.46 53.98 54.05 53.49 53.46 54.57 53.63 53.08 52.81 53.26 52.65 54.33 57.16 58.97 61.00
48.57 49.54 50.20 51.99 52.70 56.94 58.05 57.68 57.42 56.76 55.54 55.27 54.96 55.39 56.05 56.31 56.60 56.41 56.68 56.67 56.22 55.27 55.27 54.25 54.63 56.46 55.28 55.73 55.86 56.16 56.56 56.19 54.96 54.26 54.64 55.26 54.80 54.26 53.11 52.83 53.37 53.99 57.28
47.23 47.64 48.22 50.96 52.14 56.42 57.04 56.52 56.47 56.75 57.54 57.84 58.49 58.57 57.72 56.98 56.57 55.61 55.64 55.83 55.91 55.29 56.21 57.23 57.23 55.02 55.22 55.01 53.97 54.96 55.64 55.81 55.54 55.72 56.04 55.59 55.51 55.67 54.93 53.71 53.46 53.39 53.34
45.85 46.83 48.31 48.67 49.72 52.63 56.65 57.11 57.51 57.42 57.84 58.43 57.88 56.76 56.97 58.36 58.45 58.22 57.12 56.70 56.65 56.08 56.04 55.63 55.74 56.38 56.71 56.71 54.30 54.89 52.64 54.54 54.71 55.83 55.90 55.63 55.47 56.19 55.93 55.49 54.76 52.82 52.78
45.63 45.88 47.67 47.64 48.64 49.26 50.31 53.53 53.27 53.89 52.86 51.96 52.22 51.25 51.81 52.54 51.75 51.35 52.00 53.09 54.38 56.18 56.51 56.80 57.17 57.21 56.09 57.30 57.44 54.95 52.48 52.22 55.41 56.41 53.07 54.57 54.94 55.20 55.50 55.72 55.50 54.97 53.88
45.75 46.56 47.29 48.03 48.26 48.64 47.97 48.52 47.77 47.23 47.00 48.02 48.61 48.02 49.06 49.62 49.82 49.35 49.12 48.88 48.95 50.93 49.83 51.89 52.97 55.60 55.98 55.14 57.28 58.22 57.47 56.21 52.89 51.89 56.62 54.46 54.07 54.16 55.05 55.33 55.23 55.22 55.06
46.38 45.82 46.16 47.69 48.00 47.88 48.05 47.28 47.47 46.52 46.37 46.76 46.91 46.64 46.88 47.62 48.39 48.28 47.84 47.19 47.10 47.86 47.70 47.80 48.21 48.76 49.58 51.28 51.46 52.85 53.60 53.61 53.93 52.24 49.21 51.59 55.11 56.68 56.31 55.45 55.62 55.88 55.86
45.30 45.86 46.27 47.52 47.07 47.47 47.85 47.31 46.55 45.52 45.40 45.47 45.22 45.08 45.71 46.16 46.69 46.78 46.74 46.52 46.28 46.52 46.97 47.40 47.48 47.06 47.50 48.34 48.95 48.58 48.56 48.46 48.80 49.38 48.43 48.69 49.45 52.11 54.49 56.67 56.93 55.73 56.21

GFSSE_sfc_wetblb_015.txt.gz
Wetbulb
66.50 67.25 72.74 74.05 73.76 72.95 72.09 71.19 70.48 69.34 67.97 67.22 66.65 65.68 65.90 65.37 65.28 65.05 65.24 65.03 65.17 64.66 65.39 66.62 67.15 69.33 69.12 68.78 68.24 67.08 65.67 65.26 65.02 64.70 64.22 65.39 66.53 67.41 66.45 66.73 65.52 65.13 65.97
67.26 67.57 73.08 74.30 73.03 72.97 72.39 71.12 70.47 69.47 67.74 66.95 66.46 66.12 65.16 66.69 65.58 65.08 65.63 66.06 65.31 64.20 63.83 65.10 66.10 67.66 67.37 65.92 65.97 65.82 65.17 64.46 64.22 64.11 64.53 65.27 65.42 66.78 65.24 65.85 67.28 66.65 67.51
66.98 67.78 72.02 74.11 73.71 72.94 71.99 71.25 69.76 68.87 67.50 66.85 66.35 65.57 66.56 67.16 66.63 66.47 66.25 65.68 65.73 64.94 63.87 64.39 65.54 66.06 66.24 65.64 67.05 66.30 65.70 64.02 63.36 63.79 64.76 65.04 65.58 66.06 65.00 66.12 67.69 68.54 68.68
67.22 68.33 71.49 74.00 73.32 72.85 72.16 71.36 69.95 68.75 67.33 66.36 66.35 66.54 67.16 68.44 67.01 65.31 64.59 64.22 65.47 64.12 63.47 63.77 65.31 65.25 65.70 65.34 67.58 65.81 64.48 63.34 63.11 64.00 64.09 64.09 65.20 65.36 65.43 66.17 67.07 67.18 67.28
67.27 68.69 70.94 73.32 73.28 72.89 72.33 71.34 69.88 68.68 68.05 66.79 66.33 67.21 68.70 68.36 67.28 66.84 65.36 64.62 64.20 64.17 63.14 63.57 64.75 64.07 64.97 64.98 65.43 65.64 63.79 62.57 62.69 62.57 62.44 64.52 65.55 64.57 66.72 65.64 66.20 66.94 65.72
67.72 69.18 70.83 72.95 73.06 73.17 71.89 70.73 69.82 68.62 67.78 67.27 66.58 67.15 68.59 69.30 68.06 66.92 65.43 64.19 63.72 63.85 63.95 63.81 64.00 64.97 64.64 64.62 65.03 65.13 64.68 64.00 62.14 62.35 61.76 64.03 65.27 64.92 66.17 65.64 65.46 65.87 65.93
67.72 69.39 70.19 72.09 72.66 72.85 71.54 70.43 69.69 68.62 67.88 66.93 67.26 68.04 68.21 69.59 68.51 66.73 65.55 64.37 64.00 64.11 64.00 64.01 63.99 63.81 64.76 64.81 64.81 64.83 64.69 65.02 63.34 62.30 61.13 62.67 64.66 66.00 66.51 65.58 65.05 64.94 64.74
67.62 68.77 69.54 71.06 72.77 72.56 71.74 70.73 69.92 68.70 68.02 67.21 67.28 67.42 67.61 67.58 67.61 66.51 65.92 65.04 64.82 64.62 64.73 64.53 64.83 64.54 64.02 64.05 64.62 64.44 64.88 63.81 63.04 63.24 61.39 60.57 63.24 65.66 65.47 66.22 65.50 64.97 64.64
67.61 68.32 69.18 70.22 71.84 71.66 71.64 71.14 70.63 69.41 68.47 68.33 68.06 67.87 67.76 67.17 65.85 65.62 65.78 65.95 66.01 65.68 65.06 65.59 66.30 65.94 65.59 64.98 64.59 64.35 65.08 64.90 63.39 63.87 62.60 60.70 60.15 64.71 66.20 66.42 66.44 65.97 65.52
66.64 67.81 68.65 69.79 71.47 71.35 70.94 70.37 70.22 69.85 69.34 69.10 68.77 68.08 67.05 66.28 66.12 66.32 67.00 66.20 66.23 65.91 65.82 66.46 66.38 66.61 66.24 65.92 65.21 65.12 64.85 64.79 63.50 63.56 63.26 62.60 61.26 62.99 66.09 66.41 66.78 66.21 65.90
64.72 66.48 68.13 69.09 70.58 70.68 70.28 69.42 69.67 69.18 68.75 68.16 67.69 66.77 66.03 66.25 65.38 64.55 64.16 64.58 65.29 65.89 65.77 65.70 66.30 66.60 66.57 65.85 64.81 64.35 63.59 61.84 61.88 62.27 62.98 62.47 63.31 63.69 64.17 66.07 66.30 66.76 66.42
62.94 65.27 67.04 68.14 69.27 69.95 69.33 69.43 69.18 68.78 68.57 67.78 67.05 66.36 65.96 65.50 64.72 63.42 62.58 63.02 64.26 64.87 65.49 65.67 65.61 65.78 65.77 64.94 64.29 62.19 62.48 61.57 60.52 60.50 61.14 62.37 64.26 64.99 64.15 64.41 65.56 66.22 66.55
60.96 64.18 66.16 66.91 68.28 68.79 68.96 68.76 68.12 67.88 67.65 67.10 66.33 65.51 64.52 64.16 63.97 63.54 63.24 63.35 63.37 61.79 63.07 63.21 63.47 63.66 63.78 63.75 63.39 62.79 62.01 61.37 60.31 59.78 59.95 61.11 62.89 64.42 64.83 64.00 64.38 65.18 65.83
60.03 61.46 64.64 66.70 67.20 67.68 68.09 67.82 67.44 66.55 66.39 65.96 65.43 64.66 63.80 63.50 62.94 62.70 62.52 62.75 62.40 62.66 62.33 62.56 62.27 62.57 62.60 62.70 62.80 62.20 61.71 61.09 60.28 59.47 59.42 58.82 60.58 61.88 62.89 64.07 64.00 63.81 64.88
59.29 60.71 61.59 64.77 66.30 66.97 66.64 66.77 66.30 65.71 65.55 65.63 65.16 64.58 63.71 63.03 62.52 62.83 62.66 62.38 62.27 62.20 61.92 61.86 61.85 61.60 61.56 61.71 61.86 61.45 60.91 60.75 60.43 59.79 59.45 58.01 58.62 60.97 61.87 62.18 63.17 63.76 63.69
59.18 59.65 60.95 61.26 64.52 66.05 66.05 66.05 65.77 65.29 64.96 64.33 64.26 64.08 63.40 62.94 62.35 62.05 62.14 61.94 61.83 61.99 62.04 61.67 61.51 61.38 61.31 61.39 60.90 61.16 60.39 60.60 60.34 60.12 59.81 59.57 58.14 59.64 61.60 63.06 63.12 63.37 64.21
53.80 54.35 55.29 59.02 61.52 63.99 65.14 65.50 65.28 64.79 64.01 63.70 63.41 63.24 62.87 62.78 62.69 62.41 62.09 61.69 61.81 61.83 61.43 61.26 60.97 60.58 60.14 60.40 59.85 60.08 60.19 60.25 60.03 59.80 59.73 59.24 59.20 58.23 59.11 62.28 63.67 64.11 63.93
53.59 54.10 54.96 55.69 60.63 61.73 63.21 63.78 64.00 63.89 63.85 63.66 63.23 62.86 62.36 62.24 62.23 61.96 61.38 61.48 61.95 61.34 60.65 60.26 60.01 59.32 58.80 58.01 57.94 58.68 58.57 59.67 59.81 59.88 59.83 59.73 59.15 58.71 58.97 59.09 61.09 63.23 64.14
53.10 54.14 55.59 56.43 57.60 60.38 60.85 61.84 62.01 61.86 62.21 62.51 62.09 61.77 61.64 61.46 61.43 61.13 61.03 61.14 61.08 60.43 59.97 59.48 59.36 58.84 58.43 58.77 58.33 58.28 59.35 59.08 59.54 59.25 59.29 59.44 59.22 58.71 59.25 59.14 58.25 59.38 61.53
51.97 53.01 55.07 56.60 58.33 60.31 60.88 60.96 61.25 61.31 61.14 61.04 61.12 61.08 60.63 60.50 60.11 59.94 60.14 60.23 60.33 59.94 60.02 59.91 58.83 59.56 58.82 58.66 57.64 57.63 59.66 60.37 60.64 59.90 59.34 59.57 59.72 59.40 59.04 58.70 58.91 58.52 58.04
51.17 51.94 52.22 55.16 57.17 60.53 60.68 60.73 61.17 60.49 59.75 58.05 57.61 57.67 58.02 58.95 59.73 59.13 58.84 58.36 58.84 58.77 58.81 59.15 58.60 57.94 58.30 59.67 56.09 55.92 57.58 59.68 60.22 60.51 60.99 60.34 59.92 59.84 60.02 59.82 59.57 58.94 58.67
49.95 50.89 51.45 51.85 52.93 56.87 60.33 60.64 60.77 58.33 55.89 55.00 54.56 53.97 53.89 52.83 52.68 52.47 52.62 52.78 53.27 53.79 53.77 54.13 55.00 54.25 55.53 57.62 55.72 55.38 53.15 55.52 59.01 59.09 60.44 60.10 60.23 60.70 60.25 60.09 60.03 59.69 59.24
49.26 49.86 50.89 51.42 51.80 52.22 53.82 55.04 54.80 54.55 54.07 53.07 51.90 51.54 51.62 51.84 50.95 50.67 50.73 50.63 50.87 51.45 50.62 51.37 51.76 51.29 49.92 51.84 53.77 53.06 49.84 49.40 51.74 55.23 57.93 58.96 59.53 59.78 59.86 59.96 59.92 60.09 59.99
48.96 50.15 50.94 51.14 51.69 51.73 52.71 52.12 51.39 50.83 49.46 49.83 50.03 50.17 50.07 50.35 49.93 48.99 49.23 49.33 49.42 49.81 49.25 49.64 49.93 49.82 49.13 47.88 50.19 51.68 51.88 51.88 46.91 46.66 51.34 54.23 55.87 56.53 58.07 58.72 59.02 59.57 59.65
49.36 49.38 50.38 50.73 50.48 50.76 50.98 50.95 50.30 48.89 49.05 48.83 48.35 47.80 48.02 48.18 48.59 47.04 47.36 47.68 47.51 47.84 48.29 48.40 47.99 47.98 48.41 47.77 47.92 48.08 48.50 49.29 50.23 47.92 45.60 47.94 51.59 52.85 54.68 56.43 57.73 58.56 59.43
49.12 49.66 50.16 49.80 48.93 49.18 49.17 48.80 48.09 47.28 46.41 45.76 45.41 44.67 44.89 45.18 45.73 44.74 44.76 44.97 45.44 45.19 45.60 45.63 46.36 46.68 46.84 47.04 47.73 47.43 46.86 46.23 46.47 46.58 45.17 45.80 46.38 49.05 51.99 54.01 54.76 56.18 57.66

GFSSE_sfc_wetblb_018.txt.gz
Wetbulb
68.76 69.86 73.38 74.12 74.07 73.26 72.47 71.47 70.38 69.03 68.13 66.85 66.15 65.39 65.32 65.31 65.60 65.33 65.70 64.93 65.04 64.73 65.18 66.38 67.07 68.14 69.16 68.93 68.27 67.01 65.66 65.51 65.10 64.67 64.58 65.25 66.41 67.50 66.15 65.85 66.24 66.05 65.50
69.62 69.59 73.10 73.71 74.01 73.22 72.24 71.35 70.74 69.33 67.91 66.91 66.33 65.62 65.27 65.07 65.04 64.83 65.50 65.55 65.73 64.22 64.38 65.43 66.65 67.53 68.06 66.12 65.99 66.06 65.20 64.77 64.31 63.90 64.58 65.22 65.46 65.93 66.54 65.90 67.29 67.20 66.75
69.10 69.14 72.87 74.42 73.89 73.11 72.38 71.58 70.85 69.67 68.11 66.77 66.25 65.06 65.82 66.88 66.42 65.37 66.20 65.61 65.83 64.63 64.52 65.12 66.48 66.55 66.60 66.13 67.44 66.57 65.47 64.47 63.61 63.83 64.87 65.07 64.65 65.33 66.36 65.92 66.93 68.68 68.30
69.19 69.21 72.54 74.25 73.74 73.36 72.37 71.82 70.58 69.36 67.95 66.64 65.85 65.96 66.86 68.05 66.71 67.02 64.61 64.38 65.43 65.10 63.88 64.28 65.13 65.69 65.74 66.13 67.52 66.50 64.78 63.66 63.32 64.05 63.85 63.83 64.49 64.64 66.14 65.66 66.66 67.36 67.70
69.21 69.84 71.37 74.14 73.54 73.21 72.58 71.76 70.46 69.38 68.56 66.95 65.97 66.76 67.31 69.07 66.98 65.49 65.05 64.76 64.29 64.35 63.70 63.68 64.53 64.91 65.23 65.59 65.31 65.37 65.32 63.50 63.14 63.81 63.12 64.06 65.70 64.88 65.05 67.02 65.90 66.78 66.59
69.16 70.25 71.68 73.64 73.32 73.28 72.83 71.71 70.34 69.20 68.40 67.16 66.87 66.55 67.70 69.20 68.06 67.16 65.71 64.29 63.63 63.83 63.84 63.89 63.59 64.40 64.98 64.94 65.10 65.57 65.68 64.65 63.71 64.84 62.98 63.42 65.34 65.45 65.53 66.28 65.94 65.91 66.48
68.97 69.98 70.67 72.55 73.17 73.07 72.45 71.01 70.22 69.13 68.03 67.44 66.68 67.42 68.15 68.43 69.34 67.07 66.26 64.56 63.72 63.85 64.13 64.01 64.13 64.27 64.02 64.63 65.10 65.11 65.04 65.33 63.66 64.39 63.92 62.60 64.21 65.69 66.91 66.87 66.41 65.65 65.46
69.00 69.85 69.76 71.14 72.78 73.18 72.14 70.96 70.10 69.15 68.25 67.65 66.81 67.32 67.60 68.17 67.34 66.78 66.10 64.64 64.49 64.84 64.44 64.83 64.99 65.34 65.01 64.57 64.42 64.46 64.25 65.20 62.63 63.21 64.45 63.37 63.26 64.66 66.71 66.92 66.25 65.98 65.46
69.35 69.59 69.68 69.90 70.98 72.01 72.08 71.66 70.77 69.67 68.88 68.13 67.30 67.80 66.97 66.11 65.84 65.78 65.34 65.70 65.97 66.23 65.69 65.63 66.32 66.49 66.48 66.13 65.65 65.03 65.40 64.97 63.55 63.53 63.43 63.90 64.02 63.25 65.34 66.70 66.47 67.24 66.62
69.09 69.43 69.43 69.93 70.72 71.89 71.60 70.74 70.66 70.34 69.72 69.29 69.09 68.36 67.47 66.80 66.23 65.44 66.47 65.97 65.75 66.30 65.96 65.89 65.98 66.83 67.04 66.80 66.10 65.78 65.36 64.64 63.31 63.17 63.59 63.61 63.85 64.04 64.47 65.17 66.68 66.79 67.12
67.58 69.08 69.85 69.67 70.56 71.24 71.15 70.60 69.97 69.38 68.96 68.52 67.89 67.07 66.80 66.80 66.91 66.06 65.37 64.35 64.63 65.06 65.47 65.54 65.73 66.04 66.56 66.23 66.36 65.55 64.46 64.00 63.22 62.41 62.12 63.93 63.73 64.98 64.98 64.82 65.41 66.52 66.67
66.09 67.78 69.13 69.78 69.91 70.74 70.30 70.78 70.61 69.78 69.56 68.99 68.28 67.59 66.61 66.31 66.56 65.42 63.84 63.21 64.25 64.75 65.08 65.37 65.42 65.44 65.72 65.52 65.55 64.69 64.78 64.40 63.70 62.81 62.01 63.78 62.82 64.60 65.03 64.91 64.69 65.26 66.19
65.13 66.70 68.01 69.33 69.99 70.14 70.28 70.44 70.28 69.98 69.41 69.00 68.58 67.92 66.78 65.47 65.78 66.04 65.64 65.24 65.41 63.26 64.73 65.02 65.09 64.88 64.78 65.08 65.05 65.13 64.99 64.75 64.22 63.72 63.40 63.52 62.58 64.24 64.03 64.27 64.89 64.65 65.02
64.13 64.86 66.57 68.41 69.19 69.75 70.22 70.11 69.88 69.39 69.22 68.74 68.37 67.83 66.94 65.88 65.18 64.94 64.62 64.92 65.00 65.19 64.83 65.03 64.78 64.85 64.82 64.77 64.81 64.58 64.73 64.67 64.43 64.21 64.00 62.78 62.06 63.52 64.51 63.95 63.51 64.58 64.83
63.75 64.73 65.52 66.58 67.92 69.11 69.52 69.82 69.73 69.18 68.75 68.53 68.45 67.94 67.25 66.11 65.14 65.06 64.95 65.16 65.11 65.21 64.97 64.86 64.86 64.80 64.80 65.00 65.03 64.70 64.43 64.60 64.68 64.52 64.50 62.01 62.11 61.98 63.65 64.79 64.75 63.96 63.89
63.10 63.48 64.40 65.18 66.14 67.89 68.72 69.26 69.19 69.17 68.87 68.50 68.25 67.83 67.01 66.56 66.09 65.66 65.37 65.27 65.21 65.38 65.29 65.04 64.78 64.62 64.50 64.84 64.68 64.92 64.74 64.82 64.70 64.56 64.71 64.77 62.87 61.98 62.37 64.43 65.52 65.55 65.25
59.19 59.27 59.92 60.49 63.46 66.15 67.60 68.43 68.85 69.02 68.19 68.04 67.88 67.29 66.53 66.26 66.05 65.93 65.52 65.36 65.51 65.62 64.96 65.02 64.92 64.85 64.43 64.53 64.29 64.49 64.49 64.55 64.46 64.45 64.67 64.74 64.55 61.84 61.80 62.98 64.85 65.74 65.79
58.62 59.79 61.14 60.89 60.35 63.97 66.49 67.42 68.09 68.46 68.18 68.06 67.89 67.30 66.14 65.83 65.67 65.48 64.99 65.01 65.45 64.99 64.76 64.37 64.31 63.84 63.73 63.47 63.07 63.55 63.41 63.56 63.52 63.84 64.11 64.26 64.21 63.84 63.42 62.39 62.29 63.13 64.87
59.16 60.54 61.21 61.66 61.78 63.82 65.13 65.87 65.97 65.78 66.58 66.57 66.57 66.17 64.99 64.59 64.38 64.45 64.58 64.71 64.87 64.51 64.14 63.39 62.73 62.36 61.51 61.62 60.35 61.26 61.72 61.45 62.73 63.54 63.65 63.48 63.57 63.42 63.55 62.30 61.69 61.41 61.62
59.52 61.17 62.11 63.34 63.58 64.09 64.66 64.92 65.19 65.22 65.21 65.13 64.59 64.46 64.45 63.93 63.48 63.53 62.37 60.90 61.14 60.93 60.32 59.90 59.46 60.25 60.01 59.72 58.50 59.23 59.98 60.73 61.61 61.88 62.68 63.00 63.63 63.51 63.48 63.34 63.21 62.61 60.37
57.98 59.09 61.21 62.84 63.93 64.60 64.62 64.23 63.04 60.18 59.69 58.39 57.83 57.04 56.55 56.61 56.25 56.37 56.37 55.94 55.95 55.84 55.26 55.17 55.34 54.52 54.77 56.32 53.88 54.57 55.80 57.86 60.11 59.69 61.60 62.20 61.43 61.81 62.37 63.19 63.36 63.70 63.06
56.06 56.88 57.72 59.61 62.67 63.86 64.47 63.20 60.05 58.15 57.05 56.65 56.30 55.49 55.12 54.37 54.09 53.75 53.80 53.66 53.80 53.57 53.52 53.28 53.34 52.14 52.67 53.48 50.89 50.74 49.00 51.65 55.00 55.77 55.25 55.01 56.96 58.05 59.21 61.21 61.77 61.98 62.61
55.39 55.73 56.06 56.90 58.01 58.61 58.75 58.23 57.78 57.61 57.01 55.52 54.51 53.91 53.35 53.31 52.25 52.22 52.18 52.17 52.17 52.33 51.38 51.53 51.23 50.56 48.70 50.56 51.48 49.16 46.63 45.98 48.75 51.29 52.38 53.21 54.21 55.42 55.40 56.43 57.69 58.63 59.00
54.86 56.10 56.22 56.35 56.42 57.02 57.76 56.93 55.95 54.54 52.44 52.70 52.73 52.76 52.30 51.77 50.21 49.22 49.42 49.41 49.38 49.50 48.91 48.76 48.52 48.50 48.04 46.42 48.27 49.23 49.86 48.48 44.21 43.85 49.56 50.74 52.43 52.25 52.84 54.18 54.38 55.21 56.20
54.96 55.14 55.32 55.07 54.66 54.89 55.02 54.91 53.82 52.45 52.13 51.86 51.25 50.46 49.98 49.60 48.57 46.49 46.58 46.66 46.49 46.32 46.43 46.14 45.88 45.77 46.72 45.56 45.25 45.85 46.74 47.36 47.40 45.12 43.09 44.45 47.39 48.56 49.97 51.30 52.95 53.70 54.83
54.53 54.58 54.25 53.22 52.67 53.18 52.84 52.35 51.63 50.49 49.42 48.79 47.89 47.04 46.78 46.39 46.19 44.88 44.39 44.44 44.63 44.07 43.69 43.62 44.09 44.70 45.67 44.53 44.56 45.18 45.37 44.05 43.10 41.99 40.80 42.04 42.97 45.11 47.24 49.11 50.53 52.01 53.22

GFSSE_sfc_wetblb_021.txt.gz
Wetbulb
68.75 72.43 74.41 74.39 73.86 73.03 72.67 71.90 70.83 69.23 68.29 66.93 66.10 65.72 65.58 65.75 65.98 65.77 65.92 65.46 65.89 65.03 65.22 66.04 67.07 67.44 69.06 68.90 67.76 67.15 65.85 66.04 65.35 64.83 64.78 64.65 65.71 66.94 67.00 65.34 66.66 66.88 65.64
69.67 71.39 74.33 74.59 73.84 73.13 72.66 71.61 70.90 69.19 68.41 67.10 66.18 65.43 65.47 64.70 65.57 64.67 65.58 66.46 66.41 64.78 65.34 65.81 67.02 67.66 67.94 66.21 66.57 66.20 65.39 65.54 64.36 64.15 64.65 65.61 65.68 65.83 66.57 66.22 66.15 67.73 67.26
68.75 70.41 73.09 74.50 74.45 73.26 72.33 71.53 71.15 69.76 68.40 66.92 66.17 65.04 64.94 65.97 66.08 65.29 66.20 66.23 66.60 64.97 64.62 65.05 66.13 66.63 66.36 67.27 67.79 67.69 65.75 64.57 63.78 63.93 64.67 63.12 64.49 66.42 65.76 66.28 66.14 67.54 68.98
68.58 69.94 71.54 74.47 73.87 73.15 72.39 72.00 71.11 70.02 68.65 66.73 65.45 65.62 65.83 66.96 66.59 66.82 64.84 64.58 65.17 65.39 64.39 64.46 65.06 65.51 65.85 66.27 66.44 66.54 65.15 64.08 63.36 63.93 64.03 63.02 63.50 66.49 65.41 66.02 66.06 66.90 68.07
68.39 69.57 73.42 74.34 73.76 73.49 72.68 71.84 70.68 69.66 68.25 66.62 65.44 66.04 67.26 68.00 68.39 65.90 65.35 64.86 64.63 64.72 64.27 64.29 64.39 64.84 64.89 65.25 65.71 65.80 66.00 65.29 63.80 63.53 64.06 63.34 63.65 65.42 64.96 65.21 66.89 66.22 67.11
68.69 69.84 72.75 74.19 73.59 73.25 72.72 71.94 70.57 69.66 68.87 67.06 66.17 66.21 66.92 68.01 68.82 67.19 66.15 65.08 63.76 63.91 64.16 63.99 63.88 63.96 64.53 65.28 65.20 65.41 65.79 65.91 64.90 63.82 64.10 63.60 62.55 65.15 65.01 65.48 66.42 66.16 66.26
68.70 70.06 71.70 73.61 73.20 72.93 72.89 71.60 70.42 69.47 68.05 66.98 66.14 66.60 67.75 68.21 68.92 67.46 66.34 64.77 64.00 63.87 64.20 64.51 64.21 64.52 64.54 64.08 64.29 64.76 65.07 65.93 63.56 62.62 62.70 64.46 63.06 64.44 66.03 66.63 66.56 66.67 66.24
68.89 69.61 70.31 71.88 73.11 72.86 72.73 71.11 70.36 69.33 68.06 67.24 65.85 67.16 67.47 68.15 67.40 66.99 66.93 65.08 64.62 65.07 65.07 64.87 65.77 65.98 65.83 65.34 65.27 64.93 64.98 65.34 62.50 62.42 62.93 63.97 65.73 63.63 64.87 66.15 67.06 66.36 66.71
69.55 69.52 69.57 69.47 70.90 71.96 72.29 71.68 70.78 69.67 68.61 67.83 67.00 67.01 66.87 66.20 65.72 65.69 65.79 65.72 65.93 66.35 66.44 65.66 65.99 67.01 67.05 66.87 66.55 66.28 66.30 65.69 63.41 62.79 62.66 63.48 65.83 65.02 64.56 65.02 66.33 66.78 67.32
69.18 69.43 69.38 69.76 69.92 71.08 70.77 70.91 70.59 70.46 69.89 69.01 68.99 68.54 67.60 67.22 66.64 65.88 66.18 66.54 65.74 65.66 66.04 66.13 65.90 65.84 66.57 67.00 67.32 67.24 66.48 65.53 63.33 62.74 63.12 63.32 66.32 64.88 64.97 64.80 65.38 66.32 67.01
67.81 69.09 69.57 69.44 70.05 70.98 70.94 70.74 69.89 69.44 69.04 68.60 67.94 66.78 66.66 65.58 66.41 66.36 66.07 65.50 64.20 64.70 65.13 65.47 65.59 65.84 66.51 66.37 66.47 66.40 65.89 64.06 63.54 63.49 62.70 64.59 65.12 64.82 65.30 65.25 65.24 65.68 66.26
66.06 67.56 69.19 69.51 69.62 70.46 69.99 70.52 70.15 69.87 69.25 68.60 68.03 67.66 67.43 65.87 66.02 65.84 64.45 64.23 64.71 65.11 65.32 65.52 65.53 65.78 65.55 63.91 65.37 65.40 64.46 64.85 64.53 64.18 63.91 65.34 64.08 64.27 64.65 65.04 65.08 65.25 65.49
65.94 67.17 68.10 69.29 69.74 69.87 70.04 69.93 69.90 69.55 69.04 68.47 68.05 67.45 66.68 65.23 64.97 65.48 65.51 65.39 65.44 63.46 64.49 65.14 65.25 64.80 64.90 64.59 64.60 64.69 64.85 64.87 64.73 64.81 64.91 65.92 64.99 64.72 65.02 65.16 64.78 64.67 65.47
64.78 65.68 67.10 68.04 69.10 69.50 69.97 69.60 69.63 69.08 68.90 68.36 67.90 67.44 66.69 65.82 65.19 64.73 64.53 64.91 65.13 65.03 64.75 65.36 64.71 64.83 64.81 64.99 65.02 64.69 64.75 64.84 65.17 65.20 65.24 64.72 65.75 65.14 65.52 65.74 65.97 65.37 64.73
64.37 65.41 66.15 67.15 68.02 68.89 69.21 69.52 69.49 69.05 68.59 68.36 68.28 67.92 67.26 66.05 65.31 65.29 65.07 65.19 65.40 65.54 64.96 64.88 65.05 65.09 65.21 65.40 65.52 65.22 65.11 65.09 65.38 65.40 65.64 63.56 64.87 65.54 65.30 65.74 66.18 66.75 66.39
64.50 64.90 65.91 66.21 66.82 67.74 68.47 69.09 69.08 69.13 68.81 68.54 68.37 68.05 67.54 66.98 66.36 66.16 65.93 65.84 65.72 65.97 65.94 65.50 65.08 65.04 64.96 65.07 64.81 64.92 64.84 65.25 65.27 65.14 65.41 65.45 64.49 65.15 65.65 65.99 66.31 66.55 67.42
61.39 61.18 61.14 61.89 63.75 66.20 67.49 68.62 68.99 69.02 68.77 68.36 68.23 67.98 67.31 66.97 66.60 66.33 65.91 65.77 66.07 66.28 65.69 65.44 64.94 64.59 64.01 63.78 63.03 63.29 64.35 64.00 63.94 63.77 64.07 64.51 65.06 63.46 64.94 66.35 66.27 66.07 66.02
60.22 60.48 62.23 62.39 60.99 63.40 66.74 68.00 68.41 68.66 68.51 68.21 67.94 67.62 66.86 66.49 66.32 65.80 65.42 65.18 65.40 64.73 64.48 63.44 62.78 62.28 61.80 61.54 61.60 61.91 62.14 62.23 62.10 62.11 62.88 63.86 64.24 64.13 64.07 65.16 65.75 65.55 65.33
60.86 61.77 62.66 63.05 63.33 64.23 66.64 67.28 67.16 66.73 66.54 66.20 66.40 66.21 65.87 65.58 65.41 65.29 64.33 62.96 62.43 62.55 61.66 60.57 59.37 59.14 58.84 58.84 58.96 59.31 59.72 60.00 60.26 60.47 60.95 61.91 62.84 63.78 63.73 63.32 62.89 63.62 64.39
62.11 63.09 64.05 64.18 64.46 65.08 65.60 65.67 65.70 65.63 64.40 63.00 61.57 60.78 59.78 58.73 58.91 59.37 58.28 57.15 57.21 57.17 56.27 56.06 55.44 55.77 55.09 55.03 54.02 54.24 55.49 56.66 57.74 57.65 60.11 60.76 61.83 61.38 60.03 61.34 62.56 62.68 61.94
60.92 62.58 63.76 63.97 64.75 65.19 65.08 64.25 62.05 59.64 58.82 57.68 57.07 56.65 56.07 55.85 55.75 55.40 55.25 54.84 54.93 54.23 54.06 53.76 53.75 53.27 53.10 54.04 51.80 52.15 53.05 53.53 55.19 55.24 54.84 54.11 54.35 55.55 56.51 56.92 57.74 59.91 60.47
57.68 59.50 61.68 62.84 64.25 64.51 62.39 61.28 59.73 58.12 57.19 56.46 56.24 55.25 54.66 53.66 53.38 53.22 52.79 52.76 52.50 52.29 52.12 51.44 51.17 49.91 50.41 51.13 48.17 47.96 46.09 48.42 52.70 51.11 50.75 51.97 52.53 53.41 54.57 54.74 55.20 55.87 56.21
56.50 57.08 57.98 58.70 58.92 59.38 59.31 58.98 58.13 57.75 57.23 55.05 54.20 53.56 52.92 52.21 50.39 50.08 50.03 49.70 49.76 49.89 49.38 49.08 48.56 48.08 45.92 47.95 48.79 46.07 42.66 41.23 44.65 48.32 48.88 49.82 50.13 49.83 51.98 51.34 50.96 52.05 53.04
56.22 57.23 57.24 57.47 57.67 58.16 58.69 57.74 56.48 54.14 51.86 52.66 52.84 52.59 52.05 51.09 48.92 47.40 47.32 47.04 47.01 47.24 46.25 46.57 46.11 45.93 45.81 44.42 46.17 45.93 46.99 45.80 41.62 40.79 46.39 46.80 47.83 46.66 46.87 48.32 48.35 49.29 50.75
56.40 56.06 55.98 55.63 55.40 55.73 55.66 55.24 54.01 52.54 52.24 52.03 51.59 50.49 49.81 49.26 47.96 45.74 45.29 45.39 44.84 44.85 44.46 44.23 44.20 44.06 44.53 44.65 43.53 43.33 43.89 44.89 45.15 40.94 37.49 40.78 43.45 44.55 45.43 46.49 48.04 47.80 48.53
55.62 55.10 54.83 53.90 53.25 53.64 53.56 53.07 52.17 50.96 50.37 49.49 48.55 47.56 47.13 46.74 46.12 44.66 43.86 43.65 43.72 43.30 42.93 42.90 43.39 43.50 43.39 44.75 43.45 42.55 42.24 42.04 40.26 38.73 37.11 37.93 38.59 42.24 45.13 45.86 46.77 47.77 49.12

GFSSE_sfc_wetblb_024.txt.gz
Wetbulb
66.80 71.50 75.20 74.43 73.84 73.27 72.71 72.05 70.82 69.25 68.66 67.52 66.78 66.28 66.32 66.67 66.81 66.71 66.57 66.17 66.91 65.88 66.17 66.80 67.74 67.79 69.32 69.25 67.66 67.09 66.91 66.29 65.66 64.87 64.74 64.93 64.20 66.61 67.52 65.53 66.32 66.53 65.32
69.75 71.46 74.98 74.69 73.74 73.03 72.75 71.87 70.86 69.52 68.65 67.55 66.71 66.03 66.09 65.38 66.22 64.83 65.64 67.15 66.74 65.79 66.19 66.68 68.17 68.67 67.73 66.97 67.67 66.97 66.40 66.24 64.55 64.22 64.94 65.42 66.17 65.54 66.30 65.91 66.23 66.51 67.99
68.17 72.08 73.75 74.85 74.40 73.47 72.78 71.73 70.88 69.65 68.37 67.47 66.21 65.35 65.08 65.87 66.26 66.23 66.55 66.30 66.85 65.69 65.37 65.64 66.17 66.64 67.36 67.54 67.81 67.96 66.18 65.20 64.09 64.16 64.92 62.45 60.92 65.91 66.90 66.19 65.83 66.66 68.59
67.37 71.44 72.03 74.55 74.36 73.39 72.65 72.06 71.19 69.89 68.51 67.23 65.71 65.41 65.63 67.02 66.70 66.59 65.45 65.63 65.55 65.50 64.95 64.67 65.19 65.35 65.36 66.29 66.34 66.33 65.79 64.49 63.71 64.42 61.89 62.48 61.21 66.86 66.70 65.71 65.28 66.28 67.06
65.37 69.30 72.03 74.53 74.35 73.62 72.92 72.08 71.08 70.10 68.35 67.06 65.47 65.51 66.69 67.36 68.28 65.45 65.94 65.62 65.06 64.51 64.07 64.15 64.13 64.27 64.86 65.19 65.30 65.53 66.06 66.11 65.12 63.65 61.00 60.43 59.03 63.84 66.39 65.42 65.34 66.75 66.50
65.11 71.74 73.37 74.14 74.30 74.13 73.57 71.74 70.79 69.94 69.07 67.24 66.03 65.85 66.44 67.42 68.85 67.58 66.54 65.37 64.55 64.34 64.12 63.68 63.73 63.94 63.62 63.63 64.92 65.10 65.24 65.39 65.25 60.82 59.46 59.98 60.07 63.55 65.64 65.48 65.92 66.68 66.21
65.90 70.84 72.63 74.09 74.02 73.68 73.27 71.89 70.82 69.83 68.71 67.29 66.18 66.02 67.95 67.96 68.29 67.89 66.69 65.40 64.58 64.06 64.09 64.22 63.61 64.20 64.85 64.70 64.48 64.36 64.35 65.90 62.58 59.20 58.75 58.86 60.30 64.23 64.82 66.27 66.66 66.70 66.62
65.81 68.90 71.29 72.82 73.34 73.40 73.19 71.87 70.86 69.80 68.51 67.64 65.79 66.30 67.37 68.01 67.90 67.93 67.59 65.74 65.06 65.10 65.17 64.68 65.02 66.21 66.64 66.40 66.07 65.89 65.98 65.57 62.19 58.71 58.76 59.02 62.53 65.88 65.18 65.04 66.13 66.66 67.74
66.49 66.61 68.03 70.26 71.68 71.93 72.59 71.79 71.44 70.17 69.31 68.52 67.34 66.80 67.62 67.40 66.67 66.56 66.79 66.24 66.34 65.97 66.22 66.09 65.54 65.77 66.46 67.17 67.33 67.51 67.18 66.22 62.37 60.43 60.78 59.24 63.90 66.07 66.21 65.59 65.15 66.15 67.31
65.59 66.05 65.95 66.41 68.39 68.23 70.26 71.16 70.87 70.41 69.64 69.09 68.74 68.16 67.14 66.32 66.44 67.31 67.09 67.34 66.37 65.90 65.37 65.62 65.96 65.65 65.80 66.31 66.90 67.55 67.30 66.28 62.12 60.89 60.60 59.94 65.39 65.94 65.94 65.64 65.49 65.64 66.44
65.15 65.20 65.45 65.91 66.83 68.56 69.18 69.62 70.10 69.64 69.08 68.41 67.43 66.62 65.82 63.01 62.76 64.25 65.10 65.90 65.84 64.75 64.84 65.38 65.76 65.89 66.55 66.29 66.30 66.35 65.99 62.63 60.76 60.73 59.71 63.61 66.85 65.59 65.59 65.83 65.85 65.82 65.83
62.47 64.20 65.44 65.44 65.99 67.08 68.69 68.16 67.18 67.18 66.57 66.00 65.35 64.50 63.98 62.76 61.70 63.70 63.14 64.28 65.47 65.68 65.64 65.60 65.99 66.50 65.79 62.93 61.91 63.89 63.06 62.06 61.60 61.01 60.01 65.87 67.19 65.97 65.65 65.76 65.55 65.71 65.73
62.47 63.51 65.00 65.46 65.74 66.40 66.36 67.25 67.45 66.15 66.47 66.19 65.33 63.50 63.37 61.40 60.17 60.95 61.18 61.71 61.11 62.67 61.57 63.19 63.46 63.47 62.05 61.57 60.65 60.27 61.09 61.09 60.41 60.29 62.26 66.39 68.01 67.12 66.74 66.53 66.46 65.95 66.00
61.24 62.67 64.42 64.71 65.43 65.44 66.47 65.79 65.56 65.17 64.89 63.88 63.76 63.52 62.12 61.16 60.40 59.98 59.77 60.16 60.46 60.80 60.63 60.71 60.54 60.90 61.00 61.37 60.76 60.61 60.58 60.38 60.43 60.68 61.40 64.72 67.22 67.74 67.52 67.27 67.12 66.74 66.83
58.92 61.51 62.31 63.74 63.74 65.20 64.85 65.68 65.44 64.64 64.60 64.42 64.29 63.98 62.84 61.50 60.62 60.70 60.61 60.72 60.92 61.19 60.77 60.53 60.84 61.43 61.88 61.84 61.98 62.29 62.79 62.59 62.75 62.81 62.45 63.04 65.49 67.65 68.16 67.77 67.67 67.52 67.39
59.38 61.10 62.42 62.79 63.05 63.81 64.54 64.96 64.98 65.00 64.95 64.49 65.01 64.27 64.19 62.96 62.23 62.34 62.08 62.52 63.17 63.22 62.97 62.97 62.51 61.94 62.29 62.49 62.26 62.54 62.22 62.35 61.82 60.92 61.08 61.22 64.00 66.04 67.66 68.15 67.99 67.88 67.79
56.76 57.07 57.77 58.65 59.45 61.90 62.71 64.91 65.05 65.90 65.77 65.64 65.06 65.21 64.06 63.54 62.73 62.54 62.20 62.13 63.09 63.23 63.08 62.65 62.26 62.15 61.14 60.64 58.75 59.17 58.42 58.38 59.35 58.92 59.20 59.32 60.49 62.32 65.13 67.65 68.32 67.90 67.18
55.24 56.90 58.82 60.01 56.87 57.32 61.90 64.21 65.13 66.25 65.34 65.24 64.93 64.30 64.44 64.07 63.49 61.76 62.59 60.94 61.61 62.46 61.38 59.76 56.49 54.62 54.70 55.08 54.75 55.79 56.44 56.88 56.94 56.71 56.89 57.53 57.93 59.86 62.18 65.43 66.85 66.79 67.11
56.56 58.18 58.82 58.86 57.83 59.62 63.17 63.70 64.60 64.03 63.37 62.68 61.87 61.10 58.82 58.19 58.83 59.58 56.30 53.30 53.41 53.80 52.46 51.61 50.79 50.36 49.39 49.50 50.65 49.94 50.22 50.82 52.05 54.85 53.60 54.23 54.20 53.72 53.85 57.56 60.90 62.85 64.49
58.34 59.82 59.69 60.69 61.36 62.26 62.20 61.90 61.27 57.73 56.02 55.52 54.23 53.37 53.38 52.91 52.81 52.23 51.78 50.80 50.85 50.33 49.77 48.98 48.16 48.95 48.36 48.02 49.90 49.11 48.66 50.16 49.77 49.92 49.64 49.84 49.27 50.65 51.42 51.72 51.71 53.57 58.73
58.80 59.28 59.88 60.14 60.84 61.06 60.68 59.51 56.51 53.99 52.45 51.88 51.82 51.71 50.83 50.37 50.68 49.13 49.24 49.00 48.70 48.04 47.57 47.36 46.56 45.50 45.04 45.57 43.96 44.22 45.09 46.63 45.54 45.94 46.00 46.08 47.71 48.86 49.22 49.13 50.13 49.74 49.74
55.92 57.96 58.68 59.87 59.11 58.32 57.52 56.10 55.08 53.06 52.03 51.56 51.07 50.07 48.96 47.44 47.28 47.39 45.63 45.57 45.14 44.84 44.65 43.63 42.84 42.37 42.90 42.98 40.70 40.19 38.10 40.91 43.35 44.67 45.60 46.19 45.92 45.89 46.09 47.96 45.57 46.04 47.09
52.38 53.40 54.73 55.27 55.34 55.42 54.90 54.67 53.62 52.69 51.30 49.33 48.78 47.84 47.43 45.93 44.92 44.22 43.66 42.97 42.76 42.64 41.62 40.97 40.66 40.14 38.84 40.89 41.25 39.19 36.32 35.32 38.71 41.84 43.13 44.23 42.94 43.65 43.20 43.47 43.55 45.02 45.10
51.26 52.40 53.25 53.90 54.03 54.35 54.02 52.90 50.68 48.42 46.66 47.38 47.03 46.98 46.23 45.06 43.05 42.77 42.57 41.63 40.84 41.00 39.37 39.20 41.15 38.93 38.57 38.10 40.34 42.36 39.31 38.30 35.60 35.68 40.21 41.18 41.53 41.13 41.32 41.52 42.30 43.70 44.45
51.82 50.73 50.61 50.82 50.99 50.97 50.73 50.10 48.49 46.88 46.43 46.11 45.61 44.30 43.60 43.30 42.13 41.39 40.97 40.06 39.26 39.51 38.37 38.09 37.68 37.66 38.52 38.21 38.83 37.75 37.38 37.78 38.48 36.91 33.52 34.83 37.99 39.32 40.50 41.76 42.54 42.84 43.83
50.77 50.11 49.25 48.87 48.78 48.86 48.22 47.46 46.06 44.48 44.05 43.18 41.91 41.16 41.07 40.95 40.63 39.69 40.21 38.47 38.17 38.07 37.76 37.38 37.33 36.89 37.56 37.87 38.63 37.24 36.97 34.34 34.35 34.49 33.83 33.70 33.70 36.63 39.53 40.95 41.35 40.21 41.05

GFSSE_sfc_wetblb_027.txt.gz
Wetbulb
68.72 72.82 75.23 74.29 73.91 73.45 72.65 72.07 70.43 69.60 68.61 67.62 67.35 66.66 67.21 67.59 67.54 67.45 66.70 66.49 66.50 66.57 66.53 68.09 68.43 68.63 69.78 68.87 67.65 67.76 67.54 66.59 65.58 65.06 64.54 64.52 64.30 64.90 66.84 65.54 65.59 65.81 65.99
70.23 73.10 74.92 74.72 73.74 73.40 72.92 71.90 70.47 69.67 68.39 67.69 66.94 66.79 65.73 66.47 66.22 65.20 65.99 67.13 66.37 65.80 65.81 66.73 67.92 68.68 68.78 68.40 68.61 67.44 67.38 65.99 64.81 64.34 65.07 65.62 64.81 64.88 66.87 66.34 65.65 65.41 67.84
70.81 73.04 73.52 74.72 74.30 73.41 72.90 71.88 70.63 69.76 68.60 67.70 66.53 66.24 66.21 67.12 66.85 67.28 66.38 66.35 65.75 65.50 65.18 65.26 66.03 66.36 67.32 67.39 66.90 67.78 66.39 65.75 64.96 64.03 65.40 61.69 61.50 65.05 66.23 66.67 66.02 65.78 67.21
70.98 72.57 73.03 74.49 74.40 73.60 72.72 71.68 70.75 69.74 68.52 67.67 66.47 65.96 65.67 67.12 67.48 66.62 66.15 65.90 65.61 64.87 64.46 64.25 64.36 64.81 65.11 65.15 65.67 65.97 65.92 65.40 64.13 64.05 61.61 61.34 61.18 64.86 66.85 66.87 65.96 65.95 66.94
71.02 72.23 72.97 74.49 74.53 74.24 73.07 72.06 71.03 70.15 68.43 67.53 66.10 66.34 66.47 67.40 68.40 65.72 66.61 65.75 65.10 64.37 63.85 63.65 63.54 63.59 64.32 64.55 64.53 64.82 65.21 65.54 65.29 64.31 60.81 59.76 58.28 61.93 66.19 66.64 65.57 65.98 66.80
67.57 69.92 73.24 74.47 74.55 74.19 73.56 72.23 70.98 70.09 68.75 67.52 66.68 66.24 66.15 67.25 68.43 67.62 66.90 65.50 65.26 64.63 64.06 63.62 63.49 63.59 63.22 62.96 63.68 64.67 65.09 65.27 66.43 60.36 58.75 59.02 59.88 63.53 64.60 66.33 66.18 66.44 66.83
69.78 71.20 72.77 74.36 74.47 74.21 73.32 71.65 70.91 70.24 69.32 67.38 66.80 66.88 67.78 68.26 68.95 68.16 67.15 65.92 65.26 64.63 64.27 64.13 63.89 63.81 64.68 65.12 65.03 64.84 64.65 65.55 62.08 59.04 58.06 58.18 58.27 64.99 65.99 65.45 66.70 66.87 66.88
69.78 71.54 72.48 72.95 73.74 73.77 72.95 71.93 70.94 69.97 68.98 67.60 67.03 67.96 67.97 68.44 69.20 68.59 67.02 66.05 65.55 65.27 65.10 65.14 64.69 65.45 66.48 67.03 66.83 66.43 66.68 66.15 62.85 59.26 58.63 58.37 61.51 65.50 66.46 66.07 65.53 66.31 66.97
68.78 70.13 70.70 71.44 71.94 72.36 72.61 71.85 71.53 70.11 69.40 68.74 67.17 67.25 68.00 67.61 67.59 67.07 68.03 66.76 66.23 66.33 66.00 66.34 66.22 65.61 65.82 66.45 67.13 67.85 67.88 66.93 63.45 61.18 61.15 59.41 62.55 65.48 66.19 66.82 66.46 65.99 65.89
65.81 67.58 69.10 69.45 70.36 69.78 70.49 71.10 70.99 70.43 69.72 69.37 68.55 67.37 66.74 66.07 66.41 67.82 67.59 67.59 66.92 66.45 66.11 65.09 65.44 65.79 65.76 65.86 66.35 67.42 67.19 66.97 63.76 61.77 61.29 60.40 64.81 66.37 66.51 66.46 66.32 66.22 66.06
63.95 64.60 66.25 67.33 68.22 67.87 69.91 69.74 70.20 69.64 68.80 68.19 67.30 66.43 65.29 63.02 62.74 63.89 65.13 65.48 67.50 66.22 65.28 65.44 65.76 66.14 66.84 66.46 66.57 66.42 65.63 63.29 62.01 61.42 60.89 62.97 65.78 67.04 67.08 67.83 67.59 66.32 66.46
61.49 62.74 63.99 65.19 65.71 66.55 70.11 68.48 67.84 67.96 66.76 65.82 65.11 63.67 63.57 62.31 61.11 62.88 63.20 65.19 66.26 66.21 66.28 65.90 66.26 67.13 66.12 62.73 61.62 63.19 61.27 62.19 61.48 61.20 60.92 64.33 66.54 67.50 67.75 68.48 67.88 67.25 66.19
61.11 62.38 63.78 63.61 64.90 65.96 66.63 67.30 66.88 65.83 65.23 64.91 64.29 63.47 62.91 62.88 60.12 59.87 59.85 60.80 60.39 61.77 61.09 62.30 61.78 62.54 61.76 61.10 60.48 60.00 60.33 60.78 60.72 61.14 62.64 65.35 67.23 68.05 68.66 69.19 68.66 68.44 67.47
59.93 62.05 63.72 64.19 63.44 64.35 66.23 66.30 65.86 65.05 64.58 63.75 63.89 62.89 61.05 59.23 58.47 58.05 57.96 58.98 59.54 59.80 59.28 59.66 59.42 59.49 59.71 60.96 60.41 60.98 61.30 60.80 60.85 61.32 61.94 64.09 67.05 68.24 68.29 69.22 69.28 68.90 68.98
59.24 60.71 62.51 62.87 63.27 63.36 64.07 64.84 63.81 64.60 63.84 62.83 62.24 62.11 61.23 59.98 59.16 59.38 59.49 59.56 59.58 60.08 59.96 60.06 61.31 61.78 61.98 61.04 61.71 61.90 61.82 60.90 60.78 60.60 60.37 62.04 64.62 66.73 66.93 66.96 67.56 69.30 68.75
57.58 59.45 61.58 62.16 62.17 63.42 63.04 63.80 63.69 63.45 64.91 64.28 64.33 64.31 62.69 61.84 61.09 61.09 61.09 61.67 62.80 62.81 62.61 62.17 61.71 61.49 61.23 60.37 59.04 58.38 58.09 57.63 57.45 57.23 57.62 57.66 62.17 63.69 65.21 65.78 66.82 67.30 67.26
54.42 55.01 57.02 57.67 59.35 60.82 62.60 63.30 63.76 65.37 65.43 64.75 64.34 64.53 64.23 62.60 61.78 61.57 61.83 61.06 61.55 61.98 59.63 57.65 54.88 53.29 52.25 52.63 51.03 52.74 54.66 54.67 55.50 55.72 56.53 56.19 56.78 59.80 62.01 60.64 61.37 63.59 65.17
54.12 55.61 56.78 58.53 56.10 56.99 60.80 62.92 64.24 65.22 64.26 63.57 62.72 60.91 59.07 58.89 61.89 59.23 54.57 53.39 54.40 53.95 51.24 49.67 48.96 48.73 48.24 48.09 47.68 48.39 48.28 49.04 49.35 50.09 51.53 51.18 50.76 49.94 54.20 57.79 58.92 59.00 60.25
53.92 56.35 57.12 57.29 55.73 58.14 61.56 61.79 60.47 59.41 57.41 56.00 55.68 54.73 53.87 53.17 53.03 52.94 51.62 49.47 49.33 49.13 48.15 47.66 47.15 46.40 45.64 45.88 46.35 45.79 46.19 46.39 47.00 49.86 47.38 45.66 45.61 47.14 48.56 53.13 55.78 56.61 56.18
57.03 57.47 57.93 58.65 59.56 60.56 58.74 56.10 54.87 54.28 53.29 53.11 51.32 50.29 50.23 49.93 49.22 48.85 47.83 46.73 47.08 46.85 45.52 44.63 44.04 43.64 43.37 42.98 44.72 45.31 43.81 44.39 45.54 43.62 43.06 43.80 44.75 45.72 45.96 46.30 46.08 47.71 52.60
57.24 57.85 58.40 59.25 59.31 60.38 56.52 53.99 52.19 49.90 50.03 49.38 48.86 47.98 47.02 46.90 46.61 45.04 45.18 44.62 44.04 43.79 42.11 42.16 42.22 41.27 41.01 41.03 39.91 40.05 40.68 42.26 40.96 41.04 41.57 43.14 43.77 45.10 43.18 43.46 43.25 42.90 43.53
55.00 55.63 56.74 56.09 55.67 56.68 55.77 53.66 51.51 49.91 48.81 48.28 47.32 45.20 44.37 43.76 44.01 43.64 41.97 41.83 41.09 41.24 39.76 38.86 38.78 38.62 39.47 39.57 38.08 36.98 35.43 38.21 40.06 40.78 40.88 42.35 41.38 41.23 42.03 42.06 41.64 41.98 42.38
51.56 52.59 53.38 53.44 53.74 53.60 53.29 52.69 51.43 50.11 48.20 46.62 45.41 44.10 42.76 42.26 42.02 41.59 40.59 39.99 39.48 39.26 37.82 37.09 37.14 37.00 35.90 37.92 38.84 36.86 33.00 32.23 35.30 38.55 39.38 40.17 40.00 40.19 38.60 40.20 41.23 41.69 42.14
49.29 50.73 51.96 52.64 52.74 52.35 52.13 51.22 48.77 46.47 44.93 44.90 44.91 43.48 42.05 40.90 40.13 40.47 39.93 38.83 38.18 38.22 36.47 36.70 38.32 36.22 36.42 35.21 37.91 40.59 37.11 35.67 32.52 31.56 37.11 37.66 38.75 39.02 38.71 38.96 40.12 41.34 41.53
48.89 47.59 47.62 48.48 48.72 48.71 48.37 47.85 46.96 44.57 44.14 43.59 42.09 40.67 40.08 39.05 39.05 39.27 38.50 37.38 36.87 37.00 35.78 35.55 35.24 34.78 35.21 35.72 35.46 36.25 34.81 34.63 34.65 31.67 29.20 31.63 36.52 36.99 37.75 38.35 39.37 39.68 40.54
47.31 46.60 46.30 47.03 45.79 45.98 46.02 45.04 44.04 42.19 40.71 39.39 38.47 37.91 37.89 37.79 37.59 37.30 37.73 35.90 35.51 35.55 35.15 34.82 34.92 34.18 34.31 35.11 34.57 35.14 34.14 32.53 32.74 31.33 30.11 31.22 31.63 33.95 36.11 37.21 37.70 37.43 37.80

GFSSE_sfc_wetblb_030.txt.gz
Wetbulb
68.01 72.62 75.27 74.24 73.98 73.34 72.54 71.43 70.43 69.53 68.49 68.28 67.81 67.56 68.86 68.67 69.13 67.32 66.61 66.28 65.85 65.99 65.99 68.54 67.77 70.10 69.80 68.83 67.95 68.17 67.10 65.91 65.07 64.66 64.37 64.14 63.70 64.16 66.71 65.96 65.34 65.02 67.45
70.31 73.13 74.87 74.43 73.83 73.22 72.62 71.17 70.30 69.40 68.46 67.36 67.34 66.66 66.78 66.71 66.43 66.06 65.81 66.16 65.58 65.69 65.31 66.67 67.31 68.95 68.71 68.94 68.14 66.66 66.15 66.15 65.39 63.90 64.78 65.29 64.47 64.06 65.66 67.19 66.26 64.50 67.13
71.74 72.89 73.44 74.63 74.32 73.17 72.55 71.16 70.49 69.41 68.61 67.61 66.81 66.34 66.69 67.20 66.64 66.84 65.96 65.78 65.16 65.48 64.75 65.28 66.02 66.16 67.11 67.08 66.56 66.50 66.08 65.48 65.05 63.82 64.99 60.07 60.30 65.04 66.06 66.90 66.61 65.94 66.58
71.93 72.59 72.76 74.46 74.33 73.25 72.42 71.33 70.60 69.72 68.80 67.73 66.48 66.40 67.00 66.78 67.45 66.69 66.01 65.63 65.37 64.46 64.54 64.09 64.12 65.07 65.02 65.27 65.45 65.62 65.90 65.61 64.42 64.35 60.66 60.56 60.41 64.24 65.73 67.01 67.09 66.29 66.35
71.19 72.26 72.64 74.34 74.46 74.06 72.71 71.38 70.61 69.78 68.78 67.64 66.68 66.61 66.75 67.98 68.54 66.82 66.70 65.77 64.90 64.07 63.73 63.59 63.47 63.87 64.49 64.63 64.88 65.22 65.52 65.55 65.07 63.96 60.33 59.08 58.22 62.34 65.47 67.65 66.57 66.19 66.02
70.06 71.57 72.95 74.21 74.43 74.15 73.18 71.56 70.76 69.93 68.81 67.57 66.23 67.10 66.94 67.53 68.50 66.86 67.17 65.94 65.45 64.42 63.71 63.46 63.29 63.31 63.09 63.22 63.32 64.02 64.86 65.21 66.24 60.18 58.59 58.43 59.79 63.47 65.70 65.03 66.57 66.45 66.60
68.23 70.52 72.59 74.37 74.54 74.07 73.35 71.72 70.97 69.95 68.94 67.50 66.66 67.02 67.47 68.09 68.80 68.26 67.38 66.16 65.61 64.79 64.19 63.97 63.87 63.76 64.45 65.29 65.64 65.63 65.44 65.84 61.90 58.73 57.89 57.13 57.24 64.52 66.16 66.63 65.86 67.06 66.85
68.34 70.38 72.07 73.20 73.86 73.87 73.04 71.85 71.12 70.37 69.31 67.34 67.31 68.21 68.42 68.63 69.16 68.52 67.12 66.44 65.86 65.24 64.96 65.06 64.92 65.02 65.81 66.77 67.27 66.90 67.22 66.72 63.39 60.13 59.05 58.31 61.09 64.84 65.82 66.62 66.65 65.92 65.95
70.25 70.73 71.16 72.05 72.52 72.62 72.15 71.89 71.50 70.33 69.50 68.26 67.93 68.38 68.14 68.00 69.33 68.80 68.15 66.94 66.35 66.07 66.17 65.98 66.03 66.01 65.71 65.86 66.36 67.05 67.83 67.46 64.23 61.87 61.60 60.24 62.94 65.79 65.92 66.10 66.70 66.84 66.50
68.80 70.00 69.93 70.06 70.97 70.94 70.93 71.11 70.93 70.30 69.69 69.30 68.31 67.81 67.27 66.33 66.85 68.13 68.34 67.90 66.67 66.71 66.48 65.99 65.10 65.51 65.88 65.94 66.04 66.95 66.85 66.53 63.54 62.49 61.99 61.25 65.11 66.84 67.38 67.11 66.80 66.89 66.84
66.25 67.51 69.49 69.59 69.76 69.79 69.75 69.69 70.29 69.72 68.94 68.38 67.44 66.11 65.10 62.73 62.50 63.34 65.24 65.88 67.00 67.05 66.64 65.71 65.74 66.08 66.94 66.61 66.66 66.55 65.81 62.27 61.09 61.58 61.17 63.48 65.99 67.72 67.78 67.77 68.35 67.14 66.67
61.36 64.10 67.13 68.33 68.44 68.14 70.33 68.58 67.88 67.88 66.40 65.43 64.82 63.55 63.40 62.00 61.07 61.76 62.73 65.37 66.48 67.40 66.83 66.31 66.53 67.26 66.32 62.74 61.71 63.26 60.72 59.81 60.22 61.00 60.79 64.30 66.63 68.31 68.54 68.94 68.88 68.87 68.35
61.37 62.62 64.59 65.38 66.40 66.13 67.89 67.75 67.44 66.46 65.40 64.77 63.92 63.28 62.30 62.54 60.91 60.44 60.04 61.40 61.23 61.57 60.62 61.58 60.90 60.64 60.67 60.72 60.42 59.72 59.72 60.22 60.96 61.71 62.60 65.03 66.51 68.00 68.54 69.33 69.23 68.45 68.07
58.83 61.83 63.44 64.22 64.07 64.56 66.57 67.23 66.80 65.56 64.44 63.47 63.63 63.39 61.75 60.93 57.40 57.11 57.67 58.35 58.81 59.23 59.25 58.78 58.88 59.08 59.48 60.66 59.63 58.84 59.26 59.65 59.26 59.32 60.06 63.43 64.62 64.93 65.57 65.77 66.73 68.34 68.55
57.75 61.10 62.21 63.35 63.76 63.88 65.27 66.23 64.88 64.46 64.03 63.44 63.05 62.79 60.81 58.77 57.81 58.64 58.54 58.63 58.63 59.10 60.00 60.63 61.13 61.20 60.15 59.21 57.54 55.97 56.30 56.92 56.65 56.82 56.07 59.75 61.86 62.38 62.65 64.11 64.82 65.44 66.60
56.72 59.25 61.36 62.31 62.61 63.66 65.19 64.00 63.99 63.83 64.40 63.47 63.25 62.68 62.29 61.34 60.48 60.41 59.97 59.94 61.13 61.37 60.78 56.81 54.93 54.28 53.41 52.28 50.15 50.49 51.07 51.18 51.53 52.07 52.84 53.62 59.06 57.77 57.79 59.66 60.59 61.41 62.21
54.32 56.88 59.93 60.83 61.53 61.84 63.05 63.57 62.85 64.66 64.63 64.04 63.79 63.67 63.33 62.79 60.91 57.73 53.89 54.00 54.79 53.83 53.17 52.10 51.10 48.72 47.26 47.89 46.08 47.74 47.56 47.19 47.58 48.24 50.09 49.14 48.26 52.88 55.48 56.91 57.78 58.91 60.50
53.72 55.26 55.94 57.64 58.48 60.19 61.64 62.02 63.34 64.05 62.31 59.16 56.09 55.42 56.23 55.57 55.15 53.08 52.02 51.40 51.86 50.48 47.95 46.71 45.57 44.86 44.41 44.10 43.24 44.05 44.10 44.78 44.25 46.16 45.91 43.06 43.68 46.44 49.52 53.19 53.93 54.38 54.80
53.39 55.45 56.17 56.01 54.87 60.04 59.89 59.36 57.15 55.80 55.31 54.08 53.43 52.68 52.24 51.84 51.02 49.52 48.09 46.40 46.58 45.04 43.91 44.33 43.15 42.34 41.73 41.10 41.88 41.72 42.74 41.20 43.54 45.32 41.23 40.48 43.11 44.12 44.36 48.11 50.15 49.07 50.06
54.66 55.64 55.90 55.05 58.77 55.47 54.72 53.70 52.77 52.59 51.73 51.33 50.32 49.59 47.88 47.16 46.69 45.66 43.88 43.17 44.25 42.40 40.93 40.72 40.60 40.10 40.37 38.98 42.37 42.67 40.56 40.59 42.32 39.35 37.82 42.12 42.97 42.37 41.41 41.26 40.98 41.00 47.50
55.92 56.95 57.65 58.40 56.61 54.99 53.61 51.37 48.92 46.83 48.28 47.49 46.78 45.47 44.86 44.08 43.34 42.37 42.02 41.24 41.62 39.76 38.24 39.04 38.72 38.32 38.21 38.61 37.97 37.63 38.52 40.05 38.51 38.07 38.66 39.79 39.98 40.73 39.71 39.22 39.68 40.32 41.36
55.44 56.25 56.57 56.86 55.63 54.22 52.71 50.34 48.90 46.93 45.95 45.94 43.66 42.29 41.88 41.62 41.76 41.39 39.97 39.28 38.91 38.28 36.87 36.41 36.26 36.02 36.59 37.50 35.68 35.22 33.55 35.97 37.67 38.18 37.95 38.45 37.85 38.73 39.15 40.23 39.32 39.61 39.17
52.70 53.19 53.32 53.02 52.44 51.98 51.13 49.95 48.45 47.64 45.92 43.77 41.89 40.40 39.84 40.09 40.30 39.49 38.76 38.14 37.56 36.83 35.56 35.14 35.16 35.09 33.95 35.87 36.23 35.03 30.50 29.48 32.76 35.43 36.67 36.22 36.98 36.20 37.45 38.57 38.69 39.37 39.43
49.89 50.84 51.49 51.64 51.21 51.01 50.83 48.98 47.41 45.47 43.59 42.91 41.83 39.56 38.58 38.66 38.55 38.63 38.09 37.13 36.25 36.00 34.43 34.86 36.63 33.98 33.75 33.21 35.05 38.54 35.83 34.12 29.73 28.93 33.90 35.63 34.28 35.82 35.67 35.31 36.69 37.56 38.76
48.92 48.47 48.90 49.72 49.73 49.07 48.32 47.39 46.31 43.62 42.90 41.45 39.81 37.77 36.93 36.76 37.37 37.52 36.76 35.64 34.92 35.02 33.74 33.52 33.50 32.54 32.99 33.81 32.85 33.41 33.07 32.49 32.50 30.66 27.34 29.14 33.42 34.94 35.58 35.42 34.88 36.35 37.56
45.73 45.80 46.53 47.42 46.00 46.32 46.27 44.36 43.32 41.57 39.28 38.34 36.78 36.15 35.99 35.80 35.79 35.68 35.84 34.08 33.55 33.50 33.16 32.78 32.57 32.10 32.13 32.05 31.98 31.90 31.54 29.79 29.83 28.41 27.36 28.27 28.87 31.69 33.29 35.24 34.77 35.50 36.17

GFSSE_sfc_wetblb_033.txt.gz
Wetbulb
66.54 71.02 75.31 74.25 73.63 72.96 72.37 71.28 70.37 69.29 68.89 68.55 68.37 69.14 69.56 70.33 69.26 67.65 66.37 66.23 65.43 65.15 66.72 67.78 67.24 70.43 70.74 69.84 69.28 68.19 66.85 65.71 64.80 64.38 64.44 64.62 64.04 63.99 66.39 65.92 65.45 64.37 67.51
68.88 72.50 74.96 74.58 73.74 73.07 72.16 71.23 70.27 69.08 68.36 67.73 67.08 67.61 68.02 68.48 68.00 66.77 65.54 66.02 65.30 64.77 65.48 67.15 68.67 69.11 69.55 69.17 67.83 66.76 66.23 65.93 65.04 63.99 64.70 64.25 63.53 64.67 64.95 66.89 66.57 64.32 66.95
70.63 72.71 73.30 74.66 74.30 73.09 71.80 71.01 70.24 69.08 67.98 67.34 66.92 66.12 66.34 66.28 65.77 65.82 65.87 65.46 64.80 65.10 64.22 65.56 66.31 66.90 67.82 67.07 66.91 66.89 66.40 65.67 64.81 64.08 64.56 59.23 59.57 64.52 66.70 65.99 66.65 66.38 66.08
71.95 72.25 72.33 74.49 74.22 73.10 71.71 70.97 70.29 69.35 68.50 67.32 66.39 66.54 66.77 66.74 66.70 66.21 65.49 65.35 65.23 64.47 64.12 63.94 64.23 65.25 65.16 65.31 65.72 65.77 65.97 65.97 65.07 64.74 60.17 59.95 59.63 64.11 66.48 66.13 67.25 67.02 66.60
71.23 71.85 72.16 74.31 74.38 73.30 72.10 71.13 70.44 69.57 68.81 67.57 66.50 66.63 67.06 66.78 67.57 66.56 66.25 65.40 64.60 63.81 63.46 63.44 63.44 63.64 64.48 64.88 65.18 65.50 65.57 65.57 65.67 63.72 59.99 58.64 58.18 62.43 65.47 66.34 67.90 66.72 66.56
69.88 70.34 72.42 74.23 74.37 73.91 73.05 71.29 70.55 69.75 68.95 67.57 66.68 66.68 66.93 67.51 68.79 67.42 67.10 66.01 65.40 64.22 63.69 63.32 63.00 62.93 62.76 63.06 63.13 63.75 64.16 64.45 65.43 59.46 58.37 58.19 58.91 62.62 65.25 65.98 65.59 66.68 66.68
69.07 70.27 71.84 74.28 74.36 74.23 72.58 71.51 70.80 70.04 69.04 67.61 66.28 67.33 67.26 67.63 69.08 67.36 67.51 66.38 65.82 64.81 64.19 63.82 63.70 63.74 64.15 65.20 65.70 65.82 65.99 66.33 62.41 59.08 58.12 57.36 56.66 64.10 65.28 66.38 66.90 66.34 67.26
69.05 70.45 71.66 72.94 73.75 73.80 72.88 71.99 71.27 70.16 69.15 67.63 66.79 67.43 67.96 68.64 68.91 68.44 67.51 66.52 65.97 65.32 64.78 64.72 64.78 64.77 65.30 66.17 66.28 66.53 66.90 67.00 63.99 60.83 60.06 59.04 61.35 65.67 66.05 65.83 66.47 67.09 66.35
68.49 69.92 70.74 71.89 72.37 72.46 72.52 72.06 71.72 70.72 69.85 68.10 67.73 68.59 68.55 68.62 69.61 68.82 67.72 67.02 66.46 66.14 66.09 65.99 65.92 65.93 65.95 65.84 65.96 66.66 67.37 67.21 64.37 62.62 62.38 61.12 63.61 66.53 66.96 66.71 66.73 67.01 67.15
68.26 69.74 70.18 71.13 71.43 71.14 70.55 71.16 71.03 70.71 70.05 68.91 68.64 68.58 67.50 66.53 67.65 68.96 68.71 68.15 66.90 66.56 66.62 66.35 65.73 65.22 65.67 66.06 66.24 66.97 66.65 66.21 62.70 61.66 61.86 61.81 65.68 67.41 68.04 67.95 68.02 67.93 67.44
67.37 67.95 69.41 69.96 70.07 69.95 69.58 69.68 70.31 69.83 69.00 68.46 67.10 66.31 65.45 62.64 62.12 63.19 65.29 66.24 67.21 66.82 66.86 66.56 65.99 66.16 66.99 66.55 66.33 66.47 65.65 61.94 60.15 60.40 60.84 63.52 66.02 67.75 68.59 68.62 68.49 68.31 68.25
64.08 65.62 68.84 68.83 68.95 68.75 70.30 68.45 67.77 67.82 66.51 65.40 64.72 62.96 62.46 61.29 60.68 61.64 62.04 64.97 66.47 66.75 67.39 66.30 66.72 67.51 66.03 62.35 61.34 62.37 60.07 59.13 58.76 59.51 60.53 64.36 66.30 67.67 68.34 68.59 68.39 68.12 67.96
62.85 63.81 66.87 67.54 68.21 67.92 68.49 67.29 66.75 66.09 64.92 64.29 63.36 62.52 61.89 61.98 60.33 59.85 59.36 59.57 60.55 61.49 60.24 60.63 59.71 59.20 59.02 59.46 59.57 59.10 58.99 58.13 58.11 59.39 60.67 63.35 63.89 65.34 65.69 65.91 66.20 66.70 66.98
58.22 62.15 64.61 65.97 66.11 66.36 67.00 67.46 66.85 65.93 64.44 63.51 63.42 62.92 61.30 60.49 59.02 57.61 57.57 57.99 58.05 58.41 58.13 58.20 58.19 59.74 60.37 60.52 58.88 56.57 54.60 55.84 55.71 56.08 56.30 59.57 61.17 62.24 62.39 63.18 64.12 64.38 64.92
54.92 59.67 62.58 63.90 64.30 64.50 64.99 66.25 65.29 65.18 64.49 63.86 63.21 63.18 61.73 60.27 57.20 56.79 57.17 58.20 58.66 58.65 60.43 59.67 57.97 55.87 53.67 53.52 51.61 50.02 50.71 50.14 49.77 50.92 51.13 57.06 56.85 57.30 59.38 60.54 61.11 61.64 62.53
52.43 56.80 61.62 63.06 64.00 63.72 65.08 64.64 64.89 64.23 64.03 63.79 64.03 63.48 62.00 60.83 60.80 60.44 57.07 56.27 53.43 55.34 53.84 52.95 52.07 51.06 49.24 46.81 45.95 46.19 45.95 45.86 46.18 46.45 48.55 45.89 53.43 53.72 56.02 58.24 58.65 59.73 59.54
54.07 55.80 59.66 62.05 62.71 62.94 64.42 64.45 63.66 64.46 64.71 63.40 63.03 63.04 62.82 62.26 56.45 52.70 53.14 52.17 51.64 51.61 51.19 49.62 48.14 45.08 43.63 43.75 41.44 42.83 43.12 43.26 42.65 45.47 43.84 40.95 44.19 50.20 52.31 54.32 55.05 55.20 55.23
53.10 54.52 58.03 62.39 61.52 62.18 63.05 62.07 62.88 63.51 61.07 56.86 56.35 56.00 55.55 54.66 53.46 52.03 51.10 49.81 48.49 46.50 44.83 43.40 41.78 41.34 40.61 39.86 39.30 40.09 40.98 40.59 41.40 41.93 39.67 39.61 42.57 43.42 45.62 50.63 50.39 50.53 51.54
52.50 53.90 53.72 56.45 58.71 60.28 60.81 58.41 56.69 56.07 54.76 53.51 52.93 52.38 51.81 50.96 49.66 47.65 46.16 44.62 42.88 41.33 40.52 41.19 40.38 39.65 38.34 38.51 39.96 40.44 39.66 38.66 42.19 40.44 37.27 40.30 41.41 40.89 40.13 45.00 46.11 46.05 48.04
52.13 53.95 54.22 55.67 56.80 56.76 54.47 52.89 52.12 51.95 50.98 50.83 49.66 48.75 48.09 46.94 44.79 43.29 41.69 41.18 40.77 39.24 38.33 37.94 38.07 37.56 37.84 36.62 40.25 39.98 37.65 38.47 39.93 36.03 36.65 39.71 39.75 38.83 38.31 38.49 37.18 38.57 45.31
53.87 54.44 53.61 55.45 53.04 54.34 52.88 50.82 49.04 48.45 47.46 46.49 46.09 45.52 44.33 42.69 41.91 40.37 39.85 39.36 38.75 37.34 36.19 36.88 36.63 35.74 36.02 36.61 35.12 35.89 37.01 38.15 37.42 35.71 36.99 35.77 36.53 37.26 37.53 37.19 37.89 37.84 38.82
54.58 55.28 55.78 53.71 52.41 52.32 51.54 48.46 47.29 46.25 45.37 43.70 42.56 42.43 40.81 40.04 40.08 39.80 38.33 37.59 36.98 36.36 35.36 34.57 34.32 34.22 34.38 35.60 34.13 33.76 31.24 33.23 35.91 37.29 35.76 37.25 34.64 35.46 36.70 37.36 36.66 36.60 36.33
53.77 54.04 54.78 52.77 51.39 50.28 48.89 47.74 45.62 45.52 44.47 42.88 41.42 38.48 38.20 38.68 38.66 38.16 37.38 36.70 35.81 35.18 34.04 33.54 33.37 32.96 31.90 33.90 34.88 32.03 27.90 27.16 31.13 33.44 33.81 34.56 35.00 33.67 34.50 35.69 36.40 36.69 36.53
52.64 52.24 51.73 51.04 49.74 49.16 49.31 47.43 46.76 44.59 42.07 40.74 38.44 36.59 36.73 37.31 36.99 37.37 36.69 35.65 34.79 34.27 32.87 33.49 34.36 31.78 32.31 31.33 32.97 35.80 33.88 32.87 27.75 26.47 32.01 33.73 32.09 33.57 32.55 33.08 34.70 35.03 35.67
49.97 49.71 49.37 49.23 48.93 47.92 47.25 46.91 45.45 42.89 41.75 38.94 36.79 35.37 35.09 35.38 35.96 35.96 35.41 34.24 33.55 33.24 32.04 31.95 31.36 30.91 31.47 31.44 30.85 31.23 31.10 30.90 30.15 28.23 25.76 27.52 30.93 32.29 33.10 33.14 32.64 34.03 34.27
46.69 47.46 48.17 48.36 46.44 46.13 45.75 44.31 44.03 41.29 38.95 37.28 35.49 34.73 34.35 34.24 34.47 34.29 34.22 32.89 32.19 32.06 31.45 31.08 30.87 30.55 30.24 30.15 29.91 29.25 29.24 28.09 27.98 26.46 25.01 25.90 26.17 29.14 30.74 32.99 32.84 32.83 33.54

GFSSE_sfc_wetblb_036.txt.gz
Wetbulb
65.63 69.75 75.49 74.75 73.87 73.10 72.19 71.20 70.35 69.87 69.84 69.09 68.85 68.90 69.50 69.85 68.73 67.52 66.84 66.19 65.67 65.59 67.70 67.00 67.43 70.54 71.02 70.50 69.89 68.07 66.73 65.92 65.19 64.75 65.04 64.99 64.28 63.67 64.94 66.16 65.48 64.38 67.27
66.85 70.94 75.27 74.94 74.29 72.93 71.98 71.29 70.27 69.28 68.71 68.24 67.45 68.75 68.75 70.25 68.02 66.89 65.48 65.20 65.40 64.83 66.56 68.20 69.70 69.58 70.52 69.50 68.67 67.40 66.84 66.32 65.25 64.84 65.22 62.88 63.14 64.53 65.38 65.40 66.62 64.85 66.50
68.75 72.31 73.36 74.62 73.95 72.81 71.97 71.17 70.06 68.91 68.24 67.44 66.75 66.83 67.03 66.94 66.20 64.61 65.08 65.41 65.16 64.74 64.35 66.06 66.92 68.00 68.59 67.79 67.27 67.21 66.91 66.22 65.06 64.50 64.26 59.10 59.28 64.34 66.59 66.35 66.36 66.02 66.07
70.93 72.24 71.97 74.54 74.25 72.75 71.67 70.97 70.09 69.07 67.96 67.12 66.33 65.90 66.34 65.96 66.18 65.46 65.20 64.95 65.15 64.40 63.98 64.02 64.69 65.68 65.76 65.68 65.90 66.10 65.98 65.79 65.62 65.33 60.51 59.89 59.39 63.76 65.65 66.09 66.65 67.34 66.88
71.25 71.60 72.04 74.47 74.32 73.47 71.66 71.02 70.24 69.34 68.46 67.14 66.35 66.81 67.01 66.70 66.89 66.44 65.56 65.14 64.51 63.83 63.33 63.40 63.41 63.77 64.59 64.85 65.02 65.20 65.12 64.81 65.47 63.18 59.63 58.37 57.88 61.79 64.65 65.74 66.29 68.01 66.34
70.10 69.97 72.56 74.32 74.27 73.71 72.43 71.20 70.43 69.64 68.88 67.52 66.60 66.78 66.91 67.21 68.09 67.11 66.64 65.84 65.04 63.95 63.37 63.10 62.89 62.74 62.58 63.02 63.34 63.79 64.31 64.05 64.72 58.50 57.94 58.05 58.76 62.04 64.19 65.67 66.01 65.85 66.63
68.95 69.61 71.74 74.33 74.27 73.55 72.25 71.39 70.73 69.97 69.14 67.74 66.71 66.64 67.14 67.55 69.53 67.95 67.40 66.34 65.63 64.53 63.99 63.65 63.31 63.64 63.84 64.87 65.64 65.87 66.01 66.63 62.50 59.58 58.90 58.47 57.89 64.53 65.53 65.42 66.45 66.85 66.81
68.97 69.74 71.13 73.00 73.69 73.81 72.97 71.92 71.22 70.32 69.33 67.93 66.48 67.34 67.57 68.11 68.94 68.67 67.88 66.74 66.04 65.16 64.42 64.44 64.54 64.78 64.98 65.60 66.35 66.48 67.12 67.20 64.50 61.32 60.74 60.03 62.41 66.61 67.08 66.83 66.06 66.59 67.04
68.78 69.30 70.08 71.48 72.29 72.66 72.29 72.11 71.74 70.69 69.83 68.56 67.13 67.94 68.87 69.20 68.92 68.76 67.90 66.96 66.47 65.68 65.57 65.91 65.69 65.59 65.92 65.96 66.02 66.59 67.05 66.78 63.88 62.20 62.31 61.60 64.14 67.20 68.06 67.90 67.72 67.47 67.50
66.90 68.81 68.88 70.23 70.88 70.66 70.61 71.41 71.22 70.85 70.34 69.08 68.64 68.75 67.61 66.62 68.22 69.07 68.29 68.04 67.01 66.43 66.40 66.54 66.31 65.59 65.66 65.92 66.25 67.10 66.74 66.09 61.35 60.31 60.38 60.68 65.51 67.66 68.48 68.67 68.77 68.78 68.55
66.73 67.58 68.59 70.22 69.84 69.66 69.29 69.64 70.46 70.17 69.38 68.26 67.27 66.81 65.65 62.43 61.64 62.28 64.84 66.67 67.18 66.66 66.73 66.83 66.43 66.54 67.23 66.28 65.59 65.05 64.63 60.72 58.97 59.32 59.64 63.12 66.15 67.83 68.43 68.54 68.51 68.46 68.59
64.49 66.16 69.27 69.55 69.70 69.05 69.96 68.27 67.62 67.78 66.50 65.35 64.05 62.27 62.03 60.88 60.25 61.71 61.54 63.78 65.74 66.61 66.37 66.18 65.95 65.28 63.10 60.53 60.03 61.21 59.12 58.00 57.96 58.51 59.53 63.26 63.83 65.67 66.26 66.31 66.35 66.60 66.86
61.43 64.96 67.99 68.38 68.93 69.23 69.56 67.15 66.39 66.00 65.07 64.08 63.13 61.99 61.34 61.30 59.79 59.42 58.77 58.96 59.06 61.02 59.52 59.63 59.13 58.58 58.25 58.31 58.83 57.31 55.88 56.09 54.83 55.43 56.58 60.02 61.83 63.11 63.31 63.27 64.10 64.30 64.66
58.97 63.31 65.75 67.69 68.06 68.22 67.58 67.40 66.48 65.88 64.45 63.27 62.94 62.30 60.64 59.91 59.15 57.55 57.13 56.97 57.31 58.00 57.57 57.68 58.40 59.38 55.63 53.47 52.26 52.36 50.16 49.57 49.22 50.37 51.42 57.93 57.82 59.43 60.70 61.34 61.67 62.00 62.94
56.28 58.47 63.09 65.99 66.77 67.33 66.86 67.20 66.15 65.87 65.09 63.71 63.02 62.90 61.92 60.75 58.72 56.33 56.92 58.05 58.25 58.04 58.18 54.58 53.46 52.38 50.55 49.41 46.41 46.37 46.37 45.29 45.18 45.98 47.02 53.21 54.94 56.42 58.29 59.67 60.26 60.94 60.16
51.45 52.58 60.04 64.05 65.71 65.66 66.59 66.03 65.91 65.41 64.66 64.30 64.47 64.32 63.23 61.44 60.21 60.53 56.75 53.22 52.75 52.90 52.26 51.35 49.75 47.45 43.60 42.58 41.53 41.60 41.75 42.89 41.95 45.27 40.99 42.28 52.57 53.62 55.27 57.23 57.13 56.83 56.43
52.00 51.89 56.57 61.93 64.08 64.05 65.14 65.34 64.54 64.30 65.10 64.25 64.00 62.91 62.06 62.07 56.64 53.78 52.71 50.86 49.24 49.31 48.79 45.68 42.94 41.90 39.78 40.36 38.55 39.75 40.67 39.56 41.52 40.00 39.11 40.63 42.87 48.26 52.23 52.99 53.17 52.88 53.47
50.47 53.02 55.63 61.68 62.60 62.95 64.02 63.69 63.11 63.52 62.85 59.31 59.05 59.47 57.95 54.68 53.52 51.95 49.80 47.44 44.49 42.43 41.81 40.59 39.14 39.40 37.66 37.24 36.63 38.39 38.54 38.20 41.44 36.40 38.44 39.36 41.15 40.16 43.79 48.96 48.91 49.31 50.43
51.25 52.67 54.71 59.11 60.36 61.53 61.63 61.47 58.30 56.88 55.79 54.30 53.61 52.49 51.34 50.36 49.80 48.39 45.35 42.28 40.29 38.97 38.28 39.02 37.75 37.95 36.07 36.44 37.24 38.51 36.45 36.94 39.70 37.85 37.15 38.38 38.69 37.98 38.17 43.21 45.05 45.28 46.82
51.03 52.54 52.20 56.51 59.05 59.12 55.53 53.07 51.72 51.27 51.48 50.99 49.79 48.80 47.80 46.32 45.23 43.68 40.65 38.92 38.69 37.46 36.51 36.52 36.28 35.74 36.03 34.80 37.77 37.15 36.10 37.29 38.06 34.48 36.34 38.17 36.56 36.51 36.91 36.28 35.98 37.36 44.23
50.88 52.37 53.80 54.69 54.36 54.78 52.94 51.25 50.43 47.42 46.12 46.40 46.00 45.40 44.59 43.40 41.65 39.82 38.59 37.60 36.95 36.01 34.85 35.48 34.97 33.66 34.35 35.12 33.94 34.80 35.39 36.11 36.70 35.25 35.19 34.93 34.74 35.29 35.63 34.51 35.37 35.82 36.39
52.24 52.74 53.81 52.39 52.19 53.58 53.73 48.87 47.24 48.87 45.23 43.66 42.87 41.58 41.99 41.37 39.42 38.68 37.03 36.07 35.66 35.14 34.22 33.30 32.58 32.48 32.64 33.93 31.86 31.61 29.00 31.45 34.07 35.59 33.45 35.55 32.61 34.01 34.42 35.51 34.44 35.75 34.65
52.48 53.15 53.45 51.42 50.43 49.40 47.75 46.43 43.97 43.94 43.00 41.64 40.84 40.36 39.32 38.40 37.74 36.95 36.09 35.40 34.51 34.23 33.22 32.26 31.65 31.93 30.84 32.14 33.28 30.45 26.28 24.98 29.69 31.95 32.80 33.78 32.61 31.76 32.39 32.90 34.53 34.92 34.61
52.26 52.88 51.89 50.44 48.50 47.59 48.07 46.99 45.84 44.73 42.08 41.81 39.88 38.87 37.49 36.25 36.12 36.11 35.46 34.52 33.67 33.27 32.00 32.72 32.55 30.66 31.18 29.72 31.00 33.99 32.05 31.60 25.98 25.10 30.16 31.99 30.16 31.99 30.02 30.74 32.75 33.17 34.03
51.65 50.88 49.24 47.97 47.33 46.23 46.60 46.74 44.70 41.51 40.00 39.34 37.70 35.88 33.98 34.05 34.65 34.81 34.21 33.33 32.66 32.33 31.00 30.77 29.98 29.63 30.11 29.64 29.27 29.34 29.01 29.20 28.37 26.52 24.25 25.95 29.90 30.94 31.14 30.20 30.49 32.08 32.97
49.06 48.46 48.03 47.49 45.45 45.19 45.43 45.49 44.22 40.50 38.57 36.54 34.56 33.72 33.08 33.12 33.18 33.04 33.10 31.97 31.58 31.37 30.51 30.06 29.65 29.34 28.99 28.66 28.40 27.82 27.71 26.54 26.18 24.68 23.26 25.06 25.17 27.28 29.53 30.97 30.44 30.46 31.37

GFSSE_sfc_wetblb_039.txt.gz
Wetbulb
68.55 71.57 75.56 75.11 73.87 73.18 72.52 71.63 71.02 70.84 70.50 69.76 69.99 70.68 70.37 70.15 68.68 67.72 67.05 66.28 66.02 66.27 67.86 66.34 67.28 69.61 71.17 70.80 70.14 68.43 67.04 66.55 66.20 65.66 65.50 64.25 63.90 63.94 64.09 66.29 65.53 65.02 66.36
69.87 72.10 75.58 75.08 74.17 73.08 72.15 71.45 70.59 70.25 69.48 68.83 69.28 69.44 69.64 70.14 68.59 67.05 65.69 65.68 65.24 65.82 67.35 69.44 70.72 71.22 70.77 70.60 68.83 68.07 67.54 66.48 65.79 65.40 64.24 62.92 63.06 64.43 64.75 66.19 66.04 65.62 66.33
70.03 72.85 74.01 74.85 74.34 73.08 72.06 71.29 70.19 69.36 68.55 67.46 67.27 67.78 68.20 68.56 67.05 64.78 65.40 65.60 65.62 65.17 65.35 67.15 68.02 69.25 68.96 68.48 68.15 67.80 67.06 66.32 65.32 64.92 63.74 64.19 63.54 63.76 65.29 66.58 66.23 66.46 65.93
71.48 73.34 73.26 74.56 74.16 72.78 71.82 70.95 69.92 68.98 68.04 67.38 66.42 66.28 66.15 65.61 65.79 65.73 65.61 65.37 65.33 64.61 64.45 64.57 65.43 66.45 66.75 66.70 66.29 66.04 65.79 65.47 65.57 65.33 65.32 64.32 63.30 63.10 64.81 65.85 66.46 67.42 67.41
72.15 73.33 73.17 74.19 74.06 73.10 71.86 70.99 70.05 69.06 68.13 67.15 66.58 66.54 66.68 66.98 66.68 65.96 65.54 65.44 64.95 64.20 63.68 63.76 63.96 64.63 65.06 64.79 64.58 64.51 64.46 64.29 65.12 64.48 64.13 63.31 63.46 62.23 63.79 65.55 66.26 67.10 68.28
72.01 73.15 73.71 74.21 74.25 73.19 72.50 71.14 70.26 69.47 68.61 67.30 66.81 67.18 67.20 66.81 67.32 67.24 66.53 65.94 65.11 64.19 63.72 63.33 63.17 63.19 63.29 63.91 64.43 64.95 65.22 65.00 64.41 64.43 64.22 63.83 64.11 63.34 64.83 64.93 66.28 66.37 66.31
70.44 72.54 73.20 74.44 74.31 73.27 71.94 71.37 70.60 69.98 69.14 67.75 66.94 66.96 67.14 67.18 68.60 67.92 67.31 66.37 65.58 64.46 64.30 63.96 63.49 63.88 64.07 65.22 65.80 65.97 66.02 66.96 66.37 66.24 65.83 65.58 65.19 65.77 66.70 66.26 66.08 66.84 67.11
70.68 71.99 72.80 73.10 73.66 73.37 72.48 71.91 71.23 70.31 69.54 68.06 67.00 67.10 67.41 67.78 68.80 68.46 68.03 66.99 66.10 65.13 64.54 64.70 65.15 65.50 65.57 65.62 65.79 66.16 66.83 67.07 65.65 65.86 65.94 65.90 65.31 66.68 67.74 67.32 67.57 66.90 67.24
71.15 71.48 72.23 72.78 72.82 72.59 72.40 72.00 71.74 70.89 70.16 69.06 67.40 67.92 68.40 68.53 68.75 69.95 68.35 67.17 66.49 65.60 65.47 65.94 66.02 65.68 65.57 65.82 66.14 66.46 67.14 66.65 65.92 65.73 64.93 65.30 64.28 66.92 68.18 68.38 68.64 68.58 68.36
70.42 71.09 71.50 72.57 72.49 72.58 72.08 71.37 71.26 70.94 70.26 69.34 68.35 68.37 67.51 66.14 67.88 69.28 68.09 67.94 66.64 66.11 66.08 66.62 66.55 66.28 66.08 66.31 66.46 66.56 66.27 65.70 65.30 64.77 64.73 64.69 65.60 67.71 68.60 68.39 68.54 68.84 68.93
68.05 70.08 71.03 71.65 72.31 72.38 71.72 71.03 70.75 70.15 69.49 68.19 67.54 67.06 66.41 66.32 65.45 65.67 65.20 66.78 66.90 66.36 66.47 66.86 66.67 66.92 66.98 65.51 64.66 64.21 63.19 64.74 64.09 64.14 64.37 64.34 65.13 66.52 67.29 67.03 66.76 67.00 67.24
66.68 68.29 70.03 70.60 70.92 71.68 71.09 71.27 70.95 70.24 70.04 68.46 66.85 67.54 66.99 66.06 65.39 64.34 63.01 62.98 64.25 65.54 65.19 65.32 64.64 63.59 63.15 64.32 64.45 62.64 63.30 62.77 62.13 61.38 61.20 61.32 62.91 64.31 64.73 64.30 64.73 65.05 65.46
66.00 67.71 69.15 69.47 69.65 70.41 70.47 70.45 70.05 69.69 68.88 67.91 66.73 65.58 65.46 64.64 64.50 64.58 64.32 64.16 64.51 62.66 64.70 63.54 63.67 63.76 62.86 60.37 58.05 57.13 57.16 56.63 56.46 56.41 56.77 59.25 60.48 61.30 61.82 62.42 62.56 62.86 63.73
64.14 66.54 68.46 69.39 68.69 69.18 69.93 69.48 69.53 68.77 68.22 67.00 66.58 65.65 65.08 64.67 64.08 64.08 62.83 62.55 63.06 63.52 63.36 63.61 61.06 55.16 54.15 51.77 50.79 53.55 53.37 52.86 52.57 53.23 54.73 56.58 57.54 58.93 59.67 60.76 61.48 62.30 61.17
60.69 63.12 66.99 68.99 68.30 68.49 68.56 68.26 68.62 68.83 67.89 67.30 66.35 65.85 65.12 64.04 63.20 61.70 62.41 62.94 62.53 61.02 57.81 55.14 53.25 51.49 49.07 49.26 48.77 48.76 49.13 49.68 48.86 52.96 49.73 54.89 55.82 57.46 58.42 59.71 59.18 58.79 58.42
56.89 57.90 62.41 66.89 68.79 68.46 67.60 68.06 68.35 68.89 68.41 67.31 65.91 65.11 64.29 63.79 61.29 61.87 55.91 54.59 53.78 53.15 52.12 52.50 49.94 48.99 47.21 46.77 46.29 46.76 47.92 46.89 49.52 47.41 49.04 51.18 52.32 54.61 55.89 56.19 55.89 55.71 55.92
56.57 56.69 56.98 62.88 67.45 68.07 68.37 68.68 68.53 68.34 67.87 66.51 65.70 65.51 64.67 62.63 61.60 56.02 53.42 51.62 50.67 51.46 48.31 48.09 47.95 46.97 45.81 45.08 44.73 46.18 46.83 45.68 49.27 45.57 47.39 47.87 47.25 49.73 51.91 52.40 52.11 52.42 52.54
55.28 54.87 56.58 60.40 65.18 66.87 67.70 67.91 67.59 67.67 67.55 66.16 64.90 63.87 61.89 58.17 55.87 53.06 50.26 48.37 46.28 47.42 47.37 45.67 45.47 45.53 43.92 43.45 43.53 45.20 44.85 45.90 44.68 45.42 46.00 46.33 45.34 45.16 45.99 47.53 47.63 47.98 49.26
55.05 55.35 56.30 60.30 63.63 65.09 66.53 66.56 66.70 66.14 64.26 61.31 58.00 56.05 55.03 53.94 53.15 49.33 46.61 46.00 45.41 44.63 44.67 44.61 43.31 44.37 42.25 42.63 42.99 44.42 44.23 45.82 43.59 44.08 44.38 44.52 43.63 44.26 44.00 42.87 43.73 44.01 45.71
54.78 55.69 56.82 59.76 62.81 64.12 64.42 61.08 58.92 57.54 56.31 55.89 53.39 51.26 50.12 48.67 47.93 46.08 43.81 43.92 43.90 43.22 42.62 42.86 41.68 42.26 41.30 40.99 41.38 41.95 44.39 45.91 43.86 43.27 43.12 44.01 42.73 42.45 42.63 41.23 41.35 41.28 43.05
53.93 55.51 56.14 59.66 61.80 60.25 58.22 57.00 55.68 53.47 53.24 51.03 48.42 47.29 46.67 45.85 44.94 43.54 43.05 42.26 42.36 41.44 40.46 40.67 41.63 40.41 40.08 40.97 41.03 41.99 42.99 42.73 44.44 44.73 42.11 43.20 41.61 41.28 40.88 40.63 40.01 40.11 40.88
54.01 55.21 56.55 59.04 59.08 58.98 58.83 56.32 54.11 52.46 50.33 49.92 45.80 45.02 45.50 43.82 42.53 42.43 42.03 41.17 41.23 40.47 39.97 39.70 39.95 39.72 39.08 39.86 37.75 38.26 36.76 40.00 41.58 41.75 42.03 41.24 40.13 40.33 39.58 39.15 38.78 39.13 40.02
53.96 54.85 55.96 56.13 56.52 55.89 51.63 50.30 47.90 47.64 46.57 44.83 42.46 41.85 42.80 41.98 41.43 41.27 40.97 40.43 40.32 40.63 38.86 38.56 39.01 38.97 37.41 38.49 38.61 37.79 35.51 34.34 35.31 39.19 39.89 40.53 39.18 38.31 38.30 37.93 37.77 38.34 38.74
55.03 55.62 55.72 54.56 53.48 51.83 51.63 51.06 50.20 49.94 46.96 45.58 41.82 40.66 39.43 40.10 39.66 40.28 39.80 39.72 39.42 39.25 38.58 38.21 37.98 37.94 38.25 35.91 37.91 37.29 37.91 36.88 32.86 31.63 37.26 38.12 37.58 36.09 36.31 36.66 36.86 37.23 37.86
54.88 55.50 54.32 52.79 51.62 50.63 51.47 52.02 51.87 48.44 44.76 41.37 38.91 37.85 36.79 37.79 39.34 38.98 39.02 38.73 38.07 37.96 37.44 37.37 36.82 36.69 36.87 36.43 35.93 35.70 35.40 35.36 35.24 32.53 29.87 32.74 34.79 35.99 35.90 35.80 35.92 36.52 37.18
54.43 53.56 51.86 50.99 49.15 49.42 49.83 48.79 47.41 43.41 40.78 37.86 37.13 36.21 35.90 37.73 37.59 37.58 37.48 37.55 37.52 37.19 36.96 36.58 36.21 35.97 35.54 35.32 35.35 34.69 33.93 33.04 32.45 31.09 29.67 30.70 30.57 33.13 34.51 35.10 35.61 36.03 36.86

GFSSE_sfc_wetblb_042.txt.gz
Wetbulb
70.54 74.14 75.50 75.56 74.23 73.67 72.68 72.03 71.24 71.06 71.24 71.41 71.14 70.83 70.50 69.64 68.67 67.99 67.02 66.67 66.22 67.38 67.73 66.01 67.00 68.19 71.02 70.72 69.84 68.45 67.47 66.61 66.35 66.14 64.32 63.91 63.73 64.16 63.95 66.00 65.84 65.30 65.74
72.27 73.99 75.68 75.27 74.26 73.16 72.49 71.85 71.55 71.09 70.27 69.97 70.09 70.52 70.59 69.76 68.65 67.57 65.78 66.03 65.86 66.33 68.82 69.56 70.86 71.22 70.32 70.27 68.98 68.31 67.74 66.46 65.65 65.53 63.31 63.13 62.92 64.80 64.83 66.57 65.85 66.21 65.86
72.33 73.72 74.68 74.61 74.25 73.41 72.12 71.36 70.96 70.21 69.40 68.54 69.65 69.15 70.51 69.31 67.65 65.29 65.96 65.87 65.79 64.93 66.61 67.57 68.74 69.52 69.74 69.13 68.44 68.05 67.11 66.09 65.21 65.19 64.00 65.37 64.28 63.36 65.52 66.78 66.59 66.77 66.18
72.60 74.09 74.02 74.50 74.20 72.84 71.94 71.05 70.12 69.52 68.51 67.70 67.79 67.76 67.75 66.85 66.44 66.60 66.12 65.96 65.11 64.59 64.86 65.49 66.28 67.10 67.30 67.24 67.15 66.63 66.02 65.66 65.56 65.32 65.47 64.30 63.20 61.89 64.39 65.76 66.43 66.99 67.45
72.78 73.82 74.01 74.19 73.83 72.90 71.68 70.67 69.79 68.88 68.25 67.48 67.01 67.12 66.93 66.97 66.41 66.28 66.02 65.96 65.27 64.40 64.12 64.31 64.61 65.48 65.44 64.95 64.55 64.43 64.48 64.41 65.01 65.07 64.51 65.00 65.33 63.43 64.14 64.54 66.36 66.69 68.01
72.62 73.38 73.71 74.01 73.92 73.20 72.35 70.82 69.95 69.17 68.16 67.36 67.38 67.60 67.59 67.76 67.42 67.30 66.77 66.37 65.34 64.64 64.22 63.90 63.68 64.03 64.51 65.01 65.33 65.29 65.27 65.35 65.36 66.69 66.71 66.27 66.04 65.51 66.30 65.83 65.57 66.64 66.85
72.32 72.73 73.67 74.13 73.90 73.24 71.92 71.08 70.28 69.69 68.68 67.56 67.40 67.42 67.87 67.61 68.07 67.98 67.25 66.73 65.79 64.81 64.82 64.50 64.41 64.58 64.65 65.36 66.31 66.22 66.68 66.49 66.86 67.14 67.00 67.08 67.03 66.32 67.28 67.31 67.06 66.62 67.22
72.18 72.38 72.96 73.03 73.45 73.16 72.46 71.59 70.77 70.16 69.22 67.85 67.33 67.45 67.28 67.20 68.72 68.55 67.93 67.16 66.33 65.28 64.87 65.12 65.42 65.53 65.57 65.55 65.67 66.10 66.38 66.64 65.85 66.57 66.90 67.34 66.17 66.45 67.94 68.18 68.17 68.36 67.96
72.36 72.07 72.35 72.85 72.76 72.07 72.17 71.99 71.62 70.63 69.96 68.49 67.49 67.93 67.66 67.66 67.85 68.94 68.39 67.40 66.59 65.65 65.51 65.91 65.99 65.75 65.26 65.55 66.00 66.34 66.60 66.24 66.91 67.40 66.75 67.14 65.57 67.42 68.66 68.68 68.88 69.22 69.23
71.81 71.64 71.85 72.15 72.13 72.35 72.26 71.38 71.28 70.99 70.36 69.62 68.48 68.56 67.49 66.70 68.82 69.70 68.41 67.84 66.59 66.10 66.06 66.36 66.40 66.21 66.21 66.30 66.23 65.92 65.07 65.13 67.11 66.93 67.35 66.50 66.17 67.57 67.95 67.66 67.57 67.72 68.06
70.39 71.14 71.48 72.04 71.94 72.11 72.04 71.17 70.78 70.11 69.32 68.27 67.43 67.33 66.36 67.70 68.53 68.31 65.83 67.01 66.88 66.12 66.15 66.41 66.42 66.57 65.76 65.32 63.88 63.36 63.19 67.16 66.60 66.77 66.73 62.40 63.77 65.43 65.92 65.44 65.35 65.94 66.34
68.66 70.30 71.18 71.79 71.89 71.63 71.55 72.20 71.51 70.69 69.92 69.04 66.97 67.34 67.42 66.54 66.69 66.41 64.28 63.38 64.46 65.23 64.82 64.75 63.94 63.33 63.91 67.63 66.88 63.97 65.61 65.23 64.64 64.13 63.38 60.72 62.34 63.48 63.20 63.30 63.26 63.68 64.38
68.63 69.91 70.78 71.51 71.61 71.80 71.74 71.78 71.49 71.05 70.06 69.51 67.80 66.97 66.68 65.86 65.14 65.27 66.28 65.79 66.64 63.06 66.89 66.14 66.68 66.89 63.89 61.97 61.44 61.60 61.33 61.19 61.23 60.67 59.06 57.88 59.56 61.04 61.55 61.83 62.06 63.27 62.46
67.11 68.78 70.36 71.33 71.31 70.48 70.63 71.15 71.31 70.69 69.97 69.36 68.32 66.54 66.17 65.95 66.15 66.27 66.31 66.54 66.73 67.27 66.83 67.29 63.17 58.68 57.14 57.27 56.77 57.89 57.25 57.04 56.42 56.40 56.68 55.82 57.28 58.66 60.30 61.21 60.92 60.21 59.74
65.36 67.53 69.39 70.96 71.06 70.58 69.93 69.88 70.55 70.45 69.88 69.66 68.57 67.40 67.20 66.67 66.34 66.21 65.67 66.46 66.66 65.39 62.53 60.56 56.55 54.70 57.17 55.85 54.27 52.79 52.63 52.75 51.95 54.59 54.01 55.05 55.48 57.32 58.96 58.56 57.71 57.47 57.42
64.37 65.03 67.34 69.78 70.92 71.01 69.43 69.37 69.39 70.57 70.13 69.93 68.82 67.70 67.58 66.76 65.35 64.94 62.41 58.75 56.33 55.93 55.19 57.29 57.56 56.14 54.58 52.32 51.04 50.72 51.16 50.67 51.45 51.61 53.37 53.29 53.91 54.99 55.41 54.90 54.50 54.39 54.51
61.76 62.00 61.90 65.68 69.48 70.26 70.19 68.85 70.73 70.40 70.02 69.68 68.86 68.00 66.08 66.44 65.33 61.21 58.39 56.97 56.59 55.95 55.15 55.19 54.10 53.03 51.66 50.39 49.86 49.65 50.06 48.94 51.86 50.56 51.94 51.98 50.98 50.65 50.55 50.97 50.36 50.56 51.26
62.04 61.44 61.45 60.47 64.09 68.52 69.79 70.65 70.58 70.33 70.10 70.01 68.94 67.63 67.13 64.85 61.83 57.06 53.81 52.23 53.55 54.51 53.33 51.35 51.30 51.39 49.56 48.74 48.53 49.17 48.81 48.93 49.86 49.90 50.54 49.91 49.33 49.06 47.51 46.54 47.09 47.53 48.51
61.63 61.50 61.17 61.55 62.25 65.72 68.75 69.95 70.28 69.97 69.82 69.93 69.20 67.71 64.04 63.59 59.96 54.99 53.91 50.14 52.13 51.19 50.50 49.22 48.95 48.38 47.14 47.06 46.95 47.60 48.59 50.24 48.34 47.70 48.23 47.44 47.05 48.04 47.26 44.15 43.79 44.04 44.84
60.41 61.22 61.26 61.71 63.11 65.56 67.44 68.97 69.40 69.20 69.50 68.99 66.80 63.51 60.21 59.71 55.63 50.01 51.34 50.19 50.22 49.30 48.42 47.81 46.85 46.40 45.45 45.35 45.06 45.77 48.66 49.77 48.11 48.03 47.52 46.83 46.91 46.30 45.97 44.86 44.36 44.28 43.92
59.91 60.13 60.85 61.47 63.35 65.26 65.79 66.26 67.01 64.88 63.29 61.66 60.70 57.45 56.44 54.15 51.17 47.66 50.35 49.15 49.15 47.43 46.19 46.22 45.58 45.10 44.37 44.92 45.12 46.25 47.16 46.95 48.05 47.98 47.67 46.43 45.58 44.66 44.12 43.56 43.00 42.91 43.13
59.21 59.82 60.79 61.69 63.89 65.10 65.51 65.11 65.15 61.37 57.62 54.44 53.50 51.10 52.32 49.19 46.84 45.51 48.37 47.89 47.03 45.66 45.04 44.86 44.99 44.49 43.58 43.93 41.89 42.99 42.53 43.77 46.24 46.61 45.15 45.28 43.79 44.32 42.95 42.42 42.11 41.83 42.07
58.71 59.61 60.10 61.65 63.85 64.53 64.53 63.98 59.27 54.71 51.29 47.48 47.63 47.73 47.16 47.05 46.79 46.70 47.57 46.89 46.14 45.59 44.03 43.93 44.01 43.49 42.54 42.94 42.18 41.53 40.40 40.07 39.79 44.15 43.56 42.80 43.13 41.95 41.73 41.55 41.19 41.11 41.13
58.66 60.36 60.29 61.47 62.82 63.34 61.51 58.27 56.45 57.35 53.17 49.56 47.78 45.37 43.76 44.25 46.29 45.58 45.93 45.68 44.95 44.39 43.62 42.77 42.89 42.77 43.08 41.31 42.75 40.98 41.03 39.71 37.02 36.39 41.64 41.64 41.45 40.10 40.60 40.57 40.31 40.34 40.63
58.69 59.83 60.04 60.63 61.28 60.20 59.43 60.02 59.73 57.80 54.50 48.37 45.15 42.17 41.01 42.14 43.42 43.51 44.46 44.28 43.63 43.18 42.68 42.24 41.81 41.36 41.92 41.59 40.39 40.09 39.84 39.30 38.92 36.10 34.38 37.69 39.59 40.57 40.33 39.57 39.58 39.74 40.20
57.81 59.53 59.78 59.06 58.80 58.73 59.51 59.52 60.32 56.32 49.30 44.78 42.45 39.35 39.57 40.97 41.71 43.38 43.15 43.24 42.92 42.27 41.91 41.32 41.13 40.36 41.00 40.48 40.20 39.34 37.71 36.74 36.46 35.63 34.37 35.24 35.28 37.80 39.28 39.49 38.88 39.11 39.45

GFSSE_sfc_wetblb_045.txt.gz
Wetbulb
71.20 73.92 75.74 75.25 74.53 73.79 72.84 72.41 72.21 72.21 71.91 71.67 71.43 71.17 70.41 69.58 68.93 68.26 67.53 66.89 67.65 69.17 67.41 67.69 67.02 68.01 70.74 70.56 69.54 68.65 67.80 67.17 66.76 65.62 64.13 63.70 64.22 65.24 64.55 65.79 66.69 66.10 66.46
72.90 73.75 75.71 75.55 74.82 73.23 72.54 71.92 71.53 71.49 71.36 71.47 71.21 71.12 70.71 69.60 68.61 67.38 67.00 66.10 66.48 67.38 69.41 70.42 71.15 68.51 70.13 70.20 69.07 68.79 67.94 66.92 66.03 65.58 64.04 63.51 63.78 65.10 66.12 67.14 67.13 65.94 65.86
73.14 73.80 74.40 74.78 74.42 73.53 72.35 71.88 71.50 70.73 70.22 70.27 70.25 70.37 70.87 69.59 67.63 66.64 66.87 66.52 66.04 65.77 67.47 68.70 69.72 70.73 70.21 69.43 68.68 68.31 67.66 66.61 65.85 65.72 65.91 65.56 64.28 64.04 64.83 66.12 66.84 66.47 66.39
72.66 73.69 73.86 74.20 74.05 73.02 71.97 71.56 70.87 69.83 68.77 69.03 69.10 70.08 69.68 67.75 66.88 66.83 66.62 66.35 65.29 65.18 65.17 66.55 67.47 67.82 67.62 67.45 67.24 67.06 66.38 65.79 65.42 65.69 65.24 63.44 62.89 63.85 63.37 64.73 66.63 66.87 67.69
72.56 73.64 73.75 74.13 73.83 72.86 71.66 70.70 70.03 69.01 68.10 67.77 67.99 67.41 67.30 66.86 66.50 66.45 66.54 66.15 65.11 64.63 64.60 65.09 65.46 65.52 65.38 65.26 65.38 65.30 65.01 64.44 64.62 65.10 65.44 65.97 65.34 65.87 65.49 65.19 65.36 66.73 67.28
72.32 73.72 73.23 73.80 73.69 72.94 71.84 70.37 69.47 68.82 68.12 67.29 67.58 67.82 67.55 67.46 67.29 67.04 66.88 66.09 65.00 64.70 64.59 64.29 64.63 65.12 65.57 66.39 66.25 65.85 65.59 65.92 66.89 66.86 66.37 66.56 66.39 66.82 67.20 66.58 66.38 66.16 66.79
71.85 73.98 73.35 73.83 73.55 72.93 71.60 70.63 69.83 68.98 67.99 67.77 67.81 67.87 68.01 68.21 68.24 67.81 67.27 66.69 65.43 65.36 65.33 65.26 65.34 65.33 65.55 65.58 66.16 66.80 67.13 66.27 65.95 66.60 66.53 66.84 67.22 66.59 67.72 67.73 67.88 68.23 67.81
71.50 72.76 73.06 72.81 73.03 72.80 72.07 71.23 70.53 69.68 68.47 67.73 67.92 67.93 68.22 67.68 68.15 68.44 67.75 67.17 66.23 65.59 65.66 65.95 66.00 65.88 65.90 65.85 65.99 66.30 66.61 66.59 65.78 66.23 66.79 67.05 66.30 67.02 68.38 68.45 68.66 69.34 69.46
71.75 71.57 72.53 72.70 72.20 71.96 71.99 71.65 71.35 70.41 69.69 68.77 68.47 68.26 67.80 67.35 67.78 69.06 68.22 67.57 66.54 66.06 65.90 66.16 65.99 65.79 65.31 65.61 66.16 66.37 66.25 66.11 65.65 66.62 66.47 66.66 67.10 68.25 68.67 68.38 68.01 68.08 68.46
71.39 70.99 71.68 72.28 71.98 71.59 71.50 71.21 71.16 70.86 70.26 69.23 68.73 69.00 67.37 67.87 69.01 69.71 68.57 68.08 66.88 66.46 66.30 66.44 66.46 66.30 66.35 66.23 65.91 65.35 65.30 65.67 65.71 65.99 65.72 64.05 64.82 66.40 66.94 66.49 66.17 66.68 67.08
70.19 70.50 71.04 71.37 71.25 71.18 71.31 70.80 70.61 70.10 69.47 68.53 67.32 67.39 66.23 67.51 68.53 67.58 66.63 67.94 67.31 66.41 66.30 66.55 66.37 66.09 65.81 66.21 64.77 63.95 64.50 65.62 65.03 64.98 63.85 62.69 63.64 65.40 65.17 64.36 64.49 64.80 65.29
68.81 69.78 70.43 71.21 71.27 71.35 71.07 70.81 70.51 69.93 69.12 67.86 65.69 66.84 66.76 66.71 67.22 66.89 65.20 66.09 66.33 66.12 65.55 65.34 64.46 64.64 64.28 66.20 63.99 64.27 64.16 63.46 62.97 62.71 59.78 59.84 61.39 62.67 62.92 62.98 63.01 64.30 64.35
68.72 69.93 70.31 71.08 71.38 70.90 70.11 71.07 70.80 70.36 69.62 68.51 66.97 66.46 66.32 65.48 65.20 64.35 65.21 64.06 65.14 63.24 65.94 65.33 65.20 65.09 63.06 62.15 62.16 62.21 61.80 61.27 60.99 60.81 57.25 58.02 58.90 59.88 60.72 61.86 62.74 62.00 61.18
67.28 68.94 70.23 70.85 71.21 71.28 71.65 70.31 70.37 70.34 69.16 68.35 68.03 66.50 65.91 64.69 63.79 64.49 65.11 65.85 66.06 65.74 65.82 65.71 62.77 61.11 59.92 59.45 58.97 57.95 57.70 57.52 56.39 56.22 54.86 56.89 58.10 59.84 60.45 61.00 59.76 59.45 59.10
65.47 67.66 69.31 70.39 70.78 71.25 70.96 70.98 70.64 69.20 69.03 68.69 68.56 66.54 66.23 65.74 65.36 65.77 65.22 65.27 65.59 65.20 63.93 62.19 60.37 58.98 58.90 57.89 56.63 54.64 53.65 53.67 52.63 54.26 54.68 56.12 57.19 58.75 58.64 58.11 57.10 56.86 56.59
65.15 66.17 68.20 69.42 70.43 70.98 70.76 69.64 70.36 70.31 69.07 68.76 68.23 67.34 66.87 66.75 66.57 65.93 65.63 63.77 61.66 60.56 58.98 60.03 59.05 57.54 56.34 54.49 52.76 52.08 51.81 52.39 51.28 52.37 53.05 52.77 54.77 55.13 54.68 54.55 53.50 53.03 53.24
62.72 65.34 65.73 67.77 69.45 70.02 70.30 69.41 69.42 70.32 69.21 68.37 67.92 67.66 67.31 67.39 66.58 65.83 63.22 61.00 60.65 60.10 58.72 57.64 55.75 54.60 52.84 51.85 51.35 50.99 50.55 49.85 50.35 50.08 51.91 52.22 50.98 50.58 50.22 50.36 50.10 50.49 51.07
62.95 62.79 63.24 63.05 66.80 68.90 69.62 70.26 69.31 70.39 69.36 68.27 68.18 68.11 67.49 67.14 66.56 63.43 61.09 58.49 58.34 58.24 56.66 54.65 52.91 51.98 50.78 49.82 49.30 50.22 49.54 49.75 49.82 49.27 50.39 50.19 50.75 49.24 47.85 46.55 46.49 47.29 47.56
62.75 62.75 62.79 62.63 62.48 65.09 68.50 69.64 70.04 70.24 68.79 68.29 68.42 68.23 67.47 66.85 64.48 60.74 58.87 55.54 56.48 55.31 53.80 51.51 50.54 49.37 48.62 48.47 48.22 48.67 50.07 49.76 49.17 48.01 48.79 47.98 47.80 48.49 47.86 46.23 44.05 45.79 45.32
61.48 62.55 62.73 62.79 62.64 63.27 66.27 68.90 69.44 69.40 68.44 68.28 68.26 67.53 67.64 65.41 62.13 58.23 55.21 54.66 54.13 52.37 50.85 50.14 49.13 48.03 46.78 46.35 46.01 46.85 48.69 49.27 49.74 49.23 47.82 47.21 47.23 46.42 46.82 46.40 45.53 45.20 46.23
60.35 61.18 61.54 62.05 62.42 63.54 65.28 66.51 67.44 67.43 66.70 64.97 66.17 67.14 65.76 62.94 58.19 55.99 54.08 52.94 52.39 50.93 49.55 48.83 47.49 46.81 45.64 45.65 46.86 47.67 48.01 47.40 48.51 48.47 48.67 47.12 46.84 46.04 45.22 44.67 43.79 43.43 43.19
59.40 60.97 61.20 61.70 62.43 63.91 65.81 67.07 67.59 66.78 60.72 60.70 61.34 62.71 60.85 57.59 54.61 52.20 51.22 51.06 49.82 48.27 47.30 47.02 47.09 45.63 45.00 44.92 42.46 44.61 44.07 44.66 46.66 47.82 47.68 45.81 44.84 45.27 43.98 43.35 42.55 42.30 42.34
59.01 60.06 60.86 61.54 62.83 64.55 65.82 66.83 66.72 59.00 54.59 52.04 52.19 51.63 51.91 51.75 50.18 50.08 50.11 49.07 48.82 48.60 47.03 46.45 46.00 45.89 44.10 44.34 43.33 41.87 40.90 40.87 40.40 45.33 44.51 44.54 43.80 44.06 42.94 42.72 42.22 41.92 41.54
58.35 61.19 61.54 61.97 62.91 64.72 66.03 65.03 62.58 57.13 53.21 50.34 50.06 50.33 49.60 50.11 49.43 49.15 49.00 48.22 47.41 47.19 45.65 44.87 44.49 44.15 44.73 41.93 43.47 41.99 42.13 40.22 37.00 36.40 43.23 42.84 43.51 40.99 42.03 41.98 41.31 41.03 41.03
56.62 60.09 61.78 62.08 62.82 64.56 64.61 64.48 60.87 58.18 57.82 50.62 47.46 46.16 45.63 47.02 47.05 46.35 46.05 46.50 46.36 45.77 44.37 43.96 43.41 42.70 42.13 41.90 40.72 40.18 40.13 40.26 39.70 36.57 34.65 38.41 40.35 41.47 41.40 41.22 40.63 40.56 40.49
56.19 59.37 61.81 61.43 62.14 63.87 63.79 60.98 59.55 60.57 52.14 46.35 43.81 43.44 44.04 44.67 45.40 45.82 44.66 45.56 45.13 44.31 43.48 42.75 42.69 42.19 41.29 40.91 40.28 39.43 38.04 36.86 36.71 36.38 34.77 35.22 35.26 38.01 39.97 40.14 40.08 39.68 40.30

GFSSE_sfc_wetblb_048.txt.gz
Wetbulb
70.40 73.46 75.57 75.07 74.34 73.99 73.40 73.38 73.04 72.58 72.24 72.18 71.89 71.32 70.52 69.79 69.21 68.52 67.82 68.01 69.04 69.65 70.26 70.10 66.95 68.20 70.60 70.64 69.48 69.06 68.27 67.58 67.02 65.44 64.00 63.47 64.74 65.98 65.71 66.53 66.89 65.69 66.81
71.50 73.48 75.33 75.48 74.72 73.31 72.87 72.68 72.59 72.76 72.27 71.88 71.70 71.22 70.46 69.68 68.42 68.10 67.27 66.90 67.91 69.61 70.12 71.21 70.03 68.17 70.85 70.25 69.58 68.97 68.25 67.22 66.40 65.75 65.48 65.20 65.67 65.62 66.24 66.75 67.29 65.96 65.98
71.55 73.44 74.10 75.04 74.30 73.70 72.34 72.04 71.87 71.36 71.26 71.43 71.35 71.27 70.48 69.26 67.49 67.60 67.21 66.79 66.17 67.88 68.99 70.36 70.80 71.13 70.38 69.83 69.10 68.39 67.83 66.91 66.06 65.99 66.62 64.21 61.64 64.63 64.31 65.46 67.09 66.11 66.47
71.95 72.58 73.07 74.38 74.06 73.25 72.32 71.96 71.21 70.44 70.19 70.42 70.09 70.87 69.99 67.91 67.50 67.35 67.12 66.25 66.00 66.26 67.31 68.46 68.82 68.50 68.09 67.73 67.25 66.89 66.21 65.24 64.86 66.21 63.58 63.02 62.88 65.46 64.11 64.21 65.30 66.79 67.41
71.47 72.16 72.67 73.85 73.82 72.90 72.05 71.40 70.31 69.22 68.62 69.18 69.08 69.69 68.16 67.51 67.03 66.87 66.77 65.62 65.21 65.14 66.01 66.43 66.58 66.38 66.01 65.88 65.88 65.89 65.60 64.89 65.84 65.65 62.54 62.02 61.59 66.62 66.80 66.08 65.42 66.19 67.14
70.88 71.59 72.75 73.57 73.54 72.84 71.91 70.52 69.64 68.85 68.19 68.17 67.54 67.59 67.42 67.12 67.11 67.36 66.71 65.44 65.19 64.99 64.89 65.34 65.73 65.76 66.48 66.70 66.67 66.53 66.02 66.36 67.43 64.46 63.26 64.75 64.36 67.34 67.64 67.56 67.21 67.16 66.62
70.71 71.39 72.03 73.63 73.38 72.42 71.01 70.38 69.59 68.78 67.95 68.04 68.23 67.93 68.32 68.28 67.84 67.75 67.04 65.77 65.74 65.49 65.56 65.83 66.00 66.20 66.20 66.47 66.65 66.87 66.58 66.64 63.51 62.20 63.34 63.88 64.57 67.74 68.28 68.35 68.41 69.09 69.03
70.75 71.04 71.46 72.22 72.47 72.28 71.50 70.81 70.29 69.32 68.49 68.67 69.10 68.54 68.54 68.71 68.75 68.11 67.66 66.45 66.02 66.03 66.30 66.61 66.46 66.23 66.10 66.11 66.28 66.43 66.36 66.34 64.04 64.14 63.86 63.98 67.55 68.38 69.11 68.18 68.69 68.60 68.95
71.42 70.89 70.44 70.89 71.33 71.35 71.32 71.15 70.93 70.23 69.30 69.22 69.52 69.51 69.42 68.70 69.21 68.86 68.02 67.06 66.51 66.37 66.55 66.58 66.30 65.90 65.67 65.97 66.20 66.28 66.78 66.27 63.69 64.55 64.27 63.66 67.16 67.54 67.82 67.31 66.98 67.43 67.85
68.24 70.22 69.89 70.12 70.22 69.85 70.02 70.69 70.66 70.33 69.64 69.21 68.92 68.82 67.23 67.00 68.10 69.54 68.44 68.03 66.90 66.79 66.81 66.87 66.66 66.44 66.36 66.37 66.10 66.12 65.80 65.34 62.61 63.19 61.81 62.86 65.74 66.36 66.20 65.43 65.75 65.74 65.99
67.73 67.73 69.59 69.99 69.93 69.43 69.36 69.63 70.16 69.84 68.95 67.93 67.22 66.87 65.46 64.62 67.12 67.10 66.55 67.21 67.87 67.15 66.85 67.09 66.72 66.94 67.20 66.65 66.29 65.47 64.77 63.27 61.91 61.27 58.57 62.80 63.70 64.15 63.84 64.04 64.04 65.36 65.79
65.58 66.24 68.04 69.50 69.36 69.61 69.97 68.98 68.45 68.44 67.05 65.26 63.79 64.92 64.57 64.02 66.63 66.53 65.58 66.91 67.57 67.13 66.95 66.80 66.09 66.15 65.00 63.92 63.37 64.02 60.50 57.27 57.56 56.51 56.50 61.06 61.54 62.35 62.62 63.11 64.02 63.36 62.80
65.80 66.26 66.75 68.21 69.17 68.85 69.85 69.21 69.01 68.35 67.48 65.94 62.55 64.20 63.28 62.96 62.23 63.02 61.89 62.89 62.98 63.83 63.16 64.95 63.41 62.74 57.67 57.23 56.69 56.08 55.23 54.03 53.33 53.96 56.20 59.06 59.48 59.80 61.36 63.02 61.40 61.05 60.69
65.27 66.28 66.79 67.79 68.23 69.06 69.78 69.45 69.13 68.46 67.96 66.55 64.20 63.75 61.70 60.79 60.01 59.00 61.86 61.27 62.01 61.44 63.12 62.09 59.02 56.62 56.11 55.66 52.75 51.56 50.66 50.65 48.64 50.66 54.35 57.93 58.18 58.91 61.91 60.42 59.43 58.87 58.55
63.32 66.07 66.85 66.97 67.48 68.76 68.15 69.16 68.74 68.69 67.84 67.04 66.32 63.17 62.33 60.64 59.49 60.73 61.20 61.64 61.28 60.33 59.69 58.17 55.94 54.94 53.55 52.27 51.01 48.99 47.89 47.53 46.94 48.80 50.76 58.47 59.20 59.25 58.81 57.71 56.83 55.96 55.60
60.49 64.32 66.90 66.85 67.22 67.94 67.50 67.53 68.51 68.30 67.72 67.48 66.37 63.21 62.87 62.21 61.69 61.69 60.94 58.92 57.98 56.59 56.46 56.16 54.00 52.04 50.46 47.74 47.18 46.82 45.72 45.95 45.50 46.08 48.83 52.66 56.11 55.41 55.18 54.21 53.61 53.33 53.47
58.58 61.78 64.39 66.72 66.75 68.09 67.97 67.39 67.25 68.14 67.40 66.98 66.54 64.86 63.08 63.38 62.73 61.95 58.76 57.34 56.24 55.30 54.73 52.74 50.99 48.61 46.99 47.07 45.13 45.26 44.33 43.44 44.34 45.06 46.46 48.26 49.49 52.69 50.98 50.51 50.23 50.52 50.77
58.72 58.68 61.96 65.96 66.52 66.31 67.75 67.89 68.25 67.64 67.21 67.08 66.76 65.58 63.78 64.42 63.14 60.02 58.02 56.36 55.80 53.90 51.72 48.96 47.25 46.00 44.39 43.63 42.59 43.43 43.10 44.21 43.95 43.76 45.41 44.66 45.54 45.82 47.87 47.60 47.24 48.08 47.94
58.41 58.83 58.65 59.85 61.94 64.65 66.42 68.11 67.57 67.95 67.29 67.40 67.11 65.71 64.24 64.11 61.46 57.46 55.06 52.58 53.17 51.29 48.13 47.25 44.07 43.24 42.08 41.98 42.68 41.56 42.68 43.45 43.32 44.75 42.97 42.90 42.50 42.89 42.34 46.05 45.52 47.38 46.83
57.05 59.02 58.63 58.52 58.15 59.62 64.00 67.63 67.41 67.27 66.73 67.35 66.93 65.79 64.96 63.16 59.47 55.71 51.94 51.22 50.21 47.92 46.38 45.01 42.73 42.11 40.91 40.11 43.42 43.29 42.00 43.30 42.74 42.50 42.26 44.15 42.26 41.94 41.21 40.83 39.43 39.93 46.18
54.51 55.78 58.08 57.90 58.09 58.93 57.89 63.69 65.51 65.20 65.09 66.40 66.24 65.58 64.90 61.97 55.68 51.78 50.55 49.06 48.28 46.62 45.03 44.20 42.42 41.73 39.67 39.59 39.33 39.87 40.62 41.64 42.86 41.94 42.73 41.87 41.39 41.40 39.68 38.95 37.66 37.39 38.05
54.08 54.50 55.23 57.03 58.21 59.20 59.88 61.57 64.29 60.94 59.01 58.66 62.29 63.87 61.32 56.13 53.14 50.53 48.60 47.00 45.33 43.95 42.92 43.56 41.97 40.73 39.82 38.88 36.56 37.40 36.18 38.17 40.57 41.81 41.65 40.94 38.76 38.93 38.85 38.79 37.25 37.25 36.20
53.09 53.77 55.43 56.39 56.64 59.20 60.24 62.03 57.11 56.14 53.31 51.71 52.30 50.72 51.79 50.35 49.57 50.63 50.10 48.14 45.66 44.87 43.42 42.98 42.06 40.97 38.87 38.23 37.43 36.56 33.97 33.23 33.63 38.11 38.21 38.80 37.61 36.94 36.50 37.28 37.96 37.60 36.67
52.06 54.40 54.79 56.43 56.71 58.22 60.78 61.73 58.54 58.09 54.99 50.86 50.02 49.77 49.38 48.45 49.73 49.92 49.30 46.35 45.54 43.26 41.36 40.26 41.24 39.09 38.99 36.97 37.42 39.37 36.06 34.52 30.94 29.61 35.22 36.08 36.22 36.68 35.55 35.50 35.93 36.30 36.53
49.30 52.01 55.41 55.59 57.30 57.96 61.74 62.48 58.46 54.93 50.89 49.73 48.17 47.49 47.23 48.76 49.39 48.27 45.98 44.36 42.96 41.42 40.99 39.12 38.34 37.53 37.04 36.35 35.43 34.85 34.23 34.04 33.41 30.63 28.46 31.51 33.91 35.05 35.44 35.38 34.64 34.73 36.06
48.87 49.52 52.61 54.96 55.95 58.44 61.24 60.78 57.10 52.92 48.61 45.74 44.40 44.55 44.58 45.55 44.87 44.85 44.31 42.59 41.66 40.40 39.34 38.65 37.76 36.85 36.21 35.75 35.35 34.62 33.65 31.98 31.10 30.06 28.24 28.27 29.11 31.99 33.27 34.39 34.12 34.08 34.83

GFSSE_sfc_wetblb_051.txt.gz
Wetbulb
70.70 73.56 75.68 75.26 74.86 74.68 74.50 74.01 73.47 73.56 72.77 72.34 71.81 71.30 70.52 69.93 69.40 68.63 68.80 69.49 69.82 70.56 70.43 69.18 68.60 70.95 70.88 70.28 69.72 69.27 68.39 67.71 66.75 65.49 64.34 64.25 65.83 66.31 66.91 67.41 66.68 65.98 66.98
72.09 73.56 75.21 75.25 74.99 74.50 73.89 73.44 73.73 73.35 73.05 72.05 71.52 70.63 70.51 69.43 69.02 68.05 67.68 68.58 69.82 69.96 70.38 70.84 68.48 69.82 71.08 70.45 69.71 68.99 68.15 67.08 66.15 65.69 65.62 65.13 65.21 65.09 65.76 66.60 66.94 65.47 65.68
72.16 73.50 74.09 74.89 74.43 74.05 73.56 72.95 72.86 72.47 72.33 72.19 71.91 71.26 70.12 68.90 68.64 67.90 67.10 66.82 68.29 69.25 70.19 69.54 69.85 70.88 70.76 70.22 69.26 68.47 67.76 66.61 65.47 65.08 66.11 63.51 60.74 63.74 63.82 64.83 66.82 66.20 66.36
72.57 73.28 73.27 74.22 74.04 73.45 72.55 72.29 71.78 71.62 71.68 71.59 71.76 71.14 69.69 68.52 68.16 67.52 66.37 66.06 67.26 68.58 69.54 69.73 69.89 69.48 68.99 68.45 67.58 67.12 65.73 64.42 64.40 66.07 62.54 61.70 62.29 66.21 65.28 64.40 65.09 66.35 67.51
71.80 72.87 72.84 73.85 73.81 73.12 72.32 71.68 71.01 70.63 70.79 70.49 71.19 70.32 68.88 68.06 67.43 67.15 66.26 65.65 65.71 67.23 68.02 68.07 67.81 67.42 67.00 66.68 66.33 65.94 65.44 65.59 66.52 66.23 62.67 60.52 62.51 66.80 67.27 66.36 65.38 65.20 65.60
70.79 71.65 73.02 73.65 73.65 73.23 72.41 70.88 69.83 69.25 69.76 69.49 70.10 68.87 68.03 67.60 67.71 67.01 65.75 65.44 65.46 65.84 66.65 66.82 66.75 67.02 66.99 66.83 66.84 66.71 66.20 66.06 67.08 63.62 64.10 65.65 63.88 67.62 67.81 67.58 67.05 67.56 67.47
69.95 71.27 72.14 73.48 73.34 72.56 71.43 70.39 69.57 68.79 68.83 68.34 68.47 68.06 67.79 67.94 68.15 67.32 65.98 65.84 65.41 65.57 66.15 66.36 66.41 66.41 66.81 66.84 67.02 66.71 66.03 66.44 62.41 61.27 62.95 63.36 64.59 67.88 67.83 67.78 69.16 69.16 69.45
69.82 70.51 71.68 72.09 72.30 71.99 71.21 70.88 70.37 69.49 69.12 68.62 69.11 68.82 68.89 68.65 68.50 67.91 66.36 66.20 66.40 66.53 66.66 66.78 66.71 66.56 66.50 66.53 66.41 66.18 66.00 66.07 63.68 63.59 63.85 64.92 68.04 68.57 68.60 68.36 67.81 67.93 68.28
70.00 70.15 70.81 70.71 70.63 70.78 70.68 70.57 70.16 69.78 69.63 69.88 69.91 69.95 69.82 69.74 69.10 68.36 67.22 66.48 66.56 66.77 66.82 66.56 66.37 66.22 66.48 66.59 66.38 66.01 66.85 65.99 63.00 63.97 63.07 63.90 67.59 67.23 66.95 66.25 66.77 66.88 66.66
69.27 69.59 69.35 69.47 69.62 69.20 69.08 70.16 69.75 69.20 69.22 69.68 69.48 68.88 67.64 67.20 68.62 68.97 68.20 67.61 66.91 66.76 66.98 67.00 66.88 66.71 66.68 66.58 66.27 66.69 65.78 65.15 62.69 61.51 61.88 63.70 66.46 65.99 64.96 64.98 65.23 66.75 67.05
68.79 68.70 69.04 68.95 68.73 68.69 68.34 69.00 69.68 69.23 68.45 68.16 67.66 66.59 65.40 64.27 67.20 67.01 66.40 67.13 67.81 67.34 67.28 67.30 67.18 67.12 67.34 66.61 66.56 66.08 64.71 61.29 60.01 58.41 57.62 64.22 63.95 63.92 63.83 63.77 65.42 64.84 64.55
66.70 67.67 68.66 68.58 68.33 68.42 69.30 68.26 67.54 67.74 66.05 64.57 64.86 64.52 63.57 62.85 66.24 66.15 65.16 66.56 67.97 67.58 67.54 67.44 66.98 66.42 65.00 62.59 62.68 63.61 58.53 54.34 55.42 55.11 56.28 61.80 61.50 61.49 62.84 64.33 63.08 62.47 62.53
64.80 67.19 68.78 68.42 68.40 68.23 68.49 67.98 67.69 66.96 65.36 63.45 62.39 63.78 62.89 62.76 65.83 63.87 63.76 64.41 63.52 63.99 63.69 65.17 63.60 62.01 56.76 60.58 58.54 51.96 50.86 50.35 52.05 52.95 57.58 60.52 60.70 61.51 64.13 61.90 61.09 60.66 60.34
64.22 65.23 68.69 68.68 67.99 68.03 68.58 67.58 67.53 67.23 65.90 64.27 61.42 63.15 60.93 59.94 62.58 60.78 60.72 61.12 61.21 61.49 60.82 61.26 59.82 55.47 54.76 53.48 50.72 49.35 47.98 46.77 47.55 50.05 54.15 59.47 58.76 61.10 61.64 59.99 59.00 58.11 57.66
64.44 65.45 65.76 68.16 67.87 67.73 68.23 67.93 68.24 67.71 67.07 66.33 62.62 63.06 60.83 60.33 59.76 58.73 59.47 59.61 59.73 60.11 59.76 56.28 54.25 53.77 50.95 48.30 47.09 46.55 46.19 45.12 46.98 49.32 52.55 59.71 60.48 59.86 58.62 57.47 56.35 55.87 55.59
62.31 65.02 66.22 66.77 67.92 68.34 68.19 68.01 67.85 67.91 67.94 66.74 64.91 63.15 61.17 60.31 58.14 58.53 59.36 59.25 57.36 56.43 55.85 54.84 53.43 50.84 47.07 45.69 45.25 44.18 43.18 43.43 44.41 47.82 50.08 53.40 57.37 56.58 55.41 54.66 53.77 53.27 53.32
56.36 64.23 65.91 66.30 66.68 67.83 67.25 67.21 67.26 67.85 67.81 66.01 65.52 63.57 61.53 60.89 59.73 59.74 57.62 55.92 54.93 54.44 52.78 50.15 48.51 46.18 45.07 44.72 42.77 43.10 42.50 41.57 42.75 44.82 48.22 47.89 49.69 53.70 51.76 50.84 50.44 50.75 50.80
56.00 58.92 65.49 67.42 66.22 67.11 67.16 66.90 66.77 66.96 66.39 65.68 65.58 64.27 62.14 61.95 61.24 58.76 56.95 55.54 54.68 52.75 50.00 47.28 45.92 43.73 42.34 41.87 40.88 41.24 41.31 42.69 41.92 42.41 45.46 44.92 44.56 45.15 48.05 48.01 48.20 49.00 48.49
54.82 56.30 59.12 64.42 65.03 66.84 67.07 67.47 67.37 66.84 65.61 64.78 65.03 64.37 63.57 62.69 59.96 58.25 55.45 53.15 51.66 48.64 46.70 45.73 42.41 42.43 40.14 40.08 41.24 39.85 41.01 42.25 41.83 43.52 40.81 40.80 42.15 42.57 42.03 46.18 47.26 46.90 47.23
54.03 55.83 56.17 59.12 64.80 65.81 67.22 67.11 66.72 65.61 65.25 65.72 65.33 64.12 64.07 61.90 57.88 55.39 52.19 50.96 48.54 45.94 44.74 43.38 41.15 39.82 39.14 38.46 41.81 41.89 40.49 41.98 40.84 40.34 40.60 42.39 41.11 40.86 40.23 39.28 37.29 38.89 45.35
51.73 52.96 55.66 55.86 57.69 61.29 65.97 65.31 64.84 63.84 65.09 63.60 65.02 65.15 63.36 59.91 56.93 53.11 51.19 48.39 46.65 45.12 43.44 42.55 40.89 39.39 38.05 37.90 38.67 38.37 39.75 40.26 40.49 40.29 40.95 39.81 40.22 40.53 39.17 37.27 36.42 35.94 36.75
51.15 50.99 52.78 55.03 57.09 59.49 62.88 66.12 65.24 64.05 60.64 61.88 63.30 64.46 63.18 57.61 53.75 51.65 49.58 46.95 45.44 43.56 42.18 41.48 41.96 39.77 40.30 38.26 37.01 36.86 36.10 38.05 39.43 40.14 40.09 40.12 37.57 38.25 37.86 37.66 36.07 36.00 34.91
48.99 50.55 52.35 53.11 55.15 56.15 56.93 58.57 57.02 56.15 55.30 55.07 53.71 55.45 54.61 53.65 51.98 49.76 47.93 45.83 43.23 42.66 41.77 41.49 41.43 41.26 38.01 37.41 36.80 37.28 33.77 33.74 32.76 36.53 37.27 37.42 35.81 35.40 34.73 35.63 36.63 36.42 35.33
47.22 49.68 51.63 53.28 54.30 55.85 57.34 58.43 59.43 59.65 58.80 54.62 52.00 50.33 49.44 50.30 51.28 51.16 49.05 45.49 44.49 43.06 40.80 40.61 40.55 39.37 39.20 36.26 37.03 38.27 34.82 33.58 30.58 29.63 33.47 34.36 34.27 35.14 33.57 33.82 33.95 34.64 34.97
46.87 47.47 49.93 51.69 53.71 55.15 58.00 59.39 59.67 58.54 52.31 50.60 49.26 47.77 48.44 48.31 49.21 50.00 48.05 46.04 45.65 45.07 41.06 39.69 37.91 38.35 38.53 37.15 35.85 34.53 33.16 32.79 31.75 29.70 27.91 30.56 32.38 33.05 33.56 32.98 33.04 32.82 34.01
45.28 45.68 48.56 50.80 52.21 53.49 57.89 59.16 58.87 53.56 50.04 49.23 47.09 46.73 46.22 47.37 47.17 46.56 45.60 45.22 44.49 43.61 41.82 40.91 37.84 36.48 36.36 35.96 35.22 34.46 33.46 31.76 30.35 29.20 27.49 27.12 27.67 30.04 31.82 33.00 32.18 31.81 32.49

GFSSE_sfc_wetblb_054.txt.gz
Wetbulb
70.60 73.07 75.78 75.44 75.02 74.96 74.74 74.59 74.49 74.26 73.68 72.96 72.22 71.59 70.78 70.12 69.43 69.71 69.82 69.98 70.50 70.19 69.63 69.22 71.24 71.43 70.56 70.16 69.66 69.04 68.17 67.08 65.91 65.44 64.42 65.67 66.17 66.50 66.96 66.89 66.34 65.58 67.01
71.98 73.34 75.26 75.44 75.34 74.99 74.68 74.13 74.04 73.61 72.77 72.18 71.57 70.96 70.41 69.90 69.20 68.91 69.23 70.36 70.10 69.19 69.16 68.79 70.33 71.37 70.79 70.10 69.35 68.76 67.74 66.55 65.71 65.66 65.16 64.51 65.28 64.92 65.43 66.84 65.91 64.93 66.11
72.09 73.26 73.73 75.03 75.04 74.93 74.40 73.36 73.52 72.97 72.39 71.97 71.17 70.60 69.73 69.53 68.53 67.49 67.92 68.47 68.59 68.96 69.38 68.85 69.86 71.27 71.02 70.18 69.03 68.44 67.06 65.07 65.40 65.64 65.50 61.90 60.25 64.15 63.81 65.12 66.21 66.20 66.02
72.25 72.95 72.95 74.36 74.45 74.16 73.54 72.86 72.72 72.69 72.50 72.09 71.56 70.68 69.43 69.21 68.20 67.21 66.42 67.58 68.41 69.23 69.45 69.49 70.70 71.00 70.25 69.07 68.04 66.76 64.75 64.86 65.50 66.05 61.22 61.78 62.34 66.36 65.42 64.20 65.17 66.36 67.15
71.91 72.71 72.72 73.91 74.09 73.54 73.23 72.72 72.47 72.26 72.12 72.25 71.52 70.13 69.14 68.71 67.74 66.74 66.32 66.62 68.11 69.33 69.41 69.22 69.05 68.47 67.94 67.27 66.38 65.27 65.84 66.34 66.74 64.33 61.13 59.92 62.85 66.58 67.32 66.79 65.62 65.15 65.37
71.27 71.53 72.90 73.63 73.70 73.36 72.90 72.03 71.60 71.46 70.97 71.02 71.14 69.50 68.80 67.76 67.45 66.35 65.76 65.71 67.29 67.80 67.88 67.65 67.40 67.16 67.05 66.92 66.80 66.15 66.22 66.34 64.32 61.09 62.96 64.26 63.53 67.51 67.22 66.36 67.09 68.14 68.11
70.52 71.38 72.17 73.61 73.34 72.59 71.80 70.93 70.59 70.59 70.15 70.90 69.91 69.10 67.89 67.92 67.36 66.03 65.68 65.57 65.88 66.92 67.19 67.00 67.13 66.98 66.84 67.24 67.06 66.57 66.00 65.78 61.50 61.41 62.77 62.86 64.14 68.17 67.94 69.14 68.69 68.57 68.99
70.54 71.17 71.70 72.30 72.65 72.34 71.45 70.45 70.37 70.39 69.65 69.68 68.98 68.06 68.12 68.46 67.80 66.31 66.14 65.63 65.82 66.51 66.77 66.70 66.50 66.45 66.42 66.41 66.05 65.66 65.62 65.88 62.77 63.67 63.56 64.67 67.87 68.18 68.06 67.74 67.94 68.02 67.82
70.33 70.20 70.70 70.81 70.83 70.85 70.57 70.47 70.03 69.94 69.46 69.48 69.80 69.70 69.40 69.22 68.38 67.03 66.37 66.53 66.66 66.85 66.83 66.68 66.38 66.38 66.54 66.44 66.21 65.65 66.11 65.63 61.42 63.32 63.23 64.09 68.00 67.44 66.52 66.53 66.36 66.44 67.64
68.92 69.63 69.64 69.46 69.22 68.46 68.41 69.80 69.32 69.18 69.37 69.24 69.56 69.12 68.35 68.11 68.47 68.18 67.33 67.35 66.81 66.85 66.68 66.62 66.46 66.48 66.60 66.35 65.88 66.26 65.21 64.34 60.64 60.09 61.37 62.83 66.48 65.57 65.67 65.02 66.57 66.55 66.29
68.18 68.80 68.80 68.32 67.76 67.41 67.30 67.95 68.83 68.74 68.68 68.64 68.00 66.94 65.88 64.90 66.80 66.64 65.88 66.82 67.61 66.98 67.11 67.04 66.94 66.91 67.23 66.56 66.47 65.37 62.25 57.99 57.66 56.77 57.95 65.07 64.51 64.57 64.23 65.61 64.92 64.26 64.14
66.38 67.27 68.19 67.93 67.76 67.56 68.30 67.24 66.38 66.24 65.30 65.00 65.14 64.40 63.29 62.97 65.90 66.31 64.68 66.30 67.65 67.65 67.78 67.44 67.30 67.21 65.45 62.15 61.66 61.09 53.43 55.10 54.59 54.84 56.17 62.89 61.59 62.72 65.20 63.74 62.68 62.44 61.99
66.86 67.27 67.90 67.50 67.73 67.54 67.44 67.32 66.78 65.49 64.09 63.16 63.54 63.39 62.60 62.58 64.64 63.84 63.24 64.02 63.74 64.15 63.68 65.46 63.73 61.48 57.21 59.48 55.06 50.22 49.54 51.84 51.67 53.36 58.18 62.37 61.61 63.11 63.08 61.38 60.74 60.12 59.47
66.28 66.91 67.70 67.72 67.18 67.41 67.62 67.19 66.85 66.06 64.49 62.56 62.03 62.97 61.78 60.57 62.96 61.92 62.80 62.07 61.48 61.85 60.75 61.07 59.77 54.99 52.97 51.72 48.81 47.09 45.96 47.01 49.26 49.95 54.85 59.56 59.81 63.72 61.43 59.56 58.19 57.48 56.89
64.48 66.64 67.52 67.72 67.09 67.20 67.12 66.88 66.73 66.15 65.34 63.98 61.49 61.67 61.78 60.04 62.69 62.24 60.88 60.37 60.25 59.93 59.77 59.19 55.70 52.57 48.49 46.14 45.34 45.09 44.94 43.78 47.57 50.03 53.63 60.74 62.18 60.73 59.26 57.22 56.37 55.99 55.42
63.58 64.77 67.81 67.74 67.59 67.52 67.31 66.58 66.46 66.62 66.02 64.93 62.78 61.28 61.20 60.94 62.16 60.30 58.77 58.63 58.57 59.04 57.92 55.48 52.65 49.66 45.65 44.65 43.20 42.91 42.22 42.99 46.37 49.32 51.55 54.64 59.40 57.65 56.25 54.98 53.53 52.81 52.89
57.84 63.94 65.48 67.75 67.90 66.95 67.36 66.98 66.77 67.04 66.55 65.47 64.07 61.69 61.13 60.71 59.55 59.19 58.52 57.94 56.55 55.58 54.34 50.62 46.89 45.15 44.02 43.60 41.65 41.46 41.03 40.27 42.62 47.35 48.82 48.46 50.78 55.36 52.89 51.83 50.98 50.97 50.64
54.03 57.06 64.39 67.31 67.42 66.96 67.56 67.15 67.09 67.06 66.78 65.71 64.69 62.86 61.31 60.59 59.27 58.20 57.32 56.14 54.23 52.29 49.54 47.02 44.83 42.88 41.84 41.09 39.97 40.05 40.50 41.27 40.21 45.39 45.77 44.43 43.88 45.09 48.71 49.24 48.62 48.90 49.45
52.44 54.39 60.81 65.01 65.87 66.76 67.21 67.33 66.64 66.41 66.10 65.01 63.35 62.41 61.64 60.90 59.98 58.09 56.65 54.62 52.80 49.41 46.90 45.73 42.48 41.88 39.77 39.18 40.24 38.98 40.28 41.00 40.39 43.26 42.59 42.04 42.14 42.13 40.37 47.38 47.47 47.04 46.92
51.29 52.17 55.62 62.54 64.70 66.47 66.50 66.22 66.31 65.53 65.61 65.09 63.91 62.21 61.63 61.12 58.82 57.67 54.95 52.53 49.47 46.71 44.24 42.82 41.13 39.32 38.41 37.61 41.14 40.80 39.46 40.70 39.60 39.33 39.52 40.94 40.44 39.98 39.04 37.88 36.87 39.12 44.99
50.02 50.19 52.02 55.67 62.48 65.29 65.07 64.79 64.47 64.61 64.23 64.40 63.37 62.31 61.88 60.25 58.01 56.18 53.09 49.38 46.81 46.35 43.76 41.90 40.23 38.69 37.00 36.83 37.97 38.18 41.32 39.96 39.49 39.89 39.46 38.90 39.61 39.30 37.09 36.18 35.40 35.18 36.11
48.64 48.73 49.94 52.89 57.74 63.48 65.69 65.78 65.21 64.72 63.84 63.67 63.26 62.44 62.06 59.58 57.40 56.29 51.94 48.63 46.04 43.85 42.07 41.21 40.98 38.68 37.30 36.54 36.14 37.44 37.67 38.04 39.14 40.07 40.21 39.69 37.36 37.28 36.54 36.35 34.77 34.84 34.16
47.07 48.28 49.48 50.66 53.61 60.55 65.09 63.42 58.51 58.10 57.03 57.19 59.03 60.60 60.93 57.90 55.82 54.69 50.67 47.76 44.87 43.63 42.03 40.59 40.54 39.91 37.00 35.86 36.62 37.71 34.17 33.98 33.24 35.59 36.43 35.88 35.31 34.45 33.76 34.50 34.93 34.78 34.20
45.53 47.16 48.91 50.85 51.93 53.90 59.38 62.15 61.30 61.06 59.78 59.01 59.49 53.68 53.63 54.37 54.36 52.63 49.59 47.79 47.10 44.52 41.70 40.60 41.28 40.83 39.11 35.49 35.88 37.77 35.01 34.68 31.75 31.28 34.03 34.42 33.66 34.50 32.74 32.67 32.88 33.33 33.19
45.22 44.82 46.22 48.52 51.05 52.75 57.45 61.32 60.95 61.10 59.00 51.85 52.29 51.83 50.29 51.60 52.83 51.38 48.89 46.63 46.53 45.04 43.51 42.94 42.20 41.26 38.41 36.75 35.83 35.15 33.83 33.41 32.10 30.77 29.40 30.94 32.79 32.69 32.73 32.36 31.85 31.31 32.32
44.43 44.96 45.12 47.10 48.56 51.06 53.47 58.07 60.65 57.52 51.48 50.51 48.99 49.71 48.79 48.68 51.00 50.64 47.75 47.07 46.50 44.80 44.33 43.62 40.53 39.21 36.90 37.57 34.70 34.18 33.17 32.14 31.19 29.98 28.43 27.88 28.11 30.24 31.10 31.75 30.96 30.21 30.55

GFSSE_sfc_wetblb_057.txt.gz
Wetbulb
68.97 72.18 75.83 75.76 75.23 74.96 74.90 74.97 75.09 74.82 73.90 73.05 72.35 71.78 71.04 70.55 70.54 70.77 69.95 69.31 68.74 68.80 69.44 71.14 71.15 70.62 70.44 69.80 69.30 68.33 67.10 66.13 66.17 65.42 66.11 66.52 66.45 66.49 66.94 66.65 66.96 65.15 66.34
70.78 73.16 75.52 75.61 75.36 75.25 75.22 75.11 74.84 74.60 73.75 72.63 71.89 71.26 70.63 70.03 69.98 70.07 70.23 70.04 69.76 69.22 69.66 69.98 71.15 71.05 70.52 69.78 69.02 68.12 66.53 65.99 66.13 65.71 64.80 64.62 65.70 65.21 66.09 66.26 65.83 64.32 66.36
71.39 73.11 74.07 75.37 75.36 75.24 74.92 74.22 74.33 73.65 72.94 72.13 71.51 70.90 70.35 69.47 68.85 68.92 69.69 69.38 68.06 67.59 69.90 69.21 70.84 71.07 70.73 69.66 68.87 67.76 65.40 66.11 66.20 65.99 65.95 59.71 59.98 64.68 64.22 66.42 66.21 66.36 65.73
71.93 72.76 73.07 74.93 75.19 74.50 73.65 73.24 73.02 72.81 72.11 71.62 71.08 70.03 69.62 69.26 68.18 67.49 68.04 67.91 67.93 68.18 68.70 69.25 70.09 70.91 70.41 68.98 67.91 65.46 65.88 66.23 66.60 64.82 60.56 60.98 62.03 66.58 65.24 64.94 65.53 66.47 67.05
71.45 72.22 72.84 74.51 74.55 74.16 73.47 73.09 72.59 72.42 72.24 71.81 71.21 69.92 69.58 68.73 67.80 66.59 67.00 67.40 68.97 69.68 70.00 70.07 70.33 69.72 68.64 67.51 65.82 65.16 66.82 66.94 65.71 63.59 59.38 59.63 62.39 66.36 67.27 67.15 66.23 65.52 65.19
70.96 71.48 73.06 73.91 74.11 73.78 73.48 73.28 72.76 72.65 72.60 72.14 71.01 69.68 69.21 68.05 67.11 66.51 66.22 67.58 68.29 69.27 68.84 68.60 68.10 67.61 67.15 66.58 65.88 65.97 66.79 65.64 63.50 60.99 59.82 62.36 63.30 67.40 67.19 67.80 69.45 69.40 68.19
70.57 71.26 72.13 73.69 73.49 72.97 72.53 72.29 72.36 71.55 71.62 71.81 70.46 69.63 68.48 67.71 66.63 65.85 65.62 66.65 67.76 67.83 67.79 67.74 67.66 67.33 66.93 67.00 66.79 66.43 65.74 65.34 61.28 61.54 62.48 62.42 63.85 68.72 69.15 68.74 68.73 68.75 68.58
70.41 71.07 71.55 72.21 72.77 72.67 71.40 71.69 71.80 71.21 70.87 71.27 70.07 69.29 68.09 67.87 66.48 66.03 65.66 65.66 66.90 67.46 67.24 67.20 66.99 66.95 66.72 66.47 66.38 65.90 65.91 65.05 62.52 62.60 62.46 63.34 67.66 68.15 67.97 68.08 67.51 67.48 68.42
70.41 70.31 70.67 71.03 71.19 71.43 71.28 70.70 70.76 70.89 70.73 70.78 70.21 69.41 69.22 68.65 67.03 66.38 65.90 65.78 66.38 66.99 66.95 66.67 66.37 66.29 66.43 66.29 66.22 65.95 65.82 65.09 61.24 61.42 62.59 62.86 68.16 67.24 67.09 66.47 67.06 67.78 67.05
69.28 69.61 69.29 69.52 69.78 68.35 68.15 69.77 69.67 69.71 69.48 69.67 69.27 68.68 68.32 67.81 67.81 66.95 67.17 67.40 66.95 66.88 66.82 66.60 66.34 66.45 66.39 66.23 66.03 65.62 64.92 63.83 59.62 59.94 60.65 62.67 66.44 66.23 65.52 66.59 66.58 66.14 65.33
67.88 68.16 68.72 68.22 67.33 66.58 66.65 67.66 68.70 68.79 68.41 68.51 68.22 67.16 66.40 65.55 66.30 65.68 65.22 66.58 67.53 66.98 66.68 66.60 66.54 66.69 66.90 65.98 65.77 64.03 60.46 59.03 56.87 57.22 58.34 65.35 64.93 65.08 65.70 65.49 64.38 64.40 63.65
66.91 68.39 68.62 67.31 66.84 66.37 67.47 66.00 65.13 65.89 65.64 65.40 65.31 64.72 63.92 63.97 65.10 65.94 64.08 66.03 67.38 67.42 67.61 67.21 67.16 67.24 65.21 61.41 59.64 56.28 55.37 54.35 54.65 54.79 55.93 63.57 62.43 64.78 65.00 63.39 62.93 62.43 61.77
66.85 67.42 67.81 66.85 66.88 66.45 66.33 66.01 65.12 64.03 63.56 63.58 63.59 63.33 62.30 62.44 63.93 64.08 62.68 63.23 63.33 64.16 63.72 65.33 63.89 61.19 58.07 59.10 50.78 49.28 52.11 51.31 51.48 52.84 57.65 63.22 61.87 65.23 62.63 61.59 60.65 59.92 59.07
66.04 66.83 67.61 67.29 66.59 66.38 66.46 66.27 65.52 64.53 63.23 62.01 62.54 62.83 61.48 60.38 62.65 62.03 61.80 61.63 61.47 61.73 60.63 60.98 59.56 55.61 52.72 52.61 47.40 46.24 46.72 48.77 48.62 49.28 53.25 59.78 62.14 63.38 61.53 59.37 58.30 57.63 57.18
65.66 66.50 67.10 67.09 66.48 66.44 65.82 66.28 65.87 65.09 64.07 63.09 61.89 62.36 61.90 60.13 62.12 61.64 61.46 60.91 60.27 60.02 59.50 58.89 56.99 51.52 47.66 45.64 44.74 44.85 43.64 46.02 46.98 50.96 54.17 61.61 62.94 61.19 59.32 57.86 56.99 56.16 55.24
65.18 66.40 66.96 66.99 66.63 66.60 66.24 65.86 65.84 65.82 65.04 63.61 62.03 61.57 62.00 61.05 61.68 62.45 60.60 60.04 59.14 59.17 59.02 58.16 53.66 48.55 44.83 43.45 42.24 42.48 41.95 45.45 47.70 50.43 52.16 55.20 60.32 58.41 57.02 55.47 53.98 53.40 53.25
60.98 64.50 66.66 66.83 67.01 66.26 66.34 65.96 65.81 66.00 65.70 64.45 63.12 60.48 61.69 60.72 61.09 61.44 60.06 58.32 58.12 58.27 57.22 53.32 47.68 44.41 43.18 42.77 40.95 40.63 40.26 40.83 46.17 48.86 49.25 49.06 50.85 56.14 54.05 52.83 51.97 51.52 51.74
53.44 60.75 64.98 68.05 67.16 66.51 66.46 65.86 65.87 66.03 65.72 65.07 64.28 61.50 60.80 60.74 60.45 59.62 58.39 57.64 56.54 54.96 52.27 47.48 44.57 42.55 41.46 41.06 39.58 39.33 39.79 39.98 41.45 46.14 46.38 44.94 44.00 45.01 49.29 50.10 49.51 49.48 49.42
52.48 53.43 61.09 66.27 67.05 66.12 66.25 66.37 66.22 66.43 65.97 65.40 64.77 62.64 60.69 60.56 59.43 58.81 58.03 56.23 54.00 50.81 48.02 45.74 42.50 42.11 40.35 39.25 39.53 38.24 39.09 39.63 40.45 45.43 42.77 42.02 42.40 41.63 40.16 47.66 47.81 47.13 47.19
49.76 51.79 54.39 62.74 66.05 66.49 66.15 66.29 66.40 66.02 66.08 65.36 64.17 63.10 61.27 60.49 58.82 58.16 55.95 54.53 51.98 48.21 45.33 43.56 41.54 39.04 38.88 37.76 40.84 39.74 38.67 39.52 38.69 40.52 41.11 41.24 41.37 40.23 38.63 37.86 36.36 37.94 45.71
47.86 48.60 51.06 58.78 63.23 65.22 65.12 65.12 65.07 64.65 65.01 63.79 64.50 63.15 61.37 60.47 59.00 57.89 55.72 53.12 50.32 48.61 46.25 42.92 40.15 38.98 37.13 36.45 37.52 37.53 38.45 38.73 38.12 38.35 39.17 39.03 39.94 39.18 38.12 36.21 35.29 34.78 35.60
47.73 47.10 47.75 52.90 61.94 63.64 65.13 65.31 65.00 65.19 64.89 64.64 64.10 62.22 61.31 60.39 59.18 57.87 55.46 52.55 49.92 45.69 42.51 41.13 40.73 38.37 36.93 36.00 35.97 36.05 35.43 36.78 37.79 37.79 38.58 39.12 37.38 36.84 36.03 35.75 34.83 34.80 34.12
46.28 47.11 48.21 48.10 52.56 62.19 64.66 64.23 60.51 59.70 59.57 60.05 59.88 61.82 60.54 59.84 58.93 57.97 55.33 52.39 48.78 47.95 44.76 44.01 41.79 40.15 36.89 35.16 35.61 37.34 33.50 33.53 33.17 34.36 35.17 34.98 34.89 34.02 34.14 34.04 34.30 34.23 33.54
45.30 45.80 47.07 48.63 49.35 55.82 62.61 63.11 62.55 61.45 60.86 61.87 62.64 62.80 59.73 57.63 57.19 55.51 54.32 50.75 49.57 49.58 45.89 47.10 45.33 43.26 40.42 37.49 35.98 36.43 33.94 34.40 31.73 30.48 32.67 32.95 32.98 33.95 32.56 32.93 32.39 32.85 32.72
44.38 43.99 44.79 46.20 47.91 50.39 56.45 62.67 62.50 60.93 60.78 58.62 55.33 57.72 52.85 53.10 56.49 53.84 52.48 48.80 47.69 48.38 48.26 46.79 46.85 45.55 42.07 40.09 38.75 35.49 33.01 33.70 33.72 32.32 28.82 29.88 32.30 32.57 32.61 32.47 31.60 31.32 31.77
43.68 44.13 44.16 45.72 47.19 48.47 51.94 58.91 61.79 61.46 55.10 53.93 52.57 54.56 52.26 51.48 51.90 51.85 50.50 50.25 49.95 47.98 46.34 46.80 46.61 44.52 40.77 40.22 38.19 36.46 34.18 34.65 30.64 31.76 27.99 27.50 27.84 30.03 31.23 31.50 30.75 30.09 30.51

GFSSE_sfc_wetblb_060.txt.gz
Wetbulb
66.75 71.27 75.98 75.81 75.26 75.20 75.36 75.23 75.44 74.65 73.93 73.39 72.73 72.23 71.70 71.21 70.62 70.02 69.73 69.53 69.62 70.44 71.17 71.28 70.84 70.60 70.44 69.73 68.79 67.62 66.76 66.79 66.39 66.77 66.80 66.65 66.39 67.03 67.08 67.36 66.93 65.36 66.20
69.11 72.98 75.61 75.82 75.57 75.37 75.53 75.59 74.88 74.73 74.09 72.92 72.14 71.69 71.12 71.02 70.83 70.70 70.25 70.54 70.09 69.57 69.62 71.22 71.22 70.86 70.17 69.42 68.69 67.14 66.41 66.81 66.38 65.55 64.60 64.90 65.94 65.58 66.79 66.25 66.13 64.78 66.75
70.36 73.13 74.35 75.51 75.53 75.58 75.61 75.23 74.92 74.49 73.63 72.76 71.61 70.94 70.46 70.39 69.94 70.27 70.44 69.58 68.03 68.42 69.72 70.42 71.14 71.00 70.39 69.51 68.28 66.04 66.91 66.67 66.33 66.16 64.18 59.58 60.74 64.83 66.02 66.57 66.63 66.66 65.62
71.49 72.85 73.32 75.21 75.47 75.43 75.04 74.64 74.55 73.76 72.93 72.20 71.35 70.63 69.82 69.08 68.57 68.83 68.64 68.14 67.95 68.54 69.35 69.94 71.02 70.60 70.13 69.01 66.38 66.55 66.86 66.99 65.92 64.38 60.61 60.68 63.06 66.26 65.19 65.50 65.86 66.67 66.84
71.37 72.26 73.16 74.92 75.24 74.96 74.62 74.10 73.84 73.28 72.23 71.62 70.90 70.02 69.45 68.70 67.69 67.58 67.60 67.75 69.19 69.05 70.05 69.34 70.58 70.35 68.97 67.39 65.69 66.90 67.60 66.78 65.87 62.01 59.34 60.81 62.53 66.19 67.67 67.16 66.80 66.00 65.52
70.12 70.84 73.55 74.61 74.70 74.15 73.72 73.36 72.82 72.67 72.24 71.87 70.85 69.61 69.06 68.64 67.00 67.02 67.46 68.48 69.57 70.40 70.17 69.81 69.40 68.45 67.59 66.70 66.27 67.45 66.80 65.81 63.70 60.41 59.54 62.19 63.30 67.55 68.98 69.28 69.15 69.36 68.81
70.56 70.95 72.65 74.23 74.21 73.95 73.70 73.42 73.42 72.99 72.77 72.17 70.63 69.82 69.13 67.88 67.08 66.67 67.09 68.08 68.35 68.87 68.48 68.40 68.04 67.65 67.26 66.95 66.49 66.75 65.84 65.17 60.67 60.41 61.33 62.09 64.05 68.94 69.05 69.09 68.63 69.14 69.19
70.10 71.04 71.67 72.51 73.17 73.27 73.23 73.12 72.96 72.32 72.28 71.81 70.45 69.76 68.55 67.64 66.46 66.12 66.29 67.89 68.02 67.99 67.87 67.89 67.51 67.26 67.27 66.62 66.52 65.90 65.82 64.67 62.19 61.91 61.71 62.83 67.09 68.21 68.14 67.49 67.57 68.22 67.84
70.26 70.09 69.99 70.59 71.33 71.80 70.87 71.96 71.66 71.43 71.19 71.95 70.89 69.97 69.14 68.12 66.69 65.97 65.81 66.52 67.74 67.81 67.47 67.09 66.59 66.14 66.30 66.38 66.29 65.99 65.77 64.69 61.09 61.14 62.47 62.93 68.01 67.52 66.79 67.99 67.61 67.21 65.95
69.74 69.38 68.58 68.82 69.35 68.89 68.76 70.44 70.61 70.41 70.21 70.57 69.87 68.87 68.08 67.14 66.96 66.77 66.71 66.96 67.07 67.25 66.92 66.57 66.29 66.36 66.70 66.53 65.92 65.29 64.87 63.34 59.21 59.73 60.28 62.28 66.84 66.18 66.64 66.89 66.37 65.33 64.59
68.51 68.62 69.12 67.85 67.34 66.68 66.51 67.52 69.09 69.26 68.83 68.71 67.93 66.96 66.16 64.78 64.81 64.56 64.93 66.63 67.63 67.16 66.66 66.40 66.26 66.75 66.70 65.99 65.21 62.00 61.34 58.15 56.53 57.13 58.01 65.65 65.65 65.64 66.24 64.96 64.72 63.94 63.01
66.73 67.97 68.66 67.72 66.60 65.71 67.24 65.49 64.92 65.79 64.91 65.12 65.23 64.55 64.17 63.85 64.37 64.61 63.41 65.91 67.33 67.32 67.34 66.82 66.99 67.05 63.38 60.58 55.97 57.95 55.26 54.40 54.54 54.26 55.31 63.84 63.87 66.29 64.64 63.54 62.91 62.19 61.19
66.32 67.12 67.92 66.87 65.88 65.52 65.47 64.24 63.42 63.59 63.56 63.67 63.85 63.55 62.90 63.40 63.61 63.65 61.87 62.51 62.70 63.87 63.32 64.60 63.18 60.70 58.94 57.43 49.96 52.47 51.79 51.26 51.50 52.39 56.82 63.63 63.81 64.87 63.09 61.59 60.55 59.64 59.03
65.80 66.65 67.21 67.16 65.70 65.01 64.93 64.61 63.42 63.15 62.49 62.17 62.67 62.83 61.27 60.65 61.88 62.15 61.60 60.82 60.97 61.55 60.64 60.94 59.32 54.17 56.86 50.15 47.29 47.45 48.79 48.93 48.13 48.91 51.75 59.36 64.61 63.21 61.63 59.81 58.75 58.26 57.68
65.59 66.37 66.93 66.99 65.78 65.28 64.24 64.84 63.94 63.09 63.02 62.57 62.00 62.27 61.59 60.01 60.79 61.52 61.32 60.65 60.09 59.97 59.35 58.95 56.55 50.79 47.81 45.94 44.74 44.49 45.35 46.15 46.91 51.24 54.21 62.18 63.30 61.57 59.53 58.72 57.71 56.29 55.94
65.84 66.18 66.77 66.59 66.28 65.67 65.21 64.95 64.85 64.40 63.51 62.51 61.93 62.30 61.74 60.85 60.81 61.84 60.72 60.19 59.43 59.01 58.67 58.38 54.54 47.45 44.27 42.91 42.38 42.66 42.77 45.61 48.52 50.85 52.41 56.02 60.95 59.06 57.77 56.33 55.19 54.50 54.36
64.44 66.39 66.21 66.81 66.57 65.73 65.32 64.97 65.12 65.06 64.70 63.23 62.40 61.46 62.16 61.28 60.72 61.89 61.20 59.50 59.29 58.65 58.10 55.16 48.84 44.24 42.75 42.19 40.49 40.20 40.82 43.36 47.27 49.10 49.52 49.41 51.54 57.12 55.44 54.21 53.41 52.71 52.80
56.70 63.80 66.46 67.53 66.73 65.80 65.60 65.49 65.46 65.37 65.19 64.35 63.38 61.44 61.23 61.57 60.86 60.53 60.48 59.85 58.68 57.47 56.17 51.15 45.23 42.64 41.47 40.92 39.64 39.46 38.90 39.59 43.94 46.47 46.75 44.73 44.36 44.77 50.81 51.68 51.09 50.48 50.29
50.27 53.01 62.12 66.51 66.53 66.12 65.82 65.83 65.51 65.20 65.10 64.84 64.16 62.63 60.29 60.81 60.71 60.53 59.80 59.22 57.15 54.83 52.05 48.14 42.78 42.47 40.57 39.18 39.51 38.30 38.30 38.72 41.93 45.86 43.45 41.83 42.76 41.08 40.42 49.58 49.17 48.08 47.87
48.83 50.14 52.57 63.04 66.42 66.29 65.98 65.64 65.78 65.92 65.39 64.94 64.41 63.93 60.93 60.35 59.65 59.61 58.66 57.42 55.58 51.89 47.89 44.33 42.09 39.30 39.78 38.72 40.44 38.94 38.09 38.46 38.73 42.08 41.50 41.81 41.30 39.62 38.35 37.96 35.87 37.64 46.26
46.89 47.26 49.56 56.01 63.63 65.79 65.04 65.12 65.17 64.56 65.04 65.08 64.77 64.24 61.43 60.41 59.29 58.58 58.12 56.26 54.01 51.80 49.16 45.21 40.73 39.31 37.08 36.96 37.64 37.10 37.67 38.01 37.17 38.02 38.95 37.66 38.91 38.01 36.01 34.90 34.40 34.11 35.16
47.10 46.28 46.99 49.67 58.00 64.16 65.29 65.31 65.72 65.51 65.09 65.51 64.64 63.88 61.93 60.34 59.39 58.53 57.18 56.05 53.58 49.44 44.89 43.25 41.09 38.04 36.97 36.98 36.84 35.80 35.17 36.43 37.00 37.29 37.34 37.87 36.43 36.02 34.83 34.65 33.42 33.50 32.98
44.90 45.61 46.05 47.40 51.45 60.95 64.73 64.80 61.33 62.02 61.12 62.49 63.37 63.32 61.27 60.46 59.76 58.93 56.64 55.69 53.00 50.90 47.13 44.68 43.86 41.65 38.61 36.46 35.87 38.06 33.64 34.41 33.45 33.63 34.82 34.99 34.42 33.25 32.96 33.17 33.22 33.13 32.27
43.36 44.38 45.73 46.69 47.73 52.34 61.56 63.27 63.04 62.59 62.08 62.81 63.52 63.73 62.41 59.86 59.22 58.74 57.16 55.64 53.03 50.37 47.89 47.15 45.93 46.78 45.05 40.70 39.55 38.84 37.06 37.53 33.41 30.57 31.99 32.02 32.10 32.81 31.35 31.79 31.43 31.85 31.96
42.73 42.27 43.38 44.86 46.83 48.77 54.73 61.80 62.34 62.09 62.06 58.70 60.62 61.21 61.58 57.64 59.16 58.38 56.35 53.51 49.92 49.36 49.95 48.36 46.76 46.62 47.22 43.32 41.43 40.08 38.76 35.42 34.04 33.08 31.83 31.54 31.62 31.87 31.61 31.27 30.58 30.20 30.99
42.57 42.53 42.29 43.02 44.52 46.58 49.55 55.87 60.90 61.39 58.33 55.06 55.68 59.84 56.72 55.54 56.25 55.44 54.43 51.89 50.20 49.21 47.91 48.36 47.51 46.56 44.03 42.31 41.20 39.82 38.47 36.13 33.97 32.48 31.32 29.97 29.34 31.10 30.38 30.41 29.81 29.38 29.67

GFSSE_sfc_wetblb_066.txt.gz
Wetbulb
71.64 75.09 76.47 76.19 75.60 75.85 75.76 75.88 75.86 75.38 74.45 74.24 74.18 74.08 73.70 73.31 73.01 72.78 72.51 72.42 72.02 71.97 71.42 70.89 70.77 70.55 69.62 68.66 68.38 68.09 68.25 68.10 67.84 67.45 67.11 67.62 67.66 68.11 67.94 67.50 66.50 66.74 68.83
72.83 75.09 76.09 76.22 76.03 76.18 76.12 75.94 75.67 75.14 74.69 73.86 73.14 72.82 72.19 71.74 71.38 71.03 70.68 70.70 71.46 71.65 71.60 71.11 70.77 70.08 69.68 68.25 67.55 67.59 67.40 66.34 65.86 65.64 65.71 66.48 67.96 66.94 66.70 66.30 66.57 66.99 66.95
72.48 75.03 75.34 75.90 75.93 76.24 76.10 75.86 75.47 75.01 73.99 73.31 72.70 72.26 72.26 71.92 71.21 71.42 70.88 70.53 70.06 70.48 71.56 71.39 70.95 70.18 69.25 67.75 67.82 67.59 67.04 66.73 66.23 66.05 65.14 65.12 65.47 66.84 66.70 67.09 67.14 65.82 66.06
73.82 74.71 74.89 75.55 76.02 75.94 75.57 75.45 75.26 74.69 73.68 73.00 72.16 71.51 71.16 71.03 71.34 71.15 70.02 68.81 69.08 70.03 70.02 71.12 70.88 70.30 67.95 67.61 67.64 67.37 67.04 66.50 66.32 65.93 67.39 66.97 66.25 66.20 66.23 66.18 67.04 67.23 67.03
73.75 74.81 75.01 75.51 76.02 75.94 75.57 75.32 74.98 74.66 73.70 72.75 71.99 71.18 70.18 69.77 70.08 69.36 68.58 67.84 68.68 71.12 70.72 71.18 70.81 69.40 67.27 67.79 67.67 68.06 67.45 66.06 65.45 67.49 68.17 68.78 68.27 68.29 68.45 68.11 66.78 66.23 67.28
73.90 75.07 74.58 75.32 75.82 75.68 75.43 75.04 74.92 74.41 73.55 72.44 71.36 70.57 69.00 68.52 68.43 68.03 67.99 70.63 71.26 70.84 70.44 70.93 70.02 67.80 67.16 67.98 68.31 67.81 67.11 66.10 65.60 68.07 68.82 68.58 69.37 69.76 69.71 70.07 69.58 69.56 69.95
73.35 74.37 74.76 75.37 75.60 75.47 75.11 74.91 73.96 73.60 73.21 72.19 71.15 70.25 68.76 67.84 67.78 67.95 67.76 70.45 70.56 70.96 70.82 70.06 68.88 67.87 67.28 68.17 67.99 67.14 66.43 65.45 67.16 68.38 69.04 69.39 68.90 68.89 68.86 69.45 68.90 68.52 68.03
73.12 73.41 74.18 73.88 74.40 74.45 74.40 74.01 73.27 72.97 72.81 72.12 70.88 70.10 69.30 67.71 67.60 67.66 67.85 70.01 70.14 70.13 69.74 69.14 68.56 68.00 67.14 67.71 67.30 66.72 65.78 66.07 66.30 67.05 68.13 68.63 68.62 67.70 68.35 68.56 67.58 66.99 66.85
73.15 72.91 72.91 74.14 73.23 72.27 72.54 72.49 72.40 72.47 72.96 72.07 71.52 70.78 69.26 68.85 67.87 67.49 68.18 68.08 68.90 69.19 68.86 68.47 68.19 67.14 67.30 67.00 66.72 66.33 65.68 65.95 67.58 67.27 67.02 67.65 67.90 68.42 68.73 67.85 67.09 66.15 65.33
71.60 73.05 72.78 72.97 73.06 72.81 72.02 71.23 71.45 71.69 72.07 71.33 70.63 69.53 67.91 66.91 67.31 67.26 68.28 68.94 68.33 68.24 67.79 67.22 66.81 67.10 67.05 66.73 66.34 65.71 65.69 64.81 67.07 67.11 67.83 67.34 66.59 67.85 67.45 66.25 65.05 64.30 64.03
69.93 72.16 72.75 72.52 72.51 71.84 71.69 71.25 70.39 69.72 70.09 69.97 68.91 66.97 66.13 66.79 66.44 65.95 66.07 67.31 68.48 67.99 67.16 66.78 67.12 67.46 66.98 66.07 64.90 65.07 64.65 67.43 66.85 66.86 67.05 67.00 66.26 66.75 66.08 64.97 63.95 63.17 62.42
67.77 69.45 71.64 71.93 71.49 71.34 70.44 71.00 71.47 70.45 70.30 69.62 69.57 68.19 68.59 66.86 66.33 65.27 64.89 66.69 67.72 67.83 67.54 67.00 67.65 66.67 65.75 65.98 64.80 63.18 66.65 66.32 66.11 65.71 65.14 63.84 66.86 65.89 64.74 63.93 62.62 61.39 60.66
68.14 69.02 69.65 70.79 71.80 71.09 70.25 69.93 69.95 69.87 69.22 69.15 69.24 69.06 68.43 66.98 66.57 65.62 66.24 66.60 66.99 65.33 66.17 66.93 67.36 66.51 66.16 65.52 64.45 65.17 65.26 65.10 64.71 63.80 62.20 62.14 66.25 64.97 63.52 62.01 60.77 60.00 59.31
67.89 68.45 69.13 70.55 70.14 71.05 70.61 69.56 68.60 68.24 68.44 68.17 68.62 68.55 67.85 66.85 67.16 66.51 64.99 65.91 66.34 66.01 66.12 66.72 66.66 66.36 66.07 64.38 63.92 63.57 63.33 63.22 63.09 62.32 60.74 60.22 65.72 63.76 61.94 60.45 59.50 58.70 58.60
67.50 68.10 68.69 69.24 68.98 71.00 70.56 69.90 68.42 67.70 67.66 67.47 67.86 68.14 67.69 66.83 66.77 67.87 67.22 65.92 65.50 65.94 66.00 66.21 66.13 65.17 65.28 63.69 61.95 61.66 60.83 60.33 59.31 59.88 60.34 62.24 64.79 62.62 61.09 60.11 58.63 57.73 57.63
67.09 68.06 69.02 68.79 68.88 69.59 70.50 70.12 68.99 68.28 67.81 66.77 67.19 67.53 67.47 67.15 67.07 67.79 67.59 67.10 65.89 65.71 65.89 66.04 65.54 64.27 63.74 62.06 59.88 58.62 58.55 58.09 57.91 58.97 60.86 62.88 62.54 61.68 59.92 58.84 57.32 56.46 56.64
69.48 69.80 69.47 68.94 68.80 68.86 70.36 70.41 69.81 69.10 68.13 67.53 67.18 67.46 67.47 67.89 67.90 67.66 67.54 67.33 67.22 65.63 65.36 65.47 65.37 63.80 61.51 60.04 58.47 56.68 56.64 56.70 57.33 58.09 59.67 61.42 60.47 59.28 58.94 57.31 55.98 55.19 54.99
64.09 67.84 70.24 70.06 69.27 69.21 68.86 70.32 70.11 69.77 68.99 68.22 67.85 67.55 67.24 67.39 67.73 67.33 66.84 66.81 67.54 66.95 65.31 64.53 63.99 61.53 60.11 57.78 56.55 55.18 54.96 55.62 56.31 56.88 57.85 58.31 58.42 57.12 56.53 55.84 54.74 53.08 52.64
59.31 60.31 64.61 68.71 69.87 69.47 69.10 69.26 69.42 69.92 69.39 69.15 68.60 67.87 67.53 67.09 67.15 66.93 66.54 66.66 67.25 66.53 65.75 64.29 63.10 62.06 59.43 57.36 55.67 54.37 53.51 53.24 54.41 54.86 55.79 56.23 56.32 55.47 54.97 53.49 53.21 51.10 50.36
58.64 59.13 59.31 63.07 67.57 69.55 68.12 68.21 67.89 67.50 68.02 69.53 69.20 68.55 67.92 67.29 67.03 66.69 66.25 66.09 66.44 65.91 65.11 64.78 61.75 60.79 60.19 58.59 53.59 52.08 52.65 52.36 52.25 53.75 54.42 54.26 54.22 53.66 53.20 52.49 50.75 49.27 48.40
57.09 57.57 58.14 58.44 62.50 66.90 68.00 66.04 65.71 65.34 66.16 66.50 67.73 69.31 68.62 67.76 66.85 66.51 66.10 65.90 65.69 65.20 65.09 64.67 61.91 58.76 56.03 57.03 52.85 51.61 51.04 51.08 50.41 51.95 53.53 53.17 52.28 51.73 51.44 51.27 49.34 48.35 47.04
55.04 56.66 57.30 57.75 58.67 61.89 66.58 67.74 67.99 67.37 67.25 67.06 67.01 66.75 67.92 67.76 67.27 66.29 65.97 65.75 65.17 64.19 64.68 64.36 61.60 57.34 57.40 54.37 54.12 54.57 50.86 49.39 49.28 49.83 51.65 51.50 51.31 50.87 49.48 48.91 48.03 47.26 47.13
52.76 54.12 55.38 56.45 56.97 58.46 62.58 65.87 67.12 67.29 67.49 66.33 66.02 66.11 66.44 66.54 67.67 66.83 66.26 66.45 65.60 64.46 63.73 63.83 61.60 58.09 55.16 52.65 54.79 55.59 50.57 50.51 49.09 49.14 48.49 49.80 49.30 49.00 48.63 47.62 46.25 46.05 45.98
51.04 51.99 52.58 53.64 54.80 56.05 58.90 62.47 64.62 63.92 63.58 64.91 66.23 67.03 67.38 66.31 65.34 66.65 66.43 66.26 65.47 64.71 63.47 63.11 61.12 59.10 58.20 52.05 50.69 49.49 49.46 51.49 48.63 45.29 45.94 47.36 47.91 47.06 46.96 45.71 44.92 44.41 44.17
52.41 52.38 51.96 51.55 52.62 54.33 55.41 59.22 63.22 63.57 63.91 65.39 66.14 66.18 66.65 66.21 64.99 64.29 64.79 65.21 64.74 63.97 63.21 62.37 59.40 57.97 58.17 56.34 52.11 48.85 48.38 47.18 46.30 45.68 47.48 42.31 43.32 44.29 45.11 44.48 44.03 43.58 43.06
53.85 53.52 53.39 52.80 51.52 52.21 53.97 55.79 59.60 61.70 63.17 63.79 64.66 64.87 65.66 65.75 64.21 63.45 62.92 63.32 63.68 63.17 62.13 62.14 60.22 58.04 56.35 57.08 53.08 50.55 48.09 45.96 43.33 44.47 42.70 42.90 42.66 41.36 41.59 40.33 38.93 40.15 41.30

GFSSE_sfc_wetblb_072.txt.gz
Wetbulb
71.38 74.31 76.45 76.81 76.57 76.56 76.58 76.38 76.21 75.83 75.67 74.98 74.61 74.36 74.02 73.73 73.29 72.87 72.47 72.63 72.29 72.09 70.66 70.75 70.55 69.86 69.67 69.51 69.39 68.74 68.10 67.87 67.79 68.33 68.54 68.97 68.13 67.75 68.30 69.04 69.94 68.39 70.74
72.74 74.33 76.10 76.55 76.57 76.51 76.25 76.23 75.85 75.60 75.04 74.70 74.26 73.95 73.59 73.19 72.96 72.69 72.46 72.30 72.03 71.59 71.47 70.78 70.14 69.28 68.88 68.47 67.90 67.29 66.92 66.27 66.05 67.24 68.27 67.45 67.81 67.47 67.73 67.48 68.63 66.61 68.22
72.43 74.22 75.13 76.14 76.16 76.17 76.02 75.94 75.55 75.33 75.20 74.84 73.80 73.04 72.50 71.94 71.35 70.94 70.62 70.74 71.70 71.43 71.13 70.89 70.06 69.14 68.55 68.06 67.61 67.18 67.02 66.12 65.74 65.91 67.90 63.07 64.36 67.98 68.40 68.50 68.41 68.74 68.60
73.00 73.22 74.09 75.84 76.08 76.11 75.82 75.55 75.20 74.96 74.55 74.07 73.20 72.90 72.35 71.75 71.79 71.47 70.61 70.15 70.15 71.15 71.34 70.92 69.27 68.77 68.16 67.84 67.59 66.97 66.89 66.35 66.25 68.09 65.40 64.82 66.29 68.31 67.64 67.78 67.78 67.78 67.72
71.93 72.19 74.13 75.58 75.95 75.98 75.72 75.39 75.12 74.86 74.11 73.48 72.90 72.00 71.51 72.11 71.23 69.97 68.70 68.47 70.39 71.48 71.39 70.89 68.73 68.61 68.03 68.41 67.43 67.03 66.18 66.00 67.53 67.23 66.93 67.18 67.03 69.77 69.80 70.65 70.50 70.60 70.32
71.12 72.91 74.32 75.36 75.84 75.58 75.32 75.22 75.00 74.52 73.53 72.83 71.75 70.91 70.54 70.20 69.25 68.47 68.68 70.57 71.29 71.91 71.48 70.13 68.76 68.59 68.49 68.41 68.03 67.19 65.88 66.71 67.09 67.12 67.05 68.38 67.29 70.37 70.81 70.03 69.42 69.44 69.44
71.89 72.90 74.08 75.44 75.66 75.56 75.46 74.86 74.51 74.22 73.57 72.86 71.82 69.19 68.28 68.87 68.43 69.37 70.24 71.05 71.59 71.65 71.08 69.15 68.66 68.62 68.69 68.23 67.76 66.71 66.13 66.89 65.13 65.95 65.42 64.77 65.61 69.93 69.61 68.62 67.87 67.40 67.77
72.19 72.27 73.37 74.01 74.78 74.96 74.89 74.47 74.04 73.13 72.83 72.39 70.22 69.12 68.38 68.21 68.52 68.82 70.32 71.50 71.36 71.24 70.12 69.11 68.56 68.67 68.50 67.87 67.38 66.16 66.42 65.94 64.87 66.05 65.46 65.09 68.82 69.25 68.72 67.53 66.88 66.37 66.29
72.19 71.71 72.22 73.04 73.56 73.37 73.66 73.55 72.89 72.66 72.17 71.76 71.20 70.48 69.46 68.96 68.94 69.07 70.58 71.29 70.58 70.39 69.90 69.14 68.37 67.78 68.16 67.52 66.94 66.07 66.37 65.72 64.68 65.29 65.40 65.25 69.20 68.95 67.76 66.64 66.04 65.48 65.42
71.39 71.56 71.41 71.23 72.03 72.26 71.92 71.84 71.22 71.47 71.02 70.97 70.36 69.00 67.54 66.91 67.36 68.66 68.42 69.99 70.23 69.84 69.54 68.77 67.83 67.61 67.41 67.14 66.52 66.51 65.69 65.50 63.28 63.69 64.32 65.42 68.59 67.88 66.71 65.64 65.05 64.81 64.41
70.23 70.26 71.05 70.60 70.53 71.01 69.74 70.07 70.40 70.23 69.83 69.46 68.43 66.68 65.33 63.85 64.08 65.30 65.66 67.92 69.25 69.01 68.28 67.61 67.50 67.68 67.41 66.62 66.45 65.99 65.18 62.66 63.41 63.94 63.39 68.42 67.79 67.30 65.84 64.72 63.98 63.36 62.83
67.02 69.40 69.82 70.10 69.13 69.37 70.41 68.24 68.28 69.55 69.23 68.71 67.59 64.59 64.76 62.70 61.75 64.10 65.12 66.87 68.47 68.07 67.69 67.79 67.88 67.72 65.90 62.52 62.27 64.17 61.62 62.07 61.38 62.03 62.67 68.14 67.15 66.31 65.24 63.75 62.61 61.82 61.37
65.41 68.00 70.21 70.03 69.38 67.64 68.34 67.86 67.78 68.32 68.72 68.58 67.21 65.26 65.01 62.78 61.01 62.20 63.22 64.16 64.24 64.58 64.38 65.69 66.02 64.62 62.51 61.45 61.05 60.49 61.25 60.85 60.36 59.58 62.34 67.39 66.63 66.03 64.49 62.72 61.74 60.87 60.50
66.82 66.94 68.19 68.89 67.28 66.52 66.39 65.77 66.30 66.95 65.64 64.98 67.20 66.21 64.61 61.67 60.88 60.32 61.83 62.00 63.01 63.36 62.52 62.31 63.23 62.53 61.68 61.51 60.16 59.87 60.12 59.18 58.50 57.77 59.56 65.59 66.45 65.19 63.52 62.11 61.15 60.46 60.13
66.43 67.40 67.22 67.95 67.46 66.66 65.85 65.44 64.67 64.78 64.89 64.67 64.84 66.04 64.49 62.25 61.28 59.83 60.77 61.55 61.74 62.34 61.08 61.47 61.61 62.28 61.15 60.81 59.55 59.41 58.94 57.77 56.78 55.79 55.71 63.61 65.45 64.31 62.71 61.74 60.65 60.16 59.69
66.38 66.82 68.02 67.78 67.73 67.22 65.87 66.06 65.37 64.32 64.21 64.01 63.93 64.47 64.55 63.19 62.34 61.97 60.76 60.39 61.05 61.28 60.74 61.60 61.32 60.90 60.67 60.30 58.28 58.13 57.37 56.23 55.30 54.74 54.43 59.77 64.10 63.97 62.38 61.63 60.30 59.83 59.28
64.98 67.14 67.03 68.61 68.32 66.91 67.03 68.19 66.67 65.73 65.22 63.95 63.51 64.14 64.29 63.65 62.63 62.58 62.80 62.06 61.46 60.86 60.92 60.73 61.01 60.67 59.46 59.94 57.47 56.49 56.03 54.54 54.24 54.13 57.29 59.32 60.53 61.61 62.44 61.13 59.93 59.18 58.84
65.79 66.14 67.39 68.97 68.05 68.15 66.92 67.46 67.03 66.96 65.53 64.67 63.81 63.55 64.02 63.74 63.27 62.46 62.71 63.15 63.43 63.03 60.41 59.57 59.66 59.20 58.19 57.47 55.51 54.35 53.35 53.26 52.75 53.39 54.01 58.56 56.65 56.39 59.68 61.27 59.57 58.29 58.26
60.07 64.50 66.47 68.12 67.64 67.33 68.17 67.28 68.58 67.49 66.58 65.68 65.05 64.05 63.79 63.93 63.37 63.10 63.15 62.99 63.77 62.71 61.71 59.82 59.11 58.90 57.01 55.33 55.19 53.58 51.57 51.60 52.23 53.89 52.85 53.08 56.16 54.51 52.74 58.56 58.51 57.98 57.09
56.30 56.86 58.46 64.58 67.46 67.86 67.88 68.07 67.46 67.62 68.07 67.30 65.77 65.07 64.78 64.10 63.60 62.97 63.10 62.91 62.65 62.20 61.73 60.79 58.70 58.73 57.03 55.83 56.02 53.66 50.50 50.45 51.11 50.99 50.70 52.44 52.01 52.15 51.14 50.54 50.20 50.02 55.05
54.09 54.93 55.45 56.37 58.89 64.61 67.49 65.32 65.27 66.30 65.46 65.94 66.49 66.48 65.77 64.74 63.99 63.00 63.18 62.56 62.52 61.58 62.10 61.41 60.09 58.02 56.60 56.08 52.96 49.29 49.25 49.67 48.84 48.72 49.98 49.68 50.78 51.15 49.34 48.13 46.78 45.19 47.58
51.71 52.78 53.46 54.18 55.68 56.67 60.52 66.73 65.48 65.42 65.43 66.50 64.88 66.26 66.85 65.56 64.39 63.99 63.03 63.06 62.04 61.35 61.19 61.69 61.14 59.67 56.85 56.26 51.70 47.79 45.20 46.88 47.65 48.75 48.07 49.52 48.92 49.69 49.19 47.85 46.63 44.69 44.27
48.86 49.87 52.06 53.60 54.17 55.19 56.35 59.59 65.10 64.53 63.68 63.17 64.32 65.91 65.91 65.62 65.72 64.44 63.12 62.85 62.26 61.88 61.04 61.39 61.23 60.32 58.37 54.72 52.46 50.44 48.05 46.87 44.78 47.24 47.13 47.72 47.67 46.98 47.13 46.88 46.31 44.66 43.54
48.92 49.46 49.76 50.45 51.13 52.73 54.32 54.35 57.70 63.52 62.29 63.87 64.21 64.80 64.73 65.51 65.65 65.05 64.44 63.63 62.43 62.15 61.57 60.65 61.51 60.76 58.89 55.35 53.60 54.36 51.31 48.78 44.95 40.93 44.74 45.89 46.80 46.53 45.43 44.94 44.22 43.20 42.12
50.48 49.70 49.98 49.63 49.82 50.57 51.39 51.93 52.01 52.35 56.96 61.61 62.06 62.91 63.16 63.60 64.31 64.24 64.53 62.16 64.09 63.57 63.24 62.75 60.98 60.84 60.90 57.68 54.32 51.72 52.42 48.42 46.88 44.35 39.22 41.96 44.00 44.93 45.34 44.70 43.40 41.88 41.80
51.59 51.05 50.65 50.12 49.61 49.48 49.52 50.20 50.26 50.47 52.11 56.18 58.67 58.45 59.26 60.68 63.48 63.51 63.61 63.42 63.41 62.73 62.65 62.53 62.14 60.34 59.21 58.75 55.52 53.19 51.40 49.83 48.74 45.80 44.27 40.78 41.47 41.96 43.22 42.91 40.84 40.83 40.64

GFSSE_sfc_wetblb_075.txt.gz
Wetbulb
71.63 74.81 76.73 76.94 76.98 76.98 76.75 76.62 76.23 75.86 75.47 75.14 74.75 74.29 74.09 73.59 72.97 72.91 72.91 72.37 72.47 71.60 70.58 70.62 70.17 69.87 69.85 69.50 68.80 68.12 67.85 67.63 68.03 68.66 68.37 68.45 68.34 69.04 70.04 69.54 69.28 68.77 70.57
73.12 74.87 76.23 76.62 76.76 76.74 76.55 76.39 75.94 75.46 75.32 75.06 74.40 74.14 73.75 73.44 73.15 72.83 72.70 72.22 71.73 71.61 70.79 70.33 69.87 69.33 68.67 68.16 67.47 67.07 66.71 66.98 67.45 67.51 67.98 67.53 68.46 68.49 67.63 67.79 68.09 66.86 68.24
73.23 74.75 75.35 76.24 76.34 76.35 76.31 76.02 75.70 75.31 75.13 74.95 74.11 73.62 73.01 72.45 71.87 71.38 71.73 72.20 72.03 71.42 70.94 70.21 69.62 68.80 68.17 67.64 67.03 67.10 66.94 66.63 66.54 67.02 67.55 63.42 64.99 68.81 68.90 68.77 68.96 68.96 68.79
73.54 74.30 74.76 75.83 76.19 76.24 76.05 75.77 75.59 75.40 75.07 74.57 74.13 72.91 72.48 71.88 71.78 71.61 70.69 70.72 71.66 71.91 71.03 69.79 69.13 68.31 67.95 67.36 66.90 67.57 67.75 67.46 66.98 67.92 64.43 64.45 66.76 68.40 68.96 69.13 69.17 69.44 68.89
72.43 73.77 74.73 75.60 75.99 75.96 75.58 75.32 75.18 74.99 74.70 74.40 73.92 73.11 72.63 72.37 71.04 69.48 69.13 69.96 71.30 71.78 71.05 69.49 68.90 68.35 68.36 67.24 67.00 67.33 67.46 67.84 68.85 68.07 66.86 66.75 67.33 69.97 71.02 70.86 70.29 70.61 70.64
71.48 73.00 74.66 75.42 75.86 75.51 75.19 75.11 75.04 74.24 74.26 73.34 72.62 71.81 71.54 70.46 69.16 68.74 69.59 70.42 71.92 71.83 71.13 69.49 68.81 68.68 68.53 68.07 67.14 67.07 67.26 67.61 67.85 65.38 65.33 68.02 67.25 70.45 70.02 69.14 68.73 69.35 69.99
71.38 73.24 74.31 75.35 75.64 75.38 75.21 74.98 74.39 74.35 73.75 72.80 71.55 69.53 69.53 69.16 69.49 69.37 69.73 71.85 72.06 71.66 70.51 69.55 69.08 68.90 68.40 67.80 66.76 66.82 66.73 66.69 64.69 63.69 63.58 64.52 66.83 69.35 68.28 68.02 67.45 67.66 67.81
71.70 72.88 73.87 73.95 74.63 74.96 75.01 74.38 74.12 73.63 72.65 72.00 70.76 68.88 68.87 68.78 69.13 70.19 70.01 71.47 72.12 70.92 69.57 69.33 69.26 68.94 68.25 67.60 66.54 66.10 66.40 65.98 65.16 64.72 63.97 65.28 69.21 68.84 67.57 66.94 66.30 66.35 66.10
72.04 72.34 73.13 73.61 73.57 73.42 73.56 73.50 73.23 72.63 72.10 71.37 70.76 70.07 69.41 69.57 69.58 70.12 70.84 71.67 71.35 70.52 70.31 69.19 68.84 68.77 68.04 67.34 66.23 66.22 66.29 65.70 63.33 63.78 66.11 65.79 69.10 68.04 67.04 66.31 65.87 65.74 65.41
70.91 71.74 71.47 72.10 72.86 72.73 72.31 71.80 71.47 71.42 70.83 70.70 69.85 68.88 67.60 67.19 68.44 69.42 70.02 70.54 71.00 70.72 69.67 69.33 68.21 68.17 67.85 67.12 66.18 66.66 65.72 65.06 61.90 62.92 64.61 66.44 68.37 67.55 66.58 65.64 65.13 64.87 64.07
69.73 69.82 70.52 70.54 70.42 71.45 71.19 70.41 70.27 70.00 69.50 69.20 68.05 66.41 65.34 63.61 65.11 65.18 66.54 68.69 69.62 69.84 69.26 68.36 68.07 68.19 67.80 66.75 66.34 65.58 64.92 61.64 61.92 62.36 64.06 68.67 67.94 66.94 65.78 64.80 64.06 63.58 62.97
67.67 68.57 69.70 69.35 69.24 69.88 70.46 68.65 68.06 68.85 67.88 67.23 66.02 64.13 63.43 62.23 62.19 64.65 64.37 67.46 69.03 68.47 68.28 68.31 68.23 67.91 65.82 62.66 62.37 64.10 61.33 60.43 60.64 61.45 64.62 68.20 67.44 66.30 64.97 63.58 62.99 62.31 62.22
66.37 68.40 68.84 67.87 69.18 68.30 68.18 67.01 67.07 67.54 67.31 66.83 64.98 63.58 63.41 62.55 60.51 62.37 63.25 64.31 64.06 64.13 64.51 66.07 66.12 64.42 62.23 60.45 59.88 59.86 60.25 59.51 59.17 60.84 65.63 67.65 66.80 66.15 64.67 62.97 62.02 61.61 61.38
65.54 66.16 67.89 68.46 68.79 66.03 67.67 66.81 66.88 66.96 67.22 66.64 65.69 64.46 63.02 59.55 59.68 61.93 61.90 62.39 62.66 62.81 62.08 62.58 62.77 62.30 61.75 61.03 59.56 58.89 58.96 58.39 57.58 58.40 63.34 66.11 66.89 65.95 64.40 62.84 61.77 61.18 61.08
65.04 65.96 66.62 67.10 67.34 66.46 66.92 66.25 66.13 66.45 66.50 66.08 66.41 65.38 63.69 60.24 59.53 60.41 60.33 61.52 61.86 62.18 61.74 61.03 61.53 61.45 60.60 59.81 59.27 58.53 58.40 56.50 56.47 56.42 59.27 64.07 66.03 65.55 63.85 62.60 61.87 61.34 60.77
64.93 65.56 66.77 66.99 66.83 65.52 64.48 63.99 63.24 63.55 65.44 63.39 65.59 65.70 63.76 61.90 60.47 59.24 59.46 60.14 60.84 61.60 61.08 61.05 60.18 60.66 59.79 59.41 58.20 57.11 56.37 55.34 53.93 54.58 56.83 62.27 64.67 64.81 63.59 62.72 61.80 61.44 60.76
64.29 65.67 65.72 66.74 67.22 65.96 66.09 64.85 64.23 62.89 63.48 62.49 62.46 63.41 63.28 62.19 61.36 60.48 59.18 59.38 60.29 60.65 59.35 59.69 59.76 59.57 59.03 59.16 57.47 55.79 55.36 53.57 53.31 53.11 54.87 59.55 61.87 62.65 63.61 62.76 61.54 61.06 60.45
64.07 65.80 66.31 68.17 67.09 66.36 65.93 66.29 66.92 64.62 63.03 62.49 62.28 62.35 63.09 62.82 61.92 61.02 61.22 60.45 60.56 59.77 59.06 58.42 58.52 58.31 57.54 57.24 55.61 54.15 53.52 52.84 52.24 51.88 56.82 58.61 58.18 58.40 61.73 63.08 61.55 60.53 60.17
63.69 64.74 66.28 66.98 66.45 66.50 66.21 66.20 66.43 67.82 63.97 63.30 62.64 62.08 62.47 62.84 62.34 61.34 61.20 61.87 62.01 61.36 60.21 58.56 57.82 58.00 56.66 55.38 55.01 53.43 51.17 50.80 51.07 52.63 52.77 57.24 55.98 55.27 55.06 60.53 60.70 60.23 60.22
57.64 63.31 64.68 66.66 66.44 66.21 66.15 65.83 65.83 66.34 68.19 66.53 63.85 62.72 62.61 62.71 62.25 61.39 61.55 61.77 62.17 61.21 60.53 58.81 57.41 57.39 56.71 55.60 55.55 54.01 50.40 49.79 50.19 50.07 50.48 53.99 56.28 54.44 52.77 53.39 54.18 54.20 58.42
50.43 53.05 55.06 60.01 66.78 66.71 65.19 63.75 63.79 64.44 64.61 65.05 65.72 65.01 63.57 63.15 62.96 61.76 61.91 61.62 61.24 61.29 61.60 60.28 58.06 56.92 55.88 54.85 52.04 49.18 48.29 48.27 48.26 49.41 50.07 49.46 50.94 53.51 51.36 51.43 50.20 48.01 51.83
49.20 49.76 51.07 52.68 54.35 62.89 66.82 66.26 64.04 63.80 64.24 64.87 64.77 65.54 66.36 65.43 63.06 62.81 61.92 62.18 61.32 60.33 60.39 60.46 59.33 56.99 56.45 54.95 51.37 46.72 45.32 46.61 47.52 48.08 47.96 49.33 48.64 49.91 50.00 49.80 48.10 46.55 46.55
48.04 48.02 49.19 49.31 50.34 51.96 54.79 64.76 63.79 64.19 62.77 62.64 63.00 64.37 64.78 65.04 65.02 63.90 62.14 61.52 61.86 61.44 60.43 60.69 60.40 58.44 57.25 55.52 52.62 49.74 45.43 45.20 44.63 45.91 47.14 47.52 47.80 47.49 48.61 48.99 47.99 46.29 45.10
48.38 48.40 48.92 48.91 48.90 50.08 50.24 52.86 62.46 62.05 62.12 61.85 62.36 63.70 63.89 63.99 63.44 63.73 63.41 62.63 61.00 60.68 59.97 59.81 60.79 60.36 57.08 55.65 54.53 53.38 52.08 49.60 44.80 43.39 45.76 46.93 47.33 46.57 47.27 46.30 46.95 44.66 43.53
49.51 48.88 48.83 48.18 48.37 48.60 48.66 49.21 49.69 51.90 55.86 60.47 62.64 62.70 63.16 62.65 63.28 63.24 63.05 62.41 62.01 60.84 60.73 59.62 59.53 59.65 59.63 58.04 55.35 52.79 52.60 51.51 47.90 44.74 43.46 44.57 46.45 47.09 46.90 46.09 45.40 42.82 43.04
50.28 49.79 49.72 48.40 48.62 48.76 48.19 47.78 48.41 47.91 48.31 50.27 54.75 59.18 60.95 61.00 61.63 62.11 62.10 63.48 62.82 61.70 62.31 62.63 62.14 60.71 60.85 60.60 57.83 55.57 52.65 51.46 51.42 47.60 44.16 42.96 44.02 42.71 41.91 40.93 41.11 41.05 40.55

GFSSE_sfc_wetblb_078.txt.gz
Wetbulb
70.62 74.38 76.70 77.06 76.81 76.70 76.20 75.97 76.09 75.75 75.50 74.59 74.24 73.97 73.27 73.01 73.11 72.86 72.13 71.43 71.16 71.02 70.68 70.43 70.24 70.07 69.71 69.10 68.40 67.97 68.04 68.04 68.13 68.26 68.05 69.17 69.37 70.17 70.06 69.80 69.43 68.42 69.96
72.84 74.82 76.28 76.81 76.86 76.73 76.51 76.06 75.60 75.37 75.02 75.01 74.33 73.94 73.56 73.17 73.02 72.67 72.18 71.59 71.40 70.62 70.26 70.10 69.42 68.64 68.10 67.62 67.29 67.72 68.13 67.59 66.90 67.09 67.80 68.03 68.72 67.97 68.20 68.25 68.28 66.74 67.74
73.29 74.58 75.28 76.33 76.37 76.44 76.28 75.97 75.64 75.43 75.12 74.84 74.14 73.92 73.33 72.92 72.60 72.69 72.36 72.02 71.41 70.80 70.21 69.71 68.72 68.07 67.38 67.31 67.58 67.65 67.47 67.52 67.37 66.83 66.32 63.74 65.48 68.80 68.74 68.70 68.93 68.72 68.54
73.44 74.24 74.61 75.92 76.22 76.20 76.09 75.74 75.48 75.34 75.21 74.89 74.06 72.96 72.36 71.84 71.62 71.12 71.45 71.97 71.78 70.88 70.14 69.15 68.17 67.68 67.07 67.69 68.37 68.49 68.02 67.34 66.60 67.00 63.09 64.84 65.69 69.25 69.50 69.54 70.00 69.53 68.93
73.01 73.83 74.45 75.58 75.96 75.83 75.60 75.48 75.33 75.31 75.02 74.72 73.98 73.52 72.81 72.14 70.85 70.23 70.52 71.23 71.95 70.98 69.76 68.84 68.38 67.77 67.06 67.76 68.27 68.29 68.49 69.57 69.29 67.27 66.36 66.42 67.54 70.36 71.01 70.73 70.72 70.54 70.23
72.49 73.18 74.54 75.35 75.75 75.52 75.32 75.36 75.28 74.91 74.63 73.95 73.73 73.14 71.91 70.74 69.53 69.17 69.41 71.69 71.97 71.08 69.95 68.89 68.74 68.18 67.55 67.57 67.72 67.96 68.62 68.82 66.87 65.18 66.33 68.71 67.91 70.19 69.34 68.53 68.65 69.81 70.06
71.90 73.36 74.23 75.25 75.41 75.26 75.08 74.92 74.54 74.16 73.63 72.98 72.01 71.77 70.74 69.45 68.78 68.94 69.99 71.20 71.70 71.11 70.22 69.22 68.94 68.27 67.69 67.68 67.34 67.17 67.23 67.75 63.48 62.99 64.22 66.25 65.90 68.45 67.80 67.65 67.58 67.29 67.98
71.67 73.08 73.84 73.84 74.49 74.72 74.75 74.38 73.96 73.20 72.26 71.28 70.17 69.38 69.31 69.36 69.69 69.25 70.95 71.31 71.62 70.26 69.98 69.47 69.13 68.34 67.68 67.46 66.92 66.46 66.96 66.59 64.11 63.28 64.40 65.38 68.67 67.77 67.42 66.66 66.49 66.22 65.91
72.08 72.44 72.96 73.70 73.35 73.22 73.62 73.40 73.45 72.44 71.49 70.81 70.26 69.51 69.72 69.78 70.09 69.40 70.46 71.92 71.58 70.58 70.56 69.82 69.24 68.47 67.58 67.16 66.55 66.32 66.11 65.84 62.55 64.31 65.71 65.41 68.69 67.10 66.82 66.15 65.91 65.65 65.09
71.38 72.22 72.24 72.27 72.91 72.48 72.05 71.83 71.69 70.94 70.42 70.33 69.93 68.91 67.87 67.72 69.26 69.68 70.20 71.11 71.03 70.57 69.93 69.73 69.17 68.48 67.56 67.07 66.56 65.94 65.24 64.76 61.90 63.84 64.82 65.80 67.95 67.22 66.32 65.44 64.91 64.37 63.78
70.75 71.08 71.71 71.61 71.59 71.45 71.51 70.44 70.31 69.77 69.11 68.83 67.88 66.48 65.46 64.36 65.58 66.46 67.66 69.15 70.29 70.34 69.41 68.79 68.66 68.68 68.00 66.84 66.36 65.70 63.99 60.89 60.85 62.69 64.48 68.65 67.63 66.84 65.60 64.62 64.16 63.39 62.84
67.65 69.15 70.37 70.38 70.41 70.83 70.83 69.50 68.16 68.24 66.95 66.07 64.91 64.06 63.15 62.43 63.76 64.03 65.97 67.74 69.43 69.17 68.84 68.70 68.43 68.21 66.14 62.23 61.85 63.95 60.40 59.78 60.69 62.00 64.49 68.49 67.36 66.62 65.08 63.71 63.06 62.58 62.36
67.32 68.48 69.11 69.02 69.34 68.02 68.56 67.14 66.36 66.39 65.80 65.51 64.12 63.20 62.25 61.73 61.16 62.16 62.67 65.29 65.17 64.73 64.83 66.03 65.83 63.85 61.20 59.67 59.49 59.27 59.23 58.82 59.63 61.38 65.26 68.05 67.21 66.35 64.80 63.31 62.34 61.99 62.02
66.43 66.63 67.29 68.22 68.43 66.63 67.37 66.71 66.41 66.34 65.80 64.70 64.17 63.06 61.93 59.84 58.97 60.70 61.55 62.36 62.25 62.42 62.06 62.76 62.70 61.94 61.03 60.44 58.59 58.38 57.89 58.30 58.65 59.56 63.28 66.49 67.31 66.27 65.06 63.40 62.36 61.67 61.78
65.15 65.77 66.40 66.76 66.15 66.51 66.03 66.65 66.11 65.95 66.28 65.97 64.91 63.93 62.77 59.52 58.56 60.58 60.98 61.37 61.41 61.53 61.18 60.96 61.17 60.87 60.25 60.00 59.70 58.95 58.16 57.06 57.32 58.16 61.26 63.94 66.32 66.51 64.92 63.74 62.61 61.91 61.61
64.69 65.43 66.20 66.46 65.45 65.92 66.25 65.41 65.56 65.80 66.33 65.73 65.66 65.11 63.18 60.24 59.50 60.43 60.10 60.84 60.99 61.10 61.20 60.69 60.14 60.51 59.74 59.34 59.14 57.66 57.57 55.27 56.06 56.08 59.02 62.10 65.13 65.90 64.78 63.79 63.04 62.38 61.84
63.83 64.94 65.96 66.30 66.33 63.97 63.77 63.85 63.93 64.56 65.41 64.25 66.07 65.47 63.42 60.96 59.31 59.58 59.62 58.85 60.25 60.79 61.08 60.06 59.81 59.30 59.32 59.10 57.90 56.12 55.26 53.64 53.15 54.17 55.93 60.06 62.35 63.43 64.63 63.93 63.06 62.34 61.72
64.38 64.22 64.84 67.41 66.35 65.29 65.11 65.42 64.78 62.38 63.99 63.04 63.46 64.92 63.48 61.88 60.65 59.08 58.67 58.74 59.30 59.48 59.59 58.49 58.60 57.79 57.62 57.49 57.21 55.71 54.04 52.84 51.67 51.86 53.56 58.42 59.54 59.86 62.54 64.12 63.29 62.30 61.86
63.26 64.54 65.10 65.56 65.83 65.75 65.54 65.78 66.03 66.48 61.98 61.70 61.45 62.24 62.91 62.55 61.50 60.84 60.19 59.48 58.97 59.09 58.64 58.64 57.23 57.36 56.38 55.78 56.05 54.72 52.33 51.78 51.52 51.71 52.96 55.84 57.81 57.62 57.04 61.03 62.26 61.96 62.05
62.30 64.00 65.04 65.74 65.60 65.07 65.29 65.26 65.10 65.58 66.11 63.83 61.85 61.26 61.69 62.29 61.71 61.05 60.26 60.57 60.85 59.83 59.25 57.55 56.67 56.63 56.57 55.93 56.00 54.54 51.64 50.09 49.88 49.51 50.06 56.01 56.39 56.53 55.98 55.35 57.45 57.05 60.48
52.88 60.97 63.39 64.53 65.51 64.72 64.03 63.20 62.85 63.30 64.08 64.72 63.74 63.05 61.83 61.80 61.75 60.86 60.59 60.37 60.83 61.20 60.77 59.83 57.56 56.31 55.54 54.67 52.25 50.41 48.85 48.93 48.10 48.53 49.16 49.37 55.07 56.26 54.99 54.66 54.44 52.91 55.43
47.94 49.63 52.66 55.09 61.60 65.19 64.52 64.01 64.13 63.54 63.27 64.16 64.73 64.73 64.47 62.51 61.51 61.04 60.39 60.86 60.82 60.03 59.94 59.63 58.88 56.24 55.81 54.22 52.72 48.36 49.37 48.80 47.79 48.39 47.42 48.96 48.69 52.77 53.63 53.31 52.49 50.20 50.24
46.50 46.85 48.55 49.22 50.15 53.05 61.55 64.37 63.10 63.03 62.39 62.30 62.68 63.26 64.48 64.47 64.00 62.16 60.80 60.55 60.38 60.62 60.41 60.12 59.72 58.10 58.29 54.97 52.90 52.57 45.65 46.29 45.39 46.47 46.30 46.08 46.94 47.09 49.00 50.09 49.27 48.51 48.41
47.05 47.29 47.80 48.24 48.36 49.14 49.88 56.98 62.60 63.36 62.27 61.62 61.66 62.41 62.62 62.97 63.39 63.90 63.35 61.96 60.64 60.02 59.71 59.44 60.10 59.57 56.57 55.60 54.18 55.64 51.04 48.90 46.63 45.72 44.82 48.24 49.13 48.67 48.27 47.54 47.71 46.77 45.77
48.58 48.08 47.42 46.87 46.90 47.06 47.53 48.82 54.56 57.63 59.02 59.31 60.73 61.21 61.53 61.67 62.60 62.60 62.86 61.81 61.27 60.33 59.24 59.02 60.09 59.40 59.48 59.41 55.25 52.31 51.45 51.51 48.88 47.78 48.42 45.04 47.08 47.34 48.20 48.31 48.18 47.05 46.06
48.92 48.60 47.48 48.66 48.82 48.44 46.59 46.22 47.14 47.40 47.90 48.69 50.57 56.24 59.72 60.96 61.31 61.58 61.31 60.81 61.16 61.55 60.93 60.30 59.20 60.01 59.87 60.01 59.55 57.43 55.30 52.98 52.39 48.54 46.14 44.76 45.53 43.58 41.67 41.79 42.89 43.21 43.69

GFSSE_sfc_wetblb_081.txt.gz
Wetbulb
69.66 74.05 76.41 76.56 76.38 75.77 75.62 75.31 75.53 75.33 74.69 73.97 73.65 73.42 73.38 73.02 72.61 71.76 71.34 70.65 70.88 70.72 70.54 70.59 70.38 69.99 69.32 68.65 68.42 68.33 68.08 68.24 68.31 68.50 68.91 69.81 70.15 70.48 70.43 69.81 69.16 67.23 68.54
71.78 74.47 76.21 76.60 76.53 76.11 76.06 76.06 75.63 75.36 75.04 74.73 73.94 73.30 73.01 72.95 72.63 71.79 71.37 71.03 70.46 70.25 70.08 69.47 68.83 68.30 68.03 67.97 68.60 68.26 67.27 66.77 66.93 67.54 67.92 68.00 68.23 68.70 68.89 68.49 68.18 66.06 67.73
72.79 74.37 75.28 76.20 76.27 76.31 76.10 75.71 75.37 75.16 74.93 74.75 73.94 73.63 73.30 73.00 72.93 72.10 71.95 71.11 70.52 70.24 69.70 68.60 67.95 67.53 67.69 68.10 68.09 68.13 67.99 67.69 67.00 67.21 66.88 63.97 65.10 68.21 68.31 68.78 68.79 68.42 68.10
73.09 74.14 74.76 75.84 76.13 76.13 75.90 75.64 75.27 74.75 74.59 74.62 73.84 73.17 72.53 72.18 72.28 72.48 72.22 71.52 70.77 70.31 69.22 67.93 67.31 67.45 68.17 68.40 68.65 68.43 67.73 66.72 66.09 66.71 62.64 64.54 65.90 69.23 69.83 69.83 69.88 69.13 68.22
72.71 73.64 74.42 75.52 75.95 75.83 75.56 75.51 75.33 75.12 74.92 74.46 73.81 72.84 72.07 72.04 71.31 71.14 71.90 72.14 70.96 70.04 68.85 68.03 67.34 67.60 68.54 68.72 68.54 68.81 69.19 69.01 68.47 66.23 65.84 67.09 68.45 69.97 70.59 71.02 70.44 70.58 70.65
72.14 72.80 74.46 75.27 75.67 75.48 75.31 75.22 75.11 75.00 74.26 74.00 73.67 73.30 72.07 70.94 70.15 70.38 70.92 72.26 71.33 70.54 68.91 68.42 67.56 67.73 68.12 68.20 68.34 69.66 69.82 68.86 67.48 65.84 66.49 67.67 66.74 69.49 68.47 68.55 68.98 69.73 70.57
72.15 72.87 73.79 75.18 75.36 75.34 75.21 75.09 74.85 74.68 74.15 73.83 73.03 71.89 70.93 69.94 69.36 69.12 70.68 71.71 70.97 69.93 69.14 68.75 67.99 67.87 67.94 67.93 67.79 68.23 68.67 66.74 63.35 63.73 64.79 64.63 64.98 67.90 67.90 67.72 67.20 66.93 67.71
71.28 73.01 73.61 73.66 74.30 74.76 74.94 74.77 74.43 73.40 72.24 71.26 70.95 70.92 69.76 69.14 68.61 69.52 70.14 71.61 70.64 70.10 69.40 69.13 68.13 67.71 67.52 67.31 67.12 67.74 68.02 65.97 63.48 63.74 64.28 64.52 68.19 67.70 66.88 66.68 66.40 66.11 65.84
71.99 72.30 72.96 73.30 73.15 73.07 73.59 73.44 73.03 72.01 71.21 70.88 70.33 69.79 69.73 69.82 70.02 69.95 70.47 71.37 70.86 70.58 69.97 69.51 68.56 67.54 67.26 66.76 66.50 66.72 66.93 65.67 62.50 64.24 65.09 64.78 68.11 67.16 66.29 65.89 65.73 65.10 64.86
71.67 72.14 72.09 71.95 72.34 72.04 71.85 71.92 71.61 70.73 70.11 70.01 69.71 68.74 67.98 67.69 69.04 69.70 70.12 71.15 71.08 70.66 70.49 69.92 68.79 67.80 66.97 66.62 66.58 66.11 65.53 65.29 62.06 63.49 64.16 64.84 67.65 66.72 65.79 65.03 64.68 63.96 63.53
70.36 70.65 71.37 71.38 71.18 70.89 70.60 70.24 70.11 69.38 68.89 68.70 67.94 66.68 65.71 64.95 65.33 65.94 67.77 69.33 70.10 70.19 69.58 68.71 68.52 68.49 67.94 66.83 66.61 65.36 63.05 60.97 60.65 63.04 63.76 68.34 67.12 66.55 65.33 64.35 63.67 63.00 62.45
68.68 69.21 70.59 71.14 70.76 70.39 70.91 68.86 67.50 67.38 66.04 65.63 64.64 63.74 62.90 63.23 63.61 66.00 66.17 68.16 69.72 69.12 68.79 68.56 68.27 68.35 65.97 61.19 60.61 63.07 59.71 59.07 59.66 61.91 63.64 68.51 67.04 66.32 64.88 63.74 62.97 62.45 61.94
68.58 68.32 69.49 70.20 70.11 69.82 69.50 68.29 66.13 65.71 64.86 64.43 63.47 62.73 61.75 61.86 61.87 62.05 63.96 65.39 65.33 65.13 65.13 66.10 65.30 63.64 60.73 59.06 59.10 58.13 58.61 57.89 59.34 61.37 64.28 68.14 67.28 66.42 64.85 63.46 62.34 62.07 61.76
66.65 67.61 68.90 69.43 68.52 67.04 66.85 66.66 65.71 65.51 64.49 63.52 63.10 62.46 60.87 59.46 59.96 60.14 60.95 62.53 62.92 62.97 61.94 62.40 62.38 61.87 60.27 59.46 57.50 57.09 57.24 57.61 58.38 59.97 62.40 66.24 67.88 66.45 65.30 63.58 62.30 61.66 61.73
65.81 66.71 67.19 67.09 67.56 66.33 65.86 65.86 65.34 64.89 65.06 64.47 63.27 62.65 61.59 59.30 58.13 59.93 60.14 61.04 61.29 61.29 60.71 60.65 60.94 60.95 59.59 59.09 59.09 58.81 58.14 57.03 56.76 58.64 60.67 63.39 66.32 67.17 65.78 64.38 63.09 62.06 61.71
65.43 65.63 66.34 66.30 66.62 65.68 66.24 65.38 65.83 65.29 65.41 64.81 64.18 63.33 62.38 60.25 58.24 59.73 60.02 60.32 60.18 60.51 60.39 60.15 59.94 59.78 59.01 58.42 58.74 58.79 58.03 57.24 55.70 57.43 58.90 61.38 64.87 66.58 65.95 64.88 63.95 62.84 62.14
64.89 65.55 65.54 65.94 65.40 65.70 65.29 64.81 65.12 65.55 65.67 65.06 65.13 64.20 63.03 60.77 59.21 59.52 59.68 59.51 60.54 60.52 60.47 59.85 59.35 58.73 58.59 58.64 57.65 58.18 56.57 55.39 54.03 55.69 56.61 59.70 61.76 63.97 65.62 64.96 64.19 63.31 62.57
64.16 64.71 65.59 67.27 65.63 64.66 65.84 64.19 63.60 63.61 63.83 64.49 64.87 64.79 63.82 62.00 59.53 58.67 58.96 59.10 59.63 59.62 59.86 59.00 58.56 57.89 57.36 57.23 57.14 57.35 55.58 53.78 52.25 52.89 53.93 57.11 59.62 60.73 63.06 65.08 65.00 63.69 62.90
63.78 63.88 64.20 65.38 65.38 63.80 63.96 64.55 64.18 63.42 62.42 62.88 62.69 63.54 63.80 62.67 60.46 58.86 58.53 58.86 58.22 58.22 58.50 58.61 57.53 57.05 56.27 56.20 56.43 56.45 54.80 52.90 52.16 51.71 51.36 53.40 57.66 58.88 58.05 61.11 63.04 63.23 63.40
62.63 63.58 64.03 64.48 65.18 65.03 64.69 64.44 64.65 64.99 62.95 61.41 61.43 61.69 62.38 63.24 61.44 59.76 58.95 58.47 58.02 57.42 57.16 56.77 57.06 56.18 56.33 56.17 56.75 55.91 54.03 51.78 50.80 50.22 49.85 52.57 54.93 57.38 56.91 56.53 57.49 58.67 61.47
58.10 61.73 63.44 63.91 64.45 64.32 63.55 62.61 62.09 62.63 63.66 63.60 61.60 61.68 61.05 62.16 61.90 60.55 59.97 59.25 59.70 58.47 58.41 58.13 56.59 55.88 55.02 54.57 53.40 51.76 50.50 50.51 49.68 48.85 49.12 49.08 53.45 55.44 55.49 55.18 54.75 55.30 56.46
48.74 55.30 60.39 62.77 63.89 64.04 63.71 63.36 63.31 62.85 63.22 64.00 64.01 63.08 62.16 61.07 60.79 60.46 59.85 59.78 59.63 59.95 59.41 58.79 58.07 56.12 55.48 54.18 54.00 51.54 52.00 53.06 49.09 49.50 47.93 48.94 48.06 53.29 54.43 54.44 53.51 53.64 53.01
46.19 46.98 50.40 52.93 55.47 62.17 63.27 63.61 62.51 62.64 61.99 61.83 62.50 63.12 63.81 63.00 62.09 60.80 59.93 59.81 59.64 59.75 59.64 59.34 58.47 57.33 57.82 54.25 53.05 55.61 49.04 48.90 46.63 48.08 45.81 45.83 46.89 46.59 49.38 51.96 51.94 52.10 50.12
45.78 46.55 47.20 47.65 48.07 48.97 52.54 61.57 62.25 62.79 61.10 61.29 61.41 61.97 62.39 62.79 63.27 63.16 61.70 60.11 59.68 59.54 59.16 58.87 59.05 58.95 58.41 58.55 54.61 55.16 53.57 51.50 49.60 48.73 46.23 46.75 46.39 47.08 47.54 47.79 48.79 48.14 47.75
47.17 46.71 46.21 45.87 46.14 46.11 46.77 49.04 57.78 59.94 60.62 60.00 60.31 60.75 61.07 61.53 62.30 62.84 63.03 61.67 60.77 59.27 58.66 58.40 57.91 59.72 59.62 59.61 56.90 55.21 54.39 51.78 49.48 49.33 50.89 50.06 47.14 45.98 47.14 47.54 48.42 48.36 48.48
47.39 46.91 47.93 48.51 48.10 47.80 46.05 45.48 47.17 52.90 53.71 52.76 52.19 55.09 57.52 59.44 60.28 60.90 61.17 61.19 61.00 60.47 59.83 59.02 58.28 58.69 59.65 59.26 58.25 57.09 55.96 53.18 51.95 50.42 48.37 50.05 46.86 45.19 42.76 43.06 44.71 44.40 46.17

GFSSE_sfc_wetblb_084.txt.gz
Wetbulb
67.93 73.41 76.09 76.33 75.47 75.72 75.46 75.31 75.26 74.84 74.52 74.06 73.83 73.59 73.04 72.45 71.78 71.35 70.99 70.96 70.86 70.81 70.96 70.92 70.67 70.04 69.44 69.26 69.02 68.83 68.84 68.81 68.97 69.15 69.11 70.30 70.68 70.61 70.19 69.39 68.64 66.01 67.80
71.44 74.07 75.92 76.27 75.83 75.90 75.80 75.71 75.31 74.98 74.64 74.19 73.51 73.29 73.01 72.37 71.67 71.44 70.90 70.64 70.48 70.14 69.74 69.22 68.86 68.62 69.04 68.95 68.08 67.16 67.12 67.38 67.94 67.91 67.64 67.39 68.92 69.51 69.02 68.47 67.84 66.40 68.16
72.42 74.09 74.80 76.03 75.74 75.91 75.95 75.57 75.31 75.06 74.87 74.44 73.43 73.19 73.00 72.69 71.84 71.89 70.93 70.49 70.44 69.88 68.92 68.33 68.07 68.26 68.67 68.77 68.76 68.63 68.08 67.38 67.57 67.67 67.17 64.19 64.77 68.23 69.00 69.00 68.77 68.16 68.33
73.02 73.99 74.47 75.68 75.77 76.05 75.82 75.37 75.18 74.85 74.54 74.41 73.71 73.34 73.05 73.06 72.17 72.22 71.16 70.63 70.43 69.37 68.07 67.63 68.03 68.38 68.50 68.64 68.39 67.74 67.22 67.09 67.09 66.10 63.75 64.59 66.10 70.16 70.19 70.01 69.79 69.03 68.32
72.59 73.63 74.26 75.49 75.93 75.92 75.57 75.18 75.05 74.91 74.66 74.35 73.81 72.88 72.13 72.00 72.13 72.36 71.72 70.82 70.22 69.03 67.95 67.52 68.36 69.10 69.06 68.93 69.06 69.07 68.82 68.00 67.33 66.53 66.81 68.02 68.53 69.73 71.30 71.06 70.56 71.14 69.30
72.33 72.60 74.40 75.23 75.69 75.53 75.39 75.23 75.02 74.68 74.08 73.42 73.12 72.62 72.13 71.36 71.03 71.56 72.20 71.72 70.72 69.72 68.18 67.51 68.25 68.81 68.54 68.69 69.95 70.21 69.43 68.99 67.47 65.57 65.70 67.19 65.38 68.79 68.41 68.19 68.27 70.28 70.06
71.81 72.41 73.78 75.11 75.37 75.34 75.26 75.10 74.90 74.63 74.11 73.38 72.71 72.36 71.25 70.34 69.85 70.62 71.84 71.35 70.07 69.31 68.70 67.84 68.28 68.32 68.24 68.24 68.89 69.51 68.56 66.86 64.19 63.99 63.86 63.93 64.72 68.26 68.10 67.51 67.02 66.99 67.75
71.54 72.15 73.40 73.53 74.42 74.76 74.83 74.68 74.49 74.22 73.68 73.46 72.00 70.97 70.20 69.58 68.89 69.70 71.24 70.96 70.07 69.48 69.23 68.06 67.98 68.07 67.89 67.68 68.10 68.66 67.14 65.69 63.97 63.60 63.60 63.86 68.12 67.58 67.21 66.75 66.51 66.51 65.96
71.82 71.62 72.50 72.87 73.00 73.21 73.76 73.82 73.37 72.30 71.59 71.40 70.96 70.68 69.62 69.67 69.57 69.37 70.93 71.25 70.31 69.90 69.52 68.85 67.87 67.67 67.54 67.19 66.88 67.46 66.84 65.31 62.64 63.60 64.46 63.69 68.21 67.13 66.45 66.09 65.49 65.19 65.17
71.21 71.68 72.05 71.89 72.06 71.61 71.67 71.77 71.20 70.68 70.30 70.26 69.60 68.53 68.02 67.75 68.63 70.19 69.97 71.00 71.03 70.82 70.13 69.38 68.47 67.45 67.40 66.87 66.31 65.96 65.91 64.75 62.31 63.09 63.49 64.03 67.46 66.73 65.76 65.19 64.35 63.93 63.54
69.55 70.19 71.10 71.12 70.44 70.38 70.19 69.96 69.69 69.22 68.70 68.39 67.73 66.59 65.74 64.95 65.70 66.66 67.59 69.32 70.07 70.42 69.76 68.93 68.51 68.07 67.00 65.85 65.83 64.77 63.42 60.70 60.90 62.74 63.15 67.19 66.70 66.36 65.26 64.28 63.44 62.96 62.45
67.36 69.22 70.41 70.81 70.21 69.76 70.59 68.59 66.76 66.78 65.79 65.23 64.40 63.47 62.74 63.08 63.35 65.97 65.87 68.16 69.62 69.27 68.85 68.60 68.13 67.74 64.31 60.43 60.02 61.99 59.22 58.68 58.91 61.35 62.86 67.61 66.51 66.19 64.88 63.66 62.69 62.32 61.77
67.01 68.34 69.92 70.09 69.60 69.52 68.97 67.35 65.81 65.01 64.32 63.98 63.10 62.33 61.24 62.36 61.96 63.57 64.25 65.63 65.49 64.92 64.74 65.52 64.54 63.01 60.34 58.31 58.23 57.88 58.34 57.20 58.52 60.37 63.55 67.30 67.15 66.25 64.88 63.51 62.23 61.89 61.35
67.53 67.46 69.17 69.90 69.23 68.21 67.30 67.08 65.52 64.55 63.53 62.87 62.63 62.07 60.22 59.95 60.45 60.51 62.28 62.90 63.15 63.19 62.21 62.04 61.95 61.46 60.06 58.46 56.43 56.04 56.63 57.18 57.96 59.20 61.17 65.37 67.78 66.62 65.58 63.96 62.48 61.75 61.56
66.70 67.40 68.19 69.25 68.00 66.59 65.67 65.52 65.33 64.23 64.25 63.21 62.48 62.08 60.81 59.06 59.26 59.57 59.92 60.72 61.24 61.40 60.76 60.13 60.20 60.49 59.61 58.09 57.70 57.50 57.30 56.52 56.73 57.32 58.99 62.33 66.08 67.39 66.29 64.93 63.53 62.31 61.60
65.07 66.37 67.73 67.51 67.62 66.19 65.53 65.01 65.38 64.90 65.02 63.54 62.56 62.27 61.54 59.65 57.89 59.59 59.31 59.51 60.09 60.48 60.34 59.69 59.42 59.46 59.14 57.59 57.39 57.67 57.72 57.51 57.02 55.95 57.68 59.85 64.34 66.40 66.87 65.89 64.73 63.54 62.49
65.17 65.51 65.93 66.79 66.55 65.71 65.26 64.83 64.62 65.31 65.09 64.13 63.69 62.81 62.08 60.53 58.47 58.44 59.28 59.08 59.75 59.83 59.83 59.09 58.61 58.20 57.78 57.91 56.80 57.15 57.49 56.57 55.65 54.83 56.17 57.92 60.56 63.65 66.10 66.18 65.16 64.50 63.47
65.10 65.00 65.59 67.47 65.86 65.70 65.19 64.43 64.45 64.52 64.61 64.68 64.37 64.13 62.87 61.76 60.09 58.54 58.73 58.97 59.57 59.48 59.31 58.68 58.17 57.37 56.91 56.54 56.62 57.41 57.34 55.89 54.26 52.86 54.31 55.77 58.36 60.35 62.99 65.94 66.17 64.93 64.06
64.01 64.43 64.80 65.50 64.84 64.54 65.02 64.32 63.91 63.78 63.73 64.16 63.62 64.30 63.77 63.01 60.90 59.45 58.96 58.97 58.58 58.36 58.25 58.20 57.29 56.93 55.99 55.96 56.12 56.41 56.32 55.49 54.31 52.86 51.23 52.77 54.90 58.56 58.66 61.45 63.49 63.94 64.57
63.19 63.98 64.55 64.80 65.28 63.85 63.71 63.51 63.55 63.04 62.62 62.59 62.46 62.88 64.07 63.95 61.94 59.73 58.24 58.05 57.83 57.17 56.67 56.52 56.74 55.86 56.08 55.88 56.59 56.19 55.26 54.64 52.69 51.48 50.95 50.95 52.00 55.29 57.17 57.18 57.34 59.02 62.06
60.96 62.09 63.31 63.95 64.54 64.58 63.09 61.98 61.97 63.24 62.74 61.71 61.07 62.35 62.39 63.64 62.41 60.41 59.18 58.01 57.38 57.02 57.17 56.67 55.86 55.58 54.73 54.22 53.82 53.19 52.54 52.60 52.22 50.98 50.19 49.63 50.01 52.98 54.89 55.92 55.53 55.39 56.67
56.44 59.20 60.82 62.38 63.14 64.34 63.89 62.88 62.86 62.30 62.79 63.41 63.09 61.55 61.62 61.00 61.25 60.75 59.91 58.86 58.37 58.08 57.11 56.69 56.14 54.86 54.90 53.93 53.78 52.21 53.09 54.53 50.86 50.05 48.83 48.80 48.25 50.34 53.43 54.22 54.15 54.16 54.05
47.95 50.86 56.68 60.54 62.38 62.95 63.32 63.02 62.15 62.07 61.40 61.27 62.01 62.56 62.25 61.45 60.79 60.26 59.74 59.53 58.74 59.16 58.99 58.50 57.65 56.61 55.67 54.05 53.70 56.57 51.11 50.65 49.79 51.37 48.48 46.66 46.75 46.44 48.55 51.78 54.03 54.15 53.44
44.91 46.39 47.99 48.86 50.65 53.00 61.25 62.00 61.31 61.49 61.04 61.24 61.13 61.76 62.17 62.67 62.16 61.54 60.42 59.39 59.11 58.91 58.74 58.60 58.50 58.31 58.08 58.16 54.71 55.36 54.57 53.08 51.98 50.51 48.00 46.15 46.38 46.53 47.56 46.68 48.74 49.96 49.32
46.05 45.43 45.11 45.94 46.25 46.11 47.24 51.43 59.25 60.40 60.70 60.24 60.29 60.45 60.57 61.27 62.16 62.49 62.19 60.83 59.38 58.59 58.34 58.12 57.36 57.30 57.84 57.62 55.25 53.56 52.33 52.10 51.17 50.36 51.50 52.34 48.54 45.99 45.11 45.10 47.46 48.79 48.80
45.04 45.66 47.10 47.80 47.53 47.44 45.99 45.31 46.14 51.30 55.81 56.29 56.15 56.59 57.84 58.82 59.92 60.54 61.00 61.27 60.86 59.88 58.96 58.52 57.87 57.28 57.36 57.44 58.66 57.20 55.62 53.84 51.91 50.21 49.29 50.22 50.32 46.61 43.81 42.11 42.42 42.38 44.86

GFSSE_sfc_wetblb_087.txt.gz
Wetbulb
70.93 74.28 75.90 76.02 75.77 75.88 75.66 75.41 75.44 75.19 74.90 74.27 73.21 73.11 72.49 71.97 71.66 71.23 71.23 71.33 71.55 71.83 71.95 71.75 71.17 70.58 70.34 70.01 69.78 69.58 69.44 69.33 69.76 69.73 69.86 70.97 71.08 70.77 69.92 68.81 68.10 67.42 68.29
72.42 74.54 75.49 75.83 76.01 75.95 75.89 75.57 75.20 74.89 74.72 74.32 73.22 73.16 72.41 71.93 71.40 71.27 71.01 70.82 70.58 70.32 70.12 69.92 69.88 70.06 69.22 68.38 67.93 67.79 68.33 68.39 68.24 67.78 67.47 68.37 69.79 69.68 68.90 68.58 68.65 68.49 68.12
72.84 74.49 75.17 75.58 75.75 75.85 75.83 75.51 75.11 74.83 74.63 74.38 73.80 73.04 72.62 72.12 71.85 71.07 70.86 70.69 70.07 69.51 69.18 69.18 69.67 69.53 69.49 69.28 68.70 68.07 67.66 67.92 68.15 68.09 67.63 68.13 68.44 69.71 69.88 69.22 68.79 68.75 68.15
73.17 74.42 74.89 75.28 75.67 75.85 75.73 75.43 75.22 75.09 74.74 74.40 74.13 73.42 73.00 72.33 72.21 71.30 70.93 70.60 69.33 68.54 68.35 68.86 68.99 68.84 68.80 68.59 68.46 68.48 68.30 67.87 67.42 67.12 68.85 68.11 69.87 70.27 70.75 71.15 70.34 69.22 69.21
73.54 74.46 74.83 75.06 75.49 75.84 75.47 75.34 75.29 74.94 74.81 74.51 74.13 73.83 73.22 72.63 72.67 71.63 71.21 70.44 68.95 68.02 68.32 68.91 69.59 69.66 69.55 69.67 69.51 69.10 68.60 68.19 68.45 68.84 69.40 69.24 69.93 70.22 70.35 69.94 71.07 69.81 69.57
73.41 74.43 74.88 75.09 75.74 75.41 75.10 74.86 75.11 74.86 74.29 73.65 73.58 73.02 72.18 71.99 72.42 72.22 71.24 70.52 69.86 69.15 68.57 69.20 69.51 69.31 69.49 70.49 70.47 69.91 69.87 69.06 68.84 68.85 68.45 68.89 68.86 68.50 68.46 68.26 69.00 70.46 70.53
72.58 74.22 74.92 75.36 75.43 75.41 75.16 75.08 74.97 74.78 74.22 73.10 72.52 72.36 71.53 71.05 71.33 72.30 71.43 70.79 69.85 68.99 68.13 69.00 69.05 69.01 68.96 69.76 70.16 69.67 68.92 67.49 68.76 68.36 68.11 68.41 68.34 68.28 68.11 67.49 67.18 67.33 67.72
72.24 73.81 74.31 73.85 74.55 74.89 75.02 74.83 74.69 74.37 73.89 73.50 73.14 71.66 70.73 69.99 70.30 71.57 71.25 70.86 69.91 69.07 68.27 68.78 68.85 68.66 68.48 69.03 69.44 68.20 67.22 66.79 67.35 67.82 67.77 67.88 68.26 67.59 67.37 66.97 66.53 66.41 66.22
72.86 73.13 73.78 74.01 73.77 73.27 73.77 73.96 73.86 73.47 72.86 72.02 71.49 70.83 69.86 69.62 69.75 70.61 71.71 71.11 70.11 69.85 69.19 68.64 68.34 68.27 68.04 67.87 68.61 67.46 66.52 65.80 67.72 67.66 66.86 67.32 68.21 67.18 66.62 65.84 65.46 65.48 65.42
72.41 72.65 72.95 73.64 73.72 73.62 73.67 72.05 71.51 71.19 70.91 70.76 70.44 69.37 68.30 68.07 68.75 70.04 70.51 70.75 71.06 70.67 69.84 69.35 68.02 67.98 67.59 66.89 66.42 66.31 66.10 65.43 67.35 67.49 67.60 67.52 67.64 66.67 65.80 65.02 64.57 64.20 63.86
70.56 71.54 72.21 72.59 72.99 73.06 72.89 71.24 70.08 69.45 69.05 68.62 68.00 66.63 66.84 68.89 68.85 69.16 68.38 69.58 70.35 70.56 69.81 69.25 68.53 67.73 66.89 66.25 65.84 64.69 64.50 66.46 67.15 67.72 67.91 66.88 66.89 66.31 65.26 64.41 63.60 63.42 63.07
68.15 68.92 70.45 71.29 72.23 72.30 71.74 70.92 69.67 68.74 68.37 67.84 67.82 67.64 67.31 68.17 68.00 68.40 67.09 68.25 69.79 69.60 69.27 69.02 68.55 67.15 64.56 65.44 65.44 63.86 66.01 65.70 65.94 66.89 67.66 66.78 66.57 66.31 64.82 63.90 62.91 62.76 62.27
68.01 68.95 69.76 70.40 71.91 71.55 71.04 69.88 68.57 68.10 67.60 67.34 66.92 66.46 66.49 66.68 67.83 68.30 68.87 69.26 69.51 66.57 68.67 68.33 68.02 67.31 65.30 64.07 64.36 64.61 64.60 64.55 65.08 65.53 66.32 66.51 67.61 66.61 65.14 63.78 62.56 62.35 61.77
66.30 68.58 69.81 70.43 70.85 71.22 70.62 69.47 68.29 67.33 67.09 66.54 66.30 65.49 65.19 65.87 66.52 67.49 68.37 68.70 68.85 68.57 67.70 67.83 67.54 67.06 65.75 63.80 62.71 62.64 63.07 63.81 64.38 65.01 65.68 64.86 67.67 67.16 66.16 64.43 62.90 62.13 61.89
66.51 67.42 69.12 70.05 70.46 70.67 69.79 69.36 68.07 67.24 66.84 66.68 66.07 65.48 64.39 65.06 65.30 66.10 66.86 67.18 67.44 67.41 67.01 66.48 66.45 66.13 65.84 64.94 63.02 62.13 61.84 62.34 62.29 63.17 64.31 62.06 65.05 67.49 66.85 65.64 64.23 62.93 62.06
66.99 67.34 68.49 69.41 69.58 70.05 69.21 68.74 68.12 67.41 67.17 66.45 66.15 65.81 64.82 63.77 64.37 64.70 64.93 65.30 65.80 66.28 66.43 65.81 65.25 65.12 64.93 64.45 63.31 62.01 62.63 63.17 63.18 63.01 63.02 63.34 63.23 66.26 67.15 66.73 65.64 64.48 63.29
66.25 67.02 67.75 68.32 68.89 69.74 69.19 68.63 67.92 67.17 67.14 66.30 66.29 65.95 65.35 64.54 63.29 63.16 64.13 63.96 64.41 64.95 65.15 65.02 64.30 64.02 63.60 63.31 62.68 61.97 62.03 62.83 62.43 62.09 61.90 62.43 63.73 63.15 65.80 66.97 66.37 65.41 64.47
66.41 66.50 67.32 68.05 68.38 68.95 69.10 68.33 67.98 67.74 67.51 67.26 66.85 66.34 65.57 65.14 64.48 62.80 62.22 62.98 63.98 63.88 64.24 63.97 63.70 63.11 62.75 62.40 62.32 62.85 62.97 62.81 62.64 61.91 60.58 60.90 62.04 63.33 64.27 65.77 66.74 65.84 65.07
66.38 66.51 66.52 67.36 67.34 67.93 68.34 68.16 67.88 67.61 67.36 67.59 67.38 67.10 66.66 65.69 64.78 64.11 63.25 63.27 63.26 63.06 63.15 63.04 62.62 62.46 61.86 61.91 61.60 62.31 62.46 62.25 62.33 60.87 60.82 59.76 60.24 61.29 63.07 63.15 63.57 64.56 65.32
65.54 66.21 66.89 66.80 66.73 66.83 67.03 66.72 66.75 66.36 66.74 67.08 67.14 66.99 67.11 66.75 65.74 64.35 63.98 63.73 62.74 62.00 61.56 61.47 61.59 61.32 61.60 61.75 60.31 60.39 61.74 61.83 61.63 60.77 60.90 59.93 59.06 58.70 60.18 61.61 63.02 63.43 62.30
63.43 64.01 65.18 65.71 65.45 64.80 64.73 64.80 65.07 65.35 65.80 65.41 65.48 66.13 66.10 66.83 66.15 64.47 63.92 63.27 62.01 61.52 61.58 61.28 60.88 60.56 60.47 60.36 59.64 60.65 60.42 61.04 60.51 60.63 60.34 59.32 58.19 57.86 58.27 59.04 60.27 61.66 62.40
60.64 62.34 63.53 64.64 65.59 66.04 65.39 64.78 65.02 65.21 65.60 66.97 65.98 64.72 64.92 64.85 65.39 64.81 64.08 63.11 62.37 61.37 60.76 60.60 60.22 59.79 59.81 59.41 59.69 58.01 57.26 59.95 59.74 58.34 58.54 57.70 57.70 56.58 56.38 57.01 58.05 59.28 60.63
51.29 57.07 61.81 63.25 64.44 65.58 65.69 64.93 64.27 64.10 64.04 64.47 65.39 65.42 64.05 63.32 63.40 63.68 63.61 63.35 62.83 62.33 62.36 61.67 60.77 60.03 59.83 58.83 59.57 59.67 53.50 53.49 55.17 57.80 55.25 54.43 54.41 54.73 54.51 54.94 56.20 56.69 58.00
49.30 50.10 52.56 58.94 62.86 64.06 64.87 64.88 64.59 64.50 63.40 64.26 65.08 65.40 65.55 64.40 63.34 63.08 63.08 62.68 62.75 62.50 61.93 62.31 62.01 61.53 60.86 59.99 57.90 57.10 58.99 57.54 54.41 54.46 54.92 53.42 51.18 52.46 52.98 52.94 52.86 54.04 54.78
48.87 49.13 49.28 49.46 50.23 51.31 58.06 63.31 64.31 63.87 64.01 63.76 63.90 63.84 64.09 64.68 65.09 64.64 63.66 62.74 62.05 62.09 62.18 61.84 61.21 60.93 61.08 61.06 60.19 56.61 56.24 55.62 54.96 52.79 51.74 54.63 53.83 49.97 49.10 49.46 49.87 51.83 51.38
48.39 48.02 49.19 49.63 49.37 49.18 49.72 50.51 55.54 59.62 60.80 61.13 61.63 61.46 62.18 62.53 63.39 63.87 64.36 64.55 63.89 62.48 61.88 61.73 61.40 61.00 60.81 60.86 61.15 59.40 58.22 56.43 53.42 53.03 51.70 52.43 53.41 51.89 47.79 46.58 47.24 47.96 48.36

GFSSE_sfc_wetblb_090.txt.gz
Wetbulb
73.20 74.48 75.89 76.17 75.59 75.69 75.61 75.29 75.54 75.19 74.80 73.79 73.31 72.59 72.18 71.77 71.42 71.63 71.89 72.36 72.56 72.57 72.46 71.89 71.50 71.16 70.63 70.29 70.07 69.71 69.66 70.26 69.81 70.10 70.40 71.14 70.64 69.82 68.53 68.49 70.23 67.44 69.74
74.36 74.57 75.59 75.97 76.01 75.82 75.81 75.60 75.22 74.85 74.34 74.08 73.03 72.37 72.10 71.53 71.49 71.39 71.16 71.07 70.92 70.91 70.83 70.84 70.22 69.42 68.75 68.57 68.65 68.66 68.68 68.64 68.00 68.12 69.22 69.11 69.62 69.59 69.48 68.99 69.54 67.94 68.26
74.02 74.03 74.72 75.63 75.75 75.84 75.63 75.36 75.12 74.90 74.42 74.24 73.27 72.43 72.29 71.57 71.22 71.06 70.88 70.38 70.08 69.94 70.01 70.33 69.99 69.45 69.04 68.60 67.94 67.91 68.16 68.45 68.51 68.15 68.49 70.58 70.49 70.51 70.55 69.53 69.18 69.03 68.66
74.06 74.33 73.90 75.20 75.53 75.57 75.49 75.27 75.08 74.91 74.66 74.35 74.03 72.94 72.55 71.62 71.17 71.06 70.33 69.42 69.07 69.25 69.64 69.46 69.14 69.05 69.10 69.19 69.09 68.46 68.65 68.63 68.51 68.36 70.95 69.95 70.31 71.07 71.15 71.40 69.99 69.69 69.60
74.19 74.22 74.37 74.97 75.44 75.44 75.18 75.21 75.07 74.82 74.62 74.53 74.31 73.91 73.31 72.15 71.53 71.39 70.16 68.73 68.58 69.31 69.32 69.67 69.82 69.76 69.70 69.48 69.38 69.22 69.38 69.78 69.91 70.08 70.32 70.11 69.72 69.29 69.81 71.19 70.70 70.77 70.90
74.03 74.60 74.22 74.61 75.48 75.39 75.03 75.09 74.84 74.92 74.29 73.66 73.77 73.30 73.29 72.92 71.93 71.43 70.00 68.76 69.33 70.19 69.72 69.81 69.64 70.21 70.79 70.37 70.15 70.24 69.87 69.25 69.84 69.94 69.55 69.26 68.36 68.50 68.65 68.50 68.72 69.12 70.24
73.42 74.71 74.95 74.68 75.46 75.28 75.08 74.90 74.94 74.67 73.88 72.97 72.43 72.16 71.90 72.09 72.60 71.39 70.01 69.16 68.52 69.14 69.58 69.48 69.41 69.68 70.30 70.17 70.14 69.89 69.08 68.28 69.35 68.70 68.63 68.16 68.22 68.05 67.92 67.65 67.46 67.34 67.68
72.23 74.16 74.73 73.94 74.59 74.85 74.88 74.88 74.75 74.40 73.90 73.27 73.09 71.53 70.75 71.00 72.02 71.23 70.30 69.79 68.76 68.59 69.27 69.25 69.09 68.93 69.68 69.69 69.13 68.62 67.83 67.73 67.57 67.79 67.91 67.73 68.13 67.59 67.18 66.53 66.33 66.45 66.52
73.45 73.91 74.55 74.68 74.17 73.38 73.98 74.16 74.12 74.09 73.42 72.76 72.05 71.47 70.39 69.96 70.96 71.78 70.86 70.41 69.51 68.53 68.91 68.92 68.66 68.43 68.61 69.26 67.82 66.85 66.51 66.62 67.91 67.83 67.32 67.85 67.78 67.23 66.54 65.65 65.43 65.40 65.25
72.80 73.00 73.59 74.09 74.24 74.08 74.03 72.48 72.53 72.26 71.59 71.60 70.95 69.63 68.40 68.38 69.16 70.82 70.51 70.59 70.68 69.62 68.93 68.40 68.32 68.11 67.54 67.43 67.16 66.76 66.07 66.40 67.92 67.98 68.12 67.86 67.21 66.57 65.87 64.97 64.53 64.18 63.99
71.59 71.81 72.98 73.52 73.51 73.49 73.03 72.21 70.72 70.06 69.71 69.35 68.71 67.23 67.26 68.05 68.09 69.29 69.36 69.33 70.42 70.39 69.31 68.40 68.00 67.70 66.90 66.36 65.67 66.12 65.17 68.57 68.11 68.26 68.62 67.05 67.00 66.39 65.19 64.21 63.67 63.34 63.14
69.51 70.46 72.13 73.09 73.02 73.08 72.02 72.49 72.02 70.95 70.68 70.37 69.43 68.79 68.00 68.46 68.74 68.01 68.59 68.39 69.94 69.77 69.66 69.11 68.07 66.37 65.37 66.98 66.75 64.37 68.29 68.15 68.29 68.58 68.71 66.72 66.65 66.34 64.79 63.82 63.05 62.66 62.27
69.62 69.59 71.87 71.71 72.73 72.57 72.05 71.71 71.20 71.01 70.54 69.71 68.15 67.08 67.43 68.29 68.25 68.09 69.55 70.30 69.79 67.18 69.32 68.87 68.45 68.57 66.50 65.55 66.35 67.23 67.60 67.76 67.86 67.94 67.80 66.05 67.80 66.75 65.20 63.87 62.63 62.53 61.84
67.99 69.95 70.01 71.19 72.43 72.26 72.11 71.54 71.20 70.52 70.09 69.32 68.52 66.36 66.79 67.50 68.03 67.51 68.48 69.69 69.67 69.45 69.11 69.43 69.28 68.80 67.79 66.59 64.37 64.07 65.25 66.35 66.75 67.44 67.74 65.44 66.92 67.91 66.73 64.88 63.25 62.54 62.18
67.14 68.45 69.78 70.27 71.94 72.09 71.58 71.23 71.10 70.44 69.78 69.62 69.01 67.95 66.25 66.49 67.45 68.51 68.89 69.01 69.41 69.69 69.08 68.56 68.14 67.89 67.58 67.31 65.81 63.32 63.07 64.04 64.80 65.54 66.42 63.49 64.55 67.06 67.62 66.61 64.93 63.43 62.57
67.63 67.98 69.71 70.24 71.21 71.96 71.41 71.31 70.83 70.60 70.23 69.68 69.35 68.85 67.89 66.67 66.53 67.31 67.89 68.02 68.16 68.31 68.24 67.92 67.04 66.31 66.33 66.82 66.08 63.93 63.45 64.59 65.30 65.64 65.98 65.90 63.12 64.99 67.26 67.32 66.62 65.27 63.92
68.71 69.45 68.54 69.97 70.59 71.17 71.31 71.19 71.06 70.96 70.20 69.60 69.46 69.48 68.77 68.10 67.40 66.99 66.15 66.43 66.98 67.13 66.58 67.07 66.64 66.14 65.31 65.15 64.54 64.54 63.12 64.60 65.52 65.61 65.84 65.79 65.64 62.57 65.30 67.33 67.22 66.38 65.38
69.04 68.96 69.79 69.90 70.73 70.53 70.89 71.14 71.18 71.21 70.37 70.02 69.79 69.76 69.10 68.59 68.41 67.44 66.72 65.58 66.10 66.30 66.29 66.23 65.90 65.28 64.91 64.87 64.40 64.89 65.03 64.95 65.39 65.85 65.74 65.51 65.32 65.31 64.63 65.81 66.87 66.68 65.99
68.42 68.72 69.00 69.76 69.37 69.97 71.02 71.10 70.90 70.95 70.58 70.45 70.39 70.08 69.64 69.04 68.56 68.12 67.56 67.20 66.31 65.93 65.67 65.98 65.53 65.09 64.31 64.39 64.38 64.82 65.34 65.37 65.63 65.19 65.27 65.45 65.27 64.36 65.22 64.36 64.04 64.94 65.78
68.29 69.05 69.18 69.17 69.99 69.71 70.31 70.09 70.18 70.18 70.24 70.60 70.37 70.21 70.20 69.68 68.98 68.39 68.28 68.02 67.45 66.30 65.91 65.39 64.79 65.05 64.23 64.23 63.27 63.15 64.88 65.46 65.79 65.69 65.72 65.52 65.22 64.21 64.10 64.15 64.40 63.84 62.94
67.14 68.06 68.45 68.30 68.55 68.85 67.91 66.69 67.02 67.62 68.59 68.83 69.48 69.95 70.15 70.08 69.52 69.05 68.58 68.15 67.78 66.53 66.10 65.79 64.73 63.79 63.79 64.16 62.76 63.40 64.01 65.08 64.90 65.44 65.77 65.27 64.40 63.46 63.22 62.80 62.82 63.11 63.37
65.06 66.92 67.65 67.74 68.06 67.94 68.45 67.67 67.64 67.84 67.88 69.29 69.44 68.68 69.47 69.37 69.52 68.78 68.29 67.84 67.55 66.25 65.75 65.07 64.05 63.31 63.51 64.35 62.10 62.09 59.89 62.53 64.09 64.26 64.23 63.23 62.56 62.60 61.58 60.91 61.13 61.23 61.77
55.96 63.03 64.82 65.96 66.19 67.36 67.57 66.74 66.70 66.74 65.71 66.22 67.30 67.64 67.86 67.73 67.58 67.25 67.62 67.49 67.13 66.42 65.57 65.60 64.91 63.53 62.46 63.47 62.85 61.96 57.04 56.73 59.70 61.73 60.85 60.66 60.00 59.98 58.18 57.51 58.58 58.90 59.09
54.54 56.01 58.97 63.49 65.76 66.16 67.07 66.02 65.48 65.20 64.73 65.77 67.05 68.17 68.47 67.02 66.32 66.44 66.61 66.59 66.69 66.25 65.49 66.13 65.65 64.67 63.66 62.34 62.59 61.99 63.31 61.19 57.13 55.07 58.64 59.81 57.43 56.27 55.26 56.81 56.91 56.69 56.95
54.71 53.95 55.62 57.97 63.44 65.42 66.53 66.27 66.52 65.88 66.84 67.22 66.23 65.95 67.01 67.60 67.94 66.74 65.70 65.39 65.13 65.31 65.11 65.26 64.82 64.36 64.39 63.47 63.39 62.39 60.49 58.74 57.87 55.36 54.13 58.13 58.13 54.71 53.48 53.66 52.85 54.67 54.87
54.40 54.11 53.23 53.87 54.53 55.83 60.70 64.04 65.52 65.56 65.53 64.69 64.93 64.92 66.37 67.06 67.23 67.28 67.13 66.83 66.34 65.58 64.99 65.09 65.09 64.58 64.20 63.79 63.65 63.07 60.94 59.65 58.56 56.68 54.97 55.29 56.14 55.50 52.49 52.53 52.37 52.08 52.47

GFSSE_sfc_wetblb_093.txt.gz
Wetbulb
73.09 74.05 75.96 75.83 75.59 75.70 75.66 75.29 75.35 74.90 74.10 73.25 72.66 72.17 71.78 71.77 72.20 72.70 72.99 73.17 73.32 72.99 72.56 72.15 71.36 70.90 70.53 70.26 69.81 70.57 70.29 70.42 70.81 70.73 70.73 70.43 69.81 69.60 69.85 70.04 69.94 68.41 70.47
73.72 73.70 75.47 75.70 75.76 75.87 75.74 75.59 75.13 74.73 74.25 73.47 72.42 71.98 71.56 71.47 71.62 71.60 71.65 71.74 71.71 71.57 71.30 70.65 69.83 69.23 68.96 69.03 68.93 69.02 68.53 68.59 68.92 69.32 69.62 69.40 70.57 70.93 70.09 69.73 69.94 67.78 69.12
73.19 73.41 74.90 75.40 75.58 75.78 75.63 75.22 74.81 74.45 74.16 73.63 72.59 71.89 71.56 71.40 71.33 71.06 70.72 70.68 70.68 70.93 70.53 69.98 69.43 68.97 68.52 68.22 68.32 68.36 68.64 68.74 68.83 69.19 70.40 70.28 70.18 72.04 70.95 70.05 70.43 70.13 70.05
73.21 73.32 74.09 75.17 75.43 75.49 75.19 74.96 74.77 74.47 74.07 73.81 73.22 72.71 71.42 71.24 71.03 70.19 69.83 69.88 70.17 70.19 69.90 69.68 69.74 69.83 69.63 68.92 69.31 69.86 70.03 69.81 69.43 70.61 69.11 69.16 68.59 70.91 71.33 70.95 71.11 71.47 70.84
73.17 73.18 74.03 74.79 75.34 75.28 75.14 75.00 74.48 74.48 74.30 74.08 73.71 73.47 72.49 71.47 71.21 69.82 69.10 69.24 69.79 69.87 69.88 69.78 69.85 69.83 69.78 69.74 69.97 70.74 70.56 70.27 70.53 69.22 68.69 68.58 68.15 69.08 70.30 70.25 70.20 71.18 70.98
73.51 72.54 73.28 74.43 75.21 75.17 75.01 75.03 74.63 74.46 73.93 73.61 73.68 73.65 73.07 71.87 71.27 69.68 68.64 69.79 70.46 70.70 70.13 69.98 70.87 70.94 70.50 70.42 70.60 70.42 69.93 69.78 70.11 68.03 68.03 67.78 67.08 68.37 68.64 68.82 68.65 68.98 69.69
73.63 73.37 73.53 74.57 75.11 75.11 74.99 74.89 74.40 74.40 74.12 73.40 73.00 72.64 72.75 72.17 71.24 69.73 68.67 69.48 70.01 70.07 69.76 69.78 70.35 70.57 70.38 70.37 70.32 69.79 68.95 68.75 68.02 67.33 66.73 66.78 67.10 67.73 67.53 67.43 67.58 67.82 68.14
73.50 73.73 73.47 73.39 74.29 74.61 74.71 74.58 74.35 74.43 73.78 73.31 72.80 71.72 71.62 72.49 71.19 70.16 69.15 69.31 69.42 69.63 69.61 69.46 69.50 70.18 69.89 69.67 69.39 68.67 67.94 68.07 66.83 66.99 67.21 66.72 68.11 67.31 66.79 66.54 66.39 66.31 66.49
73.45 72.91 73.32 73.79 73.49 73.19 73.59 73.99 74.07 73.68 72.98 72.74 72.20 71.55 71.06 71.50 71.64 70.44 70.47 69.80 68.97 69.33 69.32 69.10 68.88 69.46 69.56 68.40 67.46 66.89 66.80 67.42 67.51 67.18 67.25 66.70 67.89 67.11 66.25 65.49 65.11 65.03 64.99
71.96 73.29 72.18 73.21 73.44 73.58 73.29 72.60 72.63 72.35 71.58 71.59 71.10 69.66 68.47 68.68 70.66 71.12 70.22 70.31 69.79 69.31 69.06 68.77 68.55 68.07 68.46 68.06 67.14 66.23 66.52 66.74 67.53 67.49 67.36 67.01 67.57 66.77 65.73 65.18 64.70 64.48 64.26
70.97 71.71 71.74 72.06 72.92 72.93 72.71 72.09 71.42 70.60 70.05 69.42 68.72 67.37 67.00 67.46 69.51 70.19 68.70 69.30 70.03 69.60 68.65 68.26 68.25 67.51 66.99 66.47 66.26 66.63 65.71 67.47 67.26 67.33 67.53 67.93 67.28 66.42 65.37 64.35 64.00 63.71 63.47
69.12 70.00 70.73 72.84 72.21 72.23 71.81 71.83 71.77 71.25 70.73 70.36 69.64 68.42 68.08 66.89 66.94 70.98 68.50 68.28 69.80 69.66 69.34 68.42 67.65 66.75 65.66 66.40 65.66 64.70 66.73 66.70 66.67 66.84 67.12 67.90 67.01 66.50 65.13 63.85 63.55 63.01 62.68
69.09 70.12 70.86 71.51 72.78 71.57 71.83 71.44 70.79 70.55 70.67 70.27 68.99 68.20 67.33 67.63 67.81 69.75 70.15 69.28 69.17 67.05 68.75 68.32 67.23 66.86 66.07 64.75 65.42 65.97 66.06 66.28 66.26 66.40 66.26 67.24 67.63 66.86 65.36 63.98 63.02 62.83 62.19
68.90 70.18 70.85 72.14 71.43 71.33 71.73 71.36 70.31 70.24 70.18 69.23 67.69 66.16 66.89 67.07 66.84 66.66 68.78 69.78 69.33 68.90 68.50 68.72 68.42 67.97 67.38 66.07 64.08 63.43 64.40 65.06 65.39 65.99 65.89 66.31 66.79 67.73 67.09 65.15 63.36 62.76 62.21
68.30 69.52 70.97 71.59 71.91 71.30 70.33 70.60 70.15 70.13 69.87 69.63 68.39 66.25 65.98 66.78 66.89 66.76 67.81 68.78 69.01 69.16 68.98 68.45 67.69 67.40 67.11 66.89 65.68 62.87 62.41 63.42 64.29 64.87 65.56 64.39 65.69 66.60 67.76 67.21 65.43 63.85 63.11
68.26 68.40 70.31 70.71 71.46 70.95 70.15 70.32 69.99 69.52 70.11 70.11 69.18 68.20 66.45 66.15 66.81 67.65 68.02 67.99 68.12 68.34 68.06 67.59 66.77 65.90 65.80 66.30 65.72 64.53 62.76 63.57 64.25 65.14 65.81 65.27 64.13 65.18 66.87 67.81 67.52 66.07 64.67
68.46 69.05 68.80 69.64 70.74 70.87 70.05 70.06 70.14 69.44 69.61 69.53 69.39 69.25 68.52 67.51 66.87 66.91 66.74 66.88 67.11 67.22 66.40 66.58 66.26 65.67 64.63 64.45 64.21 64.36 63.30 63.29 64.71 65.16 65.79 65.87 64.82 63.03 65.23 67.51 67.63 67.29 66.16
68.66 68.44 69.19 69.66 70.46 70.74 70.42 70.02 70.36 69.77 69.73 69.75 69.88 69.79 69.42 68.78 68.32 67.62 66.91 65.51 66.17 66.44 66.17 65.87 65.44 64.87 64.32 64.44 63.98 64.64 64.52 63.89 64.20 65.09 65.88 65.73 66.18 65.45 63.82 65.95 67.13 67.51 66.94
68.13 68.58 69.25 69.50 69.54 70.23 70.68 70.88 70.84 70.07 69.64 70.06 70.02 69.92 69.79 69.04 68.67 68.10 67.49 66.87 65.86 65.92 65.79 65.89 65.27 64.97 64.63 64.53 64.58 64.85 65.43 65.45 65.72 65.61 65.33 65.79 66.19 65.82 65.58 64.48 64.49 65.54 66.21
67.98 68.29 68.85 70.09 69.75 69.65 70.70 70.67 70.45 70.61 70.02 69.98 69.18 68.78 69.19 69.42 69.02 68.36 68.11 67.89 67.12 66.02 65.52 65.89 65.42 65.55 64.57 64.40 63.61 63.12 64.57 65.55 66.19 65.90 65.72 65.85 65.98 65.93 65.14 65.25 64.54 63.33 63.27
67.05 67.54 68.08 68.48 69.49 69.12 69.00 68.94 68.23 67.32 68.63 69.26 70.19 70.25 70.13 69.59 69.29 68.74 68.41 68.26 68.03 66.68 66.26 66.25 65.53 64.54 64.42 64.63 63.32 63.22 63.98 65.04 65.05 65.45 66.01 65.59 65.67 64.98 64.27 64.08 63.70 63.52 63.38
66.14 67.03 67.52 67.46 68.37 69.43 69.06 69.00 69.09 68.91 69.56 69.85 69.95 69.61 69.98 69.85 69.71 68.87 68.68 68.28 68.04 67.36 66.70 66.43 65.67 64.16 63.99 64.91 62.26 63.00 59.79 62.78 63.96 64.32 65.12 64.38 64.14 63.93 62.74 62.35 61.80 62.03 62.39
65.21 66.17 66.68 66.59 67.47 68.39 68.86 68.34 67.75 67.78 67.43 67.60 68.49 68.93 68.68 68.16 69.09 69.17 68.93 68.63 68.34 67.80 66.32 66.49 65.83 64.32 62.78 64.21 64.12 61.99 58.28 57.31 60.23 62.20 61.41 61.73 61.52 60.96 59.40 58.61 58.35 58.63 59.04
58.19 62.51 66.39 66.73 65.94 66.94 67.49 67.06 65.99 65.33 64.81 66.20 67.42 68.37 68.47 68.09 67.38 66.56 66.76 67.05 67.28 67.20 66.46 66.39 66.45 65.46 64.52 62.51 63.42 62.82 63.53 62.57 58.53 56.85 60.38 60.34 58.93 57.80 56.88 56.46 57.14 57.20 56.86
57.70 57.47 59.85 62.82 65.50 66.42 66.93 66.77 65.66 64.82 66.98 66.34 66.47 65.91 66.94 68.36 66.76 65.83 65.85 65.84 65.67 66.12 66.14 65.91 65.98 65.54 64.77 63.59 63.43 63.05 61.69 61.73 59.84 57.56 55.54 58.06 59.04 56.30 55.09 54.78 54.70 54.89 55.03
57.85 57.06 57.48 58.02 60.21 63.14 65.55 65.07 65.18 63.92 64.06 64.85 64.25 64.42 66.30 67.14 67.60 67.22 67.18 66.21 65.75 65.50 65.08 65.17 65.50 65.33 64.72 64.43 64.25 63.72 60.89 59.14 57.83 57.30 55.93 56.23 57.00 56.09 54.13 53.39 52.67 52.27 52.37

GFSSE_sfc_wetblb_096.txt.gz
Wetbulb
71.50 73.92 76.09 76.40 76.42 76.20 75.83 75.32 75.05 73.76 72.60 72.53 72.05 71.91 72.45 73.06 73.44 73.63 73.64 73.42 73.69 73.34 72.08 71.63 71.14 70.73 70.11 70.38 71.03 70.89 71.35 71.02 70.02 69.98 70.85 71.09 71.09 70.32 69.97 70.06 69.63 68.53 70.84
72.40 73.88 75.54 76.01 76.01 75.85 75.71 75.38 74.70 74.18 73.55 73.07 71.80 71.63 71.78 72.17 72.43 72.56 72.61 72.40 72.05 71.49 70.89 70.18 69.79 69.48 69.34 69.39 68.92 68.92 69.68 69.80 69.56 69.88 70.54 70.05 70.88 70.72 70.67 70.22 71.01 68.36 69.98
71.96 73.54 74.46 75.41 75.49 75.62 75.51 74.85 74.42 74.07 73.53 73.21 72.48 71.68 71.52 71.44 71.36 71.39 71.46 71.52 71.17 70.51 69.91 69.52 69.07 68.73 68.81 68.65 68.66 69.56 70.34 70.19 70.42 70.97 69.86 67.14 69.57 71.56 71.47 71.21 71.43 70.92 69.93
72.34 72.60 73.47 75.23 75.60 75.68 75.22 74.64 74.44 74.11 73.66 73.41 72.76 72.31 71.27 70.84 70.59 70.55 70.70 70.81 70.53 70.21 70.07 70.16 69.90 69.36 69.69 70.40 70.64 70.71 70.67 70.62 70.71 69.96 66.55 66.39 67.73 71.59 71.49 71.50 71.59 71.26 70.07
71.47 72.13 73.40 74.83 75.43 75.15 74.72 74.55 74.42 74.21 73.92 73.68 72.97 72.60 72.23 70.64 69.71 69.71 70.10 69.93 69.70 69.99 69.78 69.99 70.19 70.15 70.25 70.91 71.21 71.09 70.74 70.59 70.27 66.66 65.14 64.82 64.48 68.94 70.15 70.06 70.22 70.69 70.85
70.73 72.49 73.53 74.53 74.74 74.59 74.51 74.53 74.57 74.42 74.24 73.97 73.26 72.96 72.57 70.60 69.17 69.53 69.71 70.24 70.54 70.09 70.51 71.06 71.13 70.74 70.74 70.92 70.72 70.47 69.85 70.12 68.26 63.98 64.28 66.30 64.08 67.87 68.47 68.83 69.03 69.05 69.14
70.57 71.94 73.34 74.71 74.74 74.64 74.37 74.25 74.12 74.43 74.35 73.95 73.54 73.17 72.05 70.66 69.06 69.35 69.69 70.72 70.55 70.33 70.40 70.99 70.72 70.73 70.64 70.62 70.20 69.39 69.06 68.49 64.30 63.43 63.88 64.13 63.71 67.24 67.34 67.17 67.07 67.99 68.19
70.97 71.39 72.61 73.37 73.96 74.30 74.33 73.89 73.94 74.05 74.04 73.67 73.23 72.77 72.63 70.71 69.45 68.82 69.58 70.26 70.23 69.84 69.82 70.22 70.34 70.24 70.15 69.86 69.18 68.14 67.93 67.37 65.01 64.30 64.13 64.39 67.42 66.84 66.51 66.02 65.79 65.94 66.03
71.68 71.21 71.76 72.65 72.93 73.17 73.45 73.48 73.60 73.51 72.88 72.58 72.34 72.46 72.36 71.04 70.63 69.52 69.72 70.26 69.75 69.63 69.39 69.43 70.10 69.63 69.01 68.18 67.23 66.99 66.67 66.84 64.11 64.44 65.48 64.30 67.78 66.71 66.16 65.54 65.26 65.20 65.27
71.33 71.23 71.12 71.50 72.12 72.31 72.00 72.49 72.23 71.61 71.42 71.51 70.79 69.56 69.39 69.53 69.89 70.47 69.25 69.51 70.19 69.85 69.70 69.54 68.75 69.36 68.67 67.67 66.84 66.65 65.76 65.98 63.16 64.67 64.90 65.40 67.22 66.52 65.86 65.25 64.91 64.55 64.61
70.41 70.47 71.30 70.87 71.15 71.68 71.27 71.06 70.91 70.32 69.85 69.16 68.08 66.94 66.40 68.45 68.92 68.39 67.77 68.42 69.21 69.46 69.35 68.74 68.11 67.66 67.24 66.50 66.93 66.42 65.52 63.52 63.52 64.54 64.98 68.01 67.18 66.50 65.51 64.93 64.30 64.15 63.96
68.37 69.30 70.12 70.58 70.60 71.37 71.22 69.89 69.95 69.32 68.06 67.26 66.73 65.24 65.11 64.06 68.60 69.31 67.10 68.00 69.24 68.69 68.49 68.48 67.99 67.19 65.32 62.53 61.79 64.18 62.75 62.64 62.88 64.17 65.18 68.07 67.54 66.55 65.45 64.55 64.14 63.73 63.45
68.19 68.62 70.32 70.52 71.13 70.45 69.85 69.47 69.77 68.65 68.16 67.34 66.27 65.05 64.43 63.95 66.57 68.79 67.48 67.95 67.21 66.38 66.67 66.73 65.29 63.30 61.03 60.68 62.00 61.45 61.56 61.08 61.34 62.77 65.96 68.11 67.58 67.22 65.82 64.42 63.95 63.38 62.89
67.77 69.08 69.40 70.77 70.45 69.89 70.33 69.79 68.89 67.83 67.85 65.78 64.52 64.14 63.20 63.39 62.68 66.97 67.07 67.05 66.64 66.56 66.93 65.72 64.72 64.20 63.64 62.17 59.82 58.45 59.69 59.99 60.64 62.14 64.14 66.18 68.03 67.77 67.08 65.25 63.89 63.38 62.71
67.36 68.47 69.51 70.27 69.84 69.92 69.57 69.24 68.27 67.73 66.77 65.27 63.20 61.73 63.11 62.78 62.25 61.99 66.61 67.00 66.05 65.82 65.68 64.99 64.59 63.57 63.39 62.71 61.79 59.17 57.86 58.08 59.57 60.30 62.03 63.96 66.27 67.52 67.82 67.32 65.48 64.06 63.57
67.72 67.54 69.32 69.21 69.61 69.70 68.36 68.83 67.64 68.15 66.62 65.90 64.59 62.83 61.79 62.45 62.88 62.61 63.40 65.33 65.02 66.06 65.32 64.18 62.98 62.13 61.81 62.06 61.77 60.09 58.23 58.38 59.43 60.27 61.28 62.13 64.80 66.10 67.20 67.86 67.86 66.38 64.91
67.15 68.14 68.41 68.36 69.62 69.07 68.44 68.38 68.02 67.93 67.90 67.25 65.48 64.91 63.56 62.60 61.86 63.26 63.29 63.37 63.37 63.35 62.80 62.68 61.93 61.33 60.13 60.44 59.45 59.97 58.87 57.60 59.91 61.08 61.36 61.41 62.01 63.27 65.61 67.41 67.80 67.81 66.69
67.12 67.19 68.24 69.71 68.92 68.81 68.21 68.42 68.65 68.18 67.35 67.47 66.41 65.63 65.60 64.86 64.34 63.20 62.66 62.02 62.83 62.42 61.77 61.44 61.16 60.56 59.71 59.34 58.95 59.37 59.69 58.70 58.81 59.91 61.15 61.59 61.86 62.05 63.30 66.14 67.78 67.82 67.23
67.41 67.53 67.55 68.13 68.19 68.42 68.51 68.99 68.33 68.24 67.98 67.84 67.49 66.10 66.62 66.09 65.57 64.27 63.74 62.56 61.63 61.71 61.51 61.92 60.94 60.42 59.68 59.72 60.44 60.22 60.43 60.48 60.99 62.60 61.30 61.55 61.62 61.77 61.41 63.23 64.29 65.46 66.39
66.49 67.54 67.76 67.99 67.99 68.12 68.11 67.63 68.17 68.49 68.14 68.07 67.37 67.07 67.54 67.04 65.81 65.06 64.55 64.05 62.11 61.58 61.27 61.40 61.10 60.96 60.19 59.94 61.45 60.25 59.74 60.81 61.62 61.25 61.44 62.57 62.15 61.87 61.32 61.38 61.48 61.93 63.38
64.58 65.64 66.89 67.20 67.51 68.27 67.99 66.11 65.64 65.07 66.62 67.48 67.52 67.36 67.37 67.37 66.57 65.54 65.18 64.84 64.32 62.54 62.03 61.90 61.62 60.89 60.18 60.57 59.06 59.03 59.76 60.76 60.89 61.36 61.86 61.62 61.43 61.12 60.20 59.35 58.93 58.78 60.38
63.13 64.08 65.89 66.93 67.18 67.67 67.43 67.67 66.39 65.74 65.76 65.74 66.86 67.19 67.74 67.74 67.46 66.55 65.45 65.11 64.87 64.03 63.41 62.92 62.14 60.82 60.82 61.26 58.57 58.23 56.27 58.56 60.29 61.22 60.96 60.14 58.16 58.54 58.12 57.22 56.21 56.50 57.29
62.17 63.37 64.66 65.84 66.62 67.53 67.55 66.43 65.66 65.39 65.28 65.00 65.76 65.91 66.63 67.12 66.81 66.82 66.03 65.03 64.82 64.50 63.51 63.38 62.86 61.40 59.58 60.40 60.71 58.63 54.82 54.20 56.44 57.86 57.39 57.38 56.60 54.56 53.84 53.96 54.29 54.85 55.09
61.84 63.28 63.87 63.69 64.95 66.36 66.42 65.40 63.54 62.94 61.98 62.98 64.11 65.31 65.84 66.17 65.80 65.78 65.66 65.48 64.97 64.60 63.73 63.08 63.76 62.05 61.15 59.76 60.40 60.88 59.89 58.95 54.76 53.64 56.49 55.48 54.32 53.99 52.71 52.78 53.16 53.18 53.10
54.97 56.20 61.42 63.67 63.77 64.81 64.82 64.21 63.52 62.80 62.57 62.56 63.55 64.32 64.84 65.76 65.77 65.15 65.12 64.87 64.54 64.44 64.42 64.13 63.21 63.20 62.51 60.94 60.55 59.34 58.62 58.16 57.98 55.34 53.61 53.44 53.87 51.56 51.07 50.84 50.86 50.19 51.08
52.92 53.07 53.41 59.39 61.98 63.41 63.66 62.38 61.08 61.65 61.38 62.16 62.32 62.32 63.56 64.74 65.24 65.11 65.09 64.60 64.44 64.16 63.91 63.60 63.75 63.27 62.02 61.79 61.51 61.56 59.57 57.82 56.75 55.62 54.71 55.04 52.54 51.24 49.53 48.57 48.98 47.69 48.23

GFSSE_sfc_wetblb_099.txt.gz
Wetbulb
71.42 74.22 76.22 76.58 76.39 75.77 75.47 74.93 72.90 72.26 72.50 72.01 72.41 73.65 73.83 74.03 74.04 73.85 73.73 73.55 73.67 72.85 71.66 71.25 70.45 70.51 71.26 71.82 71.92 71.13 70.77 71.14 71.53 71.50 71.23 71.32 70.95 70.08 69.92 69.78 69.79 68.78 71.76
72.47 74.14 75.89 76.04 76.03 75.72 75.39 74.52 73.27 73.13 73.04 72.61 71.87 72.74 73.18 73.39 73.46 73.50 73.07 72.25 71.58 70.95 70.36 69.99 69.79 69.84 69.72 70.22 70.44 70.66 70.65 70.69 71.25 71.02 70.66 70.09 70.67 71.45 71.58 70.78 70.78 68.79 71.25
72.46 73.87 74.36 75.48 75.42 75.41 74.83 74.31 73.81 73.41 72.88 72.76 72.46 71.63 72.17 72.30 72.24 72.28 71.72 71.00 70.49 69.93 69.48 69.25 69.21 68.92 68.74 69.53 70.88 71.40 71.33 71.52 70.74 69.95 69.18 67.76 69.29 71.83 72.01 71.36 71.23 69.62 69.95
72.86 73.26 73.63 74.91 75.23 74.97 74.53 74.16 73.81 73.58 73.06 72.70 72.64 71.84 71.13 71.16 71.32 71.37 71.02 70.65 70.27 70.01 69.64 69.38 69.73 70.08 70.38 71.09 71.40 71.49 71.28 70.18 69.30 67.83 65.04 65.77 68.75 70.98 71.72 71.76 71.57 71.45 71.04
72.03 72.89 73.59 74.73 75.11 74.83 74.35 73.98 73.87 73.65 73.05 72.79 72.46 71.89 70.74 70.33 70.63 70.67 70.25 69.77 69.73 70.12 70.15 70.10 70.58 70.96 71.35 71.43 71.38 70.92 70.51 69.34 68.14 66.21 64.15 63.19 64.11 68.76 70.34 69.88 69.67 70.55 70.46
71.20 72.38 73.92 74.72 74.95 74.29 74.03 74.21 74.11 73.96 73.32 72.92 72.72 71.77 70.52 69.74 70.05 69.80 69.70 70.46 70.70 70.84 70.64 70.73 70.95 71.06 71.02 70.97 70.52 69.85 70.32 68.23 66.24 63.34 62.79 64.24 62.84 67.74 68.27 68.78 68.56 68.58 68.72
70.65 72.04 73.32 74.55 74.32 74.13 74.36 74.02 74.02 73.91 73.63 73.10 72.95 70.99 69.46 69.53 69.64 70.02 70.04 70.45 70.61 71.84 71.03 71.01 70.97 71.00 70.72 70.36 69.54 69.15 69.09 67.02 63.49 62.73 62.94 62.33 62.91 67.06 67.15 67.05 67.30 67.55 67.52
70.62 71.65 72.78 72.84 73.49 73.77 73.87 73.75 73.65 73.66 73.45 73.17 73.12 71.39 69.59 69.15 69.74 69.98 70.00 70.56 70.43 70.58 70.63 70.40 70.65 70.57 70.16 69.37 68.36 68.19 68.33 66.46 64.23 63.15 63.21 63.46 67.01 66.67 66.48 66.11 66.08 66.10 66.23
71.07 71.42 72.14 72.23 72.51 72.69 72.89 73.11 73.41 73.61 73.10 72.94 72.80 71.89 70.62 69.53 69.87 69.78 70.33 70.48 69.82 69.87 70.26 70.20 69.83 69.36 68.64 67.56 66.93 67.05 66.89 66.56 63.28 63.49 64.40 63.53 67.47 66.74 66.20 65.68 65.44 65.43 65.39
70.40 71.22 71.19 71.54 72.28 71.98 71.81 71.95 72.00 71.82 71.43 71.67 71.34 70.31 68.87 68.58 68.72 69.83 69.49 69.85 69.96 69.51 69.51 70.01 69.62 68.72 67.90 66.98 66.82 66.20 65.61 65.25 62.59 63.71 64.04 64.78 66.97 66.62 66.04 65.43 65.07 65.11 64.86
69.63 70.19 70.58 70.77 71.16 71.09 71.30 70.60 70.30 69.86 69.39 68.79 68.26 67.86 67.50 68.16 67.79 66.78 67.02 68.51 69.50 69.66 69.22 68.58 68.53 68.46 67.54 66.57 66.81 66.22 65.21 62.56 62.54 63.76 64.28 67.80 67.01 66.53 65.80 65.04 64.76 64.54 64.36
67.88 69.15 70.10 70.21 70.48 70.36 71.08 69.41 69.26 68.55 66.83 66.05 65.44 65.72 66.27 67.75 67.05 67.56 65.89 67.28 68.86 68.58 68.69 68.53 67.82 67.16 64.87 61.75 60.88 63.77 61.38 61.60 62.70 63.42 64.74 68.17 67.36 66.68 65.61 64.90 64.26 64.01 63.87
67.62 69.10 69.57 69.77 70.37 69.81 69.09 68.83 68.07 67.33 66.20 65.44 64.38 64.05 63.40 65.88 66.47 66.67 65.90 65.87 65.26 65.12 65.58 65.95 64.94 63.18 61.56 61.07 61.08 59.92 60.99 59.81 61.11 63.07 65.78 67.99 68.20 67.14 65.78 64.87 64.24 63.85 63.52
67.57 68.24 69.21 69.89 69.69 68.95 68.76 68.80 67.89 67.07 66.21 65.18 64.65 64.01 61.69 63.36 66.81 67.14 65.91 65.64 65.08 65.15 64.32 64.01 62.90 61.81 61.18 59.86 59.53 57.74 57.90 58.89 59.42 62.38 64.45 66.62 68.37 68.10 66.85 65.28 64.44 63.82 63.28
66.99 68.35 69.01 69.23 69.19 68.80 68.46 69.23 67.66 66.53 66.07 65.52 63.43 61.86 63.05 63.58 64.95 66.08 65.45 65.72 65.11 64.98 65.01 63.99 64.04 63.53 62.09 61.51 60.63 57.96 56.53 56.67 58.22 61.81 61.91 63.85 66.94 68.55 68.21 67.18 65.44 64.60 63.74
66.97 68.00 69.37 68.96 69.29 69.68 68.02 68.58 66.62 66.06 65.22 63.19 61.27 60.12 62.14 62.10 61.32 62.75 65.54 65.55 64.70 64.68 64.84 64.00 63.21 61.60 61.68 61.22 60.58 58.80 57.20 57.03 57.73 58.38 61.02 62.12 65.01 66.73 68.09 68.23 67.79 66.24 65.15
66.79 67.37 68.21 68.44 68.73 67.74 68.11 68.47 66.30 66.19 66.27 63.41 62.48 61.54 60.59 61.44 61.30 61.11 64.11 63.75 63.79 64.30 64.09 62.72 60.91 59.82 58.91 59.21 58.89 59.15 57.36 56.25 57.64 59.33 60.17 60.40 62.35 63.68 65.99 67.51 68.03 68.10 66.87
65.95 66.47 67.44 69.07 68.51 68.22 68.04 68.02 67.60 65.86 65.36 65.13 63.89 63.17 62.73 62.21 62.14 61.40 61.59 61.85 62.14 61.70 60.59 60.36 59.94 59.20 58.52 57.70 57.38 57.89 57.73 56.68 57.15 58.33 59.72 59.99 60.29 61.02 63.12 66.15 67.98 67.88 67.42
66.90 66.16 67.00 68.25 67.92 67.71 67.98 68.21 68.07 68.19 65.66 65.12 64.79 63.87 63.99 63.83 63.66 62.40 62.14 60.90 61.05 60.75 60.24 60.62 59.62 59.18 58.26 57.86 58.60 58.68 58.86 58.91 58.63 60.15 59.78 60.10 60.22 60.70 60.40 62.67 64.14 65.46 66.28
66.05 66.68 66.58 67.12 67.29 67.67 67.46 67.53 68.14 68.04 66.94 66.55 65.48 66.08 65.07 64.73 64.24 63.36 63.05 62.73 60.37 60.29 60.21 60.36 59.78 59.38 59.02 59.00 60.43 59.64 58.76 59.46 59.99 60.02 60.63 61.14 60.83 60.87 60.26 61.07 61.14 61.55 63.13
65.51 65.45 66.46 66.46 66.70 66.93 66.43 65.41 65.10 65.78 66.63 66.79 66.85 66.98 66.64 66.27 64.60 63.95 63.81 63.12 61.22 60.59 60.51 60.83 60.79 60.14 59.31 59.56 58.75 58.51 59.24 59.74 59.57 60.18 60.55 60.57 60.67 61.57 59.47 58.63 59.35 58.69 58.79
63.14 65.31 64.74 66.04 66.78 67.19 67.36 66.06 65.65 64.68 64.90 65.85 67.05 66.87 67.05 66.57 65.63 64.74 64.10 63.83 63.54 61.70 61.13 61.04 60.71 59.88 59.92 60.05 58.10 57.06 55.31 57.32 58.93 59.58 59.78 59.89 57.71 58.42 55.53 54.85 54.55 54.47 56.03
61.26 62.40 65.16 66.01 66.35 66.40 66.60 64.99 64.51 64.23 64.19 64.62 64.43 65.47 65.22 66.19 66.39 65.90 64.93 64.77 64.12 64.05 62.63 62.24 61.66 60.57 58.94 59.32 59.31 57.48 53.39 53.35 54.91 57.01 56.50 56.19 56.01 53.78 52.07 52.83 53.24 54.42 53.50
60.66 62.07 63.91 64.77 65.48 66.25 65.34 65.18 63.30 62.47 61.84 63.55 64.53 64.96 65.25 65.40 65.69 65.93 65.73 65.28 64.84 64.84 63.99 63.15 63.41 62.16 60.70 59.11 60.10 60.62 58.82 57.47 55.46 54.74 56.44 54.49 53.88 52.06 51.15 51.58 51.29 51.51 51.12
60.39 60.03 61.23 62.39 64.17 64.95 64.97 63.61 62.24 61.43 61.03 62.26 62.50 63.25 63.97 64.49 65.14 65.02 64.79 64.64 64.46 64.16 63.95 63.70 63.45 62.71 62.31 61.14 60.66 59.25 58.60 58.34 58.14 55.93 54.38 53.91 52.34 49.83 49.57 49.36 48.69 48.63 49.08
53.73 53.88 57.35 60.41 61.85 62.80 62.65 61.68 60.65 58.69 59.19 60.08 60.87 61.39 61.94 63.52 64.01 64.80 64.26 63.68 63.25 63.42 63.19 63.38 63.47 63.14 63.01 62.56 61.48 60.64 58.58 57.23 56.36 55.74 54.70 54.54 54.00 50.67 48.92 48.60 47.81 46.44 46.66

GFSSE_sfc_wetblb_102.txt.gz
Wetbulb
71.51 73.35 75.85 75.97 75.86 75.12 74.00 72.73 72.31 72.64 72.83 73.64 74.14 74.48 74.38 74.48 74.06 73.72 73.63 73.32 73.23 72.09 70.99 71.06 71.46 72.49 71.82 71.89 71.89 72.00 71.53 71.84 71.21 70.74 70.83 71.35 70.93 70.10 70.24 70.40 70.92 69.85 71.87
72.71 74.00 75.48 75.72 75.57 75.05 74.24 72.34 72.14 72.82 72.91 73.29 73.82 74.24 74.12 73.99 73.70 73.11 72.59 71.84 71.33 70.54 70.39 70.51 70.91 71.60 71.42 71.51 71.43 71.46 71.33 71.08 71.06 70.73 70.36 69.86 70.86 71.35 70.46 70.09 71.14 69.94 71.75
72.80 74.07 74.31 75.33 75.13 74.72 73.96 73.27 73.06 72.65 72.64 73.05 73.15 73.63 73.69 73.44 72.73 72.06 71.31 70.66 70.24 69.80 69.59 69.41 69.53 70.20 71.29 71.72 71.65 71.11 70.96 70.00 69.40 68.98 68.81 67.80 69.77 71.58 70.95 70.36 70.96 70.44 71.40
72.92 73.53 73.86 74.82 74.89 74.41 73.97 73.22 72.93 72.77 72.52 72.51 72.42 72.59 72.55 72.33 71.82 71.10 70.58 69.95 69.48 69.34 69.25 69.23 69.77 71.20 71.54 71.68 71.80 70.04 69.93 68.90 68.12 66.87 64.07 65.04 68.23 71.51 71.61 71.51 71.29 71.29 71.19
72.05 72.70 73.42 74.58 74.37 74.19 73.78 73.50 73.15 72.63 72.50 72.03 72.07 72.08 72.34 71.69 71.08 70.63 70.31 69.91 69.89 69.75 69.95 70.43 71.34 71.51 71.55 71.54 71.28 69.74 68.98 68.05 66.96 64.63 62.74 62.95 64.73 69.44 70.04 69.02 69.55 70.49 70.44
71.45 72.09 73.32 74.04 74.17 73.81 73.63 73.58 73.13 72.92 72.03 70.76 70.78 71.37 71.68 70.72 70.21 69.80 69.69 70.08 70.86 70.89 70.90 71.01 71.35 71.23 70.90 70.87 71.11 69.43 68.44 67.12 64.93 61.64 61.25 63.87 62.66 67.96 68.61 68.07 67.88 68.13 68.30
71.27 72.07 72.86 74.08 73.77 73.89 73.86 73.70 73.16 72.77 72.40 70.72 69.80 69.87 70.05 69.82 69.67 69.52 69.75 70.33 70.87 71.57 71.04 71.14 71.07 70.88 70.24 70.34 69.36 68.61 67.54 66.17 62.50 61.63 61.31 61.15 62.58 67.08 67.13 67.06 67.02 67.17 67.07
71.17 71.86 72.51 72.75 72.99 73.54 73.62 73.63 73.25 72.88 72.92 72.00 70.53 69.56 69.62 69.81 69.71 69.80 70.44 71.42 71.43 70.87 70.89 70.89 70.76 70.43 69.46 68.94 68.96 68.11 67.16 65.88 63.39 62.21 62.27 62.55 66.65 66.63 66.65 66.29 66.10 66.19 66.18
71.16 71.07 71.68 71.62 72.04 72.19 72.58 72.72 72.85 72.64 72.55 71.95 70.83 70.13 69.98 70.06 70.18 69.81 70.23 70.84 70.83 70.44 70.31 70.37 70.10 69.45 68.23 67.74 67.83 67.79 66.82 65.50 62.26 62.53 63.35 62.79 67.32 66.52 66.11 65.77 65.51 65.66 65.64
70.43 70.86 70.56 70.80 71.12 71.22 71.62 71.89 71.98 71.88 71.45 71.45 70.23 68.96 68.23 68.24 69.07 70.03 69.49 69.74 70.25 70.59 70.18 69.74 68.94 68.16 67.51 67.43 67.06 66.96 66.16 65.03 62.19 62.87 63.13 64.26 66.94 66.49 65.98 65.56 65.23 64.98 65.12
69.82 70.29 70.42 70.46 70.64 70.59 70.82 70.76 70.67 70.26 69.98 69.85 68.60 67.04 66.44 66.21 66.80 66.92 67.32 68.57 69.42 69.67 69.84 69.55 68.85 68.10 66.94 65.96 66.01 65.57 64.12 62.13 62.11 63.04 63.57 67.63 66.73 66.53 65.94 65.26 64.84 64.78 64.54
68.24 69.30 70.05 70.25 70.13 70.25 70.60 68.94 67.63 67.87 67.12 67.42 67.45 66.57 66.73 65.71 65.25 66.41 65.93 67.52 69.09 68.83 68.70 68.50 68.08 67.29 64.33 60.85 59.95 62.62 60.93 61.13 62.05 62.98 64.01 67.91 67.08 66.55 65.67 65.01 64.63 64.34 63.93
68.34 69.08 69.66 69.69 69.93 69.66 68.50 67.91 66.76 65.79 64.93 64.76 65.49 65.54 66.07 65.89 65.02 64.58 64.09 64.79 64.14 64.43 64.96 65.74 64.50 62.53 60.74 60.41 60.23 59.09 59.53 59.86 61.57 62.88 65.27 68.06 67.84 66.99 65.88 64.98 64.41 64.02 63.49
67.73 68.58 69.40 69.80 69.35 68.73 68.29 67.23 66.28 65.35 64.53 63.83 63.54 64.15 63.89 64.50 64.75 63.92 63.56 63.55 63.19 63.44 62.70 62.15 61.01 60.08 59.42 59.51 58.56 59.65 57.22 58.04 60.46 62.11 63.78 66.58 68.51 67.69 66.59 65.52 64.59 63.97 63.44
67.31 68.07 68.86 69.61 68.75 67.96 67.71 67.28 66.49 65.51 65.35 64.78 63.67 63.60 62.12 65.04 65.51 64.87 64.11 63.84 63.50 63.43 63.01 62.37 62.36 62.02 61.50 60.58 58.56 56.00 55.56 56.55 59.88 61.56 61.96 63.97 67.05 68.74 67.76 66.59 65.44 64.61 63.76
67.46 67.68 68.90 69.20 68.50 67.94 67.85 67.34 66.68 66.30 66.05 64.68 62.72 63.15 62.00 64.96 65.99 65.33 64.39 64.23 63.58 63.76 63.85 63.38 63.01 63.07 62.32 60.74 60.04 58.31 55.83 55.40 56.89 60.47 60.68 61.72 65.18 67.29 68.58 68.21 67.32 66.11 65.30
67.32 68.07 68.18 68.78 68.54 67.70 67.95 67.32 66.49 66.41 65.31 64.19 61.85 61.52 62.27 63.15 64.14 64.32 64.52 63.96 64.14 63.84 63.92 63.45 62.49 60.04 59.19 58.95 59.15 59.28 57.06 55.32 55.87 57.43 59.94 60.31 62.11 63.84 66.46 67.69 68.13 67.94 66.83
66.20 66.97 68.23 69.07 68.22 67.95 67.67 66.97 66.24 65.75 63.62 63.15 61.51 61.00 61.03 61.81 61.22 60.53 63.48 63.57 63.72 63.08 62.74 61.61 59.45 58.21 57.67 56.96 56.37 56.78 56.98 55.80 55.39 56.81 58.62 59.34 60.05 61.19 63.18 66.10 67.92 67.89 67.62
66.41 66.79 67.47 67.94 67.57 67.76 67.72 67.42 66.93 65.77 64.06 63.43 62.37 61.60 60.94 60.92 61.45 61.08 61.18 62.32 61.71 60.84 59.81 59.81 58.79 58.64 57.73 57.08 57.42 57.46 57.80 57.14 56.83 57.75 57.48 58.68 59.35 60.01 59.60 62.09 63.88 65.41 66.72
65.46 66.93 67.62 67.92 67.77 66.74 66.44 66.54 66.17 65.79 64.56 64.13 63.21 62.66 62.85 62.44 62.38 61.35 61.51 60.42 60.05 59.72 59.28 59.46 58.90 58.55 58.27 58.12 59.20 58.93 58.03 58.60 59.08 59.05 59.52 60.12 59.67 59.99 60.34 60.02 60.56 61.17 62.86
64.43 65.14 66.00 66.37 66.41 67.14 66.54 65.32 65.05 64.33 65.37 65.60 65.70 64.50 64.36 64.18 63.20 62.38 62.16 61.95 59.56 59.52 59.67 59.81 59.89 59.27 58.62 58.77 58.15 57.85 58.17 58.93 58.32 58.54 59.63 59.57 59.82 60.71 60.57 59.47 59.00 58.28 58.08
64.22 65.05 64.45 65.48 66.49 67.06 66.89 66.10 65.24 64.54 64.75 65.97 66.70 66.44 66.06 65.58 64.84 63.36 62.68 62.30 61.53 59.96 59.93 60.08 60.09 59.54 59.66 59.54 57.72 56.25 54.39 56.35 57.94 58.57 58.80 59.34 58.13 57.64 56.07 55.44 54.19 55.39 55.28
62.13 63.69 64.63 65.37 66.08 66.68 66.38 64.83 64.16 64.44 64.01 63.91 64.70 65.79 66.08 66.33 65.91 65.18 63.65 63.64 63.52 62.23 61.09 61.04 61.05 60.30 59.12 59.42 59.01 57.13 53.20 52.99 54.47 56.22 55.07 55.39 55.23 54.03 53.44 53.47 52.72 53.57 53.58
61.47 62.44 63.82 64.66 65.32 65.73 65.31 65.28 64.18 64.04 62.37 63.70 64.29 63.95 64.75 65.75 65.60 65.01 64.76 64.86 64.65 64.13 63.17 62.65 63.07 61.94 60.79 59.20 59.90 60.51 59.14 58.06 55.99 54.56 56.26 53.82 53.22 52.70 52.00 51.54 50.05 50.41 49.50
59.48 61.31 62.15 63.09 63.72 63.86 64.46 64.01 62.86 61.34 61.94 62.40 63.07 63.13 63.35 64.26 64.72 64.49 64.74 64.35 64.26 64.18 63.97 63.59 63.03 62.50 62.10 60.85 60.10 59.05 58.63 58.42 58.26 55.73 54.33 52.89 51.43 50.65 49.92 49.95 49.89 49.15 47.70
56.86 57.81 59.72 61.03 62.15 63.06 62.78 61.35 61.42 60.22 59.51 60.18 59.92 60.56 62.08 62.77 63.50 63.86 63.96 63.67 63.48 63.10 62.73 62.84 62.61 62.34 62.32 61.86 61.41 60.88 59.40 57.30 56.67 55.93 54.29 54.54 53.51 50.01 48.92 48.72 47.94 47.31 46.29

GFSSE_sfc_wetblb_108.txt.gz
Wetbulb
69.31 72.49 74.90 75.25 73.96 73.38 73.21 73.02 73.26 74.17 73.96 74.95 74.96 74.49 74.23 74.33 73.83 73.33 73.72 72.81 72.99 72.55 72.57 72.23 72.06 72.07 71.59 71.24 71.19 71.28 71.61 71.52 71.65 70.79 70.90 70.91 71.66 71.62 72.00 71.63 71.22 69.19 71.29
70.90 72.97 74.79 74.83 74.27 73.75 72.68 72.53 73.63 74.67 74.43 74.91 75.10 74.31 74.32 74.05 73.61 72.90 72.01 71.77 71.88 72.15 71.54 72.22 72.45 72.67 71.78 71.26 71.67 71.81 71.61 71.31 71.15 70.96 70.63 69.53 69.94 70.69 71.54 71.16 71.31 69.73 70.91
71.76 72.89 73.16 74.42 73.59 73.40 72.24 72.31 73.58 74.00 74.78 74.95 75.04 74.67 73.94 73.68 73.12 72.21 71.28 71.06 70.82 71.84 71.48 71.80 72.26 71.96 71.63 70.95 70.93 71.06 70.83 70.51 69.95 69.34 69.12 68.01 68.82 71.77 71.54 71.00 71.40 70.83 70.64
72.07 72.51 72.70 73.93 73.41 72.90 71.96 72.05 73.38 73.69 74.11 74.37 74.39 74.35 74.00 73.13 72.06 71.26 70.67 70.37 70.75 71.76 71.96 71.99 71.95 71.23 71.26 70.88 69.96 70.10 69.78 69.24 68.47 67.19 64.80 66.12 66.86 70.36 71.10 70.61 70.37 69.89 69.13
71.79 72.24 72.68 73.55 73.39 72.88 72.31 72.29 73.04 73.43 73.63 73.64 73.70 73.66 73.28 71.96 71.28 70.51 69.98 70.40 71.19 71.86 72.30 71.75 71.29 70.83 70.28 69.78 69.04 68.57 68.46 67.66 66.46 64.02 62.92 63.35 63.65 67.63 68.80 68.27 67.77 67.74 67.51
71.44 71.90 72.96 73.36 73.30 72.83 72.54 72.53 72.66 73.05 73.12 73.21 73.42 72.95 72.46 71.00 70.38 69.90 69.80 70.54 71.15 72.03 71.93 70.81 70.74 70.78 69.90 68.85 67.55 67.33 67.07 66.16 63.65 60.31 60.88 64.14 63.25 67.99 68.09 67.69 67.41 67.15 66.77
71.10 71.90 72.07 73.34 73.25 72.83 72.74 72.36 72.40 72.66 72.51 73.07 72.92 72.32 71.21 70.51 69.94 69.67 69.67 70.68 71.49 72.11 71.31 70.32 70.60 70.44 69.68 68.33 67.22 66.97 66.34 64.76 60.25 59.80 60.14 61.08 63.13 67.55 67.55 67.42 67.05 66.80 66.50
70.49 70.97 71.52 71.84 72.30 72.39 72.14 71.94 71.82 71.97 72.14 72.41 72.22 71.08 70.55 69.99 69.64 69.58 70.03 71.03 71.83 71.46 70.90 70.04 70.09 70.06 69.34 68.28 67.15 66.55 65.82 64.44 61.73 60.82 61.25 62.16 67.03 67.17 67.18 66.97 66.68 66.44 66.26
70.65 70.16 70.19 70.71 71.06 71.19 71.48 71.21 70.94 71.03 71.09 71.02 70.97 70.60 69.91 69.73 70.19 70.25 70.85 71.42 71.73 71.55 71.23 70.46 69.54 69.60 69.26 68.36 67.08 66.36 65.54 64.26 60.77 61.18 62.26 62.25 67.66 67.00 66.77 66.52 66.22 66.19 65.82
69.37 69.44 69.15 69.91 70.62 69.85 69.82 70.53 70.01 69.79 69.80 69.93 69.62 68.90 68.20 68.53 69.68 70.96 70.25 70.75 71.41 71.25 70.91 70.51 69.55 69.00 69.02 68.32 67.05 66.31 65.56 63.77 60.38 61.24 62.04 64.02 67.14 67.07 66.50 66.01 65.93 65.79 65.38
68.44 68.65 69.14 69.43 69.78 69.68 69.30 69.67 69.70 69.03 68.79 68.57 67.99 66.71 66.22 65.96 66.75 66.65 67.68 68.90 70.11 70.50 69.94 69.25 68.53 67.99 67.39 66.69 67.06 66.05 63.40 60.77 60.49 61.38 62.18 67.22 66.86 66.87 66.41 65.75 65.42 65.32 64.87
66.93 68.21 68.89 69.06 69.27 69.29 69.77 69.15 68.72 67.59 66.54 65.65 65.10 64.63 64.81 64.51 64.89 66.24 66.09 68.12 69.70 69.26 69.05 68.79 67.78 65.65 62.08 59.31 60.10 62.61 60.70 60.06 60.88 61.15 62.30 67.43 66.81 66.58 65.99 65.48 65.07 64.90 64.66
67.09 68.18 68.91 68.58 69.19 68.58 68.91 69.04 69.03 67.50 65.17 63.72 63.35 63.99 63.78 63.93 63.80 63.92 64.16 64.50 64.49 64.12 64.23 63.84 62.03 60.08 58.67 58.46 58.54 58.22 59.28 59.39 60.27 61.32 63.34 67.52 66.89 66.47 65.74 65.15 64.72 64.41 64.27
66.52 67.61 68.64 68.50 68.47 67.44 68.03 67.47 67.25 67.14 65.06 63.75 63.74 63.17 62.86 62.66 61.94 61.81 62.17 62.12 62.06 61.77 61.12 60.19 59.45 58.75 58.64 58.32 57.59 58.00 57.07 58.83 59.93 60.86 61.80 65.92 67.74 66.68 66.05 65.27 64.60 64.20 63.76
65.40 67.23 68.34 68.37 68.02 67.33 66.94 65.47 64.95 65.90 65.15 64.55 63.99 63.93 63.19 62.15 61.18 60.93 60.74 60.63 60.27 60.22 59.55 58.69 58.13 58.10 58.22 58.90 58.48 57.16 54.36 56.11 58.62 60.33 60.49 63.15 66.58 67.93 66.79 66.06 65.16 64.65 64.03
65.95 67.25 68.63 67.98 68.29 67.32 66.44 64.48 63.81 64.37 64.71 64.62 64.41 64.32 63.67 63.59 62.29 61.49 60.74 60.72 60.53 61.12 61.00 60.24 59.49 59.71 60.46 60.47 59.88 57.96 54.49 54.22 56.19 59.01 59.85 60.50 64.56 66.93 68.21 67.50 66.84 65.98 65.05
64.57 67.50 68.15 67.99 68.34 66.99 66.00 64.55 63.35 63.50 64.29 64.16 64.41 64.08 64.22 64.67 63.56 62.60 61.91 61.51 61.55 61.64 61.70 61.38 61.05 60.86 60.17 60.20 58.86 58.78 58.16 54.42 53.80 56.18 59.23 59.26 60.54 63.35 66.04 67.99 67.86 67.25 66.81
66.51 67.46 68.09 68.33 68.13 67.18 66.47 65.32 64.24 64.02 63.97 63.38 62.87 64.04 64.01 64.90 64.78 63.24 62.63 62.25 62.51 62.26 61.98 61.45 60.77 59.68 58.37 57.39 56.70 56.50 56.42 56.35 54.90 54.05 56.00 58.35 59.21 60.24 62.24 65.49 66.81 67.24 67.10
67.09 67.68 67.70 67.78 67.53 66.86 66.34 65.84 65.06 64.62 64.00 63.74 62.13 61.94 62.49 63.14 64.72 64.15 63.39 62.62 62.69 62.25 61.77 61.36 59.77 58.66 57.41 56.69 56.58 56.68 56.35 56.46 56.68 55.65 55.20 56.60 57.73 58.92 59.20 61.08 62.91 64.00 65.48
67.27 68.02 67.94 67.75 67.73 67.05 66.42 65.91 64.94 63.83 63.09 62.13 61.99 61.02 61.13 61.47 62.36 63.14 62.78 62.66 62.46 61.78 60.99 59.90 59.39 58.09 57.56 57.41 57.89 57.55 57.48 57.64 57.77 57.25 57.05 57.34 57.43 58.11 58.50 59.61 60.16 60.51 62.41
65.97 66.57 67.63 67.40 67.48 66.55 65.91 64.72 63.90 63.33 61.29 60.68 60.44 60.69 60.38 60.81 60.96 61.64 61.81 61.50 61.76 61.43 61.26 59.85 58.46 57.74 57.12 57.43 57.25 57.66 57.91 58.65 57.23 57.09 57.26 57.97 58.49 59.15 58.74 59.78 60.13 59.18 59.71
63.63 65.47 65.77 66.85 66.80 66.60 66.20 65.83 64.70 64.34 63.19 63.42 62.74 61.75 61.27 61.03 61.16 61.13 60.38 59.70 59.74 59.47 59.12 58.63 58.52 57.82 58.02 58.14 57.03 56.65 55.25 56.12 56.32 55.17 55.99 57.23 55.26 55.86 57.23 58.47 58.76 56.36 56.19
63.05 63.73 64.87 65.44 65.93 66.04 65.74 64.74 63.95 63.53 63.23 62.64 62.60 62.23 62.92 62.86 61.69 61.44 61.18 60.81 59.35 59.12 59.02 58.34 58.57 58.78 58.12 58.76 59.09 57.80 54.18 53.65 55.36 55.65 53.89 55.54 55.88 54.85 54.37 54.81 55.46 54.83 53.86
62.51 63.62 64.95 65.11 65.77 66.19 66.04 65.35 63.84 63.24 62.13 62.73 63.21 63.75 63.96 64.03 63.36 63.05 63.39 62.96 61.89 61.34 61.28 60.65 61.42 60.86 60.58 59.03 59.98 60.35 59.42 58.50 55.59 54.32 54.68 52.95 52.96 53.09 53.37 53.24 52.61 53.44 52.34
61.13 62.68 62.99 63.68 64.51 65.18 65.46 65.00 63.07 63.39 64.25 63.98 63.30 63.48 63.82 64.13 64.54 64.14 63.82 62.98 62.76 63.22 63.27 63.27 62.31 61.62 61.26 60.69 59.86 59.08 59.08 58.92 59.00 56.73 54.07 54.03 52.68 52.11 52.03 51.98 51.89 51.03 50.18
58.34 60.64 62.48 63.62 63.36 63.87 64.38 63.89 63.52 62.79 62.53 62.44 62.28 62.98 63.40 62.57 62.93 63.75 64.18 64.18 63.88 63.67 63.45 63.15 62.94 62.26 61.86 61.27 60.20 60.20 58.50 56.80 56.64 56.63 55.62 55.11 53.46 51.52 50.81 50.49 49.97 49.62 49.87

GFSSE_sfc_wetblb_111.txt.gz
Wetbulb
70.80 73.29 74.92 75.25 74.01 73.43 73.72 73.59 74.47 75.31 75.72 75.53 75.34 74.52 74.41 74.39 73.83 74.24 73.79 73.23 73.34 73.96 72.76 72.41 71.92 72.31 71.43 71.83 72.27 72.08 71.98 70.75 70.51 70.59 71.04 71.77 72.38 72.23 72.07 71.46 71.57 70.29 70.60
71.82 73.51 74.68 74.66 74.17 74.28 74.24 74.32 74.15 74.57 75.17 75.05 75.07 74.78 74.27 74.27 73.92 73.78 73.45 72.55 73.18 71.90 72.57 72.40 72.10 71.81 71.85 72.48 72.24 72.09 71.83 71.48 70.87 70.29 70.10 69.80 70.85 72.06 71.53 71.23 71.59 69.82 69.62
72.02 73.42 73.76 74.29 74.23 74.03 73.95 74.49 74.37 74.36 75.07 74.94 74.96 74.57 74.20 74.06 73.27 72.51 73.21 73.23 72.78 72.88 72.85 72.80 72.24 71.10 71.55 71.68 71.38 71.42 71.33 70.90 70.37 69.89 70.02 71.12 71.04 71.69 71.48 71.21 70.95 69.73 68.58
72.54 73.41 73.27 73.75 73.94 73.72 73.86 74.22 74.85 75.04 75.21 74.90 74.69 74.51 74.85 73.64 72.43 72.21 72.44 72.91 72.87 73.15 72.61 72.33 71.91 71.43 70.56 70.58 70.77 70.65 70.30 69.46 68.78 68.64 68.04 68.22 68.49 70.28 70.06 69.33 69.08 68.06 67.64
72.50 73.26 72.89 73.17 73.53 73.25 73.78 74.49 74.60 74.96 75.05 74.37 73.99 73.90 74.08 73.25 71.71 71.14 72.16 72.64 72.45 72.90 72.65 71.81 71.36 70.91 70.07 69.58 69.71 69.47 69.10 68.20 67.06 67.58 67.69 68.15 68.20 68.68 68.87 68.24 67.73 67.43 67.20
71.96 73.04 72.88 73.00 73.16 72.95 73.49 74.23 74.41 74.43 74.16 73.90 73.54 73.36 73.07 72.49 70.95 71.09 71.81 71.78 72.46 72.35 71.98 71.79 70.51 69.96 68.89 68.06 67.88 67.68 67.26 66.26 66.25 66.88 67.35 67.68 67.51 68.17 68.34 67.76 67.35 67.24 67.04
71.22 72.66 72.42 73.05 73.02 72.89 73.25 73.94 73.97 73.99 73.80 73.56 73.40 72.89 72.02 71.47 70.68 70.47 71.18 71.91 72.39 71.81 71.43 71.15 70.43 69.54 68.01 67.46 67.33 67.16 66.22 64.77 65.57 66.01 66.49 67.00 67.22 67.94 67.94 67.54 67.28 67.01 66.80
71.16 71.94 72.13 71.76 72.21 72.52 72.77 73.37 73.32 73.48 73.43 73.27 72.91 72.31 71.34 70.79 70.39 70.12 71.34 72.16 72.21 71.19 71.24 71.20 70.09 69.30 67.90 67.34 67.04 66.55 65.62 64.87 65.07 65.89 66.56 66.82 67.92 67.67 67.64 67.22 66.86 66.67 66.36
71.31 71.40 71.67 71.35 71.14 71.09 71.48 72.04 72.47 72.67 72.61 72.46 72.15 71.55 70.64 69.98 70.15 70.30 71.55 72.15 71.99 71.22 70.99 71.05 70.44 69.39 68.15 67.25 66.68 66.15 65.34 64.40 65.62 65.79 65.83 66.77 67.75 67.55 67.27 66.79 66.59 66.18 65.99
70.47 70.93 70.69 70.71 70.42 70.46 70.52 70.43 70.78 71.07 71.03 70.95 70.26 69.34 68.36 68.25 69.04 70.50 70.43 71.05 71.47 71.23 70.45 70.40 70.31 69.76 68.61 67.32 66.52 65.96 64.84 64.25 65.68 66.08 66.63 66.96 67.51 67.23 66.91 66.62 66.33 65.86 65.52
69.22 69.77 70.37 70.08 70.15 69.94 69.35 69.03 69.39 69.33 69.04 68.75 68.17 66.91 67.24 68.98 69.71 69.44 68.53 69.33 70.39 70.78 70.15 69.82 69.17 68.82 68.20 67.26 66.79 65.04 64.03 65.18 65.53 66.05 66.75 67.62 67.10 67.13 66.65 66.19 65.98 65.53 65.08
67.30 68.45 69.71 69.67 69.29 69.62 69.14 69.04 68.73 68.72 68.73 68.34 67.96 68.10 69.35 69.90 69.91 69.09 67.60 68.33 69.79 69.42 68.98 68.59 67.42 65.70 64.80 65.65 66.33 64.56 65.60 65.33 65.57 65.91 66.83 67.63 66.97 66.78 66.36 65.75 65.45 65.16 64.92
67.24 68.15 68.81 68.99 68.84 69.03 68.73 69.00 68.33 67.76 67.49 67.42 67.39 67.77 68.74 68.65 68.99 69.13 69.38 69.44 69.32 66.44 68.04 66.78 64.97 64.32 64.09 64.29 64.26 65.19 65.54 65.64 66.05 66.26 66.29 67.52 66.91 66.54 65.99 65.52 65.15 64.98 64.77
66.66 67.68 68.44 69.09 68.30 68.86 69.46 68.16 67.78 67.09 66.59 66.53 66.71 67.21 67.39 67.11 67.46 67.69 67.79 68.06 67.69 67.20 66.31 65.36 64.14 63.64 63.65 63.61 64.03 63.52 63.69 65.43 66.01 66.26 66.31 65.82 67.70 66.54 65.93 65.30 64.83 64.50 64.35
66.16 67.27 68.05 68.85 68.52 68.18 67.21 67.70 67.91 66.36 66.16 66.31 66.43 66.70 66.68 66.14 65.96 66.29 66.26 66.17 65.95 65.61 65.10 63.94 63.35 63.14 63.01 63.54 63.44 63.16 61.40 63.37 64.36 65.52 66.27 63.06 66.46 67.58 66.61 65.90 65.20 64.71 64.22
65.70 67.36 68.10 68.19 68.78 68.10 66.65 66.24 66.63 65.82 65.69 65.93 66.13 66.27 66.16 65.97 65.40 65.09 64.55 64.38 64.34 64.15 63.63 63.02 62.52 62.96 64.23 65.29 64.64 62.92 61.02 61.18 62.35 64.23 65.43 65.57 64.37 66.72 67.93 67.36 66.86 65.99 65.22
66.32 67.83 67.30 68.13 68.42 67.84 67.05 66.94 65.99 65.70 65.70 65.10 65.31 65.71 65.40 65.43 64.87 64.57 63.88 63.32 63.51 64.09 64.20 64.33 64.13 64.94 65.34 65.22 65.09 64.47 64.12 62.33 60.45 61.08 64.13 65.01 64.87 63.23 65.92 68.08 67.70 67.42 67.10
66.49 67.27 67.66 68.25 67.66 67.55 66.76 66.39 66.27 67.00 66.63 66.06 65.53 65.35 65.06 65.10 64.98 64.10 63.65 63.64 64.59 65.12 65.42 65.10 64.77 64.63 64.56 63.56 63.65 63.90 63.29 62.76 62.03 60.10 60.86 63.27 64.17 64.26 64.09 65.45 66.53 66.85 66.81
66.36 67.45 67.36 67.85 67.32 67.17 66.58 65.92 65.75 65.96 66.43 66.48 66.28 65.95 65.69 65.89 65.69 65.02 64.67 65.10 65.16 64.93 64.88 64.74 64.37 64.34 63.58 63.10 62.02 62.13 62.11 61.55 61.52 60.48 60.76 60.86 62.38 63.53 64.39 62.90 62.71 64.22 65.57
66.05 67.83 67.96 67.70 67.35 67.27 66.70 66.48 66.28 65.59 65.32 65.64 65.38 65.76 65.91 65.91 66.51 66.34 65.65 65.21 65.25 64.75 64.50 64.19 64.06 63.01 63.13 61.97 60.35 60.89 61.79 62.12 62.15 61.51 61.33 60.71 61.72 62.17 63.11 63.63 62.88 62.91 62.56
66.72 67.51 67.46 67.21 67.38 66.86 65.98 64.96 64.29 63.83 64.62 64.72 64.44 63.92 64.53 65.33 65.70 66.33 66.19 65.77 65.01 64.58 64.49 63.99 63.22 62.67 61.55 61.44 61.27 61.71 61.73 61.63 61.42 59.84 61.24 62.64 62.85 63.58 63.65 63.60 63.73 64.19 64.04
64.96 67.10 67.04 66.84 66.93 66.78 66.83 66.26 66.11 65.65 64.70 64.73 64.12 63.19 63.22 63.49 63.79 64.16 64.53 64.13 64.48 63.93 63.38 63.17 62.51 61.00 61.29 61.27 60.35 59.02 58.25 58.81 58.38 57.55 59.02 61.22 61.11 60.63 60.61 61.89 62.03 60.78 58.83
63.11 65.32 66.75 66.76 66.83 66.74 66.58 65.98 65.63 65.40 65.14 64.40 63.85 63.72 63.01 62.74 62.99 62.92 62.93 63.43 63.00 63.20 63.03 62.64 62.12 62.05 61.00 61.25 61.33 60.33 56.65 55.15 56.92 57.28 55.79 56.21 57.60 57.63 57.74 57.12 58.08 57.14 57.07
62.19 64.39 64.99 64.89 64.46 65.80 65.66 64.90 64.17 63.76 63.17 64.73 64.34 64.19 63.84 63.50 63.09 63.36 63.43 63.45 62.51 62.93 62.40 62.19 62.23 61.71 61.00 60.26 61.47 61.78 61.97 61.39 56.68 56.31 55.99 54.35 54.39 54.44 54.48 54.61 54.18 54.08 53.23
63.07 63.53 64.68 64.39 63.82 64.09 64.98 64.73 62.95 61.70 63.24 63.68 64.01 63.82 63.52 63.83 64.29 64.00 64.23 64.46 63.70 63.45 62.84 62.45 61.71 61.77 62.43 62.15 61.86 60.79 60.87 60.45 59.72 57.44 54.59 56.05 54.73 54.13 54.89 53.34 53.60 52.34 51.54
61.12 62.66 63.13 62.84 63.06 64.46 64.15 64.22 61.98 61.04 62.40 64.39 64.04 63.78 63.49 64.43 64.20 64.74 64.19 64.58 64.82 64.20 63.89 63.86 63.45 62.92 63.08 62.65 62.67 62.31 60.11 57.93 57.68 57.32 55.84 56.24 56.01 54.81 52.99 52.81 52.17 51.38 50.77

GFSSE_sfc_wetblb_114.txt.gz
Wetbulb
71.79 74.23 74.95 74.98 74.86 74.52 74.38 75.35 76.24 75.80 75.96 75.95 75.39 74.50 74.40 73.96 73.67 73.45 73.74 73.79 74.16 73.85 72.26 73.22 72.10 71.54 72.31 72.77 72.01 70.88 70.97 71.09 71.14 71.45 72.02 72.04 72.25 72.07 71.77 72.00 71.22 68.75 69.09
72.82 74.30 74.82 75.04 74.54 74.84 74.89 75.25 75.86 75.85 75.52 75.61 75.50 74.39 74.19 74.22 74.15 73.62 74.05 73.85 73.53 72.93 72.39 71.67 71.98 72.56 72.81 72.88 72.08 71.49 71.03 70.60 70.64 70.67 70.73 70.73 70.94 71.78 71.41 70.51 70.49 68.16 68.21
72.64 74.07 74.69 74.34 73.24 74.59 74.79 74.88 75.41 75.43 75.34 75.41 75.48 75.11 74.09 73.90 73.79 73.66 73.96 73.46 73.80 73.82 72.71 72.36 72.32 72.62 72.25 71.96 71.93 71.78 71.58 71.20 70.24 70.28 71.31 70.73 70.89 71.29 70.06 69.02 68.80 67.93 68.10
73.01 73.45 73.87 73.94 74.23 74.60 74.68 74.51 75.09 75.37 75.23 75.18 75.26 75.06 74.45 74.19 73.73 73.63 73.60 73.07 73.76 73.35 73.36 72.06 71.46 71.61 71.34 71.28 70.82 70.86 70.11 69.23 69.53 69.55 69.14 68.99 69.09 69.45 69.16 68.48 67.97 67.93 67.88
72.63 73.21 73.16 73.91 74.18 74.36 74.67 74.42 74.62 75.34 75.15 75.03 74.59 74.15 74.17 73.89 73.42 73.25 73.40 73.02 73.64 73.24 72.86 72.32 70.72 70.50 70.54 70.51 70.38 69.93 69.14 68.36 68.58 67.73 67.93 68.28 68.17 68.44 68.39 67.86 67.73 67.75 67.66
71.91 72.86 73.15 73.52 73.90 74.12 74.56 74.50 74.79 75.26 75.14 74.37 73.94 73.78 73.56 73.29 72.95 73.09 72.98 73.09 72.74 72.30 72.22 71.17 70.39 69.72 69.05 69.14 68.60 68.18 67.49 67.18 67.73 67.40 67.58 68.06 67.87 68.24 68.08 67.70 67.44 67.43 67.30
71.77 72.81 72.90 73.40 73.59 74.20 74.69 74.57 74.78 74.80 74.33 73.86 73.67 73.74 73.21 72.71 72.62 72.64 72.62 72.69 72.39 72.32 71.47 70.37 69.18 68.15 67.73 67.58 67.46 67.11 66.32 66.58 66.68 67.16 67.51 67.70 67.88 68.07 68.01 67.63 67.35 67.20 67.00
71.53 72.28 72.31 72.06 72.59 73.69 74.36 74.20 74.03 73.93 73.84 73.71 73.44 73.14 72.55 72.14 72.05 71.94 72.63 72.29 72.02 71.91 71.18 69.98 68.52 68.00 67.59 67.33 67.01 66.39 65.80 66.29 66.39 67.30 67.48 67.57 68.35 67.78 67.69 67.19 66.87 66.71 66.58
71.92 72.24 72.09 72.29 71.77 72.02 73.05 73.12 73.29 73.24 72.85 72.77 72.44 71.89 71.13 70.62 70.91 71.47 72.40 71.95 71.77 71.88 71.29 70.68 68.93 67.85 67.40 67.08 66.57 66.00 65.46 65.65 66.78 67.03 66.88 67.42 68.06 67.66 67.39 66.88 66.49 66.25 66.04
71.04 71.68 71.38 70.87 70.55 72.75 73.16 71.56 71.83 71.89 71.72 71.63 70.86 69.88 68.73 68.55 69.34 71.17 70.92 70.98 71.18 71.22 71.01 70.67 69.68 68.04 67.29 66.75 66.35 65.71 65.20 65.22 66.95 67.24 67.26 67.51 67.63 67.50 67.22 66.66 66.20 65.96 65.50
69.73 70.98 71.47 70.29 69.75 70.02 72.56 71.01 70.59 70.35 69.99 69.33 68.62 67.19 67.43 68.87 70.20 70.78 69.04 69.59 70.16 70.45 70.66 70.65 69.90 68.54 67.65 66.89 66.10 65.04 64.75 66.55 66.80 67.25 67.10 67.94 67.24 67.27 66.95 66.37 65.93 65.61 65.18
67.50 69.60 70.46 69.35 68.74 68.93 70.31 70.70 71.07 70.54 70.82 69.97 68.94 69.15 67.89 68.16 69.68 70.52 68.35 68.35 69.85 69.24 69.35 69.33 68.52 67.61 67.18 67.95 66.67 64.71 67.26 66.93 66.94 67.08 67.22 67.99 67.05 66.92 66.41 66.07 65.71 65.38 65.01
67.10 69.75 69.77 68.71 69.28 68.69 68.04 70.99 70.80 69.66 69.62 69.63 69.86 67.80 67.79 68.20 69.26 70.23 69.57 69.02 69.55 66.45 68.04 67.60 66.71 67.38 67.48 67.46 67.57 67.78 67.33 67.19 67.23 67.26 66.84 67.11 67.01 66.76 66.20 65.72 65.43 65.16 64.70
66.56 68.16 69.07 68.72 68.59 67.77 68.04 67.46 69.12 69.91 69.69 68.52 67.77 67.58 67.77 68.00 68.32 68.53 68.26 69.11 67.99 68.97 67.82 67.16 66.89 66.96 66.98 66.91 66.74 66.33 67.27 67.42 67.65 67.63 66.71 66.49 67.33 66.69 66.28 65.74 65.21 64.90 64.52
64.41 67.35 67.95 68.55 67.93 67.76 67.03 66.70 66.64 66.71 67.10 67.06 66.97 68.14 68.10 68.09 68.10 69.10 69.04 69.55 68.69 68.53 67.50 65.92 65.73 65.98 66.09 66.17 66.25 66.18 65.32 66.76 67.12 67.64 67.95 64.66 66.52 67.17 66.62 66.11 65.66 65.16 64.62
64.53 67.05 68.29 68.30 67.56 68.62 67.69 66.87 66.05 66.28 66.43 66.61 66.55 68.17 68.96 68.66 67.84 67.73 67.78 67.71 67.50 67.22 66.24 65.56 64.93 64.80 65.15 66.10 65.58 64.86 63.64 64.31 65.18 66.34 67.28 66.80 65.26 66.88 67.59 67.28 66.75 66.08 65.52
60.94 67.44 68.27 68.48 68.10 68.28 67.48 67.86 66.63 65.76 65.84 66.09 66.23 67.14 68.21 68.29 67.76 67.13 66.47 66.14 66.07 66.05 65.31 64.71 64.34 65.27 66.22 67.00 66.58 65.82 66.25 65.75 64.30 64.09 65.12 66.40 66.13 63.84 66.20 68.37 67.97 67.62 67.09
60.77 66.36 68.92 68.80 68.03 67.73 67.40 67.13 67.07 66.37 65.32 65.65 66.34 66.75 66.97 66.99 66.81 66.15 65.46 65.00 65.21 65.06 64.75 64.47 64.27 65.10 67.03 67.06 66.60 66.54 66.21 66.11 65.81 65.01 64.23 64.79 65.57 66.01 64.93 66.00 67.19 67.57 67.59
60.82 64.35 67.45 68.27 68.04 68.01 68.26 67.77 67.57 67.73 66.75 65.52 65.16 65.48 66.21 65.96 66.03 65.42 64.43 64.34 65.24 65.99 66.29 66.24 66.31 66.64 66.10 66.26 65.70 65.63 65.17 64.83 64.80 64.18 63.94 64.11 64.56 65.25 66.27 64.46 63.78 64.86 66.22
62.24 64.73 67.90 67.83 68.03 68.39 68.66 68.58 68.15 68.38 68.57 68.28 66.91 65.89 65.44 65.54 65.41 65.23 65.42 66.11 66.77 66.58 66.41 66.35 66.00 66.55 66.82 66.14 63.36 63.38 65.05 65.04 64.97 64.61 64.39 63.88 63.94 64.62 65.39 65.66 66.16 64.76 62.55
63.85 65.85 66.83 67.27 67.66 67.48 66.78 65.99 66.03 65.81 66.57 67.40 68.65 68.71 67.91 67.63 67.56 67.32 67.23 67.00 67.33 66.72 66.61 66.71 66.53 65.68 65.04 64.77 63.80 63.91 64.46 65.02 64.55 64.61 65.01 63.99 64.37 64.79 65.27 66.05 66.52 65.49 65.17
64.15 65.12 66.84 67.10 66.67 67.07 67.68 67.04 66.68 66.26 66.76 66.88 67.44 67.42 67.74 67.87 68.07 67.81 67.68 67.20 67.15 66.76 66.64 66.19 65.55 63.94 65.17 65.30 62.88 62.66 60.65 61.98 63.01 62.41 62.87 62.92 62.27 62.78 63.68 62.05 63.85 64.70 63.18
62.34 64.28 65.66 66.32 66.61 66.97 67.47 67.27 66.79 67.00 66.44 65.61 66.27 66.09 66.11 66.56 66.72 67.15 67.09 67.03 66.83 66.41 65.48 66.11 66.30 65.78 64.06 64.31 63.11 62.71 59.86 58.82 61.92 63.08 60.53 59.17 59.82 61.44 59.81 58.92 59.23 58.24 57.88
62.40 64.80 65.42 66.24 66.32 66.77 68.19 66.46 65.57 64.79 64.12 64.91 66.08 66.58 65.52 64.97 65.03 65.51 64.90 65.22 65.89 66.25 65.58 65.56 65.80 65.47 62.04 60.56 63.00 63.55 64.37 63.12 59.48 57.66 60.90 59.98 58.49 57.03 56.60 57.23 56.31 57.27 55.56
62.45 61.31 64.25 64.64 65.12 65.53 67.27 65.93 64.97 65.66 66.57 66.90 66.64 65.73 65.35 64.80 65.24 64.84 65.12 65.81 65.13 65.31 64.11 62.76 61.93 61.82 63.08 63.04 63.13 62.72 62.05 62.26 61.74 58.80 55.73 56.87 56.78 56.07 56.22 57.50 55.56 54.40 52.89
61.06 61.12 62.57 63.42 63.16 64.19 64.09 64.33 63.94 63.16 63.01 63.48 64.73 64.72 64.60 64.40 64.31 64.38 64.55 64.77 64.52 64.13 63.54 63.82 64.37 63.60 63.35 63.78 63.85 63.33 62.05 60.07 59.21 59.06 56.68 57.07 57.18 56.86 55.36 54.87 54.82 55.24 52.56

GFSSE_sfc_wetblb_117.txt.gz
Wetbulb
71.97 74.13 75.26 75.60 75.12 75.32 76.31 76.48 76.04 76.07 75.96 75.65 74.82 74.23 73.71 73.64 73.69 73.45 73.40 73.25 72.78 73.77 72.84 71.70 71.56 72.11 71.67 71.60 71.99 71.84 71.80 71.99 72.28 72.08 72.09 71.96 72.10 71.81 70.99 70.97 69.62 67.25 68.94
73.20 73.68 74.57 75.24 75.27 75.44 76.27 76.13 75.74 75.17 75.67 75.46 74.83 73.99 73.92 73.71 73.82 73.49 73.63 73.30 73.30 73.46 72.69 72.07 72.72 72.79 72.58 71.26 71.00 70.72 70.90 70.98 71.49 71.79 70.77 70.29 70.69 70.63 69.83 68.85 69.48 67.61 68.74
73.21 73.22 73.72 74.76 75.02 75.10 75.83 75.87 75.77 75.61 75.59 75.39 74.87 74.78 74.12 73.83 73.53 73.83 73.87 73.81 73.81 72.99 72.35 72.88 72.83 72.59 72.47 72.19 71.91 71.80 71.16 70.14 70.09 71.34 70.90 69.58 69.00 69.58 68.71 68.24 68.95 68.44 68.56
73.49 73.23 72.99 74.07 74.82 75.05 75.28 75.87 75.64 75.52 75.49 75.29 74.94 74.45 74.49 74.25 74.10 73.72 74.30 74.41 74.05 73.52 73.03 72.44 72.29 72.19 71.88 71.27 70.65 70.44 69.29 69.01 69.28 69.62 68.26 67.58 67.28 68.74 68.60 68.45 68.49 68.37 68.44
73.18 73.20 73.00 73.72 74.21 74.87 74.88 75.46 75.56 75.25 75.21 75.14 74.71 74.25 74.13 74.23 73.88 73.85 73.62 73.31 72.92 72.85 72.26 71.52 71.47 71.39 71.06 70.19 70.25 69.54 68.31 68.59 68.21 67.90 67.42 67.73 67.12 67.92 68.73 68.34 67.98 68.12 68.17
72.56 72.79 72.89 73.57 73.79 74.39 74.33 74.82 75.39 75.14 74.89 74.66 74.13 73.80 73.57 73.81 73.80 73.46 73.35 72.93 72.43 72.63 71.84 70.61 70.31 70.32 69.99 69.83 69.33 68.19 67.40 67.75 68.74 66.86 67.10 67.39 66.89 68.26 68.32 67.88 67.79 67.48 67.49
71.91 72.50 72.95 73.74 73.94 74.41 74.40 74.21 74.80 74.84 74.55 74.29 73.99 73.67 73.64 73.56 73.49 73.38 73.05 72.60 72.42 72.14 71.12 70.12 69.14 68.85 68.30 67.78 67.44 66.93 66.07 67.23 66.94 66.80 66.84 67.03 67.05 68.27 68.10 67.67 67.52 67.25 67.40
71.36 72.41 72.94 72.40 73.02 73.81 74.15 73.89 74.65 74.32 74.00 73.68 73.39 73.28 73.32 72.88 73.01 73.14 72.70 72.47 72.16 71.36 69.90 68.68 68.10 67.94 67.65 67.30 66.93 66.29 66.23 66.50 66.74 66.63 67.01 66.84 68.22 67.97 67.81 67.31 67.09 66.83 67.02
72.03 71.73 72.45 72.53 72.21 72.69 73.22 73.54 73.87 73.72 73.17 72.58 72.68 72.46 71.76 71.62 72.00 72.66 72.17 72.07 72.13 71.35 70.22 69.30 68.09 67.67 67.38 67.03 66.47 65.86 66.21 66.41 66.70 66.72 66.65 66.56 68.23 67.93 67.36 66.93 66.61 66.37 66.29
71.46 70.89 71.83 71.65 71.50 72.02 73.27 71.99 72.14 72.20 71.74 71.48 71.20 70.09 69.13 69.14 70.30 71.61 70.63 71.12 71.42 70.99 70.29 69.20 68.64 67.56 67.12 66.69 66.16 65.79 65.74 65.92 66.73 66.50 66.42 66.69 67.95 67.73 67.22 66.62 66.30 65.85 65.68
69.92 70.01 71.19 70.42 70.18 71.02 72.38 71.78 70.76 70.74 70.25 69.59 68.59 67.21 67.61 68.92 69.81 70.35 68.58 69.43 70.44 70.68 70.45 69.67 68.79 67.80 67.38 66.62 66.00 65.55 64.94 66.34 66.62 66.41 66.19 68.09 67.55 67.53 66.99 66.41 66.03 65.61 65.19
68.38 68.71 70.12 69.83 68.96 70.30 71.72 71.96 71.90 71.51 70.72 69.47 68.88 68.46 67.91 67.81 70.05 70.25 68.02 68.26 69.87 69.85 69.91 69.78 68.46 67.47 66.27 65.75 65.20 64.67 66.32 66.29 66.54 66.47 66.18 68.15 67.26 67.24 66.79 66.24 65.76 65.52 65.00
67.02 68.09 69.61 69.72 68.63 69.65 70.85 71.67 71.24 71.02 69.96 69.00 68.45 68.66 66.33 67.65 69.80 69.69 68.91 68.45 68.64 66.62 68.24 68.01 66.98 67.14 67.75 67.09 66.64 66.67 66.45 66.27 66.34 66.35 66.38 67.99 67.14 66.88 66.39 65.92 65.58 65.22 64.90
63.95 66.74 68.75 68.89 68.13 68.65 70.43 70.63 70.30 70.15 69.14 68.15 68.21 66.94 66.66 67.49 69.71 68.77 68.49 67.86 67.50 67.68 66.98 66.79 66.36 66.84 66.76 66.62 66.64 66.45 66.33 66.25 66.37 66.74 65.89 66.93 67.60 66.75 66.33 65.77 65.35 65.09 64.71
64.19 64.96 67.34 67.53 67.81 67.63 69.09 70.18 70.02 68.73 68.36 69.47 69.46 66.27 67.31 67.85 68.26 68.16 67.70 67.98 67.62 68.04 66.91 66.32 66.18 65.96 65.80 65.72 65.81 65.40 65.30 66.12 66.14 66.37 66.61 65.09 66.97 67.34 66.60 66.13 65.64 65.24 64.79
62.52 65.58 64.26 67.32 67.98 67.23 66.71 69.29 69.92 68.91 68.45 68.21 67.44 67.36 67.82 68.05 68.28 68.09 67.31 68.67 68.09 67.93 67.03 65.55 65.03 65.07 65.05 65.24 64.83 64.53 63.83 64.70 65.03 65.81 66.55 65.48 66.00 67.39 67.47 67.21 66.73 66.25 65.60
59.17 66.53 65.49 66.67 66.63 66.23 65.50 65.77 66.91 68.64 68.24 66.75 66.68 67.82 67.34 68.13 68.17 68.69 68.22 68.00 67.52 67.27 65.79 65.10 64.46 64.66 64.75 65.34 65.07 64.66 64.33 64.32 63.88 64.07 65.33 66.17 65.33 64.66 66.95 68.31 68.25 67.60 67.01
61.31 65.17 66.49 66.61 66.25 66.04 65.80 65.84 65.46 66.06 66.15 66.03 66.44 67.98 68.15 67.71 68.13 67.52 67.17 66.65 66.58 65.61 64.85 64.08 63.63 64.02 65.44 66.17 66.22 66.13 65.70 66.15 65.41 64.85 64.53 64.48 65.95 65.79 64.80 66.80 67.79 68.11 67.84
59.24 63.94 65.66 66.54 65.82 67.05 67.53 66.83 65.49 64.90 65.42 65.60 65.93 66.73 67.28 67.05 67.04 66.53 65.96 65.73 65.25 64.46 64.01 64.08 64.00 64.88 65.74 65.66 65.50 65.60 65.58 65.08 64.96 64.72 64.45 64.53 64.94 65.52 66.10 64.38 64.59 65.47 66.45
61.88 61.76 64.30 66.37 66.39 67.16 67.18 66.16 66.33 64.18 64.24 65.62 65.67 65.93 66.24 66.03 65.98 65.62 65.02 64.34 64.37 64.93 65.32 65.89 65.49 66.35 65.89 65.68 64.24 63.50 64.77 65.43 65.76 65.15 64.27 64.31 64.49 64.69 65.02 66.02 64.58 63.71 63.29
61.62 61.37 64.25 65.99 66.27 66.72 65.56 65.09 65.47 64.85 64.71 64.44 64.67 64.46 64.81 64.89 64.99 64.58 64.46 64.97 65.64 65.62 65.63 65.76 65.75 65.20 65.16 65.80 64.11 63.73 64.24 65.10 64.80 64.92 65.23 64.79 64.86 64.98 65.01 65.46 65.47 65.58 63.13
60.95 60.75 61.51 65.48 66.33 66.48 65.72 65.95 66.75 67.58 67.47 67.12 66.27 65.26 64.58 65.01 65.30 65.22 66.14 65.96 66.13 66.07 65.46 66.03 66.08 65.26 65.54 66.15 62.61 63.09 60.34 61.98 63.42 63.49 63.37 63.10 63.22 62.74 62.24 62.11 63.33 64.08 64.72
57.24 61.12 61.40 63.19 65.85 66.35 66.50 66.96 67.10 66.99 67.31 66.66 66.80 67.32 67.05 67.50 67.68 67.51 67.15 66.56 66.93 66.81 66.12 66.71 66.29 65.75 63.96 65.61 64.16 62.47 59.10 58.32 61.34 62.61 61.66 60.62 60.49 61.14 60.20 59.37 60.39 59.75 58.85
58.36 59.20 62.93 62.81 65.13 66.40 67.06 65.77 65.18 64.20 63.65 65.13 65.76 66.24 66.15 67.18 67.74 67.93 67.78 67.48 67.28 67.08 66.67 66.24 66.71 66.83 66.03 62.46 63.19 63.75 64.21 62.92 59.02 57.70 60.88 60.57 60.35 59.65 59.47 58.76 57.53 57.18 56.66
60.59 60.97 62.77 63.44 64.81 66.18 66.09 66.14 65.72 64.66 64.74 65.09 66.14 65.21 65.48 66.01 66.35 66.59 66.16 65.63 65.47 66.56 66.97 66.58 65.34 63.36 63.13 63.08 63.41 63.68 62.41 62.36 62.24 59.41 57.18 58.38 58.96 59.82 59.17 56.84 56.67 54.91 54.02
60.93 61.31 62.35 61.80 63.40 65.26 65.74 65.22 65.14 65.40 65.55 64.43 64.92 64.61 64.51 64.79 64.89 64.96 65.43 65.41 65.63 65.82 64.92 63.97 62.83 63.64 63.74 64.00 64.48 63.82 62.48 60.99 59.72 58.72 57.14 58.07 58.12 59.74 59.78 58.24 56.85 56.45 56.37

GFSSE_sfc_wetblb_120.txt.gz
Wetbulb
71.08 73.56 76.02 76.11 76.43 76.72 76.57 76.63 76.45 75.98 75.32 75.47 74.18 74.25 73.92 73.55 73.77 73.15 72.98 72.72 72.80 73.48 72.08 71.75 71.66 71.93 72.50 72.51 72.41 72.48 72.56 72.54 72.27 71.98 71.88 71.72 71.11 70.27 69.43 69.03 69.50 66.88 69.25
72.50 73.85 75.49 75.78 76.21 76.56 76.39 76.30 76.09 75.68 75.33 75.19 75.11 74.03 73.58 73.88 73.83 73.53 73.38 73.08 73.25 72.59 72.01 72.89 72.52 71.86 71.92 71.60 71.55 71.58 72.02 71.88 71.68 71.29 70.19 69.37 69.40 69.08 69.01 69.13 69.61 67.50 69.00
71.92 73.26 74.34 75.30 75.63 76.17 76.08 75.96 75.66 75.72 75.25 75.05 74.84 74.42 73.98 73.90 73.73 73.80 73.49 73.89 73.82 72.43 72.94 72.86 72.38 71.48 71.54 71.53 71.76 71.72 71.25 71.13 71.29 71.39 69.57 65.99 66.19 68.87 68.84 68.87 69.69 68.86 68.70
71.79 72.45 72.92 74.81 75.29 76.05 75.95 75.88 75.68 75.79 75.24 74.88 74.65 74.89 74.64 74.15 74.05 73.61 74.08 73.74 73.51 73.02 72.57 72.52 72.70 72.21 71.76 71.22 70.49 69.72 69.12 69.93 69.77 70.60 65.45 65.46 66.11 68.79 69.16 69.04 68.92 68.59 68.53
71.12 71.51 72.33 74.46 74.95 75.65 75.73 75.73 75.64 75.55 75.03 74.69 74.39 74.31 74.55 74.29 74.04 74.14 73.72 73.71 73.48 72.63 72.46 72.32 72.42 71.59 70.13 70.27 69.51 68.44 68.97 69.63 68.86 66.53 64.28 63.82 64.31 68.15 68.99 68.45 68.29 67.96 68.22
71.26 70.88 72.81 74.04 74.75 74.96 75.24 75.22 75.44 75.31 75.12 74.75 74.21 74.01 74.05 74.15 73.76 74.12 73.39 73.02 72.34 72.11 71.83 71.46 71.14 70.51 69.40 69.77 68.40 68.01 67.81 67.96 67.14 63.59 64.04 66.53 64.54 68.46 68.67 68.03 67.91 67.79 68.00
71.13 71.51 72.09 73.76 74.43 74.45 74.74 74.81 75.15 75.06 74.92 74.49 74.35 74.16 73.47 73.97 73.72 73.47 72.61 72.64 72.12 71.59 70.63 70.36 70.10 69.60 69.16 68.28 67.37 66.89 67.37 67.61 63.90 63.26 63.61 64.02 64.94 68.38 68.39 67.90 67.77 67.77 67.59
70.94 71.44 71.89 72.18 72.88 73.79 74.33 74.63 74.81 74.64 74.42 74.14 73.98 73.65 73.05 73.21 73.51 72.99 72.45 72.45 71.98 70.69 69.82 69.03 68.77 68.12 67.62 67.14 66.88 66.56 66.97 66.63 64.87 64.06 63.85 64.22 68.07 68.08 67.91 67.51 67.18 67.25 66.91
71.41 71.29 71.37 71.50 71.78 72.33 73.01 73.51 73.96 73.98 73.66 73.41 73.08 72.49 71.98 71.90 72.71 72.77 72.24 71.82 71.43 70.35 69.55 68.98 68.00 67.72 67.39 66.81 66.42 66.37 65.98 66.84 63.15 64.34 65.23 64.28 68.36 67.90 67.60 67.06 66.74 66.66 66.35
70.88 71.17 70.66 70.95 70.98 71.00 71.98 71.91 72.52 72.61 72.35 72.28 71.58 70.48 69.64 69.91 70.68 71.45 70.81 70.81 70.86 69.93 69.39 69.02 68.28 67.55 67.11 66.51 66.17 66.66 65.39 65.20 62.66 63.80 64.23 65.31 68.06 67.77 67.33 66.86 66.44 66.25 65.99
69.03 69.98 70.56 70.57 70.23 70.27 70.99 71.63 71.20 70.79 70.44 70.00 69.05 67.65 67.87 69.40 69.47 68.97 68.43 69.29 69.99 69.60 69.33 68.97 68.16 67.37 67.06 65.94 65.92 65.73 64.77 62.19 62.58 63.74 64.15 67.98 68.01 67.65 67.15 66.63 66.12 65.80 65.53
66.43 67.98 69.75 70.05 69.25 69.26 70.92 70.90 70.84 70.50 69.68 68.95 68.05 68.22 67.63 67.55 68.45 68.46 67.21 68.20 69.76 69.25 68.85 68.79 67.87 67.11 64.88 61.75 61.15 63.90 61.85 62.07 62.83 63.53 64.31 67.83 67.51 67.57 67.06 66.30 65.93 65.43 65.18
65.68 67.76 69.09 69.47 68.79 68.36 69.49 70.43 69.92 69.58 68.98 67.77 67.64 67.20 65.32 67.17 67.76 67.68 67.29 67.43 67.32 66.42 67.29 66.78 65.75 63.75 62.70 61.87 61.75 61.98 61.51 62.04 62.33 63.28 65.53 67.50 67.56 67.21 66.77 66.28 65.88 65.47 65.09
59.23 59.83 67.87 68.48 68.95 68.28 69.77 69.82 69.13 68.90 68.31 67.36 67.25 66.45 64.09 66.16 67.71 66.56 65.91 65.55 65.30 65.43 65.11 63.67 62.93 63.33 63.28 62.91 62.23 61.82 61.72 61.83 62.54 63.83 64.50 66.18 67.67 67.01 66.60 66.20 65.80 65.38 65.02
58.37 59.12 64.48 66.57 66.08 66.82 68.85 69.18 69.14 68.45 67.90 67.31 67.28 65.54 64.63 66.34 66.82 66.60 65.34 64.74 63.95 63.85 63.65 62.73 62.33 62.21 61.62 61.38 61.58 61.57 61.96 61.99 62.08 63.64 63.64 64.40 66.56 67.46 66.69 66.27 65.88 65.45 65.02
59.20 59.31 58.67 65.49 64.83 64.43 68.10 68.49 68.60 68.28 67.77 67.21 67.34 63.21 63.72 66.90 66.75 66.54 65.22 64.37 63.46 64.30 63.17 62.43 61.40 61.47 60.86 60.79 60.73 60.91 60.07 60.86 61.66 62.39 63.16 63.70 65.66 67.07 67.57 66.95 66.64 66.21 65.72
59.94 59.66 59.89 61.99 64.29 64.33 66.12 68.18 67.76 67.96 67.81 66.99 67.09 65.07 64.91 65.13 66.33 65.41 65.72 65.35 64.72 64.89 62.23 61.04 60.24 60.21 59.78 61.25 60.40 59.83 59.41 59.05 59.73 60.62 62.45 62.69 64.39 64.74 67.14 67.79 67.83 67.39 67.09
60.37 59.27 59.66 64.36 62.58 62.38 62.58 67.60 67.49 67.01 66.77 65.69 65.49 65.27 64.74 65.25 66.71 65.34 65.38 66.06 65.03 62.40 61.23 60.09 59.14 58.92 60.48 61.67 61.85 61.46 61.52 62.04 61.00 59.40 60.16 61.20 63.08 63.82 64.76 67.19 68.14 68.11 68.18
59.80 59.96 58.41 63.61 63.03 63.43 64.22 63.25 65.75 66.80 64.69 64.46 65.39 64.98 64.91 65.54 65.16 66.12 65.34 63.86 62.38 61.04 60.27 59.70 58.75 59.68 61.17 61.87 61.98 61.61 61.55 60.43 60.74 62.03 60.02 59.97 60.68 61.48 62.22 63.73 64.62 65.61 66.57
59.73 60.17 59.30 60.17 64.55 64.21 63.36 62.42 62.30 62.06 63.42 63.44 63.80 65.35 65.46 65.81 64.22 62.79 62.24 61.53 61.12 60.43 60.54 61.00 60.31 61.78 62.40 62.11 62.83 61.23 60.57 61.02 61.14 60.28 60.11 61.02 60.30 60.90 61.07 63.15 63.01 62.71 63.56
60.55 60.14 59.22 61.91 62.89 64.12 63.57 61.84 60.28 60.18 61.95 61.71 62.61 64.80 64.88 64.53 63.67 61.98 61.08 61.11 61.04 61.75 61.73 62.09 62.14 61.68 61.68 61.90 60.48 59.59 59.98 60.80 60.51 60.63 61.03 60.88 61.20 61.80 61.78 62.62 63.50 62.90 62.30
59.44 60.44 59.52 59.65 63.40 64.27 64.23 63.11 61.52 60.77 61.18 62.16 62.87 63.58 63.29 63.42 62.67 61.02 60.89 61.22 62.35 62.35 62.34 62.05 62.32 61.74 62.08 62.37 59.31 58.31 56.70 58.27 59.45 59.72 60.02 59.74 59.28 60.03 59.92 60.22 60.83 61.97 61.81
58.89 59.52 59.53 60.05 64.20 65.24 64.57 63.98 63.30 62.73 61.47 60.92 60.63 61.74 61.36 61.76 61.95 61.98 62.87 63.15 62.83 63.19 62.24 62.65 63.08 62.48 60.81 61.56 61.05 59.21 55.16 53.88 57.93 58.55 58.06 57.79 57.48 57.92 57.35 57.36 59.29 58.99 58.21
57.81 59.58 60.18 60.72 62.57 64.99 64.88 64.04 63.83 62.30 60.47 61.71 61.76 61.38 61.56 63.18 63.27 64.69 64.62 63.85 63.91 64.20 63.40 63.35 63.97 63.03 62.37 60.14 61.42 61.81 60.69 59.49 55.35 54.76 56.83 56.11 56.77 56.79 56.07 55.79 55.67 56.95 56.57
57.47 58.77 60.18 60.53 60.91 61.94 64.57 64.77 63.96 63.07 63.66 64.40 64.20 63.91 63.54 64.46 65.31 65.15 64.99 64.50 64.52 64.19 64.05 63.57 61.85 61.50 61.44 61.07 60.63 60.81 59.31 59.06 59.77 56.47 53.61 54.02 55.62 56.21 56.02 55.00 54.16 53.68 53.04
58.08 58.21 60.32 60.39 59.90 61.03 63.60 64.75 63.30 63.01 62.27 62.78 63.00 62.37 62.60 63.68 64.02 63.95 63.83 64.03 64.04 63.58 62.89 62.09 62.14 62.02 61.67 61.78 61.81 60.66 59.38 57.32 57.52 56.72 55.58 54.51 53.92 55.40 55.94 55.28 53.89 53.08 53.00

GFSSE_sfc_wetblb_123.txt.gz
Wetbulb
71.38 73.98 76.09 76.58 76.95 76.84 76.72 76.63 75.92 74.90 74.44 74.68 74.31 74.14 73.78 73.53 73.10 72.29 71.89 72.05 72.41 73.10 72.53 72.05 73.02 72.94 73.04 72.92 72.76 72.63 72.62 72.19 71.48 70.78 70.90 70.40 69.70 69.36 69.26 69.04 68.97 66.67 69.04
72.46 74.24 75.69 76.44 76.84 76.64 76.48 76.39 75.66 75.11 74.83 74.81 75.05 74.06 73.86 73.57 73.52 73.11 73.01 72.77 72.81 71.88 71.58 72.26 72.90 72.55 72.33 72.22 72.34 72.23 71.94 71.27 70.17 69.66 68.86 68.68 68.86 69.26 69.23 69.34 69.73 67.46 68.94
72.50 74.11 74.63 76.08 76.32 76.24 76.21 75.97 75.54 75.33 75.23 74.90 75.10 74.00 74.17 74.20 73.90 73.32 73.40 73.70 72.77 72.98 73.08 71.67 72.10 71.81 71.81 72.36 72.17 72.05 72.04 71.44 70.59 69.32 68.29 64.90 66.10 68.94 69.12 69.55 69.09 68.95 68.84
72.75 73.58 73.95 75.63 76.04 76.14 75.97 75.76 75.47 75.46 75.38 75.06 74.76 74.79 74.66 74.40 74.13 73.79 73.67 73.73 73.30 73.01 73.29 72.75 72.00 71.63 71.60 70.99 70.78 70.00 69.48 70.81 69.32 67.76 64.47 64.93 66.47 69.62 69.44 68.75 68.74 68.53 68.22
72.07 72.92 73.64 75.09 75.83 75.95 75.47 75.59 75.28 75.25 75.11 74.87 74.81 74.69 74.46 74.36 74.23 74.01 74.06 73.85 73.15 72.88 72.43 72.42 71.63 71.09 70.71 70.15 70.39 69.71 70.34 69.63 68.11 65.59 63.30 63.57 64.37 67.86 68.96 68.37 68.25 68.05 68.09
70.94 71.97 73.70 74.66 75.38 75.30 75.15 75.14 75.44 75.12 75.13 74.78 74.29 74.34 74.24 74.04 73.84 74.19 73.87 73.09 72.62 72.56 72.64 71.79 70.73 70.29 69.84 69.50 69.38 68.53 68.53 68.44 66.14 63.21 63.67 65.61 64.03 68.57 68.64 68.35 68.20 67.79 67.85
69.62 71.73 72.91 74.37 74.97 75.13 75.09 75.11 75.09 74.96 74.84 74.63 74.21 74.30 74.30 74.19 73.46 73.53 73.00 72.48 72.27 72.03 71.48 70.60 69.33 69.89 69.28 68.89 68.11 67.96 69.22 66.99 63.38 62.56 62.89 63.41 64.84 68.59 68.47 68.41 67.97 67.47 67.51
69.29 71.16 72.23 72.88 73.72 74.30 74.65 74.57 74.57 74.46 74.46 74.30 73.89 74.21 73.80 73.55 73.51 72.85 72.45 71.96 71.74 71.03 70.53 69.59 69.59 69.01 67.78 67.86 67.57 67.56 67.93 66.43 64.16 62.90 63.36 63.92 68.05 68.29 68.06 67.92 67.25 67.20 67.06
70.02 70.44 71.11 71.96 72.35 72.62 73.17 73.41 73.68 73.85 73.71 73.64 73.28 73.18 72.39 72.47 72.59 72.47 72.20 71.71 71.13 70.14 69.87 69.20 68.13 67.51 67.44 67.43 67.04 66.98 67.28 65.77 62.88 63.42 64.58 64.06 68.41 67.99 67.67 67.21 66.90 66.80 66.86
69.58 69.80 69.94 70.04 70.96 71.65 72.27 72.07 72.55 72.82 72.49 72.52 71.87 70.96 69.66 69.88 70.72 71.36 70.51 70.40 70.24 69.65 69.32 68.99 68.00 67.42 67.27 67.22 66.49 66.11 65.63 65.29 62.53 63.36 63.87 65.20 67.99 67.86 67.38 66.90 66.68 66.38 66.26
68.09 68.96 69.34 69.73 70.41 71.11 71.33 71.43 71.30 71.08 70.84 70.58 69.45 67.98 68.20 70.02 69.95 69.30 68.37 68.59 69.07 69.21 69.14 68.71 67.71 67.25 66.70 65.60 65.46 64.89 63.73 61.50 62.75 63.20 64.04 68.19 68.03 67.74 67.26 66.56 66.28 65.97 65.64
64.52 66.61 68.55 68.45 69.44 70.02 71.15 70.87 71.13 71.16 70.70 69.91 68.98 69.12 69.28 68.81 68.52 68.92 67.19 67.72 68.80 68.49 68.35 68.28 67.57 66.77 63.85 60.58 60.41 63.57 61.04 61.08 62.70 62.97 64.15 68.19 67.76 67.75 67.15 66.33 65.89 65.60 65.18
61.06 63.56 64.52 67.81 68.50 68.89 69.66 70.38 70.75 69.98 69.06 68.42 68.14 68.44 68.23 67.91 67.26 67.72 67.52 67.37 66.50 65.34 65.81 66.04 65.08 62.39 59.61 59.69 60.22 60.23 60.92 61.25 61.99 63.13 65.46 67.63 67.75 67.57 67.01 66.38 65.94 65.44 65.07
58.74 59.95 60.96 62.86 68.23 67.15 69.03 69.78 69.56 69.01 68.00 67.11 67.29 67.29 67.53 66.96 66.40 66.40 66.18 65.97 65.92 65.17 64.01 62.76 61.98 61.67 61.80 61.38 60.03 60.39 59.74 60.97 61.96 63.06 64.22 66.10 67.79 67.17 66.82 66.40 65.87 65.45 65.02
56.65 59.21 60.09 61.20 65.88 66.82 68.52 69.12 68.86 68.25 67.28 66.97 66.36 66.03 66.99 66.85 65.82 65.62 65.20 65.20 64.12 63.61 63.51 61.94 61.44 61.79 61.59 60.86 60.54 60.61 60.56 60.83 62.02 63.10 63.06 64.10 66.51 67.43 66.74 66.36 66.04 65.54 65.12
58.02 57.67 59.81 60.68 61.34 65.71 67.66 68.71 68.30 68.19 67.71 66.66 66.39 64.97 66.24 67.30 65.54 64.65 64.43 63.94 63.17 62.70 63.09 61.74 61.04 60.42 60.21 59.59 59.56 59.52 58.74 60.41 61.56 62.07 62.65 63.35 65.51 66.86 67.42 67.01 66.70 66.25 65.74
57.76 57.41 58.71 59.49 62.62 63.64 63.79 64.15 66.24 68.14 67.81 66.52 66.41 64.14 65.32 67.02 65.45 64.43 64.01 63.23 63.15 63.08 62.06 61.00 60.00 59.93 58.95 59.95 58.67 58.60 57.97 58.43 59.04 61.70 62.19 62.56 64.09 64.48 66.94 67.67 67.60 67.39 67.11
58.36 57.68 58.86 60.42 59.90 63.52 63.15 63.41 63.23 67.81 67.12 66.82 66.32 63.79 65.44 66.66 65.74 64.76 64.26 63.73 63.66 63.47 60.54 59.17 58.46 57.80 58.43 59.94 60.28 59.01 59.24 58.94 58.15 57.97 61.33 61.92 62.79 63.96 64.90 67.30 68.41 68.56 68.10
57.57 58.19 57.87 59.53 60.14 63.06 63.19 62.81 61.48 67.20 66.81 66.81 65.76 64.03 65.49 66.26 65.23 64.68 64.30 64.15 63.07 62.19 59.44 58.79 57.49 58.50 59.46 60.33 61.19 60.60 60.24 59.92 60.17 60.75 58.50 59.47 61.52 61.91 61.85 63.42 64.65 65.66 66.89
54.57 57.74 58.14 58.77 59.20 62.44 63.09 62.64 62.89 64.91 65.86 65.94 65.13 65.21 65.15 65.96 65.38 64.47 63.96 64.08 62.35 59.83 58.46 57.87 57.67 59.05 60.92 61.12 61.90 60.52 60.04 60.05 60.17 59.68 59.24 60.06 59.13 59.80 60.60 61.35 61.72 62.10 63.13
57.05 57.76 58.09 59.33 58.70 61.90 62.08 61.83 63.24 64.30 62.50 64.06 64.15 64.47 64.38 64.90 65.64 64.38 63.76 62.86 61.17 59.64 59.35 59.15 59.62 60.51 60.83 60.99 59.67 59.13 58.95 59.65 59.22 59.47 59.99 59.80 60.31 60.62 61.02 61.91 61.96 61.00 61.13
56.16 57.48 58.43 59.02 60.88 62.80 62.95 62.33 63.53 64.24 62.31 63.54 64.06 63.81 64.22 64.16 63.43 63.89 62.58 61.32 60.86 60.42 60.57 60.65 61.16 60.43 61.19 61.16 58.77 57.37 55.90 57.67 58.26 58.88 59.04 58.93 58.23 59.23 59.17 59.14 59.90 61.01 60.02
55.04 57.75 58.35 59.01 60.70 62.43 63.38 62.28 61.97 62.47 61.79 61.29 62.75 62.64 63.09 63.68 62.50 61.82 61.09 61.09 61.55 61.94 61.40 60.78 61.60 61.56 60.17 60.81 59.98 58.00 54.32 53.16 56.12 57.51 57.10 57.04 56.72 56.84 56.41 56.40 57.54 57.30 57.11
54.47 57.41 59.41 59.72 59.85 60.97 64.01 61.18 59.93 59.56 58.77 60.45 61.63 62.21 61.84 63.22 61.67 61.69 61.68 61.68 62.16 62.31 61.87 62.24 62.98 62.28 61.51 60.15 61.02 61.08 60.00 57.91 53.56 53.53 55.66 55.34 55.82 55.69 54.97 55.00 54.88 55.43 55.06
55.31 58.20 59.86 59.59 59.07 61.49 63.27 62.03 60.19 59.53 60.40 60.93 61.36 60.89 60.90 61.85 61.85 62.65 62.38 62.08 62.92 63.34 63.03 63.29 62.12 61.74 61.11 59.95 60.09 59.64 58.52 57.50 57.91 54.45 51.11 53.10 54.57 54.80 55.11 54.70 54.05 53.09 52.63
55.10 57.80 59.51 59.43 58.52 59.02 59.92 62.55 60.97 59.56 59.68 59.53 59.79 59.78 60.59 61.22 61.51 63.49 63.50 63.51 63.75 63.75 63.35 62.66 61.81 61.63 61.03 61.19 60.88 60.67 58.48 56.83 56.10 55.31 55.52 54.45 52.98 54.43 55.12 54.41 53.04 52.01 51.74

GFSSE_sfc_wetblb_126.txt.gz
Wetbulb
70.84 73.99 76.11 76.65 76.81 76.40 76.35 75.73 74.99 74.90 74.85 74.86 74.08 73.93 72.77 71.79 71.52 72.29 72.47 72.75 73.07 73.22 72.54 73.18 73.22 73.26 73.32 73.01 72.70 72.47 71.97 71.36 70.96 69.93 70.07 69.94 69.39 69.38 69.23 68.69 68.51 66.17 68.78
71.80 74.02 75.73 76.41 76.73 76.35 76.22 75.66 74.65 74.47 74.70 74.93 74.45 73.89 73.49 72.64 72.10 72.05 72.26 72.29 72.67 72.02 72.99 73.12 73.08 73.15 72.85 72.30 72.24 71.65 70.67 69.76 69.02 69.10 69.10 68.76 69.15 69.18 69.30 69.10 69.51 67.33 68.85
72.21 73.81 74.86 76.17 76.28 76.20 76.16 75.52 74.89 74.64 74.85 74.94 74.84 73.91 73.74 73.50 73.10 72.95 72.76 72.23 71.71 72.16 73.03 72.90 72.56 71.83 71.96 72.10 72.00 71.00 70.09 68.93 68.69 68.43 67.97 64.71 65.94 69.11 69.01 68.89 69.19 68.45 68.44
72.90 73.52 74.20 75.87 76.07 76.07 76.03 75.42 75.20 75.05 74.98 75.00 74.70 74.97 74.65 73.91 73.44 73.38 72.78 72.82 73.07 72.97 72.64 71.98 71.75 72.04 71.71 71.15 70.62 70.98 69.88 68.63 68.06 66.97 64.04 64.63 66.53 68.63 68.64 68.51 68.49 68.21 69.04
72.47 73.06 74.09 75.60 75.86 75.88 75.66 75.30 75.30 75.17 75.02 74.86 74.72 74.65 74.61 74.49 73.89 73.59 73.32 73.13 73.04 72.60 72.72 72.05 71.55 71.12 70.40 71.03 71.25 71.51 68.94 68.18 67.42 65.21 63.37 63.35 64.02 67.27 68.85 68.39 68.07 67.81 68.11
71.85 72.38 74.24 75.34 75.71 75.51 75.31 75.04 75.16 75.21 75.19 74.74 74.54 74.10 74.12 74.01 74.41 73.79 73.13 72.77 72.34 72.32 72.15 71.12 71.11 70.16 69.85 70.39 69.95 69.42 68.61 67.68 65.64 63.03 63.31 65.58 63.70 68.22 68.40 67.98 67.66 67.35 68.22
70.87 72.24 73.66 75.05 75.56 75.35 75.36 75.04 74.92 74.92 75.01 74.63 74.34 74.19 73.95 73.77 73.77 73.40 72.69 72.48 72.26 71.89 71.04 70.45 70.33 69.14 68.96 69.45 69.39 68.84 67.92 66.43 62.66 62.14 62.48 63.17 64.49 68.61 68.27 67.87 67.65 67.51 67.21
70.27 72.01 72.86 73.50 74.39 74.85 74.94 74.85 74.61 74.62 74.64 74.44 74.07 73.99 73.90 73.37 73.31 73.04 72.67 72.28 71.82 71.22 70.59 69.44 69.75 68.47 68.51 68.50 69.35 68.40 67.54 65.98 63.52 62.58 62.96 63.59 68.02 68.24 68.03 67.45 67.40 66.84 66.69
70.47 71.20 71.92 72.72 73.25 73.22 73.75 73.99 74.11 74.03 73.78 73.73 73.59 73.00 72.86 72.23 72.62 72.33 72.21 71.98 71.67 70.92 70.00 69.52 68.97 67.83 68.24 67.92 68.73 68.10 66.86 65.56 62.42 62.94 64.04 63.78 68.31 67.84 67.63 67.01 67.11 66.79 66.39
68.72 69.79 70.71 71.22 72.35 72.78 72.97 72.46 72.69 72.74 72.54 72.77 72.25 71.28 70.14 69.96 70.77 71.35 70.27 70.50 70.76 70.36 69.79 68.98 68.00 67.81 68.18 68.01 68.15 67.51 66.21 64.99 62.20 63.01 63.51 64.83 67.92 67.66 67.31 66.78 66.59 66.37 65.97
67.36 67.64 68.10 69.23 70.15 71.26 71.63 71.48 71.49 71.28 70.90 70.53 69.93 68.32 68.16 70.11 69.98 69.15 68.11 68.59 69.08 69.27 69.02 68.29 68.01 67.93 67.00 65.90 66.34 65.47 63.83 62.01 61.94 62.94 63.77 67.90 67.99 67.61 67.04 66.57 66.19 65.91 65.64
60.61 65.37 67.24 68.30 69.40 69.96 71.52 71.08 71.59 71.48 71.16 70.19 69.24 69.04 69.27 69.23 68.91 68.37 66.50 67.37 68.59 68.37 68.27 68.28 67.68 66.76 63.78 60.33 60.90 63.00 60.78 61.28 62.03 62.75 64.09 68.05 67.70 67.70 67.06 66.31 65.81 65.52 65.12
59.87 62.50 62.93 66.03 68.10 69.18 69.45 70.50 70.89 70.64 70.14 68.83 68.07 68.86 68.88 68.41 67.87 67.21 66.32 66.33 65.61 64.70 65.22 65.55 64.34 60.73 58.65 58.67 59.30 59.76 59.94 60.53 61.62 62.86 65.22 67.74 67.86 67.54 67.04 66.37 65.77 65.34 64.86
57.16 60.02 62.06 62.91 66.44 67.26 69.04 69.94 70.01 69.92 69.44 68.07 68.30 68.33 68.04 67.36 67.48 66.87 66.02 64.53 63.93 63.38 62.74 61.65 60.29 59.72 58.83 59.17 59.09 59.70 59.79 60.74 61.53 62.67 64.03 66.18 67.88 67.35 67.10 66.47 66.00 65.52 65.02
55.50 58.18 59.42 61.62 63.36 66.36 67.31 68.77 68.69 68.55 68.39 67.75 67.73 67.83 67.55 66.84 66.30 66.04 65.33 64.45 63.87 62.68 61.79 60.45 60.13 60.49 60.49 60.88 60.44 58.96 59.87 60.65 61.68 62.61 62.57 64.04 66.55 67.54 66.97 66.80 66.31 65.79 65.27
56.34 57.04 58.66 59.60 61.56 65.20 66.80 67.52 68.04 68.53 67.88 67.24 66.72 67.07 67.46 66.80 65.96 65.34 64.64 63.90 63.46 63.36 62.28 61.03 60.31 60.46 60.50 59.08 58.79 59.24 59.70 60.81 61.35 62.00 62.34 63.03 65.41 66.87 67.46 67.03 66.87 66.43 65.84
56.72 56.26 57.44 58.42 61.15 63.50 64.31 66.48 68.12 68.43 67.54 66.89 65.81 66.16 67.34 66.83 65.84 64.97 64.19 63.68 63.52 63.28 62.12 60.92 60.37 59.63 58.19 58.33 57.83 57.92 58.76 59.92 60.94 61.37 62.01 62.29 63.78 64.28 66.74 67.51 67.54 67.30 66.98
56.04 56.05 56.70 59.82 59.73 60.08 63.02 64.58 65.31 67.72 67.25 66.64 65.91 64.54 66.79 66.71 65.57 64.62 63.92 63.43 63.39 62.83 61.39 60.49 58.86 57.86 57.40 58.41 57.48 56.72 56.41 56.77 58.57 60.60 61.26 61.81 62.65 63.58 64.61 67.11 67.86 68.23 68.15
54.82 56.92 56.01 57.71 57.16 59.08 62.49 63.72 64.16 64.11 67.14 66.78 66.37 63.78 66.08 66.62 65.03 64.30 63.81 63.31 62.92 62.65 61.08 60.12 56.93 57.39 57.61 58.78 60.10 59.13 59.17 58.72 58.94 59.00 59.25 60.76 61.27 62.16 62.11 63.40 64.51 65.45 66.35
51.90 56.73 57.20 57.14 57.28 59.33 62.08 62.09 62.14 62.51 62.92 66.91 66.49 63.64 65.84 66.44 65.04 63.94 63.52 63.04 63.11 61.96 59.33 57.40 56.95 58.18 59.32 60.03 60.65 59.76 58.96 58.86 58.96 58.78 58.03 58.56 59.06 61.11 60.66 60.68 60.55 61.32 62.77
50.16 54.21 56.70 56.68 56.79 58.82 60.30 61.30 60.86 59.82 60.94 63.87 66.12 64.13 65.10 66.36 64.94 63.90 63.50 63.29 63.07 60.39 60.02 58.30 57.29 59.08 59.50 60.16 58.53 57.85 58.17 58.85 58.36 58.85 59.54 59.35 59.79 60.14 60.40 60.64 60.81 59.87 60.68
49.35 52.48 55.79 56.78 57.07 57.75 59.04 60.99 61.85 61.37 61.03 65.17 65.52 64.68 64.80 65.78 64.79 63.85 63.17 62.80 61.85 60.06 58.49 58.16 59.45 59.34 60.07 60.17 58.05 57.02 55.31 56.88 57.78 58.75 58.54 58.68 57.70 58.57 58.11 57.98 59.08 59.51 58.42
51.59 54.17 55.52 56.71 57.77 58.07 59.45 61.12 62.18 62.86 63.36 61.87 63.64 63.80 64.61 65.50 64.71 63.97 63.30 62.72 60.88 60.53 59.37 59.34 60.31 60.59 59.55 59.77 59.68 57.40 53.33 52.78 55.89 57.39 56.85 56.15 55.83 55.95 55.52 55.79 56.47 56.59 56.21
50.91 54.93 56.20 57.01 58.12 58.97 61.32 61.16 61.04 60.82 60.29 62.04 62.41 63.56 63.87 64.59 64.36 63.88 62.86 61.83 60.85 60.96 60.00 60.39 61.57 61.49 60.89 59.31 59.60 60.51 58.66 57.38 54.05 53.99 55.34 54.91 55.13 55.12 54.06 54.46 54.39 54.69 54.29
51.76 53.83 55.77 56.45 57.07 58.47 61.63 61.82 61.19 60.59 61.27 62.79 62.82 62.49 62.83 62.79 62.81 61.87 61.54 61.27 61.12 61.44 61.39 61.69 61.81 61.97 61.14 60.22 59.24 58.92 57.71 57.37 57.04 54.11 50.59 52.58 53.68 54.03 54.21 53.94 53.24 52.42 51.95
51.83 53.37 54.34 54.95 56.62 58.28 57.96 61.51 60.49 61.29 60.63 61.28 61.59 61.02 61.70 61.84 61.24 61.40 61.54 61.76 61.84 61.93 62.01 62.47 62.50 61.81 60.98 60.32 60.45 59.84 58.08 56.87 55.81 54.86 52.47 53.14 51.95 53.37 53.53 52.86 51.79 51.03 50.90